<?xml version="1.0" encoding="UTF-8" standalone="no" ?>
<gpx xmlns="http://www.topografix.com/GPX/1/1" creator="www.cicloide.com" version="1.1" xmlns:xsi="http://www.w3.org/2001/XMLSchema-instance" xsi:schemaLocation="http://www.topografix.com/GPX/1/1 http://www.topografix.com/GPX/1/1/gpx.xsd">
  <trk>
    <name>www.cicloide.com 8798</name>
    <desc>www.cicloide.com 8798</desc>
    <trkseg>
      <trkpt lat="42.459490000" lon="-2.464014000">
        <ele>403.30</ele>
        <time>2012-05-05T08:29:03Z</time>
      </trkpt>
      <trkpt lat="42.459548000" lon="-2.464056000">
        <ele>403.20</ele>
        <time>2012-05-05T08:29:03Z</time>
      </trkpt>
      <trkpt lat="42.459536000" lon="-2.464049000">
        <ele>403.10</ele>
        <time>2012-05-05T08:29:05Z</time>
      </trkpt>
      <trkpt lat="42.459470000" lon="-2.464019000">
        <ele>403.30</ele>
        <time>2012-05-05T08:29:07Z</time>
      </trkpt>
      <trkpt lat="42.459431000" lon="-2.464011000">
        <ele>403.40</ele>
        <time>2012-05-05T08:29:07Z</time>
      </trkpt>
      <trkpt lat="42.459388000" lon="-2.464016000">
        <ele>403.50</ele>
        <time>2012-05-05T08:29:08Z</time>
      </trkpt>
      <trkpt lat="42.459318000" lon="-2.464058000">
        <ele>403.70</ele>
        <time>2012-05-05T08:29:10Z</time>
      </trkpt>
      <trkpt lat="42.459298000" lon="-2.464078000">
        <ele>403.70</ele>
        <time>2012-05-05T08:29:12Z</time>
      </trkpt>
      <trkpt lat="42.459276000" lon="-2.464118000">
        <ele>403.70</ele>
        <time>2012-05-05T08:29:14Z</time>
      </trkpt>
      <trkpt lat="42.459273000" lon="-2.464143000">
        <ele>403.70</ele>
        <time>2012-05-05T08:29:14Z</time>
      </trkpt>
      <trkpt lat="42.459291000" lon="-2.464306000">
        <ele>403.20</ele>
        <time>2012-05-05T08:29:19Z</time>
      </trkpt>
      <trkpt lat="42.459323000" lon="-2.464424000">
        <ele>402.70</ele>
        <time>2012-05-05T08:29:22Z</time>
      </trkpt>
      <trkpt lat="42.459330000" lon="-2.464543000">
        <ele>402.20</ele>
        <time>2012-05-05T08:29:26Z</time>
      </trkpt>
      <trkpt lat="42.459321000" lon="-2.464618000">
        <ele>402.00</ele>
        <time>2012-05-05T08:29:28Z</time>
      </trkpt>
      <trkpt lat="42.459315000" lon="-2.464776000">
        <ele>401.90</ele>
        <time>2012-05-05T08:29:33Z</time>
      </trkpt>
      <trkpt lat="42.459310000" lon="-2.464806000">
        <ele>401.90</ele>
        <time>2012-05-05T08:29:33Z</time>
      </trkpt>
      <trkpt lat="42.459268000" lon="-2.464899000">
        <ele>402.00</ele>
        <time>2012-05-05T08:29:36Z</time>
      </trkpt>
      <trkpt lat="42.459260000" lon="-2.464929000">
        <ele>402.10</ele>
        <time>2012-05-05T08:29:38Z</time>
      </trkpt>
      <trkpt lat="42.459256000" lon="-2.464958000">
        <ele>402.10</ele>
        <time>2012-05-05T08:29:38Z</time>
      </trkpt>
      <trkpt lat="42.459225000" lon="-2.465086000">
        <ele>402.20</ele>
        <time>2012-05-05T08:29:43Z</time>
      </trkpt>
      <trkpt lat="42.459213000" lon="-2.465104000">
        <ele>402.20</ele>
        <time>2012-05-05T08:29:45Z</time>
      </trkpt>
      <trkpt lat="42.459206000" lon="-2.465123000">
        <ele>402.30</ele>
        <time>2012-05-05T08:29:45Z</time>
      </trkpt>
      <trkpt lat="42.459195000" lon="-2.465136000">
        <ele>402.30</ele>
        <time>2012-05-05T08:29:47Z</time>
      </trkpt>
      <trkpt lat="42.459185000" lon="-2.465138000">
        <ele>402.30</ele>
        <time>2012-05-05T08:29:47Z</time>
      </trkpt>
      <trkpt lat="42.459178000" lon="-2.465141000">
        <ele>402.40</ele>
        <time>2012-05-05T08:29:48Z</time>
      </trkpt>
      <trkpt lat="42.459173000" lon="-2.465144000">
        <ele>402.40</ele>
        <time>2012-05-05T08:29:50Z</time>
      </trkpt>
      <trkpt lat="42.459166000" lon="-2.465144000">
        <ele>402.40</ele>
        <time>2012-05-05T08:29:50Z</time>
      </trkpt>
      <trkpt lat="42.459161000" lon="-2.465148000">
        <ele>402.40</ele>
        <time>2012-05-05T08:29:52Z</time>
      </trkpt>
      <trkpt lat="42.459156000" lon="-2.465149000">
        <ele>402.50</ele>
        <time>2012-05-05T08:29:52Z</time>
      </trkpt>
      <trkpt lat="42.459151000" lon="-2.465149000">
        <ele>402.50</ele>
        <time>2012-05-05T08:29:54Z</time>
      </trkpt>
      <trkpt lat="42.459135000" lon="-2.465154000">
        <ele>402.50</ele>
        <time>2012-05-05T08:29:57Z</time>
      </trkpt>
      <trkpt lat="42.459066000" lon="-2.465201000">
        <ele>402.80</ele>
        <time>2012-05-05T08:30:13Z</time>
      </trkpt>
      <trkpt lat="42.459053000" lon="-2.465214000">
        <ele>402.80</ele>
        <time>2012-05-05T08:30:18Z</time>
      </trkpt>
      <trkpt lat="42.459051000" lon="-2.465216000">
        <ele>402.90</ele>
        <time>2012-05-05T08:30:20Z</time>
      </trkpt>
      <trkpt lat="42.459045000" lon="-2.465223000">
        <ele>402.90</ele>
        <time>2012-05-05T08:30:23Z</time>
      </trkpt>
      <trkpt lat="42.459033000" lon="-2.465228000">
        <ele>402.90</ele>
        <time>2012-05-05T08:30:30Z</time>
      </trkpt>
      <trkpt lat="42.459026000" lon="-2.465229000">
        <ele>402.90</ele>
        <time>2012-05-05T08:30:32Z</time>
      </trkpt>
      <trkpt lat="42.459021000" lon="-2.465231000">
        <ele>403.00</ele>
        <time>2012-05-05T08:30:34Z</time>
      </trkpt>
      <trkpt lat="42.459010000" lon="-2.465231000">
        <ele>403.00</ele>
        <time>2012-05-05T08:30:39Z</time>
      </trkpt>
      <trkpt lat="42.459008000" lon="-2.465229000">
        <ele>403.00</ele>
        <time>2012-05-05T08:30:41Z</time>
      </trkpt>
      <trkpt lat="42.459003000" lon="-2.465229000">
        <ele>403.00</ele>
        <time>2012-05-05T08:30:42Z</time>
      </trkpt>
      <trkpt lat="42.459001000" lon="-2.465231000">
        <ele>403.00</ele>
        <time>2012-05-05T08:30:44Z</time>
      </trkpt>
      <trkpt lat="42.459000000" lon="-2.465231000">
        <ele>403.00</ele>
        <time>2012-05-05T08:30:46Z</time>
      </trkpt>
      <trkpt lat="42.458998000" lon="-2.465231000">
        <ele>403.10</ele>
        <time>2012-05-05T08:30:48Z</time>
      </trkpt>
      <trkpt lat="42.458998000" lon="-2.465229000">
        <ele>403.10</ele>
        <time>2012-05-05T08:30:48Z</time>
      </trkpt>
      <trkpt lat="42.458996000" lon="-2.465229000">
        <ele>403.10</ele>
        <time>2012-05-05T08:30:51Z</time>
      </trkpt>
      <trkpt lat="42.458996000" lon="-2.465231000">
        <ele>403.10</ele>
        <time>2012-05-05T08:30:55Z</time>
      </trkpt>
      <trkpt lat="42.458998000" lon="-2.465231000">
        <ele>403.10</ele>
        <time>2012-05-05T08:30:55Z</time>
      </trkpt>
      <trkpt lat="42.458998000" lon="-2.465233000">
        <ele>403.10</ele>
        <time>2012-05-05T08:30:58Z</time>
      </trkpt>
      <trkpt lat="42.459000000" lon="-2.465233000">
        <ele>403.10</ele>
        <time>2012-05-05T08:30:58Z</time>
      </trkpt>
      <trkpt lat="42.459001000" lon="-2.465233000">
        <ele>403.00</ele>
        <time>2012-05-05T08:31:00Z</time>
      </trkpt>
      <trkpt lat="42.459003000" lon="-2.465233000">
        <ele>403.00</ele>
        <time>2012-05-05T08:31:02Z</time>
      </trkpt>
      <trkpt lat="42.459005000" lon="-2.465231000">
        <ele>403.00</ele>
        <time>2012-05-05T08:31:03Z</time>
      </trkpt>
      <trkpt lat="42.459023000" lon="-2.465229000">
        <ele>403.00</ele>
        <time>2012-05-05T08:31:05Z</time>
      </trkpt>
      <trkpt lat="42.459020000" lon="-2.465229000">
        <ele>403.00</ele>
        <time>2012-05-05T08:31:07Z</time>
      </trkpt>
      <trkpt lat="42.459015000" lon="-2.465223000">
        <ele>403.00</ele>
        <time>2012-05-05T08:31:10Z</time>
      </trkpt>
      <trkpt lat="42.458995000" lon="-2.465224000">
        <ele>403.00</ele>
        <time>2012-05-05T08:31:14Z</time>
      </trkpt>
      <trkpt lat="42.458986000" lon="-2.465226000">
        <ele>403.10</ele>
        <time>2012-05-05T08:31:14Z</time>
      </trkpt>
      <trkpt lat="42.458973000" lon="-2.465228000">
        <ele>403.10</ele>
        <time>2012-05-05T08:31:16Z</time>
      </trkpt>
      <trkpt lat="42.458981000" lon="-2.465231000">
        <ele>403.10</ele>
        <time>2012-05-05T08:31:17Z</time>
      </trkpt>
      <trkpt lat="42.458990000" lon="-2.465231000">
        <ele>403.10</ele>
        <time>2012-05-05T08:31:23Z</time>
      </trkpt>
      <trkpt lat="42.458990000" lon="-2.465233000">
        <ele>403.10</ele>
        <time>2012-05-05T08:31:26Z</time>
      </trkpt>
      <trkpt lat="42.458988000" lon="-2.465233000">
        <ele>403.10</ele>
        <time>2012-05-05T08:31:26Z</time>
      </trkpt>
      <trkpt lat="42.458988000" lon="-2.465231000">
        <ele>403.10</ele>
        <time>2012-05-05T08:31:29Z</time>
      </trkpt>
      <trkpt lat="42.458995000" lon="-2.465223000">
        <ele>403.10</ele>
        <time>2012-05-05T08:31:35Z</time>
      </trkpt>
      <trkpt lat="42.458996000" lon="-2.465216000">
        <ele>403.10</ele>
        <time>2012-05-05T08:31:38Z</time>
      </trkpt>
      <trkpt lat="42.458998000" lon="-2.465214000">
        <ele>403.10</ele>
        <time>2012-05-05T08:31:38Z</time>
      </trkpt>
      <trkpt lat="42.458996000" lon="-2.465213000">
        <ele>403.10</ele>
        <time>2012-05-05T08:31:42Z</time>
      </trkpt>
      <trkpt lat="42.458991000" lon="-2.465214000">
        <ele>403.10</ele>
        <time>2012-05-05T08:31:49Z</time>
      </trkpt>
      <trkpt lat="42.458986000" lon="-2.465219000">
        <ele>403.10</ele>
        <time>2012-05-05T08:31:52Z</time>
      </trkpt>
      <trkpt lat="42.458980000" lon="-2.465219000">
        <ele>403.10</ele>
        <time>2012-05-05T08:31:54Z</time>
      </trkpt>
      <trkpt lat="42.458971000" lon="-2.465216000">
        <ele>403.10</ele>
        <time>2012-05-05T08:31:57Z</time>
      </trkpt>
      <trkpt lat="42.458961000" lon="-2.465223000">
        <ele>403.20</ele>
        <time>2012-05-05T08:32:01Z</time>
      </trkpt>
      <trkpt lat="42.458958000" lon="-2.465224000">
        <ele>403.20</ele>
        <time>2012-05-05T08:32:01Z</time>
      </trkpt>
      <trkpt lat="42.458955000" lon="-2.465229000">
        <ele>403.20</ele>
        <time>2012-05-05T08:32:04Z</time>
      </trkpt>
      <trkpt lat="42.458951000" lon="-2.465231000">
        <ele>403.20</ele>
        <time>2012-05-05T08:32:06Z</time>
      </trkpt>
      <trkpt lat="42.458950000" lon="-2.465236000">
        <ele>403.20</ele>
        <time>2012-05-05T08:32:10Z</time>
      </trkpt>
      <trkpt lat="42.458948000" lon="-2.465238000">
        <ele>403.20</ele>
        <time>2012-05-05T08:32:11Z</time>
      </trkpt>
      <trkpt lat="42.458948000" lon="-2.465243000">
        <ele>403.20</ele>
        <time>2012-05-05T08:32:13Z</time>
      </trkpt>
      <trkpt lat="42.458946000" lon="-2.465243000">
        <ele>403.20</ele>
        <time>2012-05-05T08:32:15Z</time>
      </trkpt>
      <trkpt lat="42.458948000" lon="-2.465244000">
        <ele>403.20</ele>
        <time>2012-05-05T08:32:15Z</time>
      </trkpt>
      <trkpt lat="42.458950000" lon="-2.465243000">
        <ele>403.20</ele>
        <time>2012-05-05T08:32:20Z</time>
      </trkpt>
      <trkpt lat="42.458951000" lon="-2.465239000">
        <ele>403.20</ele>
        <time>2012-05-05T08:32:22Z</time>
      </trkpt>
      <trkpt lat="42.458955000" lon="-2.465238000">
        <ele>403.20</ele>
        <time>2012-05-05T08:32:25Z</time>
      </trkpt>
      <trkpt lat="42.458956000" lon="-2.465246000">
        <ele>403.20</ele>
        <time>2012-05-05T08:32:32Z</time>
      </trkpt>
      <trkpt lat="42.458961000" lon="-2.465246000">
        <ele>403.20</ele>
        <time>2012-05-05T08:32:37Z</time>
      </trkpt>
      <trkpt lat="42.458960000" lon="-2.465256000">
        <ele>403.20</ele>
        <time>2012-05-05T08:32:46Z</time>
      </trkpt>
      <trkpt lat="42.458953000" lon="-2.465269000">
        <ele>403.20</ele>
        <time>2012-05-05T08:32:53Z</time>
      </trkpt>
      <trkpt lat="42.458945000" lon="-2.465279000">
        <ele>403.20</ele>
        <time>2012-05-05T08:32:57Z</time>
      </trkpt>
      <trkpt lat="42.458941000" lon="-2.465283000">
        <ele>403.30</ele>
        <time>2012-05-05T08:32:58Z</time>
      </trkpt>
      <trkpt lat="42.458935000" lon="-2.465291000">
        <ele>403.30</ele>
        <time>2012-05-05T08:33:02Z</time>
      </trkpt>
      <trkpt lat="42.458933000" lon="-2.465293000">
        <ele>403.30</ele>
        <time>2012-05-05T08:33:04Z</time>
      </trkpt>
      <trkpt lat="42.458925000" lon="-2.465294000">
        <ele>403.30</ele>
        <time>2012-05-05T08:33:12Z</time>
      </trkpt>
      <trkpt lat="42.458921000" lon="-2.465298000">
        <ele>403.30</ele>
        <time>2012-05-05T08:33:16Z</time>
      </trkpt>
      <trkpt lat="42.458916000" lon="-2.465299000">
        <ele>403.30</ele>
        <time>2012-05-05T08:33:19Z</time>
      </trkpt>
      <trkpt lat="42.458915000" lon="-2.465301000">
        <ele>403.30</ele>
        <time>2012-05-05T08:33:19Z</time>
      </trkpt>
      <trkpt lat="42.458913000" lon="-2.465301000">
        <ele>403.40</ele>
        <time>2012-05-05T08:33:21Z</time>
      </trkpt>
      <trkpt lat="42.458910000" lon="-2.465301000">
        <ele>403.40</ele>
        <time>2012-05-05T08:33:23Z</time>
      </trkpt>
      <trkpt lat="42.458910000" lon="-2.465303000">
        <ele>403.40</ele>
        <time>2012-05-05T08:33:24Z</time>
      </trkpt>
      <trkpt lat="42.458906000" lon="-2.465303000">
        <ele>403.40</ele>
        <time>2012-05-05T08:33:28Z</time>
      </trkpt>
      <trkpt lat="42.458905000" lon="-2.465301000">
        <ele>403.40</ele>
        <time>2012-05-05T08:33:30Z</time>
      </trkpt>
      <trkpt lat="42.458903000" lon="-2.465301000">
        <ele>403.40</ele>
        <time>2012-05-05T08:33:31Z</time>
      </trkpt>
      <trkpt lat="42.458903000" lon="-2.465298000">
        <ele>403.40</ele>
        <time>2012-05-05T08:33:33Z</time>
      </trkpt>
      <trkpt lat="42.458901000" lon="-2.465298000">
        <ele>403.40</ele>
        <time>2012-05-05T08:33:35Z</time>
      </trkpt>
      <trkpt lat="42.458900000" lon="-2.465291000">
        <ele>403.40</ele>
        <time>2012-05-05T08:33:40Z</time>
      </trkpt>
      <trkpt lat="42.458901000" lon="-2.465288000">
        <ele>403.40</ele>
        <time>2012-05-05T08:33:42Z</time>
      </trkpt>
      <trkpt lat="42.458903000" lon="-2.465288000">
        <ele>403.40</ele>
        <time>2012-05-05T08:33:42Z</time>
      </trkpt>
      <trkpt lat="42.458903000" lon="-2.465286000">
        <ele>403.40</ele>
        <time>2012-05-05T08:33:44Z</time>
      </trkpt>
      <trkpt lat="42.458906000" lon="-2.465286000">
        <ele>403.40</ele>
        <time>2012-05-05T08:33:45Z</time>
      </trkpt>
      <trkpt lat="42.458910000" lon="-2.465283000">
        <ele>403.40</ele>
        <time>2012-05-05T08:33:49Z</time>
      </trkpt>
      <trkpt lat="42.458915000" lon="-2.465283000">
        <ele>403.40</ele>
        <time>2012-05-05T08:33:52Z</time>
      </trkpt>
      <trkpt lat="42.458916000" lon="-2.465284000">
        <ele>403.40</ele>
        <time>2012-05-05T08:33:54Z</time>
      </trkpt>
      <trkpt lat="42.458913000" lon="-2.465284000">
        <ele>403.40</ele>
        <time>2012-05-05T08:33:58Z</time>
      </trkpt>
      <trkpt lat="42.458913000" lon="-2.465291000">
        <ele>403.40</ele>
        <time>2012-05-05T08:34:03Z</time>
      </trkpt>
      <trkpt lat="42.458915000" lon="-2.465291000">
        <ele>403.40</ele>
        <time>2012-05-05T08:34:05Z</time>
      </trkpt>
      <trkpt lat="42.458913000" lon="-2.465291000">
        <ele>403.40</ele>
        <time>2012-05-05T08:34:06Z</time>
      </trkpt>
      <trkpt lat="42.458913000" lon="-2.465293000">
        <ele>403.40</ele>
        <time>2012-05-05T08:34:06Z</time>
      </trkpt>
      <trkpt lat="42.458918000" lon="-2.465294000">
        <ele>403.40</ele>
        <time>2012-05-05T08:34:10Z</time>
      </trkpt>
      <trkpt lat="42.458920000" lon="-2.465296000">
        <ele>403.30</ele>
        <time>2012-05-05T08:34:10Z</time>
      </trkpt>
      <trkpt lat="42.458928000" lon="-2.465301000">
        <ele>403.30</ele>
        <time>2012-05-05T08:34:13Z</time>
      </trkpt>
      <trkpt lat="42.458950000" lon="-2.465313000">
        <ele>403.30</ele>
        <time>2012-05-05T08:34:17Z</time>
      </trkpt>
      <trkpt lat="42.458956000" lon="-2.465316000">
        <ele>403.20</ele>
        <time>2012-05-05T08:34:17Z</time>
      </trkpt>
      <trkpt lat="42.458980000" lon="-2.465326000">
        <ele>403.20</ele>
        <time>2012-05-05T08:34:22Z</time>
      </trkpt>
      <trkpt lat="42.458985000" lon="-2.465328000">
        <ele>403.10</ele>
        <time>2012-05-05T08:34:22Z</time>
      </trkpt>
      <trkpt lat="42.458998000" lon="-2.465328000">
        <ele>403.10</ele>
        <time>2012-05-05T08:34:27Z</time>
      </trkpt>
      <trkpt lat="42.459001000" lon="-2.465326000">
        <ele>403.10</ele>
        <time>2012-05-05T08:34:29Z</time>
      </trkpt>
      <trkpt lat="42.459005000" lon="-2.465324000">
        <ele>403.00</ele>
        <time>2012-05-05T08:34:29Z</time>
      </trkpt>
      <trkpt lat="42.459008000" lon="-2.465323000">
        <ele>403.00</ele>
        <time>2012-05-05T08:34:31Z</time>
      </trkpt>
      <trkpt lat="42.459008000" lon="-2.465319000">
        <ele>403.00</ele>
        <time>2012-05-05T08:34:34Z</time>
      </trkpt>
      <trkpt lat="42.459010000" lon="-2.465318000">
        <ele>403.00</ele>
        <time>2012-05-05T08:34:34Z</time>
      </trkpt>
      <trkpt lat="42.459011000" lon="-2.465314000">
        <ele>403.00</ele>
        <time>2012-05-05T08:34:38Z</time>
      </trkpt>
      <trkpt lat="42.459016000" lon="-2.465314000">
        <ele>403.00</ele>
        <time>2012-05-05T08:34:41Z</time>
      </trkpt>
      <trkpt lat="42.459016000" lon="-2.465309000">
        <ele>403.00</ele>
        <time>2012-05-05T08:34:45Z</time>
      </trkpt>
      <trkpt lat="42.459030000" lon="-2.465311000">
        <ele>403.00</ele>
        <time>2012-05-05T08:34:52Z</time>
      </trkpt>
      <trkpt lat="42.459033000" lon="-2.465311000">
        <ele>402.90</ele>
        <time>2012-05-05T08:34:53Z</time>
      </trkpt>
      <trkpt lat="42.459043000" lon="-2.465311000">
        <ele>402.90</ele>
        <time>2012-05-05T08:34:57Z</time>
      </trkpt>
      <trkpt lat="42.459045000" lon="-2.465313000">
        <ele>402.90</ele>
        <time>2012-05-05T08:34:59Z</time>
      </trkpt>
      <trkpt lat="42.459055000" lon="-2.465314000">
        <ele>402.90</ele>
        <time>2012-05-05T08:35:02Z</time>
      </trkpt>
      <trkpt lat="42.459058000" lon="-2.465316000">
        <ele>402.90</ele>
        <time>2012-05-05T08:35:04Z</time>
      </trkpt>
      <trkpt lat="42.459061000" lon="-2.465318000">
        <ele>402.80</ele>
        <time>2012-05-05T08:35:04Z</time>
      </trkpt>
      <trkpt lat="42.459065000" lon="-2.465318000">
        <ele>402.80</ele>
        <time>2012-05-05T08:35:07Z</time>
      </trkpt>
      <trkpt lat="42.459065000" lon="-2.465319000">
        <ele>402.80</ele>
        <time>2012-05-05T08:35:09Z</time>
      </trkpt>
      <trkpt lat="42.459063000" lon="-2.465318000">
        <ele>402.80</ele>
        <time>2012-05-05T08:35:11Z</time>
      </trkpt>
      <trkpt lat="42.459063000" lon="-2.465321000">
        <ele>402.80</ele>
        <time>2012-05-05T08:35:16Z</time>
      </trkpt>
      <trkpt lat="42.459065000" lon="-2.465323000">
        <ele>402.80</ele>
        <time>2012-05-05T08:35:16Z</time>
      </trkpt>
      <trkpt lat="42.459063000" lon="-2.465323000">
        <ele>402.80</ele>
        <time>2012-05-05T08:35:18Z</time>
      </trkpt>
      <trkpt lat="42.459065000" lon="-2.465323000">
        <ele>402.80</ele>
        <time>2012-05-05T08:35:18Z</time>
      </trkpt>
      <trkpt lat="42.459063000" lon="-2.465323000">
        <ele>402.80</ele>
        <time>2012-05-05T08:35:21Z</time>
      </trkpt>
      <trkpt lat="42.459071000" lon="-2.465333000">
        <ele>402.80</ele>
        <time>2012-05-05T08:35:30Z</time>
      </trkpt>
      <trkpt lat="42.459075000" lon="-2.465334000">
        <ele>402.80</ele>
        <time>2012-05-05T08:35:33Z</time>
      </trkpt>
      <trkpt lat="42.459078000" lon="-2.465338000">
        <ele>402.80</ele>
        <time>2012-05-05T08:35:35Z</time>
      </trkpt>
      <trkpt lat="42.459085000" lon="-2.465341000">
        <ele>402.80</ele>
        <time>2012-05-05T08:35:39Z</time>
      </trkpt>
      <trkpt lat="42.459086000" lon="-2.465343000">
        <ele>402.70</ele>
        <time>2012-05-05T08:35:40Z</time>
      </trkpt>
      <trkpt lat="42.459100000" lon="-2.465353000">
        <ele>402.70</ele>
        <time>2012-05-05T08:35:47Z</time>
      </trkpt>
      <trkpt lat="42.459111000" lon="-2.465359000">
        <ele>402.70</ele>
        <time>2012-05-05T08:35:54Z</time>
      </trkpt>
      <trkpt lat="42.459115000" lon="-2.465361000">
        <ele>402.60</ele>
        <time>2012-05-05T08:35:54Z</time>
      </trkpt>
      <trkpt lat="42.459116000" lon="-2.465363000">
        <ele>402.60</ele>
        <time>2012-05-05T08:35:56Z</time>
      </trkpt>
      <trkpt lat="42.459120000" lon="-2.465364000">
        <ele>402.60</ele>
        <time>2012-05-05T08:35:56Z</time>
      </trkpt>
      <trkpt lat="42.459121000" lon="-2.465366000">
        <ele>402.60</ele>
        <time>2012-05-05T08:35:58Z</time>
      </trkpt>
      <trkpt lat="42.459138000" lon="-2.465374000">
        <ele>402.60</ele>
        <time>2012-05-05T08:36:05Z</time>
      </trkpt>
      <trkpt lat="42.459140000" lon="-2.465374000">
        <ele>402.60</ele>
        <time>2012-05-05T08:36:06Z</time>
      </trkpt>
      <trkpt lat="42.459141000" lon="-2.465374000">
        <ele>402.50</ele>
        <time>2012-05-05T08:36:08Z</time>
      </trkpt>
      <trkpt lat="42.459146000" lon="-2.465373000">
        <ele>402.50</ele>
        <time>2012-05-05T08:36:13Z</time>
      </trkpt>
      <trkpt lat="42.459145000" lon="-2.465366000">
        <ele>402.50</ele>
        <time>2012-05-05T08:36:22Z</time>
      </trkpt>
      <trkpt lat="42.459135000" lon="-2.465361000">
        <ele>402.50</ele>
        <time>2012-05-05T08:36:26Z</time>
      </trkpt>
      <trkpt lat="42.459133000" lon="-2.465361000">
        <ele>402.60</ele>
        <time>2012-05-05T08:36:26Z</time>
      </trkpt>
      <trkpt lat="42.459108000" lon="-2.465349000">
        <ele>402.60</ele>
        <time>2012-05-05T08:36:34Z</time>
      </trkpt>
      <trkpt lat="42.459105000" lon="-2.465349000">
        <ele>402.70</ele>
        <time>2012-05-05T08:36:34Z</time>
      </trkpt>
      <trkpt lat="42.459100000" lon="-2.465348000">
        <ele>402.70</ele>
        <time>2012-05-05T08:36:36Z</time>
      </trkpt>
      <trkpt lat="42.459081000" lon="-2.465341000">
        <ele>402.70</ele>
        <time>2012-05-05T08:36:40Z</time>
      </trkpt>
      <trkpt lat="42.459076000" lon="-2.465339000">
        <ele>402.80</ele>
        <time>2012-05-05T08:36:41Z</time>
      </trkpt>
      <trkpt lat="42.459051000" lon="-2.465331000">
        <ele>402.80</ele>
        <time>2012-05-05T08:36:45Z</time>
      </trkpt>
      <trkpt lat="42.459046000" lon="-2.465329000">
        <ele>402.90</ele>
        <time>2012-05-05T08:36:47Z</time>
      </trkpt>
      <trkpt lat="42.459041000" lon="-2.465328000">
        <ele>402.90</ele>
        <time>2012-05-05T08:36:48Z</time>
      </trkpt>
      <trkpt lat="42.459033000" lon="-2.465324000">
        <ele>402.90</ele>
        <time>2012-05-05T08:36:50Z</time>
      </trkpt>
      <trkpt lat="42.459023000" lon="-2.465323000">
        <ele>402.90</ele>
        <time>2012-05-05T08:36:52Z</time>
      </trkpt>
      <trkpt lat="42.459020000" lon="-2.465321000">
        <ele>403.00</ele>
        <time>2012-05-05T08:36:52Z</time>
      </trkpt>
      <trkpt lat="42.459001000" lon="-2.465314000">
        <ele>403.00</ele>
        <time>2012-05-05T08:36:57Z</time>
      </trkpt>
      <trkpt lat="42.458998000" lon="-2.465313000">
        <ele>403.00</ele>
        <time>2012-05-05T08:36:57Z</time>
      </trkpt>
      <trkpt lat="42.458993000" lon="-2.465313000">
        <ele>403.10</ele>
        <time>2012-05-05T08:36:59Z</time>
      </trkpt>
      <trkpt lat="42.458986000" lon="-2.465309000">
        <ele>403.10</ele>
        <time>2012-05-05T08:37:00Z</time>
      </trkpt>
      <trkpt lat="42.458976000" lon="-2.465308000">
        <ele>403.10</ele>
        <time>2012-05-05T08:37:04Z</time>
      </trkpt>
      <trkpt lat="42.458971000" lon="-2.465306000">
        <ele>403.10</ele>
        <time>2012-05-05T08:37:06Z</time>
      </trkpt>
      <trkpt lat="42.458968000" lon="-2.465304000">
        <ele>403.20</ele>
        <time>2012-05-05T08:37:06Z</time>
      </trkpt>
      <trkpt lat="42.458966000" lon="-2.465303000">
        <ele>403.20</ele>
        <time>2012-05-05T08:37:07Z</time>
      </trkpt>
      <trkpt lat="42.458963000" lon="-2.465303000">
        <ele>403.20</ele>
        <time>2012-05-05T08:37:09Z</time>
      </trkpt>
      <trkpt lat="42.458960000" lon="-2.465299000">
        <ele>403.20</ele>
        <time>2012-05-05T08:37:11Z</time>
      </trkpt>
      <trkpt lat="42.458960000" lon="-2.465301000">
        <ele>403.20</ele>
        <time>2012-05-05T08:37:13Z</time>
      </trkpt>
      <trkpt lat="42.458958000" lon="-2.465299000">
        <ele>403.20</ele>
        <time>2012-05-05T08:37:14Z</time>
      </trkpt>
      <trkpt lat="42.458973000" lon="-2.465298000">
        <ele>403.20</ele>
        <time>2012-05-05T08:37:30Z</time>
      </trkpt>
      <trkpt lat="42.458975000" lon="-2.465298000">
        <ele>403.10</ele>
        <time>2012-05-05T08:37:32Z</time>
      </trkpt>
      <trkpt lat="42.458976000" lon="-2.465296000">
        <ele>403.10</ele>
        <time>2012-05-05T08:37:34Z</time>
      </trkpt>
      <trkpt lat="42.458978000" lon="-2.465296000">
        <ele>403.10</ele>
        <time>2012-05-05T08:37:37Z</time>
      </trkpt>
      <trkpt lat="42.458976000" lon="-2.465294000">
        <ele>403.10</ele>
        <time>2012-05-05T08:37:37Z</time>
      </trkpt>
      <trkpt lat="42.458980000" lon="-2.465291000">
        <ele>403.10</ele>
        <time>2012-05-05T08:37:39Z</time>
      </trkpt>
      <trkpt lat="42.458981000" lon="-2.465288000">
        <ele>403.10</ele>
        <time>2012-05-05T08:37:41Z</time>
      </trkpt>
      <trkpt lat="42.459041000" lon="-2.465274000">
        <ele>402.90</ele>
        <time>2012-05-05T08:37:51Z</time>
      </trkpt>
      <trkpt lat="42.459045000" lon="-2.465274000">
        <ele>402.90</ele>
        <time>2012-05-05T08:37:53Z</time>
      </trkpt>
      <trkpt lat="42.459046000" lon="-2.465259000">
        <ele>402.90</ele>
        <time>2012-05-05T08:37:54Z</time>
      </trkpt>
      <trkpt lat="42.459043000" lon="-2.465254000">
        <ele>402.90</ele>
        <time>2012-05-05T08:37:56Z</time>
      </trkpt>
      <trkpt lat="42.459046000" lon="-2.465271000">
        <ele>402.90</ele>
        <time>2012-05-05T08:37:58Z</time>
      </trkpt>
      <trkpt lat="42.459045000" lon="-2.465283000">
        <ele>402.90</ele>
        <time>2012-05-05T08:38:00Z</time>
      </trkpt>
      <trkpt lat="42.459035000" lon="-2.465308000">
        <ele>402.90</ele>
        <time>2012-05-05T08:38:01Z</time>
      </trkpt>
      <trkpt lat="42.459033000" lon="-2.465321000">
        <ele>402.90</ele>
        <time>2012-05-05T08:38:03Z</time>
      </trkpt>
      <trkpt lat="42.459035000" lon="-2.465334000">
        <ele>402.90</ele>
        <time>2012-05-05T08:38:03Z</time>
      </trkpt>
      <trkpt lat="42.459043000" lon="-2.465348000">
        <ele>402.90</ele>
        <time>2012-05-05T08:38:05Z</time>
      </trkpt>
      <trkpt lat="42.459111000" lon="-2.465391000">
        <ele>402.70</ele>
        <time>2012-05-05T08:38:10Z</time>
      </trkpt>
      <trkpt lat="42.459150000" lon="-2.465428000">
        <ele>402.60</ele>
        <time>2012-05-05T08:38:12Z</time>
      </trkpt>
      <trkpt lat="42.459193000" lon="-2.465464000">
        <ele>402.60</ele>
        <time>2012-05-05T08:38:15Z</time>
      </trkpt>
      <trkpt lat="42.459260000" lon="-2.465571000">
        <ele>402.70</ele>
        <time>2012-05-05T08:38:22Z</time>
      </trkpt>
      <trkpt lat="42.459275000" lon="-2.465611000">
        <ele>402.80</ele>
        <time>2012-05-05T08:38:24Z</time>
      </trkpt>
      <trkpt lat="42.459286000" lon="-2.465656000">
        <ele>402.90</ele>
        <time>2012-05-05T08:38:26Z</time>
      </trkpt>
      <trkpt lat="42.459295000" lon="-2.465678000">
        <ele>403.00</ele>
        <time>2012-05-05T08:38:26Z</time>
      </trkpt>
      <trkpt lat="42.459315000" lon="-2.465761000">
        <ele>403.20</ele>
        <time>2012-05-05T08:38:31Z</time>
      </trkpt>
      <trkpt lat="42.459326000" lon="-2.465778000">
        <ele>403.20</ele>
        <time>2012-05-05T08:38:31Z</time>
      </trkpt>
      <trkpt lat="42.459365000" lon="-2.465801000">
        <ele>403.30</ele>
        <time>2012-05-05T08:38:33Z</time>
      </trkpt>
      <trkpt lat="42.459431000" lon="-2.465863000">
        <ele>403.20</ele>
        <time>2012-05-05T08:38:36Z</time>
      </trkpt>
      <trkpt lat="42.459460000" lon="-2.465873000">
        <ele>403.20</ele>
        <time>2012-05-05T08:38:38Z</time>
      </trkpt>
      <trkpt lat="42.462090000" lon="-2.466969000">
        <ele>398.70</ele>
        <time>2012-05-05T08:39:37Z</time>
      </trkpt>
      <trkpt lat="42.462125000" lon="-2.466976000">
        <ele>398.70</ele>
        <time>2012-05-05T08:39:39Z</time>
      </trkpt>
      <trkpt lat="42.462160000" lon="-2.466973000">
        <ele>398.80</ele>
        <time>2012-05-05T08:39:39Z</time>
      </trkpt>
      <trkpt lat="42.462233000" lon="-2.466951000">
        <ele>398.80</ele>
        <time>2012-05-05T08:39:41Z</time>
      </trkpt>
      <trkpt lat="42.462271000" lon="-2.466949000">
        <ele>398.80</ele>
        <time>2012-05-05T08:39:42Z</time>
      </trkpt>
      <trkpt lat="42.462311000" lon="-2.466956000">
        <ele>398.80</ele>
        <time>2012-05-05T08:39:44Z</time>
      </trkpt>
      <trkpt lat="42.462348000" lon="-2.466973000">
        <ele>398.80</ele>
        <time>2012-05-05T08:39:44Z</time>
      </trkpt>
      <trkpt lat="42.462381000" lon="-2.466999000">
        <ele>398.90</ele>
        <time>2012-05-05T08:39:46Z</time>
      </trkpt>
      <trkpt lat="42.462408000" lon="-2.467031000">
        <ele>398.90</ele>
        <time>2012-05-05T08:39:46Z</time>
      </trkpt>
      <trkpt lat="42.462450000" lon="-2.467098000">
        <ele>398.90</ele>
        <time>2012-05-05T08:39:48Z</time>
      </trkpt>
      <trkpt lat="42.462473000" lon="-2.467126000">
        <ele>398.90</ele>
        <time>2012-05-05T08:39:49Z</time>
      </trkpt>
      <trkpt lat="42.463066000" lon="-2.467344000">
        <ele>399.20</ele>
        <time>2012-05-05T08:40:10Z</time>
      </trkpt>
      <trkpt lat="42.463183000" lon="-2.467361000">
        <ele>399.50</ele>
        <time>2012-05-05T08:40:14Z</time>
      </trkpt>
      <trkpt lat="42.463348000" lon="-2.467343000">
        <ele>399.90</ele>
        <time>2012-05-05T08:40:19Z</time>
      </trkpt>
      <trkpt lat="42.463405000" lon="-2.467361000">
        <ele>400.00</ele>
        <time>2012-05-05T08:40:21Z</time>
      </trkpt>
      <trkpt lat="42.463538000" lon="-2.467456000">
        <ele>400.40</ele>
        <time>2012-05-05T08:40:26Z</time>
      </trkpt>
      <trkpt lat="42.463681000" lon="-2.467496000">
        <ele>400.70</ele>
        <time>2012-05-05T08:40:31Z</time>
      </trkpt>
      <trkpt lat="42.463708000" lon="-2.467498000">
        <ele>400.80</ele>
        <time>2012-05-05T08:40:33Z</time>
      </trkpt>
      <trkpt lat="42.463735000" lon="-2.467498000">
        <ele>400.80</ele>
        <time>2012-05-05T08:40:33Z</time>
      </trkpt>
      <trkpt lat="42.463813000" lon="-2.467499000">
        <ele>401.10</ele>
        <time>2012-05-05T08:40:36Z</time>
      </trkpt>
      <trkpt lat="42.463920000" lon="-2.467506000">
        <ele>401.40</ele>
        <time>2012-05-05T08:40:40Z</time>
      </trkpt>
      <trkpt lat="42.463945000" lon="-2.467504000">
        <ele>401.50</ele>
        <time>2012-05-05T08:40:42Z</time>
      </trkpt>
      <trkpt lat="42.466070000" lon="-2.467081000">
        <ele>407.40</ele>
        <time>2012-05-05T08:41:58Z</time>
      </trkpt>
      <trkpt lat="42.466098000" lon="-2.467066000">
        <ele>407.50</ele>
        <time>2012-05-05T08:41:58Z</time>
      </trkpt>
      <trkpt lat="42.467468000" lon="-2.466379000">
        <ele>408.60</ele>
        <time>2012-05-05T08:42:42Z</time>
      </trkpt>
      <trkpt lat="42.467660000" lon="-2.466373000">
        <ele>408.60</ele>
        <time>2012-05-05T08:42:47Z</time>
      </trkpt>
      <trkpt lat="42.467683000" lon="-2.466383000">
        <ele>408.70</ele>
        <time>2012-05-05T08:42:49Z</time>
      </trkpt>
      <trkpt lat="42.467703000" lon="-2.466398000">
        <ele>408.70</ele>
        <time>2012-05-05T08:42:49Z</time>
      </trkpt>
      <trkpt lat="42.467720000" lon="-2.466419000">
        <ele>408.90</ele>
        <time>2012-05-05T08:42:51Z</time>
      </trkpt>
      <trkpt lat="42.467743000" lon="-2.466473000">
        <ele>409.20</ele>
        <time>2012-05-05T08:42:52Z</time>
      </trkpt>
      <trkpt lat="42.467760000" lon="-2.466571000">
        <ele>409.90</ele>
        <time>2012-05-05T08:42:56Z</time>
      </trkpt>
      <trkpt lat="42.468011000" lon="-2.471043000">
        <ele>425.90</ele>
        <time>2012-05-05T08:44:51Z</time>
      </trkpt>
      <trkpt lat="42.468008000" lon="-2.471084000">
        <ele>425.90</ele>
        <time>2012-05-05T08:44:51Z</time>
      </trkpt>
      <trkpt lat="42.468058000" lon="-2.472029000">
        <ele>423.90</ele>
        <time>2012-05-05T08:45:10Z</time>
      </trkpt>
      <trkpt lat="42.468135000" lon="-2.472223000">
        <ele>423.30</ele>
        <time>2012-05-05T08:45:12Z</time>
      </trkpt>
      <trkpt lat="42.468166000" lon="-2.472363000">
        <ele>423.00</ele>
        <time>2012-05-05T08:45:15Z</time>
      </trkpt>
      <trkpt lat="42.468205000" lon="-2.472751000">
        <ele>422.40</ele>
        <time>2012-05-05T08:45:22Z</time>
      </trkpt>
      <trkpt lat="42.468215000" lon="-2.472789000">
        <ele>422.40</ele>
        <time>2012-05-05T08:45:22Z</time>
      </trkpt>
      <trkpt lat="42.468230000" lon="-2.472828000">
        <ele>422.30</ele>
        <time>2012-05-05T08:45:24Z</time>
      </trkpt>
      <trkpt lat="42.468246000" lon="-2.472858000">
        <ele>422.20</ele>
        <time>2012-05-05T08:45:24Z</time>
      </trkpt>
      <trkpt lat="42.468270000" lon="-2.472878000">
        <ele>422.00</ele>
        <time>2012-05-05T08:45:26Z</time>
      </trkpt>
      <trkpt lat="42.468298000" lon="-2.472893000">
        <ele>421.90</ele>
        <time>2012-05-05T08:45:26Z</time>
      </trkpt>
      <trkpt lat="42.468423000" lon="-2.472909000">
        <ele>421.20</ele>
        <time>2012-05-05T08:45:31Z</time>
      </trkpt>
      <trkpt lat="42.468556000" lon="-2.472908000">
        <ele>420.40</ele>
        <time>2012-05-05T08:45:34Z</time>
      </trkpt>
      <trkpt lat="42.468623000" lon="-2.472913000">
        <ele>420.00</ele>
        <time>2012-05-05T08:45:36Z</time>
      </trkpt>
      <trkpt lat="42.468750000" lon="-2.472916000">
        <ele>419.20</ele>
        <time>2012-05-05T08:45:41Z</time>
      </trkpt>
      <trkpt lat="42.468845000" lon="-2.472923000">
        <ele>419.00</ele>
        <time>2012-05-05T08:45:43Z</time>
      </trkpt>
      <trkpt lat="42.468908000" lon="-2.472919000">
        <ele>419.00</ele>
        <time>2012-05-05T08:45:45Z</time>
      </trkpt>
      <trkpt lat="42.468943000" lon="-2.472921000">
        <ele>419.00</ele>
        <time>2012-05-05T08:45:47Z</time>
      </trkpt>
      <trkpt lat="42.469010000" lon="-2.472918000">
        <ele>419.00</ele>
        <time>2012-05-05T08:45:48Z</time>
      </trkpt>
      <trkpt lat="42.469045000" lon="-2.472919000">
        <ele>419.00</ele>
        <time>2012-05-05T08:45:50Z</time>
      </trkpt>
      <trkpt lat="42.469685000" lon="-2.472889000">
        <ele>419.30</ele>
        <time>2012-05-05T08:46:09Z</time>
      </trkpt>
      <trkpt lat="42.469718000" lon="-2.472891000">
        <ele>419.30</ele>
        <time>2012-05-05T08:46:09Z</time>
      </trkpt>
      <trkpt lat="42.469820000" lon="-2.472889000">
        <ele>419.70</ele>
        <time>2012-05-05T08:46:13Z</time>
      </trkpt>
      <trkpt lat="42.469851000" lon="-2.472893000">
        <ele>419.80</ele>
        <time>2012-05-05T08:46:13Z</time>
      </trkpt>
      <trkpt lat="42.469910000" lon="-2.472923000">
        <ele>420.00</ele>
        <time>2012-05-05T08:46:16Z</time>
      </trkpt>
      <trkpt lat="42.469935000" lon="-2.472948000">
        <ele>420.10</ele>
        <time>2012-05-05T08:46:16Z</time>
      </trkpt>
      <trkpt lat="42.469955000" lon="-2.472979000">
        <ele>420.10</ele>
        <time>2012-05-05T08:46:18Z</time>
      </trkpt>
      <trkpt lat="42.469995000" lon="-2.473156000">
        <ele>420.10</ele>
        <time>2012-05-05T08:46:21Z</time>
      </trkpt>
      <trkpt lat="42.470040000" lon="-2.475416000">
        <ele>416.90</ele>
        <time>2012-05-05T08:47:03Z</time>
      </trkpt>
      <trkpt lat="42.470060000" lon="-2.475523000">
        <ele>416.90</ele>
        <time>2012-05-05T08:47:05Z</time>
      </trkpt>
      <trkpt lat="42.470533000" lon="-2.476866000">
        <ele>414.00</ele>
        <time>2012-05-05T08:47:28Z</time>
      </trkpt>
      <trkpt lat="42.470551000" lon="-2.476943000">
        <ele>413.90</ele>
        <time>2012-05-05T08:47:29Z</time>
      </trkpt>
      <trkpt lat="42.470960000" lon="-2.478974000">
        <ele>418.70</ele>
        <time>2012-05-05T08:47:52Z</time>
      </trkpt>
      <trkpt lat="42.471216000" lon="-2.479458000">
        <ele>420.30</ele>
        <time>2012-05-05T08:48:02Z</time>
      </trkpt>
      <trkpt lat="42.471281000" lon="-2.479656000">
        <ele>420.90</ele>
        <time>2012-05-05T08:48:06Z</time>
      </trkpt>
      <trkpt lat="42.471338000" lon="-2.480374000">
        <ele>422.80</ele>
        <time>2012-05-05T08:48:22Z</time>
      </trkpt>
      <trkpt lat="42.471401000" lon="-2.480654000">
        <ele>423.80</ele>
        <time>2012-05-05T08:48:27Z</time>
      </trkpt>
      <trkpt lat="42.471530000" lon="-2.480986000">
        <ele>425.00</ele>
        <time>2012-05-05T08:48:36Z</time>
      </trkpt>
      <trkpt lat="42.471550000" lon="-2.481021000">
        <ele>425.00</ele>
        <time>2012-05-05T08:48:37Z</time>
      </trkpt>
      <trkpt lat="42.473061000" lon="-2.483958000">
        <ele>432.00</ele>
        <time>2012-05-05T08:49:52Z</time>
      </trkpt>
      <trkpt lat="42.473076000" lon="-2.484003000">
        <ele>432.10</ele>
        <time>2012-05-05T08:49:54Z</time>
      </trkpt>
      <trkpt lat="42.473895000" lon="-2.487748000">
        <ele>448.80</ele>
        <time>2012-05-05T08:51:16Z</time>
      </trkpt>
      <trkpt lat="42.474298000" lon="-2.488464000">
        <ele>447.70</ele>
        <time>2012-05-05T08:51:38Z</time>
      </trkpt>
      <trkpt lat="42.474405000" lon="-2.488606000">
        <ele>445.30</ele>
        <time>2012-05-05T08:51:45Z</time>
      </trkpt>
      <trkpt lat="42.474415000" lon="-2.488624000">
        <ele>445.10</ele>
        <time>2012-05-05T08:51:47Z</time>
      </trkpt>
      <trkpt lat="42.474421000" lon="-2.488643000">
        <ele>444.80</ele>
        <time>2012-05-05T08:51:47Z</time>
      </trkpt>
      <trkpt lat="42.474426000" lon="-2.488663000">
        <ele>444.70</ele>
        <time>2012-05-05T08:51:49Z</time>
      </trkpt>
      <trkpt lat="42.474533000" lon="-2.489284000">
        <ele>444.30</ele>
        <time>2012-05-05T08:52:01Z</time>
      </trkpt>
      <trkpt lat="42.474540000" lon="-2.489393000">
        <ele>444.70</ele>
        <time>2012-05-05T08:52:03Z</time>
      </trkpt>
      <trkpt lat="42.474590000" lon="-2.489894000">
        <ele>446.20</ele>
        <time>2012-05-05T08:52:13Z</time>
      </trkpt>
      <trkpt lat="42.474633000" lon="-2.490611000">
        <ele>449.40</ele>
        <time>2012-05-05T08:52:27Z</time>
      </trkpt>
      <trkpt lat="42.474641000" lon="-2.490659000">
        <ele>449.50</ele>
        <time>2012-05-05T08:52:29Z</time>
      </trkpt>
      <trkpt lat="42.474821000" lon="-2.492868000">
        <ele>449.10</ele>
        <time>2012-05-05T08:53:14Z</time>
      </trkpt>
      <trkpt lat="42.474793000" lon="-2.493013000">
        <ele>449.10</ele>
        <time>2012-05-05T08:53:18Z</time>
      </trkpt>
      <trkpt lat="42.474470000" lon="-2.493751000">
        <ele>450.00</ele>
        <time>2012-05-05T08:53:35Z</time>
      </trkpt>
      <trkpt lat="42.474446000" lon="-2.493791000">
        <ele>450.30</ele>
        <time>2012-05-05T08:53:35Z</time>
      </trkpt>
      <trkpt lat="42.474145000" lon="-2.494551000">
        <ele>458.80</ele>
        <time>2012-05-05T08:53:53Z</time>
      </trkpt>
      <trkpt lat="42.473958000" lon="-2.495604000">
        <ele>454.60</ele>
        <time>2012-05-05T08:54:13Z</time>
      </trkpt>
      <trkpt lat="42.473941000" lon="-2.496071000">
        <ele>452.90</ele>
        <time>2012-05-05T08:54:22Z</time>
      </trkpt>
      <trkpt lat="42.473981000" lon="-2.496376000">
        <ele>452.30</ele>
        <time>2012-05-05T08:54:29Z</time>
      </trkpt>
      <trkpt lat="42.474151000" lon="-2.496966000">
        <ele>452.10</ele>
        <time>2012-05-05T08:54:41Z</time>
      </trkpt>
      <trkpt lat="42.474170000" lon="-2.497008000">
        <ele>452.10</ele>
        <time>2012-05-05T08:54:43Z</time>
      </trkpt>
      <trkpt lat="42.474443000" lon="-2.497491000">
        <ele>453.20</ele>
        <time>2012-05-05T08:54:55Z</time>
      </trkpt>
      <trkpt lat="42.475293000" lon="-2.498283000">
        <ele>456.10</ele>
        <time>2012-05-05T08:55:28Z</time>
      </trkpt>
      <trkpt lat="42.475556000" lon="-2.498418000">
        <ele>456.10</ele>
        <time>2012-05-05T08:55:37Z</time>
      </trkpt>
      <trkpt lat="42.477098000" lon="-2.499084000">
        <ele>462.20</ele>
        <time>2012-05-05T08:56:29Z</time>
      </trkpt>
      <trkpt lat="42.477126000" lon="-2.499103000">
        <ele>462.20</ele>
        <time>2012-05-05T08:56:31Z</time>
      </trkpt>
      <trkpt lat="42.477441000" lon="-2.499434000">
        <ele>462.80</ele>
        <time>2012-05-05T08:56:43Z</time>
      </trkpt>
      <trkpt lat="42.477791000" lon="-2.499849000">
        <ele>463.50</ele>
        <time>2012-05-05T08:56:59Z</time>
      </trkpt>
      <trkpt lat="42.478025000" lon="-2.500016000">
        <ele>464.10</ele>
        <time>2012-05-05T08:57:09Z</time>
      </trkpt>
      <trkpt lat="42.478331000" lon="-2.500128000">
        <ele>464.90</ele>
        <time>2012-05-05T08:57:20Z</time>
      </trkpt>
      <trkpt lat="42.478476000" lon="-2.500146000">
        <ele>465.10</ele>
        <time>2012-05-05T08:57:25Z</time>
      </trkpt>
      <trkpt lat="42.478505000" lon="-2.500146000">
        <ele>465.20</ele>
        <time>2012-05-05T08:57:25Z</time>
      </trkpt>
      <trkpt lat="42.478533000" lon="-2.500148000">
        <ele>465.20</ele>
        <time>2012-05-05T08:57:27Z</time>
      </trkpt>
      <trkpt lat="42.478900000" lon="-2.500121000">
        <ele>466.40</ele>
        <time>2012-05-05T08:57:39Z</time>
      </trkpt>
      <trkpt lat="42.478926000" lon="-2.500123000">
        <ele>466.50</ele>
        <time>2012-05-05T08:57:41Z</time>
      </trkpt>
      <trkpt lat="42.478955000" lon="-2.500123000">
        <ele>466.70</ele>
        <time>2012-05-05T08:57:41Z</time>
      </trkpt>
      <trkpt lat="42.479280000" lon="-2.500169000">
        <ele>469.10</ele>
        <time>2012-05-05T08:57:55Z</time>
      </trkpt>
      <trkpt lat="42.479306000" lon="-2.500169000">
        <ele>469.20</ele>
        <time>2012-05-05T08:57:55Z</time>
      </trkpt>
      <trkpt lat="42.479331000" lon="-2.500171000">
        <ele>469.40</ele>
        <time>2012-05-05T08:57:56Z</time>
      </trkpt>
      <trkpt lat="42.479383000" lon="-2.500171000">
        <ele>469.80</ele>
        <time>2012-05-05T08:57:58Z</time>
      </trkpt>
      <trkpt lat="42.479510000" lon="-2.500196000">
        <ele>470.70</ele>
        <time>2012-05-05T08:58:03Z</time>
      </trkpt>
      <trkpt lat="42.479601000" lon="-2.500248000">
        <ele>471.40</ele>
        <time>2012-05-05T08:58:07Z</time>
      </trkpt>
      <trkpt lat="42.479643000" lon="-2.500284000">
        <ele>471.90</ele>
        <time>2012-05-05T08:58:10Z</time>
      </trkpt>
      <trkpt lat="42.479713000" lon="-2.500373000">
        <ele>472.80</ele>
        <time>2012-05-05T08:58:14Z</time>
      </trkpt>
      <trkpt lat="42.480061000" lon="-2.501014000">
        <ele>483.00</ele>
        <time>2012-05-05T08:58:40Z</time>
      </trkpt>
      <trkpt lat="42.480095000" lon="-2.501054000">
        <ele>484.00</ele>
        <time>2012-05-05T08:58:42Z</time>
      </trkpt>
      <trkpt lat="42.480113000" lon="-2.501071000">
        <ele>484.20</ele>
        <time>2012-05-05T08:58:42Z</time>
      </trkpt>
      <trkpt lat="42.480226000" lon="-2.501126000">
        <ele>486.80</ele>
        <time>2012-05-05T08:58:47Z</time>
      </trkpt>
      <trkpt lat="42.480278000" lon="-2.501129000">
        <ele>487.60</ele>
        <time>2012-05-05T08:58:49Z</time>
      </trkpt>
      <trkpt lat="42.480306000" lon="-2.501129000">
        <ele>488.10</ele>
        <time>2012-05-05T08:58:50Z</time>
      </trkpt>
      <trkpt lat="42.480333000" lon="-2.501131000">
        <ele>488.50</ele>
        <time>2012-05-05T08:58:52Z</time>
      </trkpt>
      <trkpt lat="42.480666000" lon="-2.501096000">
        <ele>490.20</ele>
        <time>2012-05-05T08:59:04Z</time>
      </trkpt>
      <trkpt lat="42.480693000" lon="-2.501086000">
        <ele>490.10</ele>
        <time>2012-05-05T08:59:04Z</time>
      </trkpt>
      <trkpt lat="42.480763000" lon="-2.501039000">
        <ele>489.70</ele>
        <time>2012-05-05T08:59:08Z</time>
      </trkpt>
      <trkpt lat="42.480878000" lon="-2.500919000">
        <ele>488.50</ele>
        <time>2012-05-05T08:59:13Z</time>
      </trkpt>
      <trkpt lat="42.480943000" lon="-2.500873000">
        <ele>487.90</ele>
        <time>2012-05-05T08:59:17Z</time>
      </trkpt>
      <trkpt lat="42.480968000" lon="-2.500864000">
        <ele>487.80</ele>
        <time>2012-05-05T08:59:18Z</time>
      </trkpt>
      <trkpt lat="42.480991000" lon="-2.500864000">
        <ele>487.80</ele>
        <time>2012-05-05T08:59:18Z</time>
      </trkpt>
      <trkpt lat="42.481015000" lon="-2.500869000">
        <ele>487.80</ele>
        <time>2012-05-05T08:59:20Z</time>
      </trkpt>
      <trkpt lat="42.481060000" lon="-2.500899000">
        <ele>488.10</ele>
        <time>2012-05-05T08:59:22Z</time>
      </trkpt>
      <trkpt lat="42.481078000" lon="-2.500918000">
        <ele>488.30</ele>
        <time>2012-05-05T08:59:22Z</time>
      </trkpt>
      <trkpt lat="42.481095000" lon="-2.500941000">
        <ele>488.60</ele>
        <time>2012-05-05T08:59:24Z</time>
      </trkpt>
      <trkpt lat="42.481108000" lon="-2.500966000">
        <ele>488.90</ele>
        <time>2012-05-05T08:59:25Z</time>
      </trkpt>
      <trkpt lat="42.481128000" lon="-2.501019000">
        <ele>489.50</ele>
        <time>2012-05-05T08:59:27Z</time>
      </trkpt>
      <trkpt lat="42.481208000" lon="-2.501159000">
        <ele>491.40</ele>
        <time>2012-05-05T08:59:32Z</time>
      </trkpt>
      <trkpt lat="42.481336000" lon="-2.501308000">
        <ele>493.70</ele>
        <time>2012-05-05T08:59:41Z</time>
      </trkpt>
      <trkpt lat="42.481473000" lon="-2.501401000">
        <ele>495.40</ele>
        <time>2012-05-05T08:59:48Z</time>
      </trkpt>
      <trkpt lat="42.481495000" lon="-2.501411000">
        <ele>495.60</ele>
        <time>2012-05-05T08:59:48Z</time>
      </trkpt>
      <trkpt lat="42.481970000" lon="-2.501681000">
        <ele>501.10</ele>
        <time>2012-05-05T09:00:11Z</time>
      </trkpt>
      <trkpt lat="42.482103000" lon="-2.501754000">
        <ele>502.50</ele>
        <time>2012-05-05T09:00:16Z</time>
      </trkpt>
      <trkpt lat="42.482200000" lon="-2.501781000">
        <ele>502.90</ele>
        <time>2012-05-05T09:00:21Z</time>
      </trkpt>
      <trkpt lat="42.482300000" lon="-2.501789000">
        <ele>502.90</ele>
        <time>2012-05-05T09:00:24Z</time>
      </trkpt>
      <trkpt lat="42.482428000" lon="-2.501781000">
        <ele>502.80</ele>
        <time>2012-05-05T09:00:30Z</time>
      </trkpt>
      <trkpt lat="42.482453000" lon="-2.501774000">
        <ele>502.70</ele>
        <time>2012-05-05T09:00:30Z</time>
      </trkpt>
      <trkpt lat="42.482863000" lon="-2.501693000">
        <ele>501.40</ele>
        <time>2012-05-05T09:00:47Z</time>
      </trkpt>
      <trkpt lat="42.482940000" lon="-2.501704000">
        <ele>501.40</ele>
        <time>2012-05-05T09:00:49Z</time>
      </trkpt>
      <trkpt lat="42.482965000" lon="-2.501713000">
        <ele>501.40</ele>
        <time>2012-05-05T09:00:51Z</time>
      </trkpt>
      <trkpt lat="42.483315000" lon="-2.501949000">
        <ele>502.80</ele>
        <time>2012-05-05T09:01:06Z</time>
      </trkpt>
      <trkpt lat="42.483595000" lon="-2.502079000">
        <ele>502.70</ele>
        <time>2012-05-05T09:01:17Z</time>
      </trkpt>
      <trkpt lat="42.483931000" lon="-2.502306000">
        <ele>502.30</ele>
        <time>2012-05-05T09:01:31Z</time>
      </trkpt>
      <trkpt lat="42.484403000" lon="-2.502763000">
        <ele>502.80</ele>
        <time>2012-05-05T09:01:55Z</time>
      </trkpt>
      <trkpt lat="42.484421000" lon="-2.502786000">
        <ele>502.80</ele>
        <time>2012-05-05T09:01:55Z</time>
      </trkpt>
      <trkpt lat="42.484525000" lon="-2.502974000">
        <ele>503.40</ele>
        <time>2012-05-05T09:02:02Z</time>
      </trkpt>
      <trkpt lat="42.484563000" lon="-2.503124000">
        <ele>504.50</ele>
        <time>2012-05-05T09:02:04Z</time>
      </trkpt>
      <trkpt lat="42.484578000" lon="-2.503376000">
        <ele>506.60</ele>
        <time>2012-05-05T09:02:09Z</time>
      </trkpt>
      <trkpt lat="42.484548000" lon="-2.503866000">
        <ele>512.10</ele>
        <time>2012-05-05T09:02:18Z</time>
      </trkpt>
      <trkpt lat="42.484626000" lon="-2.504356000">
        <ele>517.70</ele>
        <time>2012-05-05T09:02:30Z</time>
      </trkpt>
      <trkpt lat="42.484665000" lon="-2.504474000">
        <ele>518.20</ele>
        <time>2012-05-05T09:02:33Z</time>
      </trkpt>
      <trkpt lat="42.484966000" lon="-2.504959000">
        <ele>514.00</ele>
        <time>2012-05-05T09:02:47Z</time>
      </trkpt>
      <trkpt lat="42.485010000" lon="-2.505068000">
        <ele>513.40</ele>
        <time>2012-05-05T09:02:49Z</time>
      </trkpt>
      <trkpt lat="42.485050000" lon="-2.505264000">
        <ele>513.80</ele>
        <time>2012-05-05T09:02:51Z</time>
      </trkpt>
      <trkpt lat="42.485243000" lon="-2.507398000">
        <ele>512.80</ele>
        <time>2012-05-05T09:03:17Z</time>
      </trkpt>
      <trkpt lat="42.485261000" lon="-2.507488000">
        <ele>512.70</ele>
        <time>2012-05-05T09:03:17Z</time>
      </trkpt>
      <trkpt lat="42.485663000" lon="-2.508414000">
        <ele>507.70</ele>
        <time>2012-05-05T09:03:31Z</time>
      </trkpt>
      <trkpt lat="42.485843000" lon="-2.508991000">
        <ele>504.80</ele>
        <time>2012-05-05T09:03:38Z</time>
      </trkpt>
      <trkpt lat="42.485948000" lon="-2.509183000">
        <ele>502.00</ele>
        <time>2012-05-05T09:03:41Z</time>
      </trkpt>
      <trkpt lat="42.486060000" lon="-2.509338000">
        <ele>499.40</ele>
        <time>2012-05-05T09:03:45Z</time>
      </trkpt>
      <trkpt lat="42.486083000" lon="-2.509391000">
        <ele>498.70</ele>
        <time>2012-05-05T09:03:45Z</time>
      </trkpt>
      <trkpt lat="42.486098000" lon="-2.509448000">
        <ele>498.10</ele>
        <time>2012-05-05T09:03:47Z</time>
      </trkpt>
      <trkpt lat="42.486101000" lon="-2.509506000">
        <ele>497.70</ele>
        <time>2012-05-05T09:03:48Z</time>
      </trkpt>
      <trkpt lat="42.486018000" lon="-2.510019000">
        <ele>493.70</ele>
        <time>2012-05-05T09:03:55Z</time>
      </trkpt>
      <trkpt lat="42.486033000" lon="-2.510679000">
        <ele>487.30</ele>
        <time>2012-05-05T09:04:06Z</time>
      </trkpt>
      <trkpt lat="42.486043000" lon="-2.510744000">
        <ele>486.90</ele>
        <time>2012-05-05T09:04:07Z</time>
      </trkpt>
      <trkpt lat="42.486060000" lon="-2.510808000">
        <ele>486.40</ele>
        <time>2012-05-05T09:04:09Z</time>
      </trkpt>
      <trkpt lat="42.486473000" lon="-2.511616000">
        <ele>480.10</ele>
        <time>2012-05-05T09:04:18Z</time>
      </trkpt>
      <trkpt lat="42.486513000" lon="-2.511734000">
        <ele>480.00</ele>
        <time>2012-05-05T09:04:20Z</time>
      </trkpt>
      <trkpt lat="42.486563000" lon="-2.512006000">
        <ele>479.70</ele>
        <time>2012-05-05T09:04:21Z</time>
      </trkpt>
      <trkpt lat="42.486553000" lon="-2.512458000">
        <ele>478.30</ele>
        <time>2012-05-05T09:04:25Z</time>
      </trkpt>
      <trkpt lat="42.486571000" lon="-2.512611000">
        <ele>477.60</ele>
        <time>2012-05-05T09:04:25Z</time>
      </trkpt>
      <trkpt lat="42.486740000" lon="-2.513234000">
        <ele>474.40</ele>
        <time>2012-05-05T09:04:30Z</time>
      </trkpt>
      <trkpt lat="42.486716000" lon="-2.513938000">
        <ele>470.90</ele>
        <time>2012-05-05T09:04:34Z</time>
      </trkpt>
      <trkpt lat="42.486623000" lon="-2.514463000">
        <ele>465.90</ele>
        <time>2012-05-05T09:04:37Z</time>
      </trkpt>
      <trkpt lat="42.486606000" lon="-2.514823000">
        <ele>462.50</ele>
        <time>2012-05-05T09:04:39Z</time>
      </trkpt>
      <trkpt lat="42.486746000" lon="-2.515899000">
        <ele>454.30</ele>
        <time>2012-05-05T09:04:44Z</time>
      </trkpt>
      <trkpt lat="42.487311000" lon="-2.517314000">
        <ele>446.30</ele>
        <time>2012-05-05T09:04:53Z</time>
      </trkpt>
      <trkpt lat="42.487485000" lon="-2.517588000">
        <ele>444.80</ele>
        <time>2012-05-05T09:04:56Z</time>
      </trkpt>
      <trkpt lat="42.487905000" lon="-2.518011000">
        <ele>442.90</ele>
        <time>2012-05-05T09:05:00Z</time>
      </trkpt>
      <trkpt lat="42.488018000" lon="-2.518088000">
        <ele>442.40</ele>
        <time>2012-05-05T09:05:00Z</time>
      </trkpt>
      <trkpt lat="42.488875000" lon="-2.518318000">
        <ele>437.40</ele>
        <time>2012-05-05T09:05:07Z</time>
      </trkpt>
      <trkpt lat="42.490028000" lon="-2.518383000">
        <ele>431.90</ele>
        <time>2012-05-05T09:05:17Z</time>
      </trkpt>
      <trkpt lat="42.490133000" lon="-2.518421000">
        <ele>431.40</ele>
        <time>2012-05-05T09:05:19Z</time>
      </trkpt>
      <trkpt lat="42.490233000" lon="-2.518481000">
        <ele>431.00</ele>
        <time>2012-05-05T09:05:19Z</time>
      </trkpt>
      <trkpt lat="42.490328000" lon="-2.518561000">
        <ele>430.70</ele>
        <time>2012-05-05T09:05:21Z</time>
      </trkpt>
      <trkpt lat="42.491221000" lon="-2.519119000">
        <ele>426.70</ele>
        <time>2012-05-05T09:05:31Z</time>
      </trkpt>
      <trkpt lat="42.491271000" lon="-2.519171000">
        <ele>426.50</ele>
        <time>2012-05-05T09:05:33Z</time>
      </trkpt>
      <trkpt lat="42.491300000" lon="-2.519224000">
        <ele>426.30</ele>
        <time>2012-05-05T09:05:36Z</time>
      </trkpt>
      <trkpt lat="42.491310000" lon="-2.519254000">
        <ele>426.30</ele>
        <time>2012-05-05T09:05:36Z</time>
      </trkpt>
      <trkpt lat="42.491316000" lon="-2.519284000">
        <ele>426.30</ele>
        <time>2012-05-05T09:05:38Z</time>
      </trkpt>
      <trkpt lat="42.491315000" lon="-2.519331000">
        <ele>426.30</ele>
        <time>2012-05-05T09:05:40Z</time>
      </trkpt>
      <trkpt lat="42.491306000" lon="-2.519363000">
        <ele>426.40</ele>
        <time>2012-05-05T09:05:42Z</time>
      </trkpt>
      <trkpt lat="42.491303000" lon="-2.519369000">
        <ele>426.50</ele>
        <time>2012-05-05T09:05:43Z</time>
      </trkpt>
      <trkpt lat="42.491303000" lon="-2.519371000">
        <ele>426.50</ele>
        <time>2012-05-05T09:05:45Z</time>
      </trkpt>
      <trkpt lat="42.491306000" lon="-2.519374000">
        <ele>426.50</ele>
        <time>2012-05-05T09:05:47Z</time>
      </trkpt>
      <trkpt lat="42.491306000" lon="-2.519378000">
        <ele>426.50</ele>
        <time>2012-05-05T09:05:50Z</time>
      </trkpt>
      <trkpt lat="42.491308000" lon="-2.519378000">
        <ele>426.50</ele>
        <time>2012-05-05T09:05:52Z</time>
      </trkpt>
      <trkpt lat="42.491311000" lon="-2.519381000">
        <ele>426.50</ele>
        <time>2012-05-05T09:06:01Z</time>
      </trkpt>
      <trkpt lat="42.491311000" lon="-2.519383000">
        <ele>426.50</ele>
        <time>2012-05-05T09:06:01Z</time>
      </trkpt>
      <trkpt lat="42.491315000" lon="-2.519384000">
        <ele>426.50</ele>
        <time>2012-05-05T09:06:08Z</time>
      </trkpt>
      <trkpt lat="42.491315000" lon="-2.519389000">
        <ele>426.50</ele>
        <time>2012-05-05T09:06:11Z</time>
      </trkpt>
      <trkpt lat="42.491298000" lon="-2.519411000">
        <ele>426.50</ele>
        <time>2012-05-05T09:06:13Z</time>
      </trkpt>
      <trkpt lat="42.491281000" lon="-2.519421000">
        <ele>426.60</ele>
        <time>2012-05-05T09:06:13Z</time>
      </trkpt>
      <trkpt lat="42.491265000" lon="-2.519424000">
        <ele>426.60</ele>
        <time>2012-05-05T09:06:15Z</time>
      </trkpt>
      <trkpt lat="42.491163000" lon="-2.519413000">
        <ele>426.90</ele>
        <time>2012-05-05T09:06:18Z</time>
      </trkpt>
      <trkpt lat="42.491090000" lon="-2.519428000">
        <ele>427.10</ele>
        <time>2012-05-05T09:06:20Z</time>
      </trkpt>
      <trkpt lat="42.488798000" lon="-2.519974000">
        <ele>430.30</ele>
        <time>2012-05-05T09:07:07Z</time>
      </trkpt>
      <trkpt lat="42.488745000" lon="-2.519999000">
        <ele>430.30</ele>
        <time>2012-05-05T09:07:09Z</time>
      </trkpt>
      <trkpt lat="42.486626000" lon="-2.521104000">
        <ele>432.30</ele>
        <time>2012-05-05T09:08:01Z</time>
      </trkpt>
      <trkpt lat="42.486251000" lon="-2.521118000">
        <ele>429.30</ele>
        <time>2012-05-05T09:08:11Z</time>
      </trkpt>
      <trkpt lat="42.486191000" lon="-2.521133000">
        <ele>429.10</ele>
        <time>2012-05-05T09:08:11Z</time>
      </trkpt>
      <trkpt lat="42.486006000" lon="-2.521226000">
        <ele>427.50</ele>
        <time>2012-05-05T09:08:15Z</time>
      </trkpt>
      <trkpt lat="42.485946000" lon="-2.521276000">
        <ele>427.10</ele>
        <time>2012-05-05T09:08:15Z</time>
      </trkpt>
      <trkpt lat="42.485736000" lon="-2.521596000">
        <ele>425.80</ele>
        <time>2012-05-05T09:08:20Z</time>
      </trkpt>
      <trkpt lat="42.484085000" lon="-2.524313000">
        <ele>413.50</ele>
        <time>2012-05-05T09:08:46Z</time>
      </trkpt>
      <trkpt lat="42.483998000" lon="-2.524543000">
        <ele>414.00</ele>
        <time>2012-05-05T09:08:48Z</time>
      </trkpt>
      <trkpt lat="42.483940000" lon="-2.524928000">
        <ele>414.40</ele>
        <time>2012-05-05T09:08:51Z</time>
      </trkpt>
      <trkpt lat="42.483936000" lon="-2.525058000">
        <ele>414.40</ele>
        <time>2012-05-05T09:08:53Z</time>
      </trkpt>
      <trkpt lat="42.483971000" lon="-2.525568000">
        <ele>412.80</ele>
        <time>2012-05-05T09:08:57Z</time>
      </trkpt>
      <trkpt lat="42.483931000" lon="-2.526461000">
        <ele>401.30</ele>
        <time>2012-05-05T09:09:05Z</time>
      </trkpt>
      <trkpt lat="42.483598000" lon="-2.527319000">
        <ele>391.00</ele>
        <time>2012-05-05T09:09:16Z</time>
      </trkpt>
      <trkpt lat="42.483578000" lon="-2.527399000">
        <ele>390.80</ele>
        <time>2012-05-05T09:09:16Z</time>
      </trkpt>
      <trkpt lat="42.482380000" lon="-2.530519000">
        <ele>389.70</ele>
        <time>2012-05-05T09:10:01Z</time>
      </trkpt>
      <trkpt lat="42.482165000" lon="-2.530818000">
        <ele>390.50</ele>
        <time>2012-05-05T09:10:06Z</time>
      </trkpt>
      <trkpt lat="42.481771000" lon="-2.531971000">
        <ele>390.30</ele>
        <time>2012-05-05T09:10:22Z</time>
      </trkpt>
      <trkpt lat="42.481761000" lon="-2.532031000">
        <ele>390.30</ele>
        <time>2012-05-05T09:10:24Z</time>
      </trkpt>
      <trkpt lat="42.481235000" lon="-2.538188000">
        <ele>397.70</ele>
        <time>2012-05-05T09:11:51Z</time>
      </trkpt>
      <trkpt lat="42.481393000" lon="-2.540044000">
        <ele>400.40</ele>
        <time>2012-05-05T09:12:20Z</time>
      </trkpt>
      <trkpt lat="42.481413000" lon="-2.540144000">
        <ele>400.30</ele>
        <time>2012-05-05T09:12:22Z</time>
      </trkpt>
      <trkpt lat="42.481435000" lon="-2.540183000">
        <ele>400.20</ele>
        <time>2012-05-05T09:12:24Z</time>
      </trkpt>
      <trkpt lat="42.481465000" lon="-2.540213000">
        <ele>399.90</ele>
        <time>2012-05-05T09:12:24Z</time>
      </trkpt>
      <trkpt lat="42.481501000" lon="-2.540233000">
        <ele>399.60</ele>
        <time>2012-05-05T09:12:26Z</time>
      </trkpt>
      <trkpt lat="42.481541000" lon="-2.540238000">
        <ele>399.10</ele>
        <time>2012-05-05T09:12:26Z</time>
      </trkpt>
      <trkpt lat="42.481583000" lon="-2.540238000">
        <ele>398.60</ele>
        <time>2012-05-05T09:12:27Z</time>
      </trkpt>
      <trkpt lat="42.481626000" lon="-2.540239000">
        <ele>398.00</ele>
        <time>2012-05-05T09:12:29Z</time>
      </trkpt>
      <trkpt lat="42.482315000" lon="-2.540204000">
        <ele>390.00</ele>
        <time>2012-05-05T09:12:43Z</time>
      </trkpt>
      <trkpt lat="42.482356000" lon="-2.540206000">
        <ele>389.80</ele>
        <time>2012-05-05T09:12:45Z</time>
      </trkpt>
      <trkpt lat="42.482475000" lon="-2.540271000">
        <ele>389.30</ele>
        <time>2012-05-05T09:12:48Z</time>
      </trkpt>
      <trkpt lat="42.482726000" lon="-2.540336000">
        <ele>388.20</ele>
        <time>2012-05-05T09:12:52Z</time>
      </trkpt>
      <trkpt lat="42.482766000" lon="-2.540368000">
        <ele>388.10</ele>
        <time>2012-05-05T09:12:54Z</time>
      </trkpt>
      <trkpt lat="42.482800000" lon="-2.540408000">
        <ele>387.80</ele>
        <time>2012-05-05T09:12:55Z</time>
      </trkpt>
      <trkpt lat="42.482826000" lon="-2.540454000">
        <ele>387.60</ele>
        <time>2012-05-05T09:12:55Z</time>
      </trkpt>
      <trkpt lat="42.482858000" lon="-2.540573000">
        <ele>387.50</ele>
        <time>2012-05-05T09:12:57Z</time>
      </trkpt>
      <trkpt lat="42.482926000" lon="-2.541426000">
        <ele>388.10</ele>
        <time>2012-05-05T09:13:09Z</time>
      </trkpt>
      <trkpt lat="42.482923000" lon="-2.541631000">
        <ele>388.30</ele>
        <time>2012-05-05T09:13:13Z</time>
      </trkpt>
      <trkpt lat="42.483023000" lon="-2.542136000">
        <ele>389.00</ele>
        <time>2012-05-05T09:13:21Z</time>
      </trkpt>
      <trkpt lat="42.483333000" lon="-2.544966000">
        <ele>387.60</ele>
        <time>2012-05-05T09:14:03Z</time>
      </trkpt>
      <trkpt lat="42.483333000" lon="-2.545034000">
        <ele>387.70</ele>
        <time>2012-05-05T09:14:03Z</time>
      </trkpt>
      <trkpt lat="42.482928000" lon="-2.549371000">
        <ele>388.70</ele>
        <time>2012-05-05T09:15:09Z</time>
      </trkpt>
      <trkpt lat="42.482645000" lon="-2.552264000">
        <ele>413.90</ele>
        <time>2012-05-05T09:15:58Z</time>
      </trkpt>
      <trkpt lat="42.482690000" lon="-2.552554000">
        <ele>416.80</ele>
        <time>2012-05-05T09:16:02Z</time>
      </trkpt>
      <trkpt lat="42.482916000" lon="-2.553186000">
        <ele>415.60</ele>
        <time>2012-05-05T09:16:14Z</time>
      </trkpt>
      <trkpt lat="42.482943000" lon="-2.553236000">
        <ele>415.50</ele>
        <time>2012-05-05T09:16:14Z</time>
      </trkpt>
      <trkpt lat="42.483475000" lon="-2.554746000">
        <ele>413.80</ele>
        <time>2012-05-05T09:16:40Z</time>
      </trkpt>
      <trkpt lat="42.483628000" lon="-2.555106000">
        <ele>409.90</ele>
        <time>2012-05-05T09:16:45Z</time>
      </trkpt>
      <trkpt lat="42.484321000" lon="-2.556473000">
        <ele>396.20</ele>
        <time>2012-05-05T09:17:11Z</time>
      </trkpt>
      <trkpt lat="42.484363000" lon="-2.556653000">
        <ele>395.60</ele>
        <time>2012-05-05T09:17:13Z</time>
      </trkpt>
      <trkpt lat="42.484368000" lon="-2.556773000">
        <ele>395.60</ele>
        <time>2012-05-05T09:17:15Z</time>
      </trkpt>
      <trkpt lat="42.484365000" lon="-2.556831000">
        <ele>395.70</ele>
        <time>2012-05-05T09:17:17Z</time>
      </trkpt>
      <trkpt lat="42.484335000" lon="-2.557004000">
        <ele>396.20</ele>
        <time>2012-05-05T09:17:20Z</time>
      </trkpt>
      <trkpt lat="42.484310000" lon="-2.557051000">
        <ele>396.30</ele>
        <time>2012-05-05T09:17:20Z</time>
      </trkpt>
      <trkpt lat="42.484140000" lon="-2.557226000">
        <ele>396.00</ele>
        <time>2012-05-05T09:17:25Z</time>
      </trkpt>
      <trkpt lat="42.483889000" lon="-2.557327000">
        <ele>397.00</ele>
        <time>2012-05-05T09:17:29Z</time>
      </trkpt>
      <trkpt lat="42.483793000" lon="-2.557399000">
        <ele>397.00</ele>
        <time>2012-05-05T09:17:32Z</time>
      </trkpt>
      <trkpt lat="42.483628000" lon="-2.557421000">
        <ele>399.50</ele>
        <time>2012-05-05T09:17:39Z</time>
      </trkpt>
      <trkpt lat="42.483581000" lon="-2.557413000">
        <ele>400.90</ele>
        <time>2012-05-05T09:17:41Z</time>
      </trkpt>
      <trkpt lat="42.483561000" lon="-2.557403000">
        <ele>401.60</ele>
        <time>2012-05-05T09:17:41Z</time>
      </trkpt>
      <trkpt lat="42.483525000" lon="-2.557361000">
        <ele>403.00</ele>
        <time>2012-05-05T09:17:43Z</time>
      </trkpt>
      <trkpt lat="42.483448000" lon="-2.557174000">
        <ele>406.90</ele>
        <time>2012-05-05T09:17:50Z</time>
      </trkpt>
      <trkpt lat="42.483443000" lon="-2.557134000">
        <ele>407.50</ele>
        <time>2012-05-05T09:17:50Z</time>
      </trkpt>
      <trkpt lat="42.483445000" lon="-2.557093000">
        <ele>407.90</ele>
        <time>2012-05-05T09:17:51Z</time>
      </trkpt>
      <trkpt lat="42.483453000" lon="-2.557054000">
        <ele>408.20</ele>
        <time>2012-05-05T09:17:53Z</time>
      </trkpt>
      <trkpt lat="42.483470000" lon="-2.557018000">
        <ele>408.30</ele>
        <time>2012-05-05T09:17:53Z</time>
      </trkpt>
      <trkpt lat="42.483495000" lon="-2.556986000">
        <ele>408.10</ele>
        <time>2012-05-05T09:17:55Z</time>
      </trkpt>
      <trkpt lat="42.483523000" lon="-2.556964000">
        <ele>407.60</ele>
        <time>2012-05-05T09:17:55Z</time>
      </trkpt>
      <trkpt lat="42.483558000" lon="-2.556949000">
        <ele>406.90</ele>
        <time>2012-05-05T09:17:57Z</time>
      </trkpt>
      <trkpt lat="42.483593000" lon="-2.556949000">
        <ele>406.00</ele>
        <time>2012-05-05T09:17:58Z</time>
      </trkpt>
      <trkpt lat="42.483625000" lon="-2.556961000">
        <ele>404.90</ele>
        <time>2012-05-05T09:17:58Z</time>
      </trkpt>
      <trkpt lat="42.483815000" lon="-2.557199000">
        <ele>398.00</ele>
        <time>2012-05-05T09:18:05Z</time>
      </trkpt>
      <trkpt lat="42.484106000" lon="-2.557644000">
        <ele>397.50</ele>
        <time>2012-05-05T09:18:19Z</time>
      </trkpt>
      <trkpt lat="42.484126000" lon="-2.557688000">
        <ele>397.60</ele>
        <time>2012-05-05T09:18:19Z</time>
      </trkpt>
      <trkpt lat="42.484156000" lon="-2.557786000">
        <ele>398.00</ele>
        <time>2012-05-05T09:18:21Z</time>
      </trkpt>
      <trkpt lat="42.484160000" lon="-2.557838000">
        <ele>398.10</ele>
        <time>2012-05-05T09:18:23Z</time>
      </trkpt>
      <trkpt lat="42.484158000" lon="-2.557888000">
        <ele>398.20</ele>
        <time>2012-05-05T09:18:23Z</time>
      </trkpt>
      <trkpt lat="42.484150000" lon="-2.557929000">
        <ele>398.30</ele>
        <time>2012-05-05T09:18:24Z</time>
      </trkpt>
      <trkpt lat="42.484025000" lon="-2.558223000">
        <ele>398.10</ele>
        <time>2012-05-05T09:18:33Z</time>
      </trkpt>
      <trkpt lat="42.483743000" lon="-2.559226000">
        <ele>398.60</ele>
        <time>2012-05-05T09:19:03Z</time>
      </trkpt>
      <trkpt lat="42.483661000" lon="-2.559429000">
        <ele>399.10</ele>
        <time>2012-05-05T09:19:10Z</time>
      </trkpt>
      <trkpt lat="42.483635000" lon="-2.559523000">
        <ele>399.30</ele>
        <time>2012-05-05T09:19:13Z</time>
      </trkpt>
      <trkpt lat="42.483620000" lon="-2.559551000">
        <ele>399.40</ele>
        <time>2012-05-05T09:19:15Z</time>
      </trkpt>
      <trkpt lat="42.483581000" lon="-2.559598000">
        <ele>399.40</ele>
        <time>2012-05-05T09:19:17Z</time>
      </trkpt>
      <trkpt lat="42.483558000" lon="-2.559614000">
        <ele>399.30</ele>
        <time>2012-05-05T09:19:17Z</time>
      </trkpt>
      <trkpt lat="42.483481000" lon="-2.559711000">
        <ele>399.10</ele>
        <time>2012-05-05T09:19:22Z</time>
      </trkpt>
      <trkpt lat="42.483465000" lon="-2.559739000">
        <ele>399.10</ele>
        <time>2012-05-05T09:19:22Z</time>
      </trkpt>
      <trkpt lat="42.483451000" lon="-2.559769000">
        <ele>399.10</ele>
        <time>2012-05-05T09:19:24Z</time>
      </trkpt>
      <trkpt lat="42.483445000" lon="-2.559801000">
        <ele>399.10</ele>
        <time>2012-05-05T09:19:24Z</time>
      </trkpt>
      <trkpt lat="42.483441000" lon="-2.559834000">
        <ele>399.10</ele>
        <time>2012-05-05T09:19:25Z</time>
      </trkpt>
      <trkpt lat="42.483443000" lon="-2.559906000">
        <ele>399.10</ele>
        <time>2012-05-05T09:19:27Z</time>
      </trkpt>
      <trkpt lat="42.483448000" lon="-2.559943000">
        <ele>399.10</ele>
        <time>2012-05-05T09:19:29Z</time>
      </trkpt>
      <trkpt lat="42.483466000" lon="-2.560009000">
        <ele>399.20</ele>
        <time>2012-05-05T09:19:31Z</time>
      </trkpt>
      <trkpt lat="42.483493000" lon="-2.560071000">
        <ele>399.30</ele>
        <time>2012-05-05T09:19:32Z</time>
      </trkpt>
      <trkpt lat="42.483555000" lon="-2.560284000">
        <ele>399.60</ele>
        <time>2012-05-05T09:19:39Z</time>
      </trkpt>
      <trkpt lat="42.483678000" lon="-2.560978000">
        <ele>402.70</ele>
        <time>2012-05-05T09:20:00Z</time>
      </trkpt>
      <trkpt lat="42.483680000" lon="-2.561189000">
        <ele>403.90</ele>
        <time>2012-05-05T09:20:07Z</time>
      </trkpt>
      <trkpt lat="42.483666000" lon="-2.561296000">
        <ele>404.50</ele>
        <time>2012-05-05T09:20:09Z</time>
      </trkpt>
      <trkpt lat="42.483641000" lon="-2.561398000">
        <ele>405.20</ele>
        <time>2012-05-05T09:20:12Z</time>
      </trkpt>
      <trkpt lat="42.483428000" lon="-2.561838000">
        <ele>407.90</ele>
        <time>2012-05-05T09:20:26Z</time>
      </trkpt>
      <trkpt lat="42.483408000" lon="-2.561863000">
        <ele>408.00</ele>
        <time>2012-05-05T09:20:28Z</time>
      </trkpt>
      <trkpt lat="42.483160000" lon="-2.562193000">
        <ele>409.60</ele>
        <time>2012-05-05T09:20:40Z</time>
      </trkpt>
      <trkpt lat="42.483153000" lon="-2.562218000">
        <ele>409.70</ele>
        <time>2012-05-05T09:20:42Z</time>
      </trkpt>
      <trkpt lat="42.483160000" lon="-2.562243000">
        <ele>409.80</ele>
        <time>2012-05-05T09:20:42Z</time>
      </trkpt>
      <trkpt lat="42.483171000" lon="-2.562259000">
        <ele>409.90</ele>
        <time>2012-05-05T09:20:44Z</time>
      </trkpt>
      <trkpt lat="42.483340000" lon="-2.562329000">
        <ele>410.70</ele>
        <time>2012-05-05T09:20:51Z</time>
      </trkpt>
      <trkpt lat="42.483388000" lon="-2.562339000">
        <ele>410.90</ele>
        <time>2012-05-05T09:20:54Z</time>
      </trkpt>
      <trkpt lat="42.483743000" lon="-2.562488000">
        <ele>411.90</ele>
        <time>2012-05-05T09:21:08Z</time>
      </trkpt>
      <trkpt lat="42.483798000" lon="-2.562496000">
        <ele>411.90</ele>
        <time>2012-05-05T09:21:10Z</time>
      </trkpt>
      <trkpt lat="42.483883000" lon="-2.562489000">
        <ele>411.90</ele>
        <time>2012-05-05T09:21:12Z</time>
      </trkpt>
      <trkpt lat="42.485101000" lon="-2.561996000">
        <ele>411.90</ele>
        <time>2012-05-05T09:21:50Z</time>
      </trkpt>
      <trkpt lat="42.485135000" lon="-2.561989000">
        <ele>411.90</ele>
        <time>2012-05-05T09:21:52Z</time>
      </trkpt>
      <trkpt lat="42.485898000" lon="-2.562028000">
        <ele>410.90</ele>
        <time>2012-05-05T09:22:16Z</time>
      </trkpt>
      <trkpt lat="42.485958000" lon="-2.562023000">
        <ele>410.70</ele>
        <time>2012-05-05T09:22:18Z</time>
      </trkpt>
      <trkpt lat="42.486958000" lon="-2.562289000">
        <ele>409.60</ele>
        <time>2012-05-05T09:22:46Z</time>
      </trkpt>
      <trkpt lat="42.487018000" lon="-2.562326000">
        <ele>409.60</ele>
        <time>2012-05-05T09:22:51Z</time>
      </trkpt>
      <trkpt lat="42.487245000" lon="-2.562456000">
        <ele>409.40</ele>
        <time>2012-05-05T09:23:01Z</time>
      </trkpt>
      <trkpt lat="42.487273000" lon="-2.562466000">
        <ele>409.40</ele>
        <time>2012-05-05T09:23:03Z</time>
      </trkpt>
      <trkpt lat="42.487686000" lon="-2.562744000">
        <ele>408.60</ele>
        <time>2012-05-05T09:23:17Z</time>
      </trkpt>
      <trkpt lat="42.487691000" lon="-2.562754000">
        <ele>408.50</ele>
        <time>2012-05-05T09:23:17Z</time>
      </trkpt>
      <trkpt lat="42.487693000" lon="-2.562758000">
        <ele>408.50</ele>
        <time>2012-05-05T09:23:19Z</time>
      </trkpt>
      <trkpt lat="42.487713000" lon="-2.562759000">
        <ele>408.50</ele>
        <time>2012-05-05T09:23:24Z</time>
      </trkpt>
      <trkpt lat="42.487736000" lon="-2.562774000">
        <ele>408.40</ele>
        <time>2012-05-05T09:23:28Z</time>
      </trkpt>
      <trkpt lat="42.487753000" lon="-2.562786000">
        <ele>408.40</ele>
        <time>2012-05-05T09:23:29Z</time>
      </trkpt>
      <trkpt lat="42.487763000" lon="-2.562788000">
        <ele>408.40</ele>
        <time>2012-05-05T09:23:31Z</time>
      </trkpt>
      <trkpt lat="42.487771000" lon="-2.562788000">
        <ele>408.30</ele>
        <time>2012-05-05T09:23:31Z</time>
      </trkpt>
      <trkpt lat="42.487788000" lon="-2.562786000">
        <ele>408.30</ele>
        <time>2012-05-05T09:23:33Z</time>
      </trkpt>
      <trkpt lat="42.487796000" lon="-2.562789000">
        <ele>408.20</ele>
        <time>2012-05-05T09:23:36Z</time>
      </trkpt>
      <trkpt lat="42.487816000" lon="-2.562794000">
        <ele>408.20</ele>
        <time>2012-05-05T09:23:42Z</time>
      </trkpt>
      <trkpt lat="42.487816000" lon="-2.562796000">
        <ele>408.20</ele>
        <time>2012-05-05T09:23:43Z</time>
      </trkpt>
      <trkpt lat="42.487821000" lon="-2.562796000">
        <ele>408.10</ele>
        <time>2012-05-05T09:23:45Z</time>
      </trkpt>
      <trkpt lat="42.487826000" lon="-2.562794000">
        <ele>408.10</ele>
        <time>2012-05-05T09:23:47Z</time>
      </trkpt>
      <trkpt lat="42.487826000" lon="-2.562799000">
        <ele>408.10</ele>
        <time>2012-05-05T09:23:50Z</time>
      </trkpt>
      <trkpt lat="42.487851000" lon="-2.562804000">
        <ele>408.10</ele>
        <time>2012-05-05T09:23:52Z</time>
      </trkpt>
      <trkpt lat="42.487873000" lon="-2.562816000">
        <ele>408.00</ele>
        <time>2012-05-05T09:23:54Z</time>
      </trkpt>
      <trkpt lat="42.487896000" lon="-2.562839000">
        <ele>408.00</ele>
        <time>2012-05-05T09:23:54Z</time>
      </trkpt>
      <trkpt lat="42.487918000" lon="-2.562883000">
        <ele>407.90</ele>
        <time>2012-05-05T09:23:55Z</time>
      </trkpt>
      <trkpt lat="42.488075000" lon="-2.564271000">
        <ele>409.40</ele>
        <time>2012-05-05T09:24:20Z</time>
      </trkpt>
      <trkpt lat="42.488075000" lon="-2.564321000">
        <ele>409.40</ele>
        <time>2012-05-05T09:24:22Z</time>
      </trkpt>
      <trkpt lat="42.488253000" lon="-2.567001000">
        <ele>409.70</ele>
        <time>2012-05-05T09:25:17Z</time>
      </trkpt>
      <trkpt lat="42.488315000" lon="-2.568324000">
        <ele>411.50</ele>
        <time>2012-05-05T09:25:42Z</time>
      </trkpt>
      <trkpt lat="42.488311000" lon="-2.568379000">
        <ele>411.50</ele>
        <time>2012-05-05T09:25:42Z</time>
      </trkpt>
      <trkpt lat="42.488353000" lon="-2.569274000">
        <ele>411.00</ele>
        <time>2012-05-05T09:25:59Z</time>
      </trkpt>
      <trkpt lat="42.488313000" lon="-2.569564000">
        <ele>410.70</ele>
        <time>2012-05-05T09:26:04Z</time>
      </trkpt>
      <trkpt lat="42.488313000" lon="-2.569604000">
        <ele>410.60</ele>
        <time>2012-05-05T09:26:06Z</time>
      </trkpt>
      <trkpt lat="42.488320000" lon="-2.569644000">
        <ele>410.50</ele>
        <time>2012-05-05T09:26:06Z</time>
      </trkpt>
      <trkpt lat="42.488335000" lon="-2.569679000">
        <ele>410.30</ele>
        <time>2012-05-05T09:26:08Z</time>
      </trkpt>
      <trkpt lat="42.488358000" lon="-2.569713000">
        <ele>410.10</ele>
        <time>2012-05-05T09:26:08Z</time>
      </trkpt>
      <trkpt lat="42.488513000" lon="-2.569856000">
        <ele>408.70</ele>
        <time>2012-05-05T09:26:13Z</time>
      </trkpt>
      <trkpt lat="42.488528000" lon="-2.569874000">
        <ele>408.50</ele>
        <time>2012-05-05T09:26:15Z</time>
      </trkpt>
      <trkpt lat="42.488536000" lon="-2.569894000">
        <ele>408.30</ele>
        <time>2012-05-05T09:26:15Z</time>
      </trkpt>
      <trkpt lat="42.488538000" lon="-2.569914000">
        <ele>408.10</ele>
        <time>2012-05-05T09:26:17Z</time>
      </trkpt>
      <trkpt lat="42.488528000" lon="-2.569931000">
        <ele>408.00</ele>
        <time>2012-05-05T09:26:18Z</time>
      </trkpt>
      <trkpt lat="42.488515000" lon="-2.569941000">
        <ele>408.00</ele>
        <time>2012-05-05T09:26:18Z</time>
      </trkpt>
      <trkpt lat="42.488495000" lon="-2.569946000">
        <ele>408.10</ele>
        <time>2012-05-05T09:26:20Z</time>
      </trkpt>
      <trkpt lat="42.488450000" lon="-2.569948000">
        <ele>408.30</ele>
        <time>2012-05-05T09:26:22Z</time>
      </trkpt>
      <trkpt lat="42.488413000" lon="-2.569958000">
        <ele>408.60</ele>
        <time>2012-05-05T09:26:23Z</time>
      </trkpt>
      <trkpt lat="42.488403000" lon="-2.569968000">
        <ele>408.60</ele>
        <time>2012-05-05T09:26:25Z</time>
      </trkpt>
      <trkpt lat="42.488390000" lon="-2.569998000">
        <ele>408.70</ele>
        <time>2012-05-05T09:26:27Z</time>
      </trkpt>
      <trkpt lat="42.488388000" lon="-2.570009000">
        <ele>408.70</ele>
        <time>2012-05-05T09:26:27Z</time>
      </trkpt>
      <trkpt lat="42.488393000" lon="-2.570028000">
        <ele>408.70</ele>
        <time>2012-05-05T09:26:29Z</time>
      </trkpt>
      <trkpt lat="42.488406000" lon="-2.570048000">
        <ele>408.60</ele>
        <time>2012-05-05T09:26:29Z</time>
      </trkpt>
      <trkpt lat="42.488578000" lon="-2.570106000">
        <ele>407.20</ele>
        <time>2012-05-05T09:26:36Z</time>
      </trkpt>
      <trkpt lat="42.488726000" lon="-2.570216000">
        <ele>405.70</ele>
        <time>2012-05-05T09:26:39Z</time>
      </trkpt>
      <trkpt lat="42.489275000" lon="-2.570831000">
        <ele>397.30</ele>
        <time>2012-05-05T09:26:51Z</time>
      </trkpt>
      <trkpt lat="42.489336000" lon="-2.570881000">
        <ele>396.90</ele>
        <time>2012-05-05T09:26:53Z</time>
      </trkpt>
      <trkpt lat="42.489535000" lon="-2.570988000">
        <ele>394.50</ele>
        <time>2012-05-05T09:26:55Z</time>
      </trkpt>
      <trkpt lat="42.489901000" lon="-2.571034000">
        <ele>393.20</ele>
        <time>2012-05-05T09:27:00Z</time>
      </trkpt>
      <trkpt lat="42.490046000" lon="-2.571034000">
        <ele>393.10</ele>
        <time>2012-05-05T09:27:02Z</time>
      </trkpt>
      <trkpt lat="42.490188000" lon="-2.571036000">
        <ele>393.10</ele>
        <time>2012-05-05T09:27:05Z</time>
      </trkpt>
      <trkpt lat="42.490886000" lon="-2.571108000">
        <ele>392.50</ele>
        <time>2012-05-05T09:27:16Z</time>
      </trkpt>
      <trkpt lat="42.491256000" lon="-2.571278000">
        <ele>392.00</ele>
        <time>2012-05-05T09:27:21Z</time>
      </trkpt>
      <trkpt lat="42.491471000" lon="-2.571451000">
        <ele>391.80</ele>
        <time>2012-05-05T09:27:26Z</time>
      </trkpt>
      <trkpt lat="42.492050000" lon="-2.572328000">
        <ele>391.00</ele>
        <time>2012-05-05T09:27:40Z</time>
      </trkpt>
      <trkpt lat="42.492680000" lon="-2.573506000">
        <ele>401.70</ele>
        <time>2012-05-05T09:28:05Z</time>
      </trkpt>
      <trkpt lat="42.492703000" lon="-2.573526000">
        <ele>402.10</ele>
        <time>2012-05-05T09:28:06Z</time>
      </trkpt>
      <trkpt lat="42.492733000" lon="-2.573534000">
        <ele>403.10</ele>
        <time>2012-05-05T09:28:06Z</time>
      </trkpt>
      <trkpt lat="42.492761000" lon="-2.573529000">
        <ele>403.60</ele>
        <time>2012-05-05T09:28:08Z</time>
      </trkpt>
      <trkpt lat="42.492821000" lon="-2.573498000">
        <ele>404.10</ele>
        <time>2012-05-05T09:28:10Z</time>
      </trkpt>
      <trkpt lat="42.492978000" lon="-2.573324000">
        <ele>403.60</ele>
        <time>2012-05-05T09:28:15Z</time>
      </trkpt>
      <trkpt lat="42.493235000" lon="-2.572781000">
        <ele>402.30</ele>
        <time>2012-05-05T09:28:29Z</time>
      </trkpt>
      <trkpt lat="42.493266000" lon="-2.572728000">
        <ele>402.80</ele>
        <time>2012-05-05T09:28:31Z</time>
      </trkpt>
      <trkpt lat="42.493280000" lon="-2.572698000">
        <ele>403.00</ele>
        <time>2012-05-05T09:28:32Z</time>
      </trkpt>
      <trkpt lat="42.493296000" lon="-2.572673000">
        <ele>403.20</ele>
        <time>2012-05-05T09:28:34Z</time>
      </trkpt>
      <trkpt lat="42.493313000" lon="-2.572654000">
        <ele>403.50</ele>
        <time>2012-05-05T09:28:34Z</time>
      </trkpt>
      <trkpt lat="42.493333000" lon="-2.572649000">
        <ele>403.90</ele>
        <time>2012-05-05T09:28:36Z</time>
      </trkpt>
      <trkpt lat="42.493351000" lon="-2.572661000">
        <ele>404.40</ele>
        <time>2012-05-05T09:28:36Z</time>
      </trkpt>
      <trkpt lat="42.493361000" lon="-2.572684000">
        <ele>405.00</ele>
        <time>2012-05-05T09:28:38Z</time>
      </trkpt>
      <trkpt lat="42.493361000" lon="-2.572711000">
        <ele>405.40</ele>
        <time>2012-05-05T09:28:38Z</time>
      </trkpt>
      <trkpt lat="42.493355000" lon="-2.572733000">
        <ele>405.70</ele>
        <time>2012-05-05T09:28:39Z</time>
      </trkpt>
      <trkpt lat="42.493315000" lon="-2.572813000">
        <ele>405.70</ele>
        <time>2012-05-05T09:28:43Z</time>
      </trkpt>
      <trkpt lat="42.493246000" lon="-2.573031000">
        <ele>406.20</ele>
        <time>2012-05-05T09:28:53Z</time>
      </trkpt>
      <trkpt lat="42.493235000" lon="-2.573081000">
        <ele>406.60</ele>
        <time>2012-05-05T09:28:55Z</time>
      </trkpt>
      <trkpt lat="42.493103000" lon="-2.573499000">
        <ele>410.30</ele>
        <time>2012-05-05T09:29:12Z</time>
      </trkpt>
      <trkpt lat="42.493098000" lon="-2.573524000">
        <ele>410.40</ele>
        <time>2012-05-05T09:29:14Z</time>
      </trkpt>
      <trkpt lat="42.493061000" lon="-2.573903000">
        <ele>415.90</ele>
        <time>2012-05-05T09:29:28Z</time>
      </trkpt>
      <trkpt lat="42.493036000" lon="-2.574134000">
        <ele>418.20</ele>
        <time>2012-05-05T09:29:37Z</time>
      </trkpt>
      <trkpt lat="42.493058000" lon="-2.574301000">
        <ele>420.50</ele>
        <time>2012-05-05T09:29:44Z</time>
      </trkpt>
      <trkpt lat="42.493065000" lon="-2.574323000">
        <ele>420.90</ele>
        <time>2012-05-05T09:29:46Z</time>
      </trkpt>
      <trkpt lat="42.493116000" lon="-2.574441000">
        <ele>423.20</ele>
        <time>2012-05-05T09:29:51Z</time>
      </trkpt>
      <trkpt lat="42.493126000" lon="-2.574454000">
        <ele>423.60</ele>
        <time>2012-05-05T09:29:53Z</time>
      </trkpt>
      <trkpt lat="42.493140000" lon="-2.574463000">
        <ele>423.90</ele>
        <time>2012-05-05T09:29:54Z</time>
      </trkpt>
      <trkpt lat="42.493153000" lon="-2.574464000">
        <ele>424.20</ele>
        <time>2012-05-05T09:29:54Z</time>
      </trkpt>
      <trkpt lat="42.493166000" lon="-2.574461000">
        <ele>424.50</ele>
        <time>2012-05-05T09:29:56Z</time>
      </trkpt>
      <trkpt lat="42.493176000" lon="-2.574451000">
        <ele>424.60</ele>
        <time>2012-05-05T09:29:56Z</time>
      </trkpt>
      <trkpt lat="42.493198000" lon="-2.574423000">
        <ele>424.90</ele>
        <time>2012-05-05T09:29:58Z</time>
      </trkpt>
      <trkpt lat="42.493321000" lon="-2.574226000">
        <ele>425.30</ele>
        <time>2012-05-05T09:30:10Z</time>
      </trkpt>
      <trkpt lat="42.493393000" lon="-2.574048000">
        <ele>425.10</ele>
        <time>2012-05-05T09:30:17Z</time>
      </trkpt>
      <trkpt lat="42.493400000" lon="-2.574023000">
        <ele>425.10</ele>
        <time>2012-05-05T09:30:19Z</time>
      </trkpt>
      <trkpt lat="42.493558000" lon="-2.573606000">
        <ele>424.50</ele>
        <time>2012-05-05T09:30:34Z</time>
      </trkpt>
      <trkpt lat="42.493760000" lon="-2.573266000">
        <ele>425.70</ele>
        <time>2012-05-05T09:30:47Z</time>
      </trkpt>
      <trkpt lat="42.494253000" lon="-2.572641000">
        <ele>426.30</ele>
        <time>2012-05-05T09:31:11Z</time>
      </trkpt>
      <trkpt lat="42.494475000" lon="-2.572286000">
        <ele>427.40</ele>
        <time>2012-05-05T09:31:21Z</time>
      </trkpt>
      <trkpt lat="42.494501000" lon="-2.572261000">
        <ele>427.60</ele>
        <time>2012-05-05T09:31:21Z</time>
      </trkpt>
      <trkpt lat="42.494520000" lon="-2.572238000">
        <ele>428.00</ele>
        <time>2012-05-05T09:31:23Z</time>
      </trkpt>
      <trkpt lat="42.494540000" lon="-2.572219000">
        <ele>428.30</ele>
        <time>2012-05-05T09:31:23Z</time>
      </trkpt>
      <trkpt lat="42.494598000" lon="-2.572211000">
        <ele>429.20</ele>
        <time>2012-05-05T09:31:25Z</time>
      </trkpt>
      <trkpt lat="42.494633000" lon="-2.572214000">
        <ele>429.60</ele>
        <time>2012-05-05T09:31:27Z</time>
      </trkpt>
      <trkpt lat="42.494663000" lon="-2.572213000">
        <ele>429.90</ele>
        <time>2012-05-05T09:31:28Z</time>
      </trkpt>
      <trkpt lat="42.494696000" lon="-2.572214000">
        <ele>430.10</ele>
        <time>2012-05-05T09:31:28Z</time>
      </trkpt>
      <trkpt lat="42.494726000" lon="-2.572213000">
        <ele>430.30</ele>
        <time>2012-05-05T09:31:30Z</time>
      </trkpt>
      <trkpt lat="42.495153000" lon="-2.572276000">
        <ele>433.10</ele>
        <time>2012-05-05T09:31:42Z</time>
      </trkpt>
      <trkpt lat="42.495181000" lon="-2.572271000">
        <ele>433.30</ele>
        <time>2012-05-05T09:31:44Z</time>
      </trkpt>
      <trkpt lat="42.495206000" lon="-2.572259000">
        <ele>433.40</ele>
        <time>2012-05-05T09:31:44Z</time>
      </trkpt>
      <trkpt lat="42.495226000" lon="-2.572238000">
        <ele>433.50</ele>
        <time>2012-05-05T09:31:46Z</time>
      </trkpt>
      <trkpt lat="42.495240000" lon="-2.572206000">
        <ele>433.50</ele>
        <time>2012-05-05T09:31:46Z</time>
      </trkpt>
      <trkpt lat="42.495330000" lon="-2.571809000">
        <ele>431.50</ele>
        <time>2012-05-05T09:31:56Z</time>
      </trkpt>
      <trkpt lat="42.495360000" lon="-2.571533000">
        <ele>429.50</ele>
        <time>2012-05-05T09:32:03Z</time>
      </trkpt>
      <trkpt lat="42.495376000" lon="-2.571486000">
        <ele>429.20</ele>
        <time>2012-05-05T09:32:03Z</time>
      </trkpt>
      <trkpt lat="42.495410000" lon="-2.571461000">
        <ele>429.00</ele>
        <time>2012-05-05T09:32:05Z</time>
      </trkpt>
      <trkpt lat="42.495583000" lon="-2.571424000">
        <ele>430.20</ele>
        <time>2012-05-05T09:32:12Z</time>
      </trkpt>
      <trkpt lat="42.495635000" lon="-2.571421000">
        <ele>430.70</ele>
        <time>2012-05-05T09:32:14Z</time>
      </trkpt>
      <trkpt lat="42.495958000" lon="-2.571326000">
        <ele>433.80</ele>
        <time>2012-05-05T09:32:22Z</time>
      </trkpt>
      <trkpt lat="42.496158000" lon="-2.571234000">
        <ele>435.90</ele>
        <time>2012-05-05T09:32:26Z</time>
      </trkpt>
      <trkpt lat="42.496195000" lon="-2.571208000">
        <ele>436.10</ele>
        <time>2012-05-05T09:32:26Z</time>
      </trkpt>
      <trkpt lat="42.496216000" lon="-2.571176000">
        <ele>436.30</ele>
        <time>2012-05-05T09:32:28Z</time>
      </trkpt>
      <trkpt lat="42.496226000" lon="-2.571148000">
        <ele>436.30</ele>
        <time>2012-05-05T09:32:29Z</time>
      </trkpt>
      <trkpt lat="42.496233000" lon="-2.571113000">
        <ele>436.00</ele>
        <time>2012-05-05T09:32:31Z</time>
      </trkpt>
      <trkpt lat="42.496238000" lon="-2.571111000">
        <ele>435.90</ele>
        <time>2012-05-05T09:32:31Z</time>
      </trkpt>
      <trkpt lat="42.496240000" lon="-2.571109000">
        <ele>435.80</ele>
        <time>2012-05-05T09:32:33Z</time>
      </trkpt>
      <trkpt lat="42.496241000" lon="-2.571108000">
        <ele>435.80</ele>
        <time>2012-05-05T09:32:35Z</time>
      </trkpt>
      <trkpt lat="42.496245000" lon="-2.571108000">
        <ele>435.80</ele>
        <time>2012-05-05T09:32:36Z</time>
      </trkpt>
      <trkpt lat="42.496248000" lon="-2.571106000">
        <ele>435.80</ele>
        <time>2012-05-05T09:32:36Z</time>
      </trkpt>
      <trkpt lat="42.496250000" lon="-2.571104000">
        <ele>435.90</ele>
        <time>2012-05-05T09:32:38Z</time>
      </trkpt>
      <trkpt lat="42.496260000" lon="-2.571099000">
        <ele>435.90</ele>
        <time>2012-05-05T09:32:43Z</time>
      </trkpt>
      <trkpt lat="42.496268000" lon="-2.571098000">
        <ele>435.90</ele>
        <time>2012-05-05T09:32:48Z</time>
      </trkpt>
      <trkpt lat="42.496270000" lon="-2.571096000">
        <ele>435.90</ele>
        <time>2012-05-05T09:32:50Z</time>
      </trkpt>
      <trkpt lat="42.496281000" lon="-2.571093000">
        <ele>435.90</ele>
        <time>2012-05-05T09:32:54Z</time>
      </trkpt>
      <trkpt lat="42.496288000" lon="-2.571089000">
        <ele>435.90</ele>
        <time>2012-05-05T09:32:57Z</time>
      </trkpt>
      <trkpt lat="42.496295000" lon="-2.571088000">
        <ele>435.90</ele>
        <time>2012-05-05T09:32:59Z</time>
      </trkpt>
      <trkpt lat="42.496298000" lon="-2.571088000">
        <ele>436.00</ele>
        <time>2012-05-05T09:32:59Z</time>
      </trkpt>
      <trkpt lat="42.496301000" lon="-2.571086000">
        <ele>436.00</ele>
        <time>2012-05-05T09:33:01Z</time>
      </trkpt>
      <trkpt lat="42.496305000" lon="-2.571086000">
        <ele>436.00</ele>
        <time>2012-05-05T09:33:01Z</time>
      </trkpt>
      <trkpt lat="42.496306000" lon="-2.571084000">
        <ele>436.00</ele>
        <time>2012-05-05T09:33:02Z</time>
      </trkpt>
      <trkpt lat="42.496315000" lon="-2.571083000">
        <ele>436.00</ele>
        <time>2012-05-05T09:33:06Z</time>
      </trkpt>
      <trkpt lat="42.496316000" lon="-2.571081000">
        <ele>436.00</ele>
        <time>2012-05-05T09:33:08Z</time>
      </trkpt>
      <trkpt lat="42.496331000" lon="-2.571078000">
        <ele>436.00</ele>
        <time>2012-05-05T09:33:13Z</time>
      </trkpt>
      <trkpt lat="42.496335000" lon="-2.571076000">
        <ele>436.10</ele>
        <time>2012-05-05T09:33:15Z</time>
      </trkpt>
      <trkpt lat="42.496338000" lon="-2.571076000">
        <ele>436.10</ele>
        <time>2012-05-05T09:33:16Z</time>
      </trkpt>
      <trkpt lat="42.496355000" lon="-2.571069000">
        <ele>436.10</ele>
        <time>2012-05-05T09:33:20Z</time>
      </trkpt>
      <trkpt lat="42.496363000" lon="-2.571068000">
        <ele>436.10</ele>
        <time>2012-05-05T09:33:22Z</time>
      </trkpt>
      <trkpt lat="42.496368000" lon="-2.571066000">
        <ele>436.10</ele>
        <time>2012-05-05T09:33:23Z</time>
      </trkpt>
      <trkpt lat="42.496371000" lon="-2.571064000">
        <ele>436.20</ele>
        <time>2012-05-05T09:33:23Z</time>
      </trkpt>
      <trkpt lat="42.496383000" lon="-2.571061000">
        <ele>436.20</ele>
        <time>2012-05-05T09:33:27Z</time>
      </trkpt>
      <trkpt lat="42.496390000" lon="-2.571058000">
        <ele>436.20</ele>
        <time>2012-05-05T09:33:30Z</time>
      </trkpt>
      <trkpt lat="42.496391000" lon="-2.571056000">
        <ele>436.20</ele>
        <time>2012-05-05T09:33:30Z</time>
      </trkpt>
      <trkpt lat="42.496400000" lon="-2.571056000">
        <ele>436.20</ele>
        <time>2012-05-05T09:33:36Z</time>
      </trkpt>
      <trkpt lat="42.496401000" lon="-2.571056000">
        <ele>436.30</ele>
        <time>2012-05-05T09:33:37Z</time>
      </trkpt>
      <trkpt lat="42.496403000" lon="-2.571051000">
        <ele>436.20</ele>
        <time>2012-05-05T09:33:37Z</time>
      </trkpt>
      <trkpt lat="42.496448000" lon="-2.570819000">
        <ele>434.10</ele>
        <time>2012-05-05T09:33:42Z</time>
      </trkpt>
      <trkpt lat="42.496465000" lon="-2.570358000">
        <ele>428.50</ele>
        <time>2012-05-05T09:33:48Z</time>
      </trkpt>
      <trkpt lat="42.496478000" lon="-2.570261000">
        <ele>427.30</ele>
        <time>2012-05-05T09:33:48Z</time>
      </trkpt>
      <trkpt lat="42.496505000" lon="-2.570169000">
        <ele>426.30</ele>
        <time>2012-05-05T09:33:49Z</time>
      </trkpt>
      <trkpt lat="42.496713000" lon="-2.569789000">
        <ele>423.50</ele>
        <time>2012-05-05T09:33:53Z</time>
      </trkpt>
      <trkpt lat="42.496758000" lon="-2.569659000">
        <ele>422.70</ele>
        <time>2012-05-05T09:33:55Z</time>
      </trkpt>
      <trkpt lat="42.496838000" lon="-2.568803000">
        <ele>411.00</ele>
        <time>2012-05-05T09:34:00Z</time>
      </trkpt>
      <trkpt lat="42.496873000" lon="-2.568698000">
        <ele>409.40</ele>
        <time>2012-05-05T09:34:02Z</time>
      </trkpt>
      <trkpt lat="42.497076000" lon="-2.568324000">
        <ele>407.00</ele>
        <time>2012-05-05T09:34:05Z</time>
      </trkpt>
      <trkpt lat="42.497153000" lon="-2.568099000">
        <ele>405.90</ele>
        <time>2012-05-05T09:34:07Z</time>
      </trkpt>
      <trkpt lat="42.497313000" lon="-2.567353000">
        <ele>406.60</ele>
        <time>2012-05-05T09:34:14Z</time>
      </trkpt>
      <trkpt lat="42.497351000" lon="-2.566774000">
        <ele>410.40</ele>
        <time>2012-05-05T09:34:21Z</time>
      </trkpt>
      <trkpt lat="42.497365000" lon="-2.566716000">
        <ele>410.80</ele>
        <time>2012-05-05T09:34:21Z</time>
      </trkpt>
      <trkpt lat="42.497405000" lon="-2.566618000">
        <ele>411.60</ele>
        <time>2012-05-05T09:34:24Z</time>
      </trkpt>
      <trkpt lat="42.497433000" lon="-2.566583000">
        <ele>411.90</ele>
        <time>2012-05-05T09:34:24Z</time>
      </trkpt>
      <trkpt lat="42.497465000" lon="-2.566558000">
        <ele>412.10</ele>
        <time>2012-05-05T09:34:26Z</time>
      </trkpt>
      <trkpt lat="42.497493000" lon="-2.566544000">
        <ele>412.10</ele>
        <time>2012-05-05T09:34:26Z</time>
      </trkpt>
      <trkpt lat="42.497525000" lon="-2.566541000">
        <ele>412.10</ele>
        <time>2012-05-05T09:34:28Z</time>
      </trkpt>
      <trkpt lat="42.497615000" lon="-2.566553000">
        <ele>411.60</ele>
        <time>2012-05-05T09:34:31Z</time>
      </trkpt>
      <trkpt lat="42.497641000" lon="-2.566561000">
        <ele>411.50</ele>
        <time>2012-05-05T09:34:31Z</time>
      </trkpt>
      <trkpt lat="42.498208000" lon="-2.566676000">
        <ele>411.30</ele>
        <time>2012-05-05T09:34:54Z</time>
      </trkpt>
      <trkpt lat="42.498221000" lon="-2.566679000">
        <ele>411.50</ele>
        <time>2012-05-05T09:34:56Z</time>
      </trkpt>
      <trkpt lat="42.498223000" lon="-2.566681000">
        <ele>411.50</ele>
        <time>2012-05-05T09:34:57Z</time>
      </trkpt>
      <trkpt lat="42.498225000" lon="-2.566683000">
        <ele>411.60</ele>
        <time>2012-05-05T09:34:57Z</time>
      </trkpt>
      <trkpt lat="42.498226000" lon="-2.566683000">
        <ele>411.60</ele>
        <time>2012-05-05T09:34:59Z</time>
      </trkpt>
      <trkpt lat="42.498226000" lon="-2.566683000">
        <ele>411.60</ele>
        <time>2012-05-05T09:35:01Z</time>
      </trkpt>
      <trkpt lat="42.498228000" lon="-2.566683000">
        <ele>411.70</ele>
        <time>2012-05-05T09:35:04Z</time>
      </trkpt>
      <trkpt lat="42.498228000" lon="-2.566684000">
        <ele>411.70</ele>
        <time>2012-05-05T09:35:06Z</time>
      </trkpt>
      <trkpt lat="42.498226000" lon="-2.566683000">
        <ele>411.70</ele>
        <time>2012-05-05T09:35:13Z</time>
      </trkpt>
      <trkpt lat="42.498228000" lon="-2.566683000">
        <ele>411.70</ele>
        <time>2012-05-05T09:35:18Z</time>
      </trkpt>
      <trkpt lat="42.498228000" lon="-2.566686000">
        <ele>411.70</ele>
        <time>2012-05-05T09:35:22Z</time>
      </trkpt>
      <trkpt lat="42.498226000" lon="-2.566691000">
        <ele>411.70</ele>
        <time>2012-05-05T09:35:22Z</time>
      </trkpt>
      <trkpt lat="42.498223000" lon="-2.566694000">
        <ele>411.60</ele>
        <time>2012-05-05T09:35:24Z</time>
      </trkpt>
      <trkpt lat="42.498218000" lon="-2.566698000">
        <ele>411.60</ele>
        <time>2012-05-05T09:35:25Z</time>
      </trkpt>
      <trkpt lat="42.498213000" lon="-2.566699000">
        <ele>411.50</ele>
        <time>2012-05-05T09:35:25Z</time>
      </trkpt>
      <trkpt lat="42.498200000" lon="-2.566699000">
        <ele>411.40</ele>
        <time>2012-05-05T09:35:27Z</time>
      </trkpt>
      <trkpt lat="42.498185000" lon="-2.566694000">
        <ele>411.30</ele>
        <time>2012-05-05T09:35:29Z</time>
      </trkpt>
      <trkpt lat="42.497810000" lon="-2.566641000">
        <ele>409.50</ele>
        <time>2012-05-05T09:35:43Z</time>
      </trkpt>
      <trkpt lat="42.497775000" lon="-2.566628000">
        <ele>409.60</ele>
        <time>2012-05-05T09:35:44Z</time>
      </trkpt>
      <trkpt lat="42.497608000" lon="-2.566559000">
        <ele>411.20</ele>
        <time>2012-05-05T09:35:51Z</time>
      </trkpt>
      <trkpt lat="42.497600000" lon="-2.566556000">
        <ele>411.30</ele>
        <time>2012-05-05T09:35:53Z</time>
      </trkpt>
      <trkpt lat="42.497591000" lon="-2.566549000">
        <ele>411.40</ele>
        <time>2012-05-05T09:35:53Z</time>
      </trkpt>
      <trkpt lat="42.497591000" lon="-2.566544000">
        <ele>411.50</ele>
        <time>2012-05-05T09:35:55Z</time>
      </trkpt>
      <trkpt lat="42.497590000" lon="-2.566544000">
        <ele>411.50</ele>
        <time>2012-05-05T09:35:55Z</time>
      </trkpt>
      <trkpt lat="42.497590000" lon="-2.566541000">
        <ele>411.60</ele>
        <time>2012-05-05T09:35:57Z</time>
      </trkpt>
      <trkpt lat="42.497581000" lon="-2.566541000">
        <ele>411.60</ele>
        <time>2012-05-05T09:36:02Z</time>
      </trkpt>
      <trkpt lat="42.497581000" lon="-2.566541000">
        <ele>411.60</ele>
        <time>2012-05-05T09:36:04Z</time>
      </trkpt>
      <trkpt lat="42.497580000" lon="-2.566541000">
        <ele>411.70</ele>
        <time>2012-05-05T09:36:05Z</time>
      </trkpt>
      <trkpt lat="42.497576000" lon="-2.566538000">
        <ele>411.70</ele>
        <time>2012-05-05T09:36:09Z</time>
      </trkpt>
      <trkpt lat="42.497573000" lon="-2.566538000">
        <ele>411.70</ele>
        <time>2012-05-05T09:36:14Z</time>
      </trkpt>
      <trkpt lat="42.497573000" lon="-2.566536000">
        <ele>411.70</ele>
        <time>2012-05-05T09:36:16Z</time>
      </trkpt>
      <trkpt lat="42.497571000" lon="-2.566536000">
        <ele>411.80</ele>
        <time>2012-05-05T09:36:16Z</time>
      </trkpt>
      <trkpt lat="42.497563000" lon="-2.566536000">
        <ele>411.80</ele>
        <time>2012-05-05T09:36:26Z</time>
      </trkpt>
      <trkpt lat="42.497563000" lon="-2.566534000">
        <ele>411.80</ele>
        <time>2012-05-05T09:36:28Z</time>
      </trkpt>
      <trkpt lat="42.497561000" lon="-2.566536000">
        <ele>411.80</ele>
        <time>2012-05-05T09:36:28Z</time>
      </trkpt>
      <trkpt lat="42.497556000" lon="-2.566536000">
        <ele>411.80</ele>
        <time>2012-05-05T09:36:37Z</time>
      </trkpt>
      <trkpt lat="42.497556000" lon="-2.566536000">
        <ele>411.80</ele>
        <time>2012-05-05T09:36:38Z</time>
      </trkpt>
      <trkpt lat="42.497555000" lon="-2.566536000">
        <ele>411.90</ele>
        <time>2012-05-05T09:36:44Z</time>
      </trkpt>
      <trkpt lat="42.497556000" lon="-2.566536000">
        <ele>411.90</ele>
        <time>2012-05-05T09:36:54Z</time>
      </trkpt>
      <trkpt lat="42.497555000" lon="-2.566538000">
        <ele>411.90</ele>
        <time>2012-05-05T09:37:22Z</time>
      </trkpt>
      <trkpt lat="42.497553000" lon="-2.566538000">
        <ele>411.90</ele>
        <time>2012-05-05T09:37:22Z</time>
      </trkpt>
      <trkpt lat="42.497556000" lon="-2.566538000">
        <ele>411.90</ele>
        <time>2012-05-05T09:37:29Z</time>
      </trkpt>
      <trkpt lat="42.497556000" lon="-2.566538000">
        <ele>411.90</ele>
        <time>2012-05-05T09:37:29Z</time>
      </trkpt>
      <trkpt lat="42.497555000" lon="-2.566538000">
        <ele>411.80</ele>
        <time>2012-05-05T09:37:36Z</time>
      </trkpt>
      <trkpt lat="42.497555000" lon="-2.566538000">
        <ele>411.80</ele>
        <time>2012-05-05T09:37:36Z</time>
      </trkpt>
      <trkpt lat="42.497553000" lon="-2.566538000">
        <ele>411.90</ele>
        <time>2012-05-05T09:37:45Z</time>
      </trkpt>
      <trkpt lat="42.497556000" lon="-2.566538000">
        <ele>411.90</ele>
        <time>2012-05-05T09:38:28Z</time>
      </trkpt>
      <trkpt lat="42.497556000" lon="-2.566536000">
        <ele>411.90</ele>
        <time>2012-05-05T09:38:28Z</time>
      </trkpt>
      <trkpt lat="42.497558000" lon="-2.566536000">
        <ele>411.90</ele>
        <time>2012-05-05T09:38:35Z</time>
      </trkpt>
      <trkpt lat="42.497558000" lon="-2.566536000">
        <ele>411.90</ele>
        <time>2012-05-05T09:38:37Z</time>
      </trkpt>
      <trkpt lat="42.497560000" lon="-2.566536000">
        <ele>411.80</ele>
        <time>2012-05-05T09:38:47Z</time>
      </trkpt>
      <trkpt lat="42.497558000" lon="-2.566536000">
        <ele>411.80</ele>
        <time>2012-05-05T09:38:54Z</time>
      </trkpt>
      <trkpt lat="42.497558000" lon="-2.566538000">
        <ele>411.80</ele>
        <time>2012-05-05T09:38:59Z</time>
      </trkpt>
      <trkpt lat="42.497561000" lon="-2.566539000">
        <ele>411.80</ele>
        <time>2012-05-05T09:39:22Z</time>
      </trkpt>
      <trkpt lat="42.497558000" lon="-2.566539000">
        <ele>411.80</ele>
        <time>2012-05-05T09:39:54Z</time>
      </trkpt>
      <trkpt lat="42.497558000" lon="-2.566541000">
        <ele>411.80</ele>
        <time>2012-05-05T09:39:55Z</time>
      </trkpt>
      <trkpt lat="42.497551000" lon="-2.566541000">
        <ele>411.80</ele>
        <time>2012-05-05T09:40:30Z</time>
      </trkpt>
      <trkpt lat="42.497551000" lon="-2.566539000">
        <ele>411.90</ele>
        <time>2012-05-05T09:40:32Z</time>
      </trkpt>
      <trkpt lat="42.497550000" lon="-2.566538000">
        <ele>411.90</ele>
        <time>2012-05-05T09:40:51Z</time>
      </trkpt>
      <trkpt lat="42.497546000" lon="-2.566538000">
        <ele>411.90</ele>
        <time>2012-05-05T09:41:00Z</time>
      </trkpt>
      <trkpt lat="42.497546000" lon="-2.566536000">
        <ele>411.90</ele>
        <time>2012-05-05T09:41:00Z</time>
      </trkpt>
      <trkpt lat="42.497543000" lon="-2.566536000">
        <ele>411.90</ele>
        <time>2012-05-05T09:41:08Z</time>
      </trkpt>
      <trkpt lat="42.497543000" lon="-2.566534000">
        <ele>411.90</ele>
        <time>2012-05-05T09:41:14Z</time>
      </trkpt>
      <trkpt lat="42.497543000" lon="-2.566534000">
        <ele>411.90</ele>
        <time>2012-05-05T09:41:15Z</time>
      </trkpt>
      <trkpt lat="42.497543000" lon="-2.566533000">
        <ele>412.00</ele>
        <time>2012-05-05T09:41:29Z</time>
      </trkpt>
      <trkpt lat="42.497545000" lon="-2.566533000">
        <ele>412.00</ele>
        <time>2012-05-05T09:41:33Z</time>
      </trkpt>
      <trkpt lat="42.497546000" lon="-2.566531000">
        <ele>412.00</ele>
        <time>2012-05-05T09:41:47Z</time>
      </trkpt>
      <trkpt lat="42.497546000" lon="-2.566533000">
        <ele>412.00</ele>
        <time>2012-05-05T09:41:57Z</time>
      </trkpt>
      <trkpt lat="42.497548000" lon="-2.566533000">
        <ele>411.90</ele>
        <time>2012-05-05T09:41:57Z</time>
      </trkpt>
      <trkpt lat="42.497550000" lon="-2.566534000">
        <ele>411.90</ele>
        <time>2012-05-05T09:42:01Z</time>
      </trkpt>
      <trkpt lat="42.497548000" lon="-2.566534000">
        <ele>411.90</ele>
        <time>2012-05-05T09:42:01Z</time>
      </trkpt>
      <trkpt lat="42.497548000" lon="-2.566536000">
        <ele>411.90</ele>
        <time>2012-05-05T09:42:09Z</time>
      </trkpt>
      <trkpt lat="42.497550000" lon="-2.566536000">
        <ele>411.90</ele>
        <time>2012-05-05T09:42:11Z</time>
      </trkpt>
      <trkpt lat="42.497551000" lon="-2.566541000">
        <ele>411.90</ele>
        <time>2012-05-05T09:42:27Z</time>
      </trkpt>
      <trkpt lat="42.497553000" lon="-2.566541000">
        <ele>411.80</ele>
        <time>2012-05-05T09:42:29Z</time>
      </trkpt>
      <trkpt lat="42.497553000" lon="-2.566544000">
        <ele>411.80</ele>
        <time>2012-05-05T09:42:32Z</time>
      </trkpt>
      <trkpt lat="42.497555000" lon="-2.566544000">
        <ele>411.80</ele>
        <time>2012-05-05T09:42:34Z</time>
      </trkpt>
      <trkpt lat="42.497555000" lon="-2.566553000">
        <ele>411.80</ele>
        <time>2012-05-05T09:42:37Z</time>
      </trkpt>
      <trkpt lat="42.497553000" lon="-2.566556000">
        <ele>411.80</ele>
        <time>2012-05-05T09:42:39Z</time>
      </trkpt>
      <trkpt lat="42.497553000" lon="-2.566556000">
        <ele>411.80</ele>
        <time>2012-05-05T09:42:39Z</time>
      </trkpt>
      <trkpt lat="42.497556000" lon="-2.566561000">
        <ele>411.70</ele>
        <time>2012-05-05T09:42:41Z</time>
      </trkpt>
      <trkpt lat="42.497553000" lon="-2.566561000">
        <ele>411.70</ele>
        <time>2012-05-05T09:42:41Z</time>
      </trkpt>
      <trkpt lat="42.497551000" lon="-2.566558000">
        <ele>411.70</ele>
        <time>2012-05-05T09:42:42Z</time>
      </trkpt>
      <trkpt lat="42.497555000" lon="-2.566566000">
        <ele>411.70</ele>
        <time>2012-05-05T09:42:46Z</time>
      </trkpt>
      <trkpt lat="42.497556000" lon="-2.566564000">
        <ele>411.70</ele>
        <time>2012-05-05T09:42:48Z</time>
      </trkpt>
      <trkpt lat="42.497556000" lon="-2.566566000">
        <ele>411.60</ele>
        <time>2012-05-05T09:42:49Z</time>
      </trkpt>
      <trkpt lat="42.497558000" lon="-2.566563000">
        <ele>411.60</ele>
        <time>2012-05-05T09:43:05Z</time>
      </trkpt>
      <trkpt lat="42.497565000" lon="-2.566564000">
        <ele>411.60</ele>
        <time>2012-05-05T09:43:10Z</time>
      </trkpt>
      <trkpt lat="42.497590000" lon="-2.566573000">
        <ele>411.50</ele>
        <time>2012-05-05T09:43:12Z</time>
      </trkpt>
      <trkpt lat="42.497621000" lon="-2.566576000">
        <ele>411.30</ele>
        <time>2012-05-05T09:43:14Z</time>
      </trkpt>
      <trkpt lat="42.498370000" lon="-2.566723000">
        <ele>412.50</ele>
        <time>2012-05-05T09:43:45Z</time>
      </trkpt>
      <trkpt lat="42.498503000" lon="-2.566719000">
        <ele>413.70</ele>
        <time>2012-05-05T09:43:50Z</time>
      </trkpt>
      <trkpt lat="42.498765000" lon="-2.566628000">
        <ele>416.30</ele>
        <time>2012-05-05T09:44:01Z</time>
      </trkpt>
      <trkpt lat="42.498790000" lon="-2.566613000">
        <ele>416.40</ele>
        <time>2012-05-05T09:44:01Z</time>
      </trkpt>
      <trkpt lat="42.498858000" lon="-2.566563000">
        <ele>416.90</ele>
        <time>2012-05-05T09:44:04Z</time>
      </trkpt>
      <trkpt lat="42.499148000" lon="-2.566209000">
        <ele>418.20</ele>
        <time>2012-05-05T09:44:22Z</time>
      </trkpt>
      <trkpt lat="42.499280000" lon="-2.566109000">
        <ele>419.30</ele>
        <time>2012-05-05T09:44:29Z</time>
      </trkpt>
      <trkpt lat="42.499345000" lon="-2.566079000">
        <ele>419.50</ele>
        <time>2012-05-05T09:44:32Z</time>
      </trkpt>
      <trkpt lat="42.499366000" lon="-2.566078000">
        <ele>419.50</ele>
        <time>2012-05-05T09:44:32Z</time>
      </trkpt>
      <trkpt lat="42.499388000" lon="-2.566084000">
        <ele>419.50</ele>
        <time>2012-05-05T09:44:34Z</time>
      </trkpt>
      <trkpt lat="42.499408000" lon="-2.566098000">
        <ele>419.40</ele>
        <time>2012-05-05T09:44:34Z</time>
      </trkpt>
      <trkpt lat="42.499426000" lon="-2.566118000">
        <ele>419.20</ele>
        <time>2012-05-05T09:44:36Z</time>
      </trkpt>
      <trkpt lat="42.499463000" lon="-2.566199000">
        <ele>418.60</ele>
        <time>2012-05-05T09:44:39Z</time>
      </trkpt>
      <trkpt lat="42.499548000" lon="-2.566473000">
        <ele>418.10</ele>
        <time>2012-05-05T09:44:48Z</time>
      </trkpt>
      <trkpt lat="42.499653000" lon="-2.566696000">
        <ele>418.90</ele>
        <time>2012-05-05T09:44:55Z</time>
      </trkpt>
      <trkpt lat="42.499738000" lon="-2.566831000">
        <ele>419.70</ele>
        <time>2012-05-05T09:45:00Z</time>
      </trkpt>
      <trkpt lat="42.499801000" lon="-2.566889000">
        <ele>420.30</ele>
        <time>2012-05-05T09:45:04Z</time>
      </trkpt>
      <trkpt lat="42.499825000" lon="-2.566903000">
        <ele>420.40</ele>
        <time>2012-05-05T09:45:05Z</time>
      </trkpt>
      <trkpt lat="42.499966000" lon="-2.566948000">
        <ele>421.70</ele>
        <time>2012-05-05T09:45:11Z</time>
      </trkpt>
      <trkpt lat="42.500155000" lon="-2.566919000">
        <ele>423.30</ele>
        <time>2012-05-05T09:45:19Z</time>
      </trkpt>
      <trkpt lat="42.500723000" lon="-2.566643000">
        <ele>426.60</ele>
        <time>2012-05-05T09:45:45Z</time>
      </trkpt>
      <trkpt lat="42.500808000" lon="-2.566568000">
        <ele>426.80</ele>
        <time>2012-05-05T09:45:49Z</time>
      </trkpt>
      <trkpt lat="42.500898000" lon="-2.566446000">
        <ele>426.80</ele>
        <time>2012-05-05T09:45:54Z</time>
      </trkpt>
      <trkpt lat="42.501021000" lon="-2.566238000">
        <ele>426.50</ele>
        <time>2012-05-05T09:46:01Z</time>
      </trkpt>
      <trkpt lat="42.501161000" lon="-2.566103000">
        <ele>427.30</ele>
        <time>2012-05-05T09:46:08Z</time>
      </trkpt>
      <trkpt lat="42.501183000" lon="-2.566088000">
        <ele>427.40</ele>
        <time>2012-05-05T09:46:10Z</time>
      </trkpt>
      <trkpt lat="42.501521000" lon="-2.565788000">
        <ele>430.30</ele>
        <time>2012-05-05T09:46:27Z</time>
      </trkpt>
      <trkpt lat="42.501570000" lon="-2.565716000">
        <ele>430.80</ele>
        <time>2012-05-05T09:46:29Z</time>
      </trkpt>
      <trkpt lat="42.501638000" lon="-2.565553000">
        <ele>431.50</ele>
        <time>2012-05-05T09:46:36Z</time>
      </trkpt>
      <trkpt lat="42.501655000" lon="-2.565494000">
        <ele>431.70</ele>
        <time>2012-05-05T09:46:38Z</time>
      </trkpt>
      <trkpt lat="42.501688000" lon="-2.565339000">
        <ele>432.10</ele>
        <time>2012-05-05T09:46:43Z</time>
      </trkpt>
      <trkpt lat="42.501736000" lon="-2.565194000">
        <ele>432.80</ele>
        <time>2012-05-05T09:46:48Z</time>
      </trkpt>
      <trkpt lat="42.502148000" lon="-2.564401000">
        <ele>434.90</ele>
        <time>2012-05-05T09:47:16Z</time>
      </trkpt>
      <trkpt lat="42.502168000" lon="-2.564374000">
        <ele>435.00</ele>
        <time>2012-05-05T09:47:16Z</time>
      </trkpt>
      <trkpt lat="42.502471000" lon="-2.563841000">
        <ele>438.20</ele>
        <time>2012-05-05T09:47:37Z</time>
      </trkpt>
      <trkpt lat="42.502606000" lon="-2.563421000">
        <ele>440.00</ele>
        <time>2012-05-05T09:47:49Z</time>
      </trkpt>
      <trkpt lat="42.502705000" lon="-2.563244000">
        <ele>440.90</ele>
        <time>2012-05-05T09:47:56Z</time>
      </trkpt>
      <trkpt lat="42.502813000" lon="-2.563148000">
        <ele>441.30</ele>
        <time>2012-05-05T09:48:01Z</time>
      </trkpt>
      <trkpt lat="42.502888000" lon="-2.563111000">
        <ele>441.40</ele>
        <time>2012-05-05T09:48:03Z</time>
      </trkpt>
      <trkpt lat="42.503250000" lon="-2.563064000">
        <ele>443.20</ele>
        <time>2012-05-05T09:48:19Z</time>
      </trkpt>
      <trkpt lat="42.503273000" lon="-2.563054000">
        <ele>443.30</ele>
        <time>2012-05-05T09:48:19Z</time>
      </trkpt>
      <trkpt lat="42.503488000" lon="-2.562879000">
        <ele>444.60</ele>
        <time>2012-05-05T09:48:29Z</time>
      </trkpt>
      <trkpt lat="42.503608000" lon="-2.562709000">
        <ele>445.20</ele>
        <time>2012-05-05T09:48:36Z</time>
      </trkpt>
      <trkpt lat="42.503731000" lon="-2.562456000">
        <ele>445.80</ele>
        <time>2012-05-05T09:48:45Z</time>
      </trkpt>
      <trkpt lat="42.503876000" lon="-2.562136000">
        <ele>446.30</ele>
        <time>2012-05-05T09:48:57Z</time>
      </trkpt>
      <trkpt lat="42.504005000" lon="-2.561973000">
        <ele>446.50</ele>
        <time>2012-05-05T09:49:04Z</time>
      </trkpt>
      <trkpt lat="42.504168000" lon="-2.561791000">
        <ele>446.90</ele>
        <time>2012-05-05T09:49:11Z</time>
      </trkpt>
      <trkpt lat="42.504700000" lon="-2.560754000">
        <ele>448.60</ele>
        <time>2012-05-05T09:49:46Z</time>
      </trkpt>
      <trkpt lat="42.504718000" lon="-2.560728000">
        <ele>448.70</ele>
        <time>2012-05-05T09:49:46Z</time>
      </trkpt>
      <trkpt lat="42.504903000" lon="-2.560529000">
        <ele>450.00</ele>
        <time>2012-05-05T09:49:56Z</time>
      </trkpt>
      <trkpt lat="42.504946000" lon="-2.560503000">
        <ele>450.30</ele>
        <time>2012-05-05T09:49:58Z</time>
      </trkpt>
      <trkpt lat="42.505168000" lon="-2.560426000">
        <ele>451.90</ele>
        <time>2012-05-05T09:50:07Z</time>
      </trkpt>
      <trkpt lat="42.505641000" lon="-2.560381000">
        <ele>455.30</ele>
        <time>2012-05-05T09:50:28Z</time>
      </trkpt>
      <trkpt lat="42.505825000" lon="-2.560301000">
        <ele>456.70</ele>
        <time>2012-05-05T09:50:36Z</time>
      </trkpt>
      <trkpt lat="42.506455000" lon="-2.559853000">
        <ele>461.50</ele>
        <time>2012-05-05T09:51:06Z</time>
      </trkpt>
      <trkpt lat="42.506476000" lon="-2.559843000">
        <ele>461.70</ele>
        <time>2012-05-05T09:51:06Z</time>
      </trkpt>
      <trkpt lat="42.506585000" lon="-2.559818000">
        <ele>462.90</ele>
        <time>2012-05-05T09:51:11Z</time>
      </trkpt>
      <trkpt lat="42.506663000" lon="-2.559844000">
        <ele>463.80</ele>
        <time>2012-05-05T09:51:16Z</time>
      </trkpt>
      <trkpt lat="42.506698000" lon="-2.559864000">
        <ele>464.20</ele>
        <time>2012-05-05T09:51:18Z</time>
      </trkpt>
      <trkpt lat="42.506920000" lon="-2.560021000">
        <ele>466.90</ele>
        <time>2012-05-05T09:51:32Z</time>
      </trkpt>
      <trkpt lat="42.507013000" lon="-2.560099000">
        <ele>468.10</ele>
        <time>2012-05-05T09:51:39Z</time>
      </trkpt>
      <trkpt lat="42.507085000" lon="-2.560171000">
        <ele>469.20</ele>
        <time>2012-05-05T09:51:44Z</time>
      </trkpt>
      <trkpt lat="42.507095000" lon="-2.560186000">
        <ele>469.40</ele>
        <time>2012-05-05T09:51:46Z</time>
      </trkpt>
      <trkpt lat="42.507141000" lon="-2.560244000">
        <ele>470.40</ele>
        <time>2012-05-05T09:51:49Z</time>
      </trkpt>
      <trkpt lat="42.507175000" lon="-2.560321000">
        <ele>471.40</ele>
        <time>2012-05-05T09:51:53Z</time>
      </trkpt>
      <trkpt lat="42.507223000" lon="-2.560513000">
        <ele>473.60</ele>
        <time>2012-05-05T09:52:02Z</time>
      </trkpt>
      <trkpt lat="42.507265000" lon="-2.560584000">
        <ele>475.10</ele>
        <time>2012-05-05T09:52:07Z</time>
      </trkpt>
      <trkpt lat="42.507290000" lon="-2.560611000">
        <ele>475.90</ele>
        <time>2012-05-05T09:52:09Z</time>
      </trkpt>
      <trkpt lat="42.507305000" lon="-2.560619000">
        <ele>476.20</ele>
        <time>2012-05-05T09:52:10Z</time>
      </trkpt>
      <trkpt lat="42.507321000" lon="-2.560624000">
        <ele>476.80</ele>
        <time>2012-05-05T09:52:10Z</time>
      </trkpt>
      <trkpt lat="42.507355000" lon="-2.560628000">
        <ele>477.70</ele>
        <time>2012-05-05T09:52:12Z</time>
      </trkpt>
      <trkpt lat="42.507386000" lon="-2.560616000">
        <ele>478.50</ele>
        <time>2012-05-05T09:52:14Z</time>
      </trkpt>
      <trkpt lat="42.507455000" lon="-2.560549000">
        <ele>479.60</ele>
        <time>2012-05-05T09:52:19Z</time>
      </trkpt>
      <trkpt lat="42.507665000" lon="-2.560203000">
        <ele>481.10</ele>
        <time>2012-05-05T09:52:38Z</time>
      </trkpt>
      <trkpt lat="42.507711000" lon="-2.560109000">
        <ele>481.10</ele>
        <time>2012-05-05T09:52:43Z</time>
      </trkpt>
      <trkpt lat="42.507743000" lon="-2.560059000">
        <ele>481.10</ele>
        <time>2012-05-05T09:52:47Z</time>
      </trkpt>
      <trkpt lat="42.507828000" lon="-2.559926000">
        <ele>481.00</ele>
        <time>2012-05-05T09:52:54Z</time>
      </trkpt>
      <trkpt lat="42.507988000" lon="-2.559791000">
        <ele>482.40</ele>
        <time>2012-05-05T09:53:06Z</time>
      </trkpt>
      <trkpt lat="42.508195000" lon="-2.559663000">
        <ele>486.40</ele>
        <time>2012-05-05T09:53:18Z</time>
      </trkpt>
      <trkpt lat="42.508210000" lon="-2.559648000">
        <ele>486.60</ele>
        <time>2012-05-05T09:53:20Z</time>
      </trkpt>
      <trkpt lat="42.508261000" lon="-2.559581000">
        <ele>487.30</ele>
        <time>2012-05-05T09:53:24Z</time>
      </trkpt>
      <trkpt lat="42.508285000" lon="-2.559516000">
        <ele>487.70</ele>
        <time>2012-05-05T09:53:27Z</time>
      </trkpt>
      <trkpt lat="42.508291000" lon="-2.559438000">
        <ele>487.70</ele>
        <time>2012-05-05T09:53:29Z</time>
      </trkpt>
      <trkpt lat="42.508285000" lon="-2.559356000">
        <ele>487.20</ele>
        <time>2012-05-05T09:53:32Z</time>
      </trkpt>
      <trkpt lat="42.508210000" lon="-2.559029000">
        <ele>483.70</ele>
        <time>2012-05-05T09:53:46Z</time>
      </trkpt>
      <trkpt lat="42.508203000" lon="-2.558919000">
        <ele>482.90</ele>
        <time>2012-05-05T09:53:50Z</time>
      </trkpt>
      <trkpt lat="42.508205000" lon="-2.558891000">
        <ele>482.80</ele>
        <time>2012-05-05T09:53:50Z</time>
      </trkpt>
      <trkpt lat="42.508206000" lon="-2.558753000">
        <ele>482.10</ele>
        <time>2012-05-05T09:53:55Z</time>
      </trkpt>
      <trkpt lat="42.508241000" lon="-2.558459000">
        <ele>483.50</ele>
        <time>2012-05-05T09:54:07Z</time>
      </trkpt>
      <trkpt lat="42.508301000" lon="-2.558188000">
        <ele>485.70</ele>
        <time>2012-05-05T09:54:18Z</time>
      </trkpt>
      <trkpt lat="42.508311000" lon="-2.558168000">
        <ele>486.00</ele>
        <time>2012-05-05T09:54:19Z</time>
      </trkpt>
      <trkpt lat="42.508483000" lon="-2.557579000">
        <ele>494.10</ele>
        <time>2012-05-05T09:54:49Z</time>
      </trkpt>
      <trkpt lat="42.508486000" lon="-2.557559000">
        <ele>494.30</ele>
        <time>2012-05-05T09:54:49Z</time>
      </trkpt>
      <trkpt lat="42.508520000" lon="-2.557376000">
        <ele>496.70</ele>
        <time>2012-05-05T09:54:59Z</time>
      </trkpt>
      <trkpt lat="42.508531000" lon="-2.557316000">
        <ele>497.30</ele>
        <time>2012-05-05T09:55:01Z</time>
      </trkpt>
      <trkpt lat="42.508550000" lon="-2.557168000">
        <ele>498.80</ele>
        <time>2012-05-05T09:55:08Z</time>
      </trkpt>
      <trkpt lat="42.508550000" lon="-2.557146000">
        <ele>499.00</ele>
        <time>2012-05-05T09:55:10Z</time>
      </trkpt>
      <trkpt lat="42.508561000" lon="-2.557083000">
        <ele>499.60</ele>
        <time>2012-05-05T09:55:13Z</time>
      </trkpt>
      <trkpt lat="42.508581000" lon="-2.556938000">
        <ele>501.00</ele>
        <time>2012-05-05T09:55:20Z</time>
      </trkpt>
      <trkpt lat="42.508595000" lon="-2.556876000">
        <ele>501.70</ele>
        <time>2012-05-05T09:55:22Z</time>
      </trkpt>
      <trkpt lat="42.508603000" lon="-2.556858000">
        <ele>501.90</ele>
        <time>2012-05-05T09:55:24Z</time>
      </trkpt>
      <trkpt lat="42.508640000" lon="-2.556789000">
        <ele>502.80</ele>
        <time>2012-05-05T09:55:27Z</time>
      </trkpt>
      <trkpt lat="42.508651000" lon="-2.556778000">
        <ele>503.00</ele>
        <time>2012-05-05T09:55:29Z</time>
      </trkpt>
      <trkpt lat="42.508665000" lon="-2.556768000">
        <ele>503.20</ele>
        <time>2012-05-05T09:55:29Z</time>
      </trkpt>
      <trkpt lat="42.508678000" lon="-2.556761000">
        <ele>503.40</ele>
        <time>2012-05-05T09:55:31Z</time>
      </trkpt>
      <trkpt lat="42.508736000" lon="-2.556746000">
        <ele>503.90</ele>
        <time>2012-05-05T09:55:34Z</time>
      </trkpt>
      <trkpt lat="42.508750000" lon="-2.556748000">
        <ele>504.00</ele>
        <time>2012-05-05T09:55:36Z</time>
      </trkpt>
      <trkpt lat="42.508765000" lon="-2.556748000">
        <ele>504.20</ele>
        <time>2012-05-05T09:55:36Z</time>
      </trkpt>
      <trkpt lat="42.508795000" lon="-2.556753000">
        <ele>504.50</ele>
        <time>2012-05-05T09:55:38Z</time>
      </trkpt>
      <trkpt lat="42.508808000" lon="-2.556758000">
        <ele>504.70</ele>
        <time>2012-05-05T09:55:39Z</time>
      </trkpt>
      <trkpt lat="42.508878000" lon="-2.556796000">
        <ele>505.40</ele>
        <time>2012-05-05T09:55:45Z</time>
      </trkpt>
      <trkpt lat="42.508931000" lon="-2.556844000">
        <ele>505.90</ele>
        <time>2012-05-05T09:55:48Z</time>
      </trkpt>
      <trkpt lat="42.508973000" lon="-2.556878000">
        <ele>506.40</ele>
        <time>2012-05-05T09:55:52Z</time>
      </trkpt>
      <trkpt lat="42.508985000" lon="-2.556893000">
        <ele>506.40</ele>
        <time>2012-05-05T09:55:53Z</time>
      </trkpt>
      <trkpt lat="42.509191000" lon="-2.557091000">
        <ele>509.10</ele>
        <time>2012-05-05T09:56:09Z</time>
      </trkpt>
      <trkpt lat="42.509260000" lon="-2.557176000">
        <ele>510.30</ele>
        <time>2012-05-05T09:56:14Z</time>
      </trkpt>
      <trkpt lat="42.509278000" lon="-2.557189000">
        <ele>510.60</ele>
        <time>2012-05-05T09:56:14Z</time>
      </trkpt>
      <trkpt lat="42.509710000" lon="-2.557553000">
        <ele>517.20</ele>
        <time>2012-05-05T09:56:35Z</time>
      </trkpt>
      <trkpt lat="42.509813000" lon="-2.557598000">
        <ele>517.10</ele>
        <time>2012-05-05T09:56:37Z</time>
      </trkpt>
      <trkpt lat="42.509853000" lon="-2.557603000">
        <ele>517.10</ele>
        <time>2012-05-05T09:56:39Z</time>
      </trkpt>
      <trkpt lat="42.510266000" lon="-2.557498000">
        <ele>516.00</ele>
        <time>2012-05-05T09:56:47Z</time>
      </trkpt>
      <trkpt lat="42.510316000" lon="-2.557496000">
        <ele>515.90</ele>
        <time>2012-05-05T09:56:49Z</time>
      </trkpt>
      <trkpt lat="42.510418000" lon="-2.557518000">
        <ele>515.60</ele>
        <time>2012-05-05T09:56:51Z</time>
      </trkpt>
      <trkpt lat="42.511573000" lon="-2.558106000">
        <ele>515.10</ele>
        <time>2012-05-05T09:57:15Z</time>
      </trkpt>
      <trkpt lat="42.511621000" lon="-2.558121000">
        <ele>515.00</ele>
        <time>2012-05-05T09:57:17Z</time>
      </trkpt>
      <trkpt lat="42.511988000" lon="-2.558108000">
        <ele>513.10</ele>
        <time>2012-05-05T09:57:24Z</time>
      </trkpt>
      <trkpt lat="42.512153000" lon="-2.558039000">
        <ele>512.10</ele>
        <time>2012-05-05T09:57:26Z</time>
      </trkpt>
      <trkpt lat="42.512250000" lon="-2.557983000">
        <ele>511.60</ele>
        <time>2012-05-05T09:57:29Z</time>
      </trkpt>
      <trkpt lat="42.512343000" lon="-2.557954000">
        <ele>511.40</ele>
        <time>2012-05-05T09:57:31Z</time>
      </trkpt>
      <trkpt lat="42.512431000" lon="-2.557951000">
        <ele>511.20</ele>
        <time>2012-05-05T09:57:33Z</time>
      </trkpt>
      <trkpt lat="42.512590000" lon="-2.557971000">
        <ele>511.30</ele>
        <time>2012-05-05T09:57:36Z</time>
      </trkpt>
      <trkpt lat="42.512698000" lon="-2.558019000">
        <ele>511.60</ele>
        <time>2012-05-05T09:57:40Z</time>
      </trkpt>
      <trkpt lat="42.512768000" lon="-2.558073000">
        <ele>512.00</ele>
        <time>2012-05-05T09:57:41Z</time>
      </trkpt>
      <trkpt lat="42.512906000" lon="-2.558229000">
        <ele>513.20</ele>
        <time>2012-05-05T09:57:47Z</time>
      </trkpt>
      <trkpt lat="42.512991000" lon="-2.558293000">
        <ele>514.00</ele>
        <time>2012-05-05T09:57:50Z</time>
      </trkpt>
      <trkpt lat="42.513160000" lon="-2.558346000">
        <ele>514.80</ele>
        <time>2012-05-05T09:57:55Z</time>
      </trkpt>
      <trkpt lat="42.513410000" lon="-2.558374000">
        <ele>515.40</ele>
        <time>2012-05-05T09:58:02Z</time>
      </trkpt>
      <trkpt lat="42.513743000" lon="-2.558348000">
        <ele>515.90</ele>
        <time>2012-05-05T09:58:11Z</time>
      </trkpt>
      <trkpt lat="42.514156000" lon="-2.558391000">
        <ele>517.00</ele>
        <time>2012-05-05T09:58:23Z</time>
      </trkpt>
      <trkpt lat="42.514200000" lon="-2.558376000">
        <ele>517.60</ele>
        <time>2012-05-05T09:58:25Z</time>
      </trkpt>
      <trkpt lat="42.514335000" lon="-2.558200000">
        <ele>517.00</ele>
        <time>2012-05-05T09:58:30Z</time>
      </trkpt>
      <trkpt lat="42.514426000" lon="-2.557969000">
        <ele>517.60</ele>
        <time>2012-05-05T09:58:37Z</time>
      </trkpt>
      <trkpt lat="42.514513000" lon="-2.557826000">
        <ele>517.60</ele>
        <time>2012-05-05T09:58:42Z</time>
      </trkpt>
      <trkpt lat="42.514536000" lon="-2.557809000">
        <ele>517.60</ele>
        <time>2012-05-05T09:58:44Z</time>
      </trkpt>
      <trkpt lat="42.514605000" lon="-2.557731000">
        <ele>517.90</ele>
        <time>2012-05-05T09:58:47Z</time>
      </trkpt>
      <trkpt lat="42.514701000" lon="-2.557651000">
        <ele>518.20</ele>
        <time>2012-05-05T09:58:53Z</time>
      </trkpt>
      <trkpt lat="42.514760000" lon="-2.557623000">
        <ele>518.30</ele>
        <time>2012-05-05T09:58:56Z</time>
      </trkpt>
      <trkpt lat="42.514888000" lon="-2.557599000">
        <ele>518.60</ele>
        <time>2012-05-05T09:59:01Z</time>
      </trkpt>
      <trkpt lat="42.514976000" lon="-2.557616000">
        <ele>518.80</ele>
        <time>2012-05-05T09:59:05Z</time>
      </trkpt>
      <trkpt lat="42.515005000" lon="-2.557629000">
        <ele>518.90</ele>
        <time>2012-05-05T09:59:05Z</time>
      </trkpt>
      <trkpt lat="42.515493000" lon="-2.557988000">
        <ele>520.00</ele>
        <time>2012-05-05T09:59:19Z</time>
      </trkpt>
      <trkpt lat="42.515728000" lon="-2.558071000">
        <ele>520.10</ele>
        <time>2012-05-05T09:59:24Z</time>
      </trkpt>
      <trkpt lat="42.515981000" lon="-2.558094000">
        <ele>520.00</ele>
        <time>2012-05-05T09:59:28Z</time>
      </trkpt>
      <trkpt lat="42.516023000" lon="-2.558094000">
        <ele>520.00</ele>
        <time>2012-05-05T09:59:29Z</time>
      </trkpt>
      <trkpt lat="42.516750000" lon="-2.558109000">
        <ele>522.30</ele>
        <time>2012-05-05T09:59:52Z</time>
      </trkpt>
      <trkpt lat="42.516776000" lon="-2.558109000">
        <ele>522.50</ele>
        <time>2012-05-05T09:59:52Z</time>
      </trkpt>
      <trkpt lat="42.516850000" lon="-2.558114000">
        <ele>522.90</ele>
        <time>2012-05-05T09:59:55Z</time>
      </trkpt>
      <trkpt lat="42.516873000" lon="-2.558114000">
        <ele>523.10</ele>
        <time>2012-05-05T09:59:57Z</time>
      </trkpt>
      <trkpt lat="42.516896000" lon="-2.558116000">
        <ele>523.20</ele>
        <time>2012-05-05T09:59:57Z</time>
      </trkpt>
      <trkpt lat="42.516966000" lon="-2.558116000">
        <ele>523.60</ele>
        <time>2012-05-05T10:00:01Z</time>
      </trkpt>
      <trkpt lat="42.517038000" lon="-2.558123000">
        <ele>524.00</ele>
        <time>2012-05-05T10:00:04Z</time>
      </trkpt>
      <trkpt lat="42.517083000" lon="-2.558123000">
        <ele>524.30</ele>
        <time>2012-05-05T10:00:06Z</time>
      </trkpt>
      <trkpt lat="42.517106000" lon="-2.558124000">
        <ele>524.40</ele>
        <time>2012-05-05T10:00:06Z</time>
      </trkpt>
      <trkpt lat="42.517151000" lon="-2.558124000">
        <ele>524.80</ele>
        <time>2012-05-05T10:00:09Z</time>
      </trkpt>
      <trkpt lat="42.517321000" lon="-2.558163000">
        <ele>526.30</ele>
        <time>2012-05-05T10:00:16Z</time>
      </trkpt>
      <trkpt lat="42.517360000" lon="-2.558178000">
        <ele>526.70</ele>
        <time>2012-05-05T10:00:18Z</time>
      </trkpt>
      <trkpt lat="42.517595000" lon="-2.558378000">
        <ele>529.30</ele>
        <time>2012-05-05T10:00:34Z</time>
      </trkpt>
      <trkpt lat="42.517606000" lon="-2.558391000">
        <ele>529.40</ele>
        <time>2012-05-05T10:00:34Z</time>
      </trkpt>
      <trkpt lat="42.517673000" lon="-2.558453000">
        <ele>530.00</ele>
        <time>2012-05-05T10:00:39Z</time>
      </trkpt>
      <trkpt lat="42.517720000" lon="-2.558466000">
        <ele>530.40</ele>
        <time>2012-05-05T10:00:42Z</time>
      </trkpt>
      <trkpt lat="42.517735000" lon="-2.558466000">
        <ele>530.50</ele>
        <time>2012-05-05T10:00:44Z</time>
      </trkpt>
      <trkpt lat="42.517768000" lon="-2.558458000">
        <ele>530.60</ele>
        <time>2012-05-05T10:00:46Z</time>
      </trkpt>
      <trkpt lat="42.517783000" lon="-2.558446000">
        <ele>530.70</ele>
        <time>2012-05-05T10:00:46Z</time>
      </trkpt>
      <trkpt lat="42.517823000" lon="-2.558401000">
        <ele>530.90</ele>
        <time>2012-05-05T10:00:49Z</time>
      </trkpt>
      <trkpt lat="42.517843000" lon="-2.558368000">
        <ele>531.00</ele>
        <time>2012-05-05T10:00:51Z</time>
      </trkpt>
      <trkpt lat="42.517861000" lon="-2.558286000">
        <ele>531.00</ele>
        <time>2012-05-05T10:00:55Z</time>
      </trkpt>
      <trkpt lat="42.517866000" lon="-2.558153000">
        <ele>530.90</ele>
        <time>2012-05-05T10:01:02Z</time>
      </trkpt>
      <trkpt lat="42.517876000" lon="-2.558081000">
        <ele>530.80</ele>
        <time>2012-05-05T10:01:05Z</time>
      </trkpt>
      <trkpt lat="42.517893000" lon="-2.557713000">
        <ele>530.70</ele>
        <time>2012-05-05T10:01:19Z</time>
      </trkpt>
      <trkpt lat="42.517918000" lon="-2.557576000">
        <ele>530.90</ele>
        <time>2012-05-05T10:01:24Z</time>
      </trkpt>
      <trkpt lat="42.517953000" lon="-2.557468000">
        <ele>531.10</ele>
        <time>2012-05-05T10:01:28Z</time>
      </trkpt>
      <trkpt lat="42.517978000" lon="-2.557419000">
        <ele>531.30</ele>
        <time>2012-05-05T10:01:29Z</time>
      </trkpt>
      <trkpt lat="42.518028000" lon="-2.557348000">
        <ele>531.70</ele>
        <time>2012-05-05T10:01:33Z</time>
      </trkpt>
      <trkpt lat="42.518046000" lon="-2.557328000">
        <ele>531.80</ele>
        <time>2012-05-05T10:01:33Z</time>
      </trkpt>
      <trkpt lat="42.518185000" lon="-2.557258000">
        <ele>532.90</ele>
        <time>2012-05-05T10:01:40Z</time>
      </trkpt>
      <trkpt lat="42.518206000" lon="-2.557253000">
        <ele>533.00</ele>
        <time>2012-05-05T10:01:40Z</time>
      </trkpt>
      <trkpt lat="42.518253000" lon="-2.557253000">
        <ele>533.50</ele>
        <time>2012-05-05T10:01:42Z</time>
      </trkpt>
      <trkpt lat="42.519563000" lon="-2.556988000">
        <ele>537.10</ele>
        <time>2012-05-05T10:02:41Z</time>
      </trkpt>
      <trkpt lat="42.519586000" lon="-2.556988000">
        <ele>537.10</ele>
        <time>2012-05-05T10:02:41Z</time>
      </trkpt>
      <trkpt lat="42.519705000" lon="-2.556984000">
        <ele>537.30</ele>
        <time>2012-05-05T10:02:46Z</time>
      </trkpt>
      <trkpt lat="42.520238000" lon="-2.556909000">
        <ele>538.90</ele>
        <time>2012-05-05T10:03:09Z</time>
      </trkpt>
      <trkpt lat="42.520526000" lon="-2.556833000">
        <ele>539.90</ele>
        <time>2012-05-05T10:03:21Z</time>
      </trkpt>
      <trkpt lat="42.521386000" lon="-2.556714000">
        <ele>541.60</ele>
        <time>2012-05-05T10:03:52Z</time>
      </trkpt>
      <trkpt lat="42.521413000" lon="-2.556718000">
        <ele>541.60</ele>
        <time>2012-05-05T10:03:54Z</time>
      </trkpt>
      <trkpt lat="42.521465000" lon="-2.556716000">
        <ele>541.60</ele>
        <time>2012-05-05T10:03:56Z</time>
      </trkpt>
      <trkpt lat="42.521628000" lon="-2.556733000">
        <ele>541.50</ele>
        <time>2012-05-05T10:04:03Z</time>
      </trkpt>
      <trkpt lat="42.521640000" lon="-2.556733000">
        <ele>541.40</ele>
        <time>2012-05-05T10:04:05Z</time>
      </trkpt>
      <trkpt lat="42.521665000" lon="-2.556736000">
        <ele>541.40</ele>
        <time>2012-05-05T10:04:06Z</time>
      </trkpt>
      <trkpt lat="42.521693000" lon="-2.556736000">
        <ele>541.40</ele>
        <time>2012-05-05T10:04:08Z</time>
      </trkpt>
      <trkpt lat="42.521698000" lon="-2.556738000">
        <ele>541.40</ele>
        <time>2012-05-05T10:04:10Z</time>
      </trkpt>
      <trkpt lat="42.521703000" lon="-2.556734000">
        <ele>541.40</ele>
        <time>2012-05-05T10:04:10Z</time>
      </trkpt>
      <trkpt lat="42.521738000" lon="-2.556726000">
        <ele>541.40</ele>
        <time>2012-05-05T10:04:15Z</time>
      </trkpt>
      <trkpt lat="42.521746000" lon="-2.556726000">
        <ele>541.40</ele>
        <time>2012-05-05T10:04:15Z</time>
      </trkpt>
      <trkpt lat="42.521758000" lon="-2.556723000">
        <ele>541.40</ele>
        <time>2012-05-05T10:04:17Z</time>
      </trkpt>
      <trkpt lat="42.521766000" lon="-2.556723000">
        <ele>541.40</ele>
        <time>2012-05-05T10:04:17Z</time>
      </trkpt>
      <trkpt lat="42.521795000" lon="-2.556718000">
        <ele>541.40</ele>
        <time>2012-05-05T10:04:20Z</time>
      </trkpt>
      <trkpt lat="42.521811000" lon="-2.556711000">
        <ele>541.40</ele>
        <time>2012-05-05T10:04:20Z</time>
      </trkpt>
      <trkpt lat="42.521870000" lon="-2.556671000">
        <ele>541.50</ele>
        <time>2012-05-05T10:04:24Z</time>
      </trkpt>
      <trkpt lat="42.521911000" lon="-2.556654000">
        <ele>541.60</ele>
        <time>2012-05-05T10:04:25Z</time>
      </trkpt>
      <trkpt lat="42.521980000" lon="-2.556646000">
        <ele>541.60</ele>
        <time>2012-05-05T10:04:29Z</time>
      </trkpt>
      <trkpt lat="42.522040000" lon="-2.556661000">
        <ele>541.50</ele>
        <time>2012-05-05T10:04:31Z</time>
      </trkpt>
      <trkpt lat="42.522080000" lon="-2.556659000">
        <ele>541.50</ele>
        <time>2012-05-05T10:04:34Z</time>
      </trkpt>
      <trkpt lat="42.522140000" lon="-2.556669000">
        <ele>541.40</ele>
        <time>2012-05-05T10:04:36Z</time>
      </trkpt>
      <trkpt lat="42.522201000" lon="-2.556689000">
        <ele>541.30</ele>
        <time>2012-05-05T10:04:41Z</time>
      </trkpt>
      <trkpt lat="42.522215000" lon="-2.556691000">
        <ele>541.20</ele>
        <time>2012-05-05T10:04:41Z</time>
      </trkpt>
      <trkpt lat="42.522253000" lon="-2.556709000">
        <ele>541.20</ele>
        <time>2012-05-05T10:04:45Z</time>
      </trkpt>
      <trkpt lat="42.522265000" lon="-2.556713000">
        <ele>541.10</ele>
        <time>2012-05-05T10:04:46Z</time>
      </trkpt>
      <trkpt lat="42.522276000" lon="-2.556713000">
        <ele>541.10</ele>
        <time>2012-05-05T10:04:46Z</time>
      </trkpt>
      <trkpt lat="42.522318000" lon="-2.556723000">
        <ele>541.00</ele>
        <time>2012-05-05T10:04:50Z</time>
      </trkpt>
      <trkpt lat="42.522346000" lon="-2.556724000">
        <ele>541.00</ele>
        <time>2012-05-05T10:04:53Z</time>
      </trkpt>
      <trkpt lat="42.522356000" lon="-2.556728000">
        <ele>541.00</ele>
        <time>2012-05-05T10:04:55Z</time>
      </trkpt>
      <trkpt lat="42.522456000" lon="-2.556748000">
        <ele>540.80</ele>
        <time>2012-05-05T10:05:02Z</time>
      </trkpt>
      <trkpt lat="42.522500000" lon="-2.556744000">
        <ele>540.80</ele>
        <time>2012-05-05T10:05:06Z</time>
      </trkpt>
      <trkpt lat="42.522550000" lon="-2.556749000">
        <ele>540.70</ele>
        <time>2012-05-05T10:05:09Z</time>
      </trkpt>
      <trkpt lat="42.522565000" lon="-2.556749000">
        <ele>540.70</ele>
        <time>2012-05-05T10:05:09Z</time>
      </trkpt>
      <trkpt lat="42.522596000" lon="-2.556753000">
        <ele>540.70</ele>
        <time>2012-05-05T10:05:11Z</time>
      </trkpt>
      <trkpt lat="42.522660000" lon="-2.556753000">
        <ele>540.60</ele>
        <time>2012-05-05T10:05:16Z</time>
      </trkpt>
      <trkpt lat="42.522768000" lon="-2.556774000">
        <ele>540.50</ele>
        <time>2012-05-05T10:05:21Z</time>
      </trkpt>
      <trkpt lat="42.523121000" lon="-2.556904000">
        <ele>540.80</ele>
        <time>2012-05-05T10:05:37Z</time>
      </trkpt>
      <trkpt lat="42.523208000" lon="-2.556914000">
        <ele>541.00</ele>
        <time>2012-05-05T10:05:42Z</time>
      </trkpt>
      <trkpt lat="42.523231000" lon="-2.556914000">
        <ele>541.10</ele>
        <time>2012-05-05T10:05:42Z</time>
      </trkpt>
      <trkpt lat="42.523365000" lon="-2.556949000">
        <ele>541.50</ele>
        <time>2012-05-05T10:05:49Z</time>
      </trkpt>
      <trkpt lat="42.523560000" lon="-2.557061000">
        <ele>542.20</ele>
        <time>2012-05-05T10:05:58Z</time>
      </trkpt>
      <trkpt lat="42.523580000" lon="-2.557078000">
        <ele>542.20</ele>
        <time>2012-05-05T10:05:58Z</time>
      </trkpt>
      <trkpt lat="42.523875000" lon="-2.557441000">
        <ele>543.80</ele>
        <time>2012-05-05T10:06:13Z</time>
      </trkpt>
      <trkpt lat="42.523931000" lon="-2.557561000">
        <ele>544.30</ele>
        <time>2012-05-05T10:06:17Z</time>
      </trkpt>
      <trkpt lat="42.523968000" lon="-2.557613000">
        <ele>544.60</ele>
        <time>2012-05-05T10:06:19Z</time>
      </trkpt>
      <trkpt lat="42.524010000" lon="-2.557656000">
        <ele>544.90</ele>
        <time>2012-05-05T10:06:22Z</time>
      </trkpt>
      <trkpt lat="42.524110000" lon="-2.557709000">
        <ele>545.70</ele>
        <time>2012-05-05T10:06:26Z</time>
      </trkpt>
      <trkpt lat="42.524506000" lon="-2.557814000">
        <ele>549.00</ele>
        <time>2012-05-05T10:06:41Z</time>
      </trkpt>
      <trkpt lat="42.524680000" lon="-2.557841000">
        <ele>550.20</ele>
        <time>2012-05-05T10:06:48Z</time>
      </trkpt>
      <trkpt lat="42.524705000" lon="-2.557841000">
        <ele>550.40</ele>
        <time>2012-05-05T10:06:48Z</time>
      </trkpt>
      <trkpt lat="42.524806000" lon="-2.557846000">
        <ele>550.80</ele>
        <time>2012-05-05T10:06:52Z</time>
      </trkpt>
      <trkpt lat="42.524831000" lon="-2.557848000">
        <ele>551.00</ele>
        <time>2012-05-05T10:06:54Z</time>
      </trkpt>
      <trkpt lat="42.524883000" lon="-2.557849000">
        <ele>551.20</ele>
        <time>2012-05-05T10:06:55Z</time>
      </trkpt>
      <trkpt lat="42.525425000" lon="-2.557831000">
        <ele>553.70</ele>
        <time>2012-05-05T10:07:16Z</time>
      </trkpt>
      <trkpt lat="42.525451000" lon="-2.557833000">
        <ele>553.80</ele>
        <time>2012-05-05T10:07:16Z</time>
      </trkpt>
      <trkpt lat="42.525745000" lon="-2.557936000">
        <ele>556.20</ele>
        <time>2012-05-05T10:07:28Z</time>
      </trkpt>
      <trkpt lat="42.525901000" lon="-2.558066000">
        <ele>558.10</ele>
        <time>2012-05-05T10:07:35Z</time>
      </trkpt>
      <trkpt lat="42.525943000" lon="-2.558118000">
        <ele>558.70</ele>
        <time>2012-05-05T10:07:37Z</time>
      </trkpt>
      <trkpt lat="42.526028000" lon="-2.558291000">
        <ele>560.60</ele>
        <time>2012-05-05T10:07:44Z</time>
      </trkpt>
      <trkpt lat="42.526138000" lon="-2.558641000">
        <ele>563.90</ele>
        <time>2012-05-05T10:07:54Z</time>
      </trkpt>
      <trkpt lat="42.526185000" lon="-2.558723000">
        <ele>564.80</ele>
        <time>2012-05-05T10:07:58Z</time>
      </trkpt>
      <trkpt lat="42.526261000" lon="-2.558811000">
        <ele>566.20</ele>
        <time>2012-05-05T10:08:01Z</time>
      </trkpt>
      <trkpt lat="42.526353000" lon="-2.558873000">
        <ele>567.10</ele>
        <time>2012-05-05T10:08:05Z</time>
      </trkpt>
      <trkpt lat="42.526455000" lon="-2.558903000">
        <ele>567.50</ele>
        <time>2012-05-05T10:08:10Z</time>
      </trkpt>
      <trkpt lat="42.526481000" lon="-2.558904000">
        <ele>567.50</ele>
        <time>2012-05-05T10:08:10Z</time>
      </trkpt>
      <trkpt lat="42.527171000" lon="-2.558836000">
        <ele>566.00</ele>
        <time>2012-05-05T10:08:35Z</time>
      </trkpt>
      <trkpt lat="42.527211000" lon="-2.558838000">
        <ele>566.00</ele>
        <time>2012-05-05T10:08:36Z</time>
      </trkpt>
      <trkpt lat="42.528161000" lon="-2.559209000">
        <ele>567.40</ele>
        <time>2012-05-05T10:08:52Z</time>
      </trkpt>
      <trkpt lat="42.529290000" lon="-2.559488000">
        <ele>565.90</ele>
        <time>2012-05-05T10:09:11Z</time>
      </trkpt>
      <trkpt lat="42.529476000" lon="-2.559601000">
        <ele>565.60</ele>
        <time>2012-05-05T10:09:16Z</time>
      </trkpt>
      <trkpt lat="42.529878000" lon="-2.560056000">
        <ele>563.70</ele>
        <time>2012-05-05T10:09:29Z</time>
      </trkpt>
      <trkpt lat="42.529928000" lon="-2.560088000">
        <ele>563.40</ele>
        <time>2012-05-05T10:09:30Z</time>
      </trkpt>
      <trkpt lat="42.529985000" lon="-2.560103000">
        <ele>563.00</ele>
        <time>2012-05-05T10:09:30Z</time>
      </trkpt>
      <trkpt lat="42.530046000" lon="-2.560104000">
        <ele>562.50</ele>
        <time>2012-05-05T10:09:32Z</time>
      </trkpt>
      <trkpt lat="42.530336000" lon="-2.559998000">
        <ele>559.80</ele>
        <time>2012-05-05T10:09:37Z</time>
      </trkpt>
      <trkpt lat="42.530391000" lon="-2.559991000">
        <ele>559.50</ele>
        <time>2012-05-05T10:09:37Z</time>
      </trkpt>
      <trkpt lat="42.530446000" lon="-2.560001000">
        <ele>558.90</ele>
        <time>2012-05-05T10:09:39Z</time>
      </trkpt>
      <trkpt lat="42.530496000" lon="-2.560024000">
        <ele>558.70</ele>
        <time>2012-05-05T10:09:39Z</time>
      </trkpt>
      <trkpt lat="42.530540000" lon="-2.560059000">
        <ele>558.50</ele>
        <time>2012-05-05T10:09:41Z</time>
      </trkpt>
      <trkpt lat="42.531065000" lon="-2.560734000">
        <ele>555.80</ele>
        <time>2012-05-05T10:09:55Z</time>
      </trkpt>
      <trkpt lat="42.531128000" lon="-2.560851000">
        <ele>555.20</ele>
        <time>2012-05-05T10:09:58Z</time>
      </trkpt>
      <trkpt lat="42.531173000" lon="-2.560988000">
        <ele>554.60</ele>
        <time>2012-05-05T10:10:00Z</time>
      </trkpt>
      <trkpt lat="42.531391000" lon="-2.562236000">
        <ele>551.60</ele>
        <time>2012-05-05T10:10:16Z</time>
      </trkpt>
      <trkpt lat="42.531666000" lon="-2.563083000">
        <ele>551.60</ele>
        <time>2012-05-05T10:10:28Z</time>
      </trkpt>
      <trkpt lat="42.531813000" lon="-2.563356000">
        <ele>552.40</ele>
        <time>2012-05-05T10:10:33Z</time>
      </trkpt>
      <trkpt lat="42.532121000" lon="-2.563696000">
        <ele>554.70</ele>
        <time>2012-05-05T10:10:42Z</time>
      </trkpt>
      <trkpt lat="42.532148000" lon="-2.563738000">
        <ele>554.90</ele>
        <time>2012-05-05T10:10:43Z</time>
      </trkpt>
      <trkpt lat="42.532840000" lon="-2.564543000">
        <ele>562.70</ele>
        <time>2012-05-05T10:11:10Z</time>
      </trkpt>
      <trkpt lat="42.532930000" lon="-2.564734000">
        <ele>563.70</ele>
        <time>2012-05-05T10:11:13Z</time>
      </trkpt>
      <trkpt lat="42.533086000" lon="-2.565193000">
        <ele>562.70</ele>
        <time>2012-05-05T10:11:20Z</time>
      </trkpt>
      <trkpt lat="42.533150000" lon="-2.565309000">
        <ele>562.30</ele>
        <time>2012-05-05T10:11:22Z</time>
      </trkpt>
      <trkpt lat="42.533296000" lon="-2.565526000">
        <ele>561.20</ele>
        <time>2012-05-05T10:11:27Z</time>
      </trkpt>
      <trkpt lat="42.533356000" lon="-2.565654000">
        <ele>560.80</ele>
        <time>2012-05-05T10:11:29Z</time>
      </trkpt>
      <trkpt lat="42.533430000" lon="-2.565933000">
        <ele>560.50</ele>
        <time>2012-05-05T10:11:32Z</time>
      </trkpt>
      <trkpt lat="42.533485000" lon="-2.566348000">
        <ele>560.80</ele>
        <time>2012-05-05T10:11:39Z</time>
      </trkpt>
      <trkpt lat="42.533506000" lon="-2.566413000">
        <ele>560.80</ele>
        <time>2012-05-05T10:11:39Z</time>
      </trkpt>
      <trkpt lat="42.533540000" lon="-2.566471000">
        <ele>560.70</ele>
        <time>2012-05-05T10:11:41Z</time>
      </trkpt>
      <trkpt lat="42.533583000" lon="-2.566519000">
        <ele>560.50</ele>
        <time>2012-05-05T10:11:41Z</time>
      </trkpt>
      <trkpt lat="42.533676000" lon="-2.566589000">
        <ele>560.10</ele>
        <time>2012-05-05T10:11:43Z</time>
      </trkpt>
      <trkpt lat="42.533723000" lon="-2.566611000">
        <ele>560.00</ele>
        <time>2012-05-05T10:11:44Z</time>
      </trkpt>
      <trkpt lat="42.534273000" lon="-2.566994000">
        <ele>557.10</ele>
        <time>2012-05-05T10:11:55Z</time>
      </trkpt>
      <trkpt lat="42.534408000" lon="-2.567208000">
        <ele>556.80</ele>
        <time>2012-05-05T10:11:58Z</time>
      </trkpt>
      <trkpt lat="42.534941000" lon="-2.568576000">
        <ele>555.10</ele>
        <time>2012-05-05T10:12:19Z</time>
      </trkpt>
      <trkpt lat="42.535005000" lon="-2.568846000">
        <ele>555.50</ele>
        <time>2012-05-05T10:12:24Z</time>
      </trkpt>
      <trkpt lat="42.535050000" lon="-2.568946000">
        <ele>555.80</ele>
        <time>2012-05-05T10:12:26Z</time>
      </trkpt>
      <trkpt lat="42.535423000" lon="-2.569369000">
        <ele>557.30</ele>
        <time>2012-05-05T10:12:37Z</time>
      </trkpt>
      <trkpt lat="42.535741000" lon="-2.569609000">
        <ele>558.90</ele>
        <time>2012-05-05T10:12:45Z</time>
      </trkpt>
      <trkpt lat="42.535785000" lon="-2.569631000">
        <ele>559.10</ele>
        <time>2012-05-05T10:12:47Z</time>
      </trkpt>
      <trkpt lat="42.536170000" lon="-2.569703000">
        <ele>560.80</ele>
        <time>2012-05-05T10:12:56Z</time>
      </trkpt>
      <trkpt lat="42.536255000" lon="-2.569703000">
        <ele>561.10</ele>
        <time>2012-05-05T10:12:58Z</time>
      </trkpt>
      <trkpt lat="42.536573000" lon="-2.569766000">
        <ele>560.80</ele>
        <time>2012-05-05T10:13:05Z</time>
      </trkpt>
      <trkpt lat="42.537018000" lon="-2.570038000">
        <ele>561.10</ele>
        <time>2012-05-05T10:13:15Z</time>
      </trkpt>
      <trkpt lat="42.537268000" lon="-2.570251000">
        <ele>561.80</ele>
        <time>2012-05-05T10:13:20Z</time>
      </trkpt>
      <trkpt lat="42.537450000" lon="-2.570329000">
        <ele>562.00</ele>
        <time>2012-05-05T10:13:24Z</time>
      </trkpt>
      <trkpt lat="42.538111000" lon="-2.570434000">
        <ele>562.00</ele>
        <time>2012-05-05T10:13:41Z</time>
      </trkpt>
      <trkpt lat="42.538360000" lon="-2.570408000">
        <ele>561.90</ele>
        <time>2012-05-05T10:13:46Z</time>
      </trkpt>
      <trkpt lat="42.538398000" lon="-2.570394000">
        <ele>561.90</ele>
        <time>2012-05-05T10:13:48Z</time>
      </trkpt>
      <trkpt lat="42.538903000" lon="-2.570284000">
        <ele>561.80</ele>
        <time>2012-05-05T10:14:02Z</time>
      </trkpt>
      <trkpt lat="42.539086000" lon="-2.570306000">
        <ele>562.40</ele>
        <time>2012-05-05T10:14:07Z</time>
      </trkpt>
      <trkpt lat="42.539486000" lon="-2.570396000">
        <ele>563.50</ele>
        <time>2012-05-05T10:14:16Z</time>
      </trkpt>
      <trkpt lat="42.539766000" lon="-2.570348000">
        <ele>563.80</ele>
        <time>2012-05-05T10:14:21Z</time>
      </trkpt>
      <trkpt lat="42.540621000" lon="-2.570058000">
        <ele>564.60</ele>
        <time>2012-05-05T10:14:46Z</time>
      </trkpt>
      <trkpt lat="42.541486000" lon="-2.569923000">
        <ele>567.80</ele>
        <time>2012-05-05T10:15:08Z</time>
      </trkpt>
      <trkpt lat="42.541523000" lon="-2.569924000">
        <ele>567.90</ele>
        <time>2012-05-05T10:15:10Z</time>
      </trkpt>
      <trkpt lat="42.541746000" lon="-2.570006000">
        <ele>569.40</ele>
        <time>2012-05-05T10:15:15Z</time>
      </trkpt>
      <trkpt lat="42.543393000" lon="-2.571414000">
        <ele>567.70</ele>
        <time>2012-05-05T10:15:59Z</time>
      </trkpt>
      <trkpt lat="42.543735000" lon="-2.571574000">
        <ele>568.40</ele>
        <time>2012-05-05T10:16:06Z</time>
      </trkpt>
      <trkpt lat="42.545665000" lon="-2.572438000">
        <ele>570.50</ele>
        <time>2012-05-05T10:16:48Z</time>
      </trkpt>
      <trkpt lat="42.545708000" lon="-2.572468000">
        <ele>570.50</ele>
        <time>2012-05-05T10:16:49Z</time>
      </trkpt>
      <trkpt lat="42.546926000" lon="-2.573271000">
        <ele>568.10</ele>
        <time>2012-05-05T10:17:14Z</time>
      </trkpt>
      <trkpt lat="42.547228000" lon="-2.573311000">
        <ele>567.60</ele>
        <time>2012-05-05T10:17:22Z</time>
      </trkpt>
      <trkpt lat="42.547286000" lon="-2.573336000">
        <ele>567.60</ele>
        <time>2012-05-05T10:17:24Z</time>
      </trkpt>
      <trkpt lat="42.547318000" lon="-2.573361000">
        <ele>567.60</ele>
        <time>2012-05-05T10:17:26Z</time>
      </trkpt>
      <trkpt lat="42.547380000" lon="-2.573441000">
        <ele>567.50</ele>
        <time>2012-05-05T10:17:28Z</time>
      </trkpt>
      <trkpt lat="42.547406000" lon="-2.573488000">
        <ele>567.40</ele>
        <time>2012-05-05T10:17:29Z</time>
      </trkpt>
      <trkpt lat="42.547426000" lon="-2.573536000">
        <ele>567.30</ele>
        <time>2012-05-05T10:17:29Z</time>
      </trkpt>
      <trkpt lat="42.547628000" lon="-2.574911000">
        <ele>563.90</ele>
        <time>2012-05-05T10:17:52Z</time>
      </trkpt>
      <trkpt lat="42.547631000" lon="-2.574989000">
        <ele>563.90</ele>
        <time>2012-05-05T10:17:52Z</time>
      </trkpt>
      <trkpt lat="42.547836000" lon="-2.579724000">
        <ele>569.50</ele>
        <time>2012-05-05T10:18:58Z</time>
      </trkpt>
      <trkpt lat="42.547850000" lon="-2.579769000">
        <ele>569.50</ele>
        <time>2012-05-05T10:18:58Z</time>
      </trkpt>
      <trkpt lat="42.548081000" lon="-2.580334000">
        <ele>571.20</ele>
        <time>2012-05-05T10:19:14Z</time>
      </trkpt>
      <trkpt lat="42.548403000" lon="-2.580791000">
        <ele>573.90</ele>
        <time>2012-05-05T10:19:31Z</time>
      </trkpt>
      <trkpt lat="42.548541000" lon="-2.580943000">
        <ele>574.80</ele>
        <time>2012-05-05T10:19:38Z</time>
      </trkpt>
      <trkpt lat="42.548573000" lon="-2.580969000">
        <ele>575.10</ele>
        <time>2012-05-05T10:19:40Z</time>
      </trkpt>
      <trkpt lat="42.548620000" lon="-2.581021000">
        <ele>575.40</ele>
        <time>2012-05-05T10:19:43Z</time>
      </trkpt>
      <trkpt lat="42.550136000" lon="-2.582343000">
        <ele>588.30</ele>
        <time>2012-05-05T10:20:50Z</time>
      </trkpt>
      <trkpt lat="42.550163000" lon="-2.582358000">
        <ele>588.40</ele>
        <time>2012-05-05T10:20:50Z</time>
      </trkpt>
      <trkpt lat="42.550598000" lon="-2.582464000">
        <ele>592.80</ele>
        <time>2012-05-05T10:21:07Z</time>
      </trkpt>
      <trkpt lat="42.550626000" lon="-2.582464000">
        <ele>593.00</ele>
        <time>2012-05-05T10:21:07Z</time>
      </trkpt>
      <trkpt lat="42.550830000" lon="-2.582488000">
        <ele>594.80</ele>
        <time>2012-05-05T10:21:14Z</time>
      </trkpt>
      <trkpt lat="42.550860000" lon="-2.582488000">
        <ele>595.10</ele>
        <time>2012-05-05T10:21:16Z</time>
      </trkpt>
      <trkpt lat="42.551065000" lon="-2.582509000">
        <ele>597.00</ele>
        <time>2012-05-05T10:21:23Z</time>
      </trkpt>
      <trkpt lat="42.551580000" lon="-2.582571000">
        <ele>602.70</ele>
        <time>2012-05-05T10:21:40Z</time>
      </trkpt>
      <trkpt lat="42.551665000" lon="-2.582571000">
        <ele>603.60</ele>
        <time>2012-05-05T10:21:42Z</time>
      </trkpt>
      <trkpt lat="42.552686000" lon="-2.582783000">
        <ele>613.90</ele>
        <time>2012-05-05T10:22:11Z</time>
      </trkpt>
      <trkpt lat="42.552715000" lon="-2.582783000">
        <ele>614.00</ele>
        <time>2012-05-05T10:22:13Z</time>
      </trkpt>
      <trkpt lat="42.552795000" lon="-2.582761000">
        <ele>614.30</ele>
        <time>2012-05-05T10:22:15Z</time>
      </trkpt>
      <trkpt lat="42.552815000" lon="-2.582739000">
        <ele>614.10</ele>
        <time>2012-05-05T10:22:17Z</time>
      </trkpt>
      <trkpt lat="42.552840000" lon="-2.582686000">
        <ele>613.30</ele>
        <time>2012-05-05T10:22:18Z</time>
      </trkpt>
      <trkpt lat="42.552861000" lon="-2.582611000">
        <ele>612.10</ele>
        <time>2012-05-05T10:22:20Z</time>
      </trkpt>
      <trkpt lat="42.552880000" lon="-2.582514000">
        <ele>610.40</ele>
        <time>2012-05-05T10:22:22Z</time>
      </trkpt>
      <trkpt lat="42.552896000" lon="-2.582464000">
        <ele>609.40</ele>
        <time>2012-05-05T10:22:24Z</time>
      </trkpt>
      <trkpt lat="42.552928000" lon="-2.582424000">
        <ele>608.50</ele>
        <time>2012-05-05T10:22:24Z</time>
      </trkpt>
      <trkpt lat="42.552971000" lon="-2.582409000">
        <ele>607.80</ele>
        <time>2012-05-05T10:22:25Z</time>
      </trkpt>
      <trkpt lat="42.553020000" lon="-2.582408000">
        <ele>607.30</ele>
        <time>2012-05-05T10:22:27Z</time>
      </trkpt>
      <trkpt lat="42.553068000" lon="-2.582411000">
        <ele>607.00</ele>
        <time>2012-05-05T10:22:27Z</time>
      </trkpt>
      <trkpt lat="42.554728000" lon="-2.582976000">
        <ele>610.60</ele>
        <time>2012-05-05T10:23:05Z</time>
      </trkpt>
      <trkpt lat="42.554758000" lon="-2.582999000">
        <ele>610.90</ele>
        <time>2012-05-05T10:23:07Z</time>
      </trkpt>
      <trkpt lat="42.554808000" lon="-2.583049000">
        <ele>611.70</ele>
        <time>2012-05-05T10:23:09Z</time>
      </trkpt>
      <trkpt lat="42.554946000" lon="-2.583084000">
        <ele>612.50</ele>
        <time>2012-05-05T10:23:12Z</time>
      </trkpt>
      <trkpt lat="42.554983000" lon="-2.583086000">
        <ele>612.50</ele>
        <time>2012-05-05T10:23:14Z</time>
      </trkpt>
      <trkpt lat="42.555268000" lon="-2.583091000">
        <ele>611.70</ele>
        <time>2012-05-05T10:23:21Z</time>
      </trkpt>
      <trkpt lat="42.555541000" lon="-2.583064000">
        <ele>609.40</ele>
        <time>2012-05-05T10:23:28Z</time>
      </trkpt>
      <trkpt lat="42.556600000" lon="-2.583378000">
        <ele>605.40</ele>
        <time>2012-05-05T10:23:56Z</time>
      </trkpt>
      <trkpt lat="42.556880000" lon="-2.583566000">
        <ele>604.80</ele>
        <time>2012-05-05T10:24:03Z</time>
      </trkpt>
      <trkpt lat="42.557495000" lon="-2.584276000">
        <ele>607.00</ele>
        <time>2012-05-05T10:24:22Z</time>
      </trkpt>
      <trkpt lat="42.557525000" lon="-2.584324000">
        <ele>607.10</ele>
        <time>2012-05-05T10:24:24Z</time>
      </trkpt>
      <trkpt lat="42.557658000" lon="-2.584721000">
        <ele>609.70</ele>
        <time>2012-05-05T10:24:33Z</time>
      </trkpt>
      <trkpt lat="42.557720000" lon="-2.585048000">
        <ele>611.50</ele>
        <time>2012-05-05T10:24:41Z</time>
      </trkpt>
      <trkpt lat="42.557860000" lon="-2.585294000">
        <ele>610.90</ele>
        <time>2012-05-05T10:24:48Z</time>
      </trkpt>
      <trkpt lat="42.557948000" lon="-2.585404000">
        <ele>609.90</ele>
        <time>2012-05-05T10:24:52Z</time>
      </trkpt>
      <trkpt lat="42.557986000" lon="-2.585438000">
        <ele>609.60</ele>
        <time>2012-05-05T10:24:52Z</time>
      </trkpt>
      <trkpt lat="42.558031000" lon="-2.585463000">
        <ele>609.30</ele>
        <time>2012-05-05T10:24:54Z</time>
      </trkpt>
      <trkpt lat="42.558233000" lon="-2.585501000">
        <ele>607.40</ele>
        <time>2012-05-05T10:24:59Z</time>
      </trkpt>
      <trkpt lat="42.558266000" lon="-2.585501000">
        <ele>607.10</ele>
        <time>2012-05-05T10:24:59Z</time>
      </trkpt>
      <trkpt lat="42.558295000" lon="-2.585503000">
        <ele>606.80</ele>
        <time>2012-05-05T10:25:00Z</time>
      </trkpt>
      <trkpt lat="42.558388000" lon="-2.585526000">
        <ele>605.80</ele>
        <time>2012-05-05T10:25:06Z</time>
      </trkpt>
      <trkpt lat="42.558425000" lon="-2.585543000">
        <ele>605.50</ele>
        <time>2012-05-05T10:25:07Z</time>
      </trkpt>
      <trkpt lat="42.558463000" lon="-2.585566000">
        <ele>605.00</ele>
        <time>2012-05-05T10:25:11Z</time>
      </trkpt>
      <trkpt lat="42.558466000" lon="-2.585569000">
        <ele>604.90</ele>
        <time>2012-05-05T10:25:11Z</time>
      </trkpt>
      <trkpt lat="42.558470000" lon="-2.585569000">
        <ele>604.80</ele>
        <time>2012-05-05T10:25:13Z</time>
      </trkpt>
      <trkpt lat="42.558473000" lon="-2.585569000">
        <ele>604.80</ele>
        <time>2012-05-05T10:25:14Z</time>
      </trkpt>
      <trkpt lat="42.558473000" lon="-2.585569000">
        <ele>604.80</ele>
        <time>2012-05-05T10:25:16Z</time>
      </trkpt>
      <trkpt lat="42.558475000" lon="-2.585571000">
        <ele>604.70</ele>
        <time>2012-05-05T10:25:16Z</time>
      </trkpt>
      <trkpt lat="42.558478000" lon="-2.585571000">
        <ele>604.70</ele>
        <time>2012-05-05T10:25:21Z</time>
      </trkpt>
      <trkpt lat="42.558476000" lon="-2.585571000">
        <ele>604.70</ele>
        <time>2012-05-05T10:25:21Z</time>
      </trkpt>
      <trkpt lat="42.558478000" lon="-2.585571000">
        <ele>604.70</ele>
        <time>2012-05-05T10:25:23Z</time>
      </trkpt>
      <trkpt lat="42.558478000" lon="-2.585569000">
        <ele>604.70</ele>
        <time>2012-05-05T10:25:25Z</time>
      </trkpt>
      <trkpt lat="42.558480000" lon="-2.585569000">
        <ele>604.70</ele>
        <time>2012-05-05T10:25:27Z</time>
      </trkpt>
      <trkpt lat="42.558486000" lon="-2.585568000">
        <ele>604.60</ele>
        <time>2012-05-05T10:25:28Z</time>
      </trkpt>
      <trkpt lat="42.558500000" lon="-2.585568000">
        <ele>604.60</ele>
        <time>2012-05-05T10:25:30Z</time>
      </trkpt>
      <trkpt lat="42.558516000" lon="-2.585569000">
        <ele>604.50</ele>
        <time>2012-05-05T10:25:30Z</time>
      </trkpt>
      <trkpt lat="42.558833000" lon="-2.585673000">
        <ele>601.90</ele>
        <time>2012-05-05T10:25:42Z</time>
      </trkpt>
      <trkpt lat="42.558961000" lon="-2.585689000">
        <ele>601.10</ele>
        <time>2012-05-05T10:25:44Z</time>
      </trkpt>
      <trkpt lat="42.559620000" lon="-2.585614000">
        <ele>597.60</ele>
        <time>2012-05-05T10:26:00Z</time>
      </trkpt>
      <trkpt lat="42.559663000" lon="-2.585619000">
        <ele>597.40</ele>
        <time>2012-05-05T10:26:00Z</time>
      </trkpt>
      <trkpt lat="42.559701000" lon="-2.585633000">
        <ele>597.10</ele>
        <time>2012-05-05T10:26:01Z</time>
      </trkpt>
      <trkpt lat="42.559733000" lon="-2.585661000">
        <ele>596.90</ele>
        <time>2012-05-05T10:26:03Z</time>
      </trkpt>
      <trkpt lat="42.559756000" lon="-2.585701000">
        <ele>596.70</ele>
        <time>2012-05-05T10:26:03Z</time>
      </trkpt>
      <trkpt lat="42.559768000" lon="-2.585746000">
        <ele>596.50</ele>
        <time>2012-05-05T10:26:05Z</time>
      </trkpt>
      <trkpt lat="42.559815000" lon="-2.586601000">
        <ele>593.30</ele>
        <time>2012-05-05T10:26:22Z</time>
      </trkpt>
      <trkpt lat="42.559983000" lon="-2.587064000">
        <ele>590.50</ele>
        <time>2012-05-05T10:26:31Z</time>
      </trkpt>
      <trkpt lat="42.559986000" lon="-2.587114000">
        <ele>590.30</ele>
        <time>2012-05-05T10:26:31Z</time>
      </trkpt>
      <trkpt lat="42.559981000" lon="-2.587161000">
        <ele>590.00</ele>
        <time>2012-05-05T10:26:33Z</time>
      </trkpt>
      <trkpt lat="42.559971000" lon="-2.587206000">
        <ele>589.80</ele>
        <time>2012-05-05T10:26:33Z</time>
      </trkpt>
      <trkpt lat="42.559958000" lon="-2.587243000">
        <ele>589.60</ele>
        <time>2012-05-05T10:26:35Z</time>
      </trkpt>
      <trkpt lat="42.559941000" lon="-2.587271000">
        <ele>589.40</ele>
        <time>2012-05-05T10:26:36Z</time>
      </trkpt>
      <trkpt lat="42.559925000" lon="-2.587284000">
        <ele>589.30</ele>
        <time>2012-05-05T10:26:36Z</time>
      </trkpt>
      <trkpt lat="42.559916000" lon="-2.587286000">
        <ele>589.30</ele>
        <time>2012-05-05T10:26:38Z</time>
      </trkpt>
      <trkpt lat="42.559915000" lon="-2.587291000">
        <ele>589.20</ele>
        <time>2012-05-05T10:26:40Z</time>
      </trkpt>
      <trkpt lat="42.559916000" lon="-2.587286000">
        <ele>589.20</ele>
        <time>2012-05-05T10:26:43Z</time>
      </trkpt>
      <trkpt lat="42.559916000" lon="-2.587288000">
        <ele>589.20</ele>
        <time>2012-05-05T10:26:45Z</time>
      </trkpt>
      <trkpt lat="42.559913000" lon="-2.587291000">
        <ele>589.20</ele>
        <time>2012-05-05T10:26:48Z</time>
      </trkpt>
      <trkpt lat="42.559913000" lon="-2.587293000">
        <ele>589.20</ele>
        <time>2012-05-05T10:26:52Z</time>
      </trkpt>
      <trkpt lat="42.559915000" lon="-2.587294000">
        <ele>589.20</ele>
        <time>2012-05-05T10:26:57Z</time>
      </trkpt>
      <trkpt lat="42.559913000" lon="-2.587293000">
        <ele>589.20</ele>
        <time>2012-05-05T10:26:57Z</time>
      </trkpt>
      <trkpt lat="42.559915000" lon="-2.587294000">
        <ele>589.20</ele>
        <time>2012-05-05T10:27:04Z</time>
      </trkpt>
      <trkpt lat="42.559911000" lon="-2.587301000">
        <ele>589.20</ele>
        <time>2012-05-05T10:27:16Z</time>
      </trkpt>
      <trkpt lat="42.559910000" lon="-2.587304000">
        <ele>589.20</ele>
        <time>2012-05-05T10:27:22Z</time>
      </trkpt>
      <trkpt lat="42.559910000" lon="-2.587306000">
        <ele>589.10</ele>
        <time>2012-05-05T10:27:23Z</time>
      </trkpt>
      <trkpt lat="42.559910000" lon="-2.587308000">
        <ele>589.10</ele>
        <time>2012-05-05T10:27:25Z</time>
      </trkpt>
      <trkpt lat="42.559908000" lon="-2.587308000">
        <ele>589.10</ele>
        <time>2012-05-05T10:27:27Z</time>
      </trkpt>
      <trkpt lat="42.559908000" lon="-2.587313000">
        <ele>589.10</ele>
        <time>2012-05-05T10:27:32Z</time>
      </trkpt>
      <trkpt lat="42.559906000" lon="-2.587313000">
        <ele>589.10</ele>
        <time>2012-05-05T10:27:32Z</time>
      </trkpt>
      <trkpt lat="42.559905000" lon="-2.587328000">
        <ele>589.10</ele>
        <time>2012-05-05T10:27:51Z</time>
      </trkpt>
      <trkpt lat="42.559905000" lon="-2.587329000">
        <ele>589.00</ele>
        <time>2012-05-05T10:27:55Z</time>
      </trkpt>
      <trkpt lat="42.559903000" lon="-2.587331000">
        <ele>589.00</ele>
        <time>2012-05-05T10:27:56Z</time>
      </trkpt>
      <trkpt lat="42.559903000" lon="-2.587336000">
        <ele>589.00</ele>
        <time>2012-05-05T10:28:05Z</time>
      </trkpt>
      <trkpt lat="42.559898000" lon="-2.587339000">
        <ele>589.00</ele>
        <time>2012-05-05T10:28:14Z</time>
      </trkpt>
      <trkpt lat="42.559895000" lon="-2.587343000">
        <ele>589.00</ele>
        <time>2012-05-05T10:28:26Z</time>
      </trkpt>
      <trkpt lat="42.559893000" lon="-2.587343000">
        <ele>589.00</ele>
        <time>2012-05-05T10:28:40Z</time>
      </trkpt>
      <trkpt lat="42.559891000" lon="-2.587339000">
        <ele>589.00</ele>
        <time>2012-05-05T10:28:52Z</time>
      </trkpt>
      <trkpt lat="42.559893000" lon="-2.587338000">
        <ele>589.00</ele>
        <time>2012-05-05T10:28:57Z</time>
      </trkpt>
      <trkpt lat="42.559893000" lon="-2.587334000">
        <ele>589.00</ele>
        <time>2012-05-05T10:29:04Z</time>
      </trkpt>
      <trkpt lat="42.559891000" lon="-2.587333000">
        <ele>589.00</ele>
        <time>2012-05-05T10:29:06Z</time>
      </trkpt>
      <trkpt lat="42.559893000" lon="-2.587333000">
        <ele>589.00</ele>
        <time>2012-05-05T10:29:08Z</time>
      </trkpt>
      <trkpt lat="42.559893000" lon="-2.587331000">
        <ele>589.00</ele>
        <time>2012-05-05T10:29:13Z</time>
      </trkpt>
      <trkpt lat="42.559893000" lon="-2.587329000">
        <ele>589.10</ele>
        <time>2012-05-05T10:29:13Z</time>
      </trkpt>
      <trkpt lat="42.559895000" lon="-2.587329000">
        <ele>589.10</ele>
        <time>2012-05-05T10:29:15Z</time>
      </trkpt>
      <trkpt lat="42.559896000" lon="-2.587324000">
        <ele>589.10</ele>
        <time>2012-05-05T10:29:25Z</time>
      </trkpt>
      <trkpt lat="42.559906000" lon="-2.587321000">
        <ele>589.10</ele>
        <time>2012-05-05T10:29:39Z</time>
      </trkpt>
      <trkpt lat="42.559906000" lon="-2.587323000">
        <ele>589.10</ele>
        <time>2012-05-05T10:29:41Z</time>
      </trkpt>
      <trkpt lat="42.559908000" lon="-2.587323000">
        <ele>589.10</ele>
        <time>2012-05-05T10:29:43Z</time>
      </trkpt>
      <trkpt lat="42.559908000" lon="-2.587326000">
        <ele>589.10</ele>
        <time>2012-05-05T10:29:50Z</time>
      </trkpt>
      <trkpt lat="42.559908000" lon="-2.587328000">
        <ele>589.00</ele>
        <time>2012-05-05T10:29:53Z</time>
      </trkpt>
      <trkpt lat="42.559908000" lon="-2.587331000">
        <ele>589.00</ele>
        <time>2012-05-05T10:29:58Z</time>
      </trkpt>
      <trkpt lat="42.559906000" lon="-2.587333000">
        <ele>589.00</ele>
        <time>2012-05-05T10:30:00Z</time>
      </trkpt>
      <trkpt lat="42.559905000" lon="-2.587338000">
        <ele>589.00</ele>
        <time>2012-05-05T10:30:28Z</time>
      </trkpt>
      <trkpt lat="42.559901000" lon="-2.587339000">
        <ele>589.00</ele>
        <time>2012-05-05T10:30:40Z</time>
      </trkpt>
      <trkpt lat="42.559900000" lon="-2.587338000">
        <ele>589.00</ele>
        <time>2012-05-05T10:30:54Z</time>
      </trkpt>
      <trkpt lat="42.559901000" lon="-2.587336000">
        <ele>589.00</ele>
        <time>2012-05-05T10:31:01Z</time>
      </trkpt>
      <trkpt lat="42.559903000" lon="-2.587336000">
        <ele>589.00</ele>
        <time>2012-05-05T10:31:03Z</time>
      </trkpt>
      <trkpt lat="42.559900000" lon="-2.587339000">
        <ele>589.00</ele>
        <time>2012-05-05T10:31:31Z</time>
      </trkpt>
      <trkpt lat="42.559901000" lon="-2.587339000">
        <ele>589.00</ele>
        <time>2012-05-05T10:31:32Z</time>
      </trkpt>
      <trkpt lat="42.559896000" lon="-2.587338000">
        <ele>589.00</ele>
        <time>2012-05-05T10:31:41Z</time>
      </trkpt>
      <trkpt lat="42.559893000" lon="-2.587341000">
        <ele>589.00</ele>
        <time>2012-05-05T10:31:53Z</time>
      </trkpt>
      <trkpt lat="42.559893000" lon="-2.587338000">
        <ele>589.00</ele>
        <time>2012-05-05T10:32:00Z</time>
      </trkpt>
      <trkpt lat="42.559895000" lon="-2.587339000">
        <ele>589.00</ele>
        <time>2012-05-05T10:32:09Z</time>
      </trkpt>
      <trkpt lat="42.559896000" lon="-2.587346000">
        <ele>589.00</ele>
        <time>2012-05-05T10:32:21Z</time>
      </trkpt>
      <trkpt lat="42.559901000" lon="-2.587349000">
        <ele>589.00</ele>
        <time>2012-05-05T10:32:28Z</time>
      </trkpt>
      <trkpt lat="42.559901000" lon="-2.587351000">
        <ele>588.90</ele>
        <time>2012-05-05T10:32:30Z</time>
      </trkpt>
      <trkpt lat="42.559905000" lon="-2.587351000">
        <ele>588.90</ele>
        <time>2012-05-05T10:32:33Z</time>
      </trkpt>
      <trkpt lat="42.559905000" lon="-2.587353000">
        <ele>588.90</ele>
        <time>2012-05-05T10:32:35Z</time>
      </trkpt>
      <trkpt lat="42.559908000" lon="-2.587353000">
        <ele>588.90</ele>
        <time>2012-05-05T10:32:40Z</time>
      </trkpt>
      <trkpt lat="42.559910000" lon="-2.587349000">
        <ele>588.90</ele>
        <time>2012-05-05T10:32:49Z</time>
      </trkpt>
      <trkpt lat="42.559913000" lon="-2.587351000">
        <ele>588.90</ele>
        <time>2012-05-05T10:32:53Z</time>
      </trkpt>
      <trkpt lat="42.559918000" lon="-2.587346000">
        <ele>588.90</ele>
        <time>2012-05-05T10:32:59Z</time>
      </trkpt>
      <trkpt lat="42.559915000" lon="-2.587346000">
        <ele>588.90</ele>
        <time>2012-05-05T10:33:17Z</time>
      </trkpt>
      <trkpt lat="42.559920000" lon="-2.587363000">
        <ele>588.90</ele>
        <time>2012-05-05T10:33:19Z</time>
      </trkpt>
      <trkpt lat="42.559925000" lon="-2.587368000">
        <ele>588.90</ele>
        <time>2012-05-05T10:33:19Z</time>
      </trkpt>
      <trkpt lat="42.559931000" lon="-2.587364000">
        <ele>588.90</ele>
        <time>2012-05-05T10:33:20Z</time>
      </trkpt>
      <trkpt lat="42.559930000" lon="-2.587366000">
        <ele>588.90</ele>
        <time>2012-05-05T10:33:22Z</time>
      </trkpt>
      <trkpt lat="42.559931000" lon="-2.587366000">
        <ele>588.80</ele>
        <time>2012-05-05T10:33:24Z</time>
      </trkpt>
      <trkpt lat="42.559931000" lon="-2.587378000">
        <ele>588.80</ele>
        <time>2012-05-05T10:33:26Z</time>
      </trkpt>
      <trkpt lat="42.559928000" lon="-2.587379000">
        <ele>588.80</ele>
        <time>2012-05-05T10:33:26Z</time>
      </trkpt>
      <trkpt lat="42.559928000" lon="-2.587369000">
        <ele>588.80</ele>
        <time>2012-05-05T10:33:43Z</time>
      </trkpt>
      <trkpt lat="42.559930000" lon="-2.587369000">
        <ele>588.80</ele>
        <time>2012-05-05T10:33:43Z</time>
      </trkpt>
      <trkpt lat="42.559930000" lon="-2.587364000">
        <ele>588.80</ele>
        <time>2012-05-05T10:33:48Z</time>
      </trkpt>
      <trkpt lat="42.559930000" lon="-2.587363000">
        <ele>588.90</ele>
        <time>2012-05-05T10:33:50Z</time>
      </trkpt>
      <trkpt lat="42.559931000" lon="-2.587353000">
        <ele>588.90</ele>
        <time>2012-05-05T10:34:02Z</time>
      </trkpt>
      <trkpt lat="42.559933000" lon="-2.587349000">
        <ele>588.90</ele>
        <time>2012-05-05T10:34:04Z</time>
      </trkpt>
      <trkpt lat="42.559935000" lon="-2.587349000">
        <ele>588.90</ele>
        <time>2012-05-05T10:34:06Z</time>
      </trkpt>
      <trkpt lat="42.559936000" lon="-2.587339000">
        <ele>588.90</ele>
        <time>2012-05-05T10:34:14Z</time>
      </trkpt>
      <trkpt lat="42.559938000" lon="-2.587338000">
        <ele>589.00</ele>
        <time>2012-05-05T10:34:16Z</time>
      </trkpt>
      <trkpt lat="42.559938000" lon="-2.587333000">
        <ele>589.00</ele>
        <time>2012-05-05T10:34:21Z</time>
      </trkpt>
      <trkpt lat="42.559940000" lon="-2.587333000">
        <ele>589.00</ele>
        <time>2012-05-05T10:34:23Z</time>
      </trkpt>
      <trkpt lat="42.559941000" lon="-2.587324000">
        <ele>589.00</ele>
        <time>2012-05-05T10:34:34Z</time>
      </trkpt>
      <trkpt lat="42.559943000" lon="-2.587319000">
        <ele>589.00</ele>
        <time>2012-05-05T10:34:35Z</time>
      </trkpt>
      <trkpt lat="42.559946000" lon="-2.587318000">
        <ele>589.00</ele>
        <time>2012-05-05T10:34:42Z</time>
      </trkpt>
      <trkpt lat="42.559945000" lon="-2.587314000">
        <ele>589.00</ele>
        <time>2012-05-05T10:34:51Z</time>
      </trkpt>
      <trkpt lat="42.559945000" lon="-2.587314000">
        <ele>589.00</ele>
        <time>2012-05-05T10:34:53Z</time>
      </trkpt>
      <trkpt lat="42.559946000" lon="-2.587314000">
        <ele>589.10</ele>
        <time>2012-05-05T10:34:53Z</time>
      </trkpt>
      <trkpt lat="42.559945000" lon="-2.587314000">
        <ele>589.10</ele>
        <time>2012-05-05T10:34:56Z</time>
      </trkpt>
      <trkpt lat="42.559943000" lon="-2.587318000">
        <ele>589.00</ele>
        <time>2012-05-05T10:34:58Z</time>
      </trkpt>
      <trkpt lat="42.559940000" lon="-2.587321000">
        <ele>589.00</ele>
        <time>2012-05-05T10:35:00Z</time>
      </trkpt>
      <trkpt lat="42.559943000" lon="-2.587316000">
        <ele>589.00</ele>
        <time>2012-05-05T10:35:01Z</time>
      </trkpt>
      <trkpt lat="42.559946000" lon="-2.587311000">
        <ele>589.10</ele>
        <time>2012-05-05T10:35:03Z</time>
      </trkpt>
      <trkpt lat="42.559958000" lon="-2.587289000">
        <ele>589.10</ele>
        <time>2012-05-05T10:35:10Z</time>
      </trkpt>
      <trkpt lat="42.559958000" lon="-2.587286000">
        <ele>589.20</ele>
        <time>2012-05-05T10:35:12Z</time>
      </trkpt>
      <trkpt lat="42.559960000" lon="-2.587278000">
        <ele>589.20</ele>
        <time>2012-05-05T10:35:24Z</time>
      </trkpt>
      <trkpt lat="42.559956000" lon="-2.587279000">
        <ele>589.20</ele>
        <time>2012-05-05T10:35:31Z</time>
      </trkpt>
      <trkpt lat="42.559956000" lon="-2.587281000">
        <ele>589.20</ele>
        <time>2012-05-05T10:35:33Z</time>
      </trkpt>
      <trkpt lat="42.559951000" lon="-2.587283000">
        <ele>589.20</ele>
        <time>2012-05-05T10:35:40Z</time>
      </trkpt>
      <trkpt lat="42.559953000" lon="-2.587283000">
        <ele>589.20</ele>
        <time>2012-05-05T10:35:42Z</time>
      </trkpt>
      <trkpt lat="42.559961000" lon="-2.587263000">
        <ele>589.20</ele>
        <time>2012-05-05T10:35:52Z</time>
      </trkpt>
      <trkpt lat="42.559963000" lon="-2.587261000">
        <ele>589.30</ele>
        <time>2012-05-05T10:35:54Z</time>
      </trkpt>
      <trkpt lat="42.559966000" lon="-2.587258000">
        <ele>589.30</ele>
        <time>2012-05-05T10:35:59Z</time>
      </trkpt>
      <trkpt lat="42.559961000" lon="-2.587261000">
        <ele>589.30</ele>
        <time>2012-05-05T10:36:01Z</time>
      </trkpt>
      <trkpt lat="42.559960000" lon="-2.587259000">
        <ele>589.30</ele>
        <time>2012-05-05T10:36:09Z</time>
      </trkpt>
      <trkpt lat="42.559960000" lon="-2.587263000">
        <ele>589.30</ele>
        <time>2012-05-05T10:36:15Z</time>
      </trkpt>
      <trkpt lat="42.559956000" lon="-2.587268000">
        <ele>589.30</ele>
        <time>2012-05-05T10:36:16Z</time>
      </trkpt>
      <trkpt lat="42.559955000" lon="-2.587268000">
        <ele>589.20</ele>
        <time>2012-05-05T10:36:18Z</time>
      </trkpt>
      <trkpt lat="42.559953000" lon="-2.587273000">
        <ele>589.20</ele>
        <time>2012-05-05T10:36:22Z</time>
      </trkpt>
      <trkpt lat="42.559951000" lon="-2.587273000">
        <ele>589.20</ele>
        <time>2012-05-05T10:36:23Z</time>
      </trkpt>
      <trkpt lat="42.559950000" lon="-2.587276000">
        <ele>589.20</ele>
        <time>2012-05-05T10:36:27Z</time>
      </trkpt>
      <trkpt lat="42.559948000" lon="-2.587276000">
        <ele>589.20</ele>
        <time>2012-05-05T10:36:30Z</time>
      </trkpt>
      <trkpt lat="42.559948000" lon="-2.587278000">
        <ele>589.20</ele>
        <time>2012-05-05T10:36:30Z</time>
      </trkpt>
      <trkpt lat="42.559943000" lon="-2.587279000">
        <ele>589.20</ele>
        <time>2012-05-05T10:36:48Z</time>
      </trkpt>
      <trkpt lat="42.559941000" lon="-2.587283000">
        <ele>589.20</ele>
        <time>2012-05-05T10:36:55Z</time>
      </trkpt>
      <trkpt lat="42.559943000" lon="-2.587281000">
        <ele>589.20</ele>
        <time>2012-05-05T10:36:56Z</time>
      </trkpt>
      <trkpt lat="42.559941000" lon="-2.587281000">
        <ele>589.20</ele>
        <time>2012-05-05T10:36:58Z</time>
      </trkpt>
      <trkpt lat="42.559943000" lon="-2.587278000">
        <ele>589.20</ele>
        <time>2012-05-05T10:37:02Z</time>
      </trkpt>
      <trkpt lat="42.559945000" lon="-2.587278000">
        <ele>589.20</ele>
        <time>2012-05-05T10:37:05Z</time>
      </trkpt>
      <trkpt lat="42.559945000" lon="-2.587276000">
        <ele>589.20</ele>
        <time>2012-05-05T10:37:07Z</time>
      </trkpt>
      <trkpt lat="42.559950000" lon="-2.587273000">
        <ele>589.20</ele>
        <time>2012-05-05T10:37:10Z</time>
      </trkpt>
      <trkpt lat="42.559951000" lon="-2.587269000">
        <ele>589.20</ele>
        <time>2012-05-05T10:37:12Z</time>
      </trkpt>
      <trkpt lat="42.559951000" lon="-2.587271000">
        <ele>589.20</ele>
        <time>2012-05-05T10:37:12Z</time>
      </trkpt>
      <trkpt lat="42.559948000" lon="-2.587271000">
        <ele>589.20</ele>
        <time>2012-05-05T10:37:14Z</time>
      </trkpt>
      <trkpt lat="42.559950000" lon="-2.587268000">
        <ele>589.20</ele>
        <time>2012-05-05T10:37:16Z</time>
      </trkpt>
      <trkpt lat="42.559976000" lon="-2.587239000">
        <ele>589.30</ele>
        <time>2012-05-05T10:37:19Z</time>
      </trkpt>
      <trkpt lat="42.560018000" lon="-2.587206000">
        <ele>589.40</ele>
        <time>2012-05-05T10:37:21Z</time>
      </trkpt>
      <trkpt lat="42.560033000" lon="-2.587198000">
        <ele>589.40</ele>
        <time>2012-05-05T10:37:23Z</time>
      </trkpt>
      <trkpt lat="42.560046000" lon="-2.587194000">
        <ele>589.40</ele>
        <time>2012-05-05T10:37:24Z</time>
      </trkpt>
      <trkpt lat="42.560061000" lon="-2.587199000">
        <ele>589.40</ele>
        <time>2012-05-05T10:37:24Z</time>
      </trkpt>
      <trkpt lat="42.560076000" lon="-2.587211000">
        <ele>589.30</ele>
        <time>2012-05-05T10:37:26Z</time>
      </trkpt>
      <trkpt lat="42.560910000" lon="-2.588893000">
        <ele>584.60</ele>
        <time>2012-05-05T10:38:08Z</time>
      </trkpt>
      <trkpt lat="42.560951000" lon="-2.588944000">
        <ele>584.50</ele>
        <time>2012-05-05T10:38:08Z</time>
      </trkpt>
      <trkpt lat="42.562595000" lon="-2.589746000">
        <ele>577.70</ele>
        <time>2012-05-05T10:38:34Z</time>
      </trkpt>
      <trkpt lat="42.562765000" lon="-2.589769000">
        <ele>577.70</ele>
        <time>2012-05-05T10:38:37Z</time>
      </trkpt>
      <trkpt lat="42.564090000" lon="-2.589644000">
        <ele>578.50</ele>
        <time>2012-05-05T10:38:57Z</time>
      </trkpt>
      <trkpt lat="42.564145000" lon="-2.589646000">
        <ele>578.50</ele>
        <time>2012-05-05T10:38:58Z</time>
      </trkpt>
      <trkpt lat="42.564366000" lon="-2.589744000">
        <ele>578.20</ele>
        <time>2012-05-05T10:39:02Z</time>
      </trkpt>
      <trkpt lat="42.568520000" lon="-2.592956000">
        <ele>599.60</ele>
        <time>2012-05-05T10:41:46Z</time>
      </trkpt>
      <trkpt lat="42.568545000" lon="-2.592969000">
        <ele>599.70</ele>
        <time>2012-05-05T10:41:47Z</time>
      </trkpt>
      <trkpt lat="42.571140000" lon="-2.594383000">
        <ele>606.80</ele>
        <time>2012-05-05T10:43:11Z</time>
      </trkpt>
      <trkpt lat="42.571320000" lon="-2.594416000">
        <ele>607.50</ele>
        <time>2012-05-05T10:43:18Z</time>
      </trkpt>
      <trkpt lat="42.571498000" lon="-2.594398000">
        <ele>609.20</ele>
        <time>2012-05-05T10:43:23Z</time>
      </trkpt>
      <trkpt lat="42.572593000" lon="-2.594239000">
        <ele>618.10</ele>
        <time>2012-05-05T10:44:01Z</time>
      </trkpt>
      <trkpt lat="42.572620000" lon="-2.594241000">
        <ele>618.30</ele>
        <time>2012-05-05T10:44:03Z</time>
      </trkpt>
      <trkpt lat="42.573430000" lon="-2.594149000">
        <ele>622.50</ele>
        <time>2012-05-05T10:44:31Z</time>
      </trkpt>
      <trkpt lat="42.573461000" lon="-2.594151000">
        <ele>622.60</ele>
        <time>2012-05-05T10:44:33Z</time>
      </trkpt>
      <trkpt lat="42.574070000" lon="-2.594246000">
        <ele>624.40</ele>
        <time>2012-05-05T10:44:45Z</time>
      </trkpt>
      <trkpt lat="42.574106000" lon="-2.594273000">
        <ele>624.40</ele>
        <time>2012-05-05T10:44:45Z</time>
      </trkpt>
      <trkpt lat="42.574136000" lon="-2.594303000">
        <ele>624.50</ele>
        <time>2012-05-05T10:44:47Z</time>
      </trkpt>
      <trkpt lat="42.574161000" lon="-2.594336000">
        <ele>624.50</ele>
        <time>2012-05-05T10:44:47Z</time>
      </trkpt>
      <trkpt lat="42.574176000" lon="-2.594373000">
        <ele>624.50</ele>
        <time>2012-05-05T10:44:48Z</time>
      </trkpt>
      <trkpt lat="42.574246000" lon="-2.594918000">
        <ele>625.30</ele>
        <time>2012-05-05T10:45:01Z</time>
      </trkpt>
      <trkpt lat="42.574311000" lon="-2.596108000">
        <ele>630.80</ele>
        <time>2012-05-05T10:45:34Z</time>
      </trkpt>
      <trkpt lat="42.574316000" lon="-2.596139000">
        <ele>630.90</ele>
        <time>2012-05-05T10:45:35Z</time>
      </trkpt>
      <trkpt lat="42.574421000" lon="-2.596586000">
        <ele>632.10</ele>
        <time>2012-05-05T10:45:51Z</time>
      </trkpt>
      <trkpt lat="42.574441000" lon="-2.596673000">
        <ele>632.10</ele>
        <time>2012-05-05T10:45:53Z</time>
      </trkpt>
      <trkpt lat="42.574851000" lon="-2.598073000">
        <ele>634.30</ele>
        <time>2012-05-05T10:46:42Z</time>
      </trkpt>
      <trkpt lat="42.574856000" lon="-2.598104000">
        <ele>634.40</ele>
        <time>2012-05-05T10:46:42Z</time>
      </trkpt>
      <trkpt lat="42.575308000" lon="-2.599694000">
        <ele>642.40</ele>
        <time>2012-05-05T10:47:15Z</time>
      </trkpt>
      <trkpt lat="42.575358000" lon="-2.599884000">
        <ele>643.80</ele>
        <time>2012-05-05T10:47:22Z</time>
      </trkpt>
      <trkpt lat="42.575366000" lon="-2.599941000">
        <ele>644.10</ele>
        <time>2012-05-05T10:47:24Z</time>
      </trkpt>
      <trkpt lat="42.575563000" lon="-2.600606000">
        <ele>646.70</ele>
        <time>2012-05-05T10:47:48Z</time>
      </trkpt>
      <trkpt lat="42.575568000" lon="-2.600634000">
        <ele>646.70</ele>
        <time>2012-05-05T10:47:48Z</time>
      </trkpt>
      <trkpt lat="42.575701000" lon="-2.601113000">
        <ele>645.70</ele>
        <time>2012-05-05T10:48:05Z</time>
      </trkpt>
      <trkpt lat="42.575723000" lon="-2.601169000">
        <ele>645.60</ele>
        <time>2012-05-05T10:48:07Z</time>
      </trkpt>
      <trkpt lat="42.575748000" lon="-2.601269000">
        <ele>645.40</ele>
        <time>2012-05-05T10:48:09Z</time>
      </trkpt>
      <trkpt lat="42.576028000" lon="-2.602191000">
        <ele>643.70</ele>
        <time>2012-05-05T10:48:28Z</time>
      </trkpt>
      <trkpt lat="42.576083000" lon="-2.602843000">
        <ele>641.60</ele>
        <time>2012-05-05T10:48:37Z</time>
      </trkpt>
      <trkpt lat="42.576055000" lon="-2.603808000">
        <ele>638.30</ele>
        <time>2012-05-05T10:48:45Z</time>
      </trkpt>
      <trkpt lat="42.576070000" lon="-2.603963000">
        <ele>638.10</ele>
        <time>2012-05-05T10:48:47Z</time>
      </trkpt>
      <trkpt lat="42.576006000" lon="-2.606879000">
        <ele>645.00</ele>
        <time>2012-05-05T10:49:43Z</time>
      </trkpt>
      <trkpt lat="42.576010000" lon="-2.606918000">
        <ele>645.10</ele>
        <time>2012-05-05T10:49:43Z</time>
      </trkpt>
      <trkpt lat="42.576185000" lon="-2.607674000">
        <ele>649.10</ele>
        <time>2012-05-05T10:50:02Z</time>
      </trkpt>
      <trkpt lat="42.576281000" lon="-2.607896000">
        <ele>650.70</ele>
        <time>2012-05-05T10:50:09Z</time>
      </trkpt>
      <trkpt lat="42.576491000" lon="-2.608626000">
        <ele>650.80</ele>
        <time>2012-05-05T10:50:28Z</time>
      </trkpt>
      <trkpt lat="42.576530000" lon="-2.608718000">
        <ele>650.70</ele>
        <time>2012-05-05T10:50:30Z</time>
      </trkpt>
      <trkpt lat="42.576546000" lon="-2.608744000">
        <ele>650.70</ele>
        <time>2012-05-05T10:50:32Z</time>
      </trkpt>
      <trkpt lat="42.576611000" lon="-2.608819000">
        <ele>650.50</ele>
        <time>2012-05-05T10:50:35Z</time>
      </trkpt>
      <trkpt lat="42.576628000" lon="-2.608831000">
        <ele>650.40</ele>
        <time>2012-05-05T10:50:37Z</time>
      </trkpt>
      <trkpt lat="42.576663000" lon="-2.608838000">
        <ele>650.40</ele>
        <time>2012-05-05T10:50:39Z</time>
      </trkpt>
      <trkpt lat="42.576678000" lon="-2.608838000">
        <ele>650.40</ele>
        <time>2012-05-05T10:50:40Z</time>
      </trkpt>
      <trkpt lat="42.576933000" lon="-2.608866000">
        <ele>650.80</ele>
        <time>2012-05-05T10:50:51Z</time>
      </trkpt>
      <trkpt lat="42.576976000" lon="-2.608868000">
        <ele>650.80</ele>
        <time>2012-05-05T10:50:53Z</time>
      </trkpt>
      <trkpt lat="42.576998000" lon="-2.608868000">
        <ele>650.90</ele>
        <time>2012-05-05T10:50:54Z</time>
      </trkpt>
      <trkpt lat="42.577083000" lon="-2.608879000">
        <ele>651.00</ele>
        <time>2012-05-05T10:50:58Z</time>
      </trkpt>
      <trkpt lat="42.577105000" lon="-2.608879000">
        <ele>651.00</ele>
        <time>2012-05-05T10:50:58Z</time>
      </trkpt>
      <trkpt lat="42.577188000" lon="-2.608888000">
        <ele>651.40</ele>
        <time>2012-05-05T10:51:03Z</time>
      </trkpt>
      <trkpt lat="42.577210000" lon="-2.608886000">
        <ele>651.50</ele>
        <time>2012-05-05T10:51:03Z</time>
      </trkpt>
      <trkpt lat="42.577311000" lon="-2.608899000">
        <ele>651.90</ele>
        <time>2012-05-05T10:51:08Z</time>
      </trkpt>
      <trkpt lat="42.577391000" lon="-2.608903000">
        <ele>652.30</ele>
        <time>2012-05-05T10:51:12Z</time>
      </trkpt>
      <trkpt lat="42.577433000" lon="-2.608909000">
        <ele>652.40</ele>
        <time>2012-05-05T10:51:15Z</time>
      </trkpt>
      <trkpt lat="42.577453000" lon="-2.608909000">
        <ele>652.50</ele>
        <time>2012-05-05T10:51:15Z</time>
      </trkpt>
      <trkpt lat="42.577553000" lon="-2.608923000">
        <ele>653.00</ele>
        <time>2012-05-05T10:51:20Z</time>
      </trkpt>
      <trkpt lat="42.577591000" lon="-2.608921000">
        <ele>653.20</ele>
        <time>2012-05-05T10:51:22Z</time>
      </trkpt>
      <trkpt lat="42.577630000" lon="-2.608926000">
        <ele>653.30</ele>
        <time>2012-05-05T10:51:24Z</time>
      </trkpt>
      <trkpt lat="42.577670000" lon="-2.608936000">
        <ele>653.50</ele>
        <time>2012-05-05T10:51:26Z</time>
      </trkpt>
      <trkpt lat="42.577746000" lon="-2.608934000">
        <ele>653.90</ele>
        <time>2012-05-05T10:51:31Z</time>
      </trkpt>
      <trkpt lat="42.577825000" lon="-2.608964000">
        <ele>654.10</ele>
        <time>2012-05-05T10:51:34Z</time>
      </trkpt>
      <trkpt lat="42.577883000" lon="-2.608968000">
        <ele>654.40</ele>
        <time>2012-05-05T10:51:38Z</time>
      </trkpt>
      <trkpt lat="42.577903000" lon="-2.608968000">
        <ele>654.50</ele>
        <time>2012-05-05T10:51:38Z</time>
      </trkpt>
      <trkpt lat="42.578065000" lon="-2.608991000">
        <ele>655.80</ele>
        <time>2012-05-05T10:51:47Z</time>
      </trkpt>
      <trkpt lat="42.578085000" lon="-2.608989000">
        <ele>656.00</ele>
        <time>2012-05-05T10:51:48Z</time>
      </trkpt>
      <trkpt lat="42.578143000" lon="-2.609004000">
        <ele>656.60</ele>
        <time>2012-05-05T10:51:50Z</time>
      </trkpt>
      <trkpt lat="42.578241000" lon="-2.609016000">
        <ele>657.50</ele>
        <time>2012-05-05T10:51:55Z</time>
      </trkpt>
      <trkpt lat="42.578261000" lon="-2.609016000">
        <ele>657.60</ele>
        <time>2012-05-05T10:51:57Z</time>
      </trkpt>
      <trkpt lat="42.578393000" lon="-2.609033000">
        <ele>659.00</ele>
        <time>2012-05-05T10:52:04Z</time>
      </trkpt>
      <trkpt lat="42.578490000" lon="-2.609033000">
        <ele>660.00</ele>
        <time>2012-05-05T10:52:09Z</time>
      </trkpt>
      <trkpt lat="42.578550000" lon="-2.609038000">
        <ele>660.50</ele>
        <time>2012-05-05T10:52:11Z</time>
      </trkpt>
      <trkpt lat="42.578651000" lon="-2.609018000">
        <ele>661.70</ele>
        <time>2012-05-05T10:52:16Z</time>
      </trkpt>
      <trkpt lat="42.578713000" lon="-2.609023000">
        <ele>662.30</ele>
        <time>2012-05-05T10:52:20Z</time>
      </trkpt>
      <trkpt lat="42.578935000" lon="-2.608981000">
        <ele>664.80</ele>
        <time>2012-05-05T10:52:30Z</time>
      </trkpt>
      <trkpt lat="42.579015000" lon="-2.608951000">
        <ele>665.80</ele>
        <time>2012-05-05T10:52:35Z</time>
      </trkpt>
      <trkpt lat="42.579766000" lon="-2.608791000">
        <ele>673.80</ele>
        <time>2012-05-05T10:53:12Z</time>
      </trkpt>
      <trkpt lat="42.579786000" lon="-2.608791000">
        <ele>673.90</ele>
        <time>2012-05-05T10:53:14Z</time>
      </trkpt>
      <trkpt lat="42.579921000" lon="-2.608754000">
        <ele>675.10</ele>
        <time>2012-05-05T10:53:21Z</time>
      </trkpt>
      <trkpt lat="42.580563000" lon="-2.608621000">
        <ele>679.90</ele>
        <time>2012-05-05T10:53:54Z</time>
      </trkpt>
      <trkpt lat="42.580616000" lon="-2.608601000">
        <ele>680.30</ele>
        <time>2012-05-05T10:53:57Z</time>
      </trkpt>
      <trkpt lat="42.581146000" lon="-2.608481000">
        <ele>684.90</ele>
        <time>2012-05-05T10:54:27Z</time>
      </trkpt>
      <trkpt lat="42.581163000" lon="-2.608481000">
        <ele>684.90</ele>
        <time>2012-05-05T10:54:27Z</time>
      </trkpt>
      <trkpt lat="42.581280000" lon="-2.608449000">
        <ele>686.10</ele>
        <time>2012-05-05T10:54:34Z</time>
      </trkpt>
      <trkpt lat="42.581905000" lon="-2.608329000">
        <ele>693.30</ele>
        <time>2012-05-05T10:55:12Z</time>
      </trkpt>
      <trkpt lat="42.581970000" lon="-2.608309000">
        <ele>694.10</ele>
        <time>2012-05-05T10:55:16Z</time>
      </trkpt>
      <trkpt lat="42.582983000" lon="-2.608109000">
        <ele>707.10</ele>
        <time>2012-05-05T10:56:15Z</time>
      </trkpt>
      <trkpt lat="42.583000000" lon="-2.608109000">
        <ele>707.20</ele>
        <time>2012-05-05T10:56:17Z</time>
      </trkpt>
      <trkpt lat="42.583286000" lon="-2.608101000">
        <ele>709.80</ele>
        <time>2012-05-05T10:56:34Z</time>
      </trkpt>
      <trkpt lat="42.583303000" lon="-2.608101000">
        <ele>709.90</ele>
        <time>2012-05-05T10:56:34Z</time>
      </trkpt>
      <trkpt lat="42.583320000" lon="-2.608096000">
        <ele>710.10</ele>
        <time>2012-05-05T10:56:36Z</time>
      </trkpt>
      <trkpt lat="42.583336000" lon="-2.608096000">
        <ele>710.20</ele>
        <time>2012-05-05T10:56:36Z</time>
      </trkpt>
      <trkpt lat="42.583423000" lon="-2.608106000">
        <ele>711.00</ele>
        <time>2012-05-05T10:56:41Z</time>
      </trkpt>
      <trkpt lat="42.583440000" lon="-2.608106000">
        <ele>711.10</ele>
        <time>2012-05-05T10:56:43Z</time>
      </trkpt>
      <trkpt lat="42.583456000" lon="-2.608108000">
        <ele>711.30</ele>
        <time>2012-05-05T10:56:43Z</time>
      </trkpt>
      <trkpt lat="42.583475000" lon="-2.608108000">
        <ele>711.40</ele>
        <time>2012-05-05T10:56:44Z</time>
      </trkpt>
      <trkpt lat="42.583491000" lon="-2.608109000">
        <ele>711.60</ele>
        <time>2012-05-05T10:56:46Z</time>
      </trkpt>
      <trkpt lat="42.583575000" lon="-2.608104000">
        <ele>712.30</ele>
        <time>2012-05-05T10:56:50Z</time>
      </trkpt>
      <trkpt lat="42.583593000" lon="-2.608106000">
        <ele>712.50</ele>
        <time>2012-05-05T10:56:51Z</time>
      </trkpt>
      <trkpt lat="42.583611000" lon="-2.608104000">
        <ele>712.60</ele>
        <time>2012-05-05T10:56:53Z</time>
      </trkpt>
      <trkpt lat="42.583630000" lon="-2.608106000">
        <ele>712.80</ele>
        <time>2012-05-05T10:56:53Z</time>
      </trkpt>
      <trkpt lat="42.583703000" lon="-2.608106000">
        <ele>713.40</ele>
        <time>2012-05-05T10:56:58Z</time>
      </trkpt>
      <trkpt lat="42.583723000" lon="-2.608109000">
        <ele>713.60</ele>
        <time>2012-05-05T10:56:58Z</time>
      </trkpt>
      <trkpt lat="42.583755000" lon="-2.608109000">
        <ele>713.90</ele>
        <time>2012-05-05T10:57:00Z</time>
      </trkpt>
      <trkpt lat="42.583790000" lon="-2.608113000">
        <ele>714.10</ele>
        <time>2012-05-05T10:57:02Z</time>
      </trkpt>
      <trkpt lat="42.583823000" lon="-2.608113000">
        <ele>714.40</ele>
        <time>2012-05-05T10:57:05Z</time>
      </trkpt>
      <trkpt lat="42.583840000" lon="-2.608114000">
        <ele>714.50</ele>
        <time>2012-05-05T10:57:05Z</time>
      </trkpt>
      <trkpt lat="42.583875000" lon="-2.608114000">
        <ele>714.80</ele>
        <time>2012-05-05T10:57:07Z</time>
      </trkpt>
      <trkpt lat="42.583910000" lon="-2.608118000">
        <ele>715.10</ele>
        <time>2012-05-05T10:57:09Z</time>
      </trkpt>
      <trkpt lat="42.583946000" lon="-2.608118000">
        <ele>715.30</ele>
        <time>2012-05-05T10:57:12Z</time>
      </trkpt>
      <trkpt lat="42.583963000" lon="-2.608119000">
        <ele>715.50</ele>
        <time>2012-05-05T10:57:12Z</time>
      </trkpt>
      <trkpt lat="42.584013000" lon="-2.608119000">
        <ele>715.90</ele>
        <time>2012-05-05T10:57:16Z</time>
      </trkpt>
      <trkpt lat="42.584065000" lon="-2.608126000">
        <ele>716.20</ele>
        <time>2012-05-05T10:57:19Z</time>
      </trkpt>
      <trkpt lat="42.584083000" lon="-2.608124000">
        <ele>716.30</ele>
        <time>2012-05-05T10:57:19Z</time>
      </trkpt>
      <trkpt lat="42.584118000" lon="-2.608126000">
        <ele>716.60</ele>
        <time>2012-05-05T10:57:21Z</time>
      </trkpt>
      <trkpt lat="42.584135000" lon="-2.608126000">
        <ele>716.80</ele>
        <time>2012-05-05T10:57:23Z</time>
      </trkpt>
      <trkpt lat="42.584171000" lon="-2.608129000">
        <ele>717.00</ele>
        <time>2012-05-05T10:57:24Z</time>
      </trkpt>
      <trkpt lat="42.584205000" lon="-2.608129000">
        <ele>717.30</ele>
        <time>2012-05-05T10:57:26Z</time>
      </trkpt>
      <trkpt lat="42.584240000" lon="-2.608133000">
        <ele>717.60</ele>
        <time>2012-05-05T10:57:28Z</time>
      </trkpt>
      <trkpt lat="42.584260000" lon="-2.608133000">
        <ele>717.70</ele>
        <time>2012-05-05T10:57:30Z</time>
      </trkpt>
      <trkpt lat="42.584276000" lon="-2.608134000">
        <ele>717.80</ele>
        <time>2012-05-05T10:57:30Z</time>
      </trkpt>
      <trkpt lat="42.584311000" lon="-2.608134000">
        <ele>718.10</ele>
        <time>2012-05-05T10:57:33Z</time>
      </trkpt>
      <trkpt lat="42.584346000" lon="-2.608139000">
        <ele>718.30</ele>
        <time>2012-05-05T10:57:35Z</time>
      </trkpt>
      <trkpt lat="42.584398000" lon="-2.608139000">
        <ele>718.70</ele>
        <time>2012-05-05T10:57:37Z</time>
      </trkpt>
      <trkpt lat="42.584416000" lon="-2.608141000">
        <ele>718.90</ele>
        <time>2012-05-05T10:57:38Z</time>
      </trkpt>
      <trkpt lat="42.584503000" lon="-2.608138000">
        <ele>719.60</ele>
        <time>2012-05-05T10:57:44Z</time>
      </trkpt>
      <trkpt lat="42.584571000" lon="-2.608149000">
        <ele>720.00</ele>
        <time>2012-05-05T10:57:47Z</time>
      </trkpt>
      <trkpt lat="42.584636000" lon="-2.608148000">
        <ele>720.60</ele>
        <time>2012-05-05T10:57:52Z</time>
      </trkpt>
      <trkpt lat="42.584655000" lon="-2.608149000">
        <ele>720.70</ele>
        <time>2012-05-05T10:57:52Z</time>
      </trkpt>
      <trkpt lat="42.584753000" lon="-2.608149000">
        <ele>721.50</ele>
        <time>2012-05-05T10:57:59Z</time>
      </trkpt>
      <trkpt lat="42.584770000" lon="-2.608151000">
        <ele>721.70</ele>
        <time>2012-05-05T10:57:59Z</time>
      </trkpt>
      <trkpt lat="42.584821000" lon="-2.608146000">
        <ele>722.10</ele>
        <time>2012-05-05T10:58:03Z</time>
      </trkpt>
      <trkpt lat="42.584835000" lon="-2.608148000">
        <ele>722.20</ele>
        <time>2012-05-05T10:58:03Z</time>
      </trkpt>
      <trkpt lat="42.584913000" lon="-2.608143000">
        <ele>722.90</ele>
        <time>2012-05-05T10:58:08Z</time>
      </trkpt>
      <trkpt lat="42.584930000" lon="-2.608144000">
        <ele>723.00</ele>
        <time>2012-05-05T10:58:10Z</time>
      </trkpt>
      <trkpt lat="42.585008000" lon="-2.608139000">
        <ele>723.70</ele>
        <time>2012-05-05T10:58:15Z</time>
      </trkpt>
      <trkpt lat="42.585025000" lon="-2.608141000">
        <ele>723.90</ele>
        <time>2012-05-05T10:58:15Z</time>
      </trkpt>
      <trkpt lat="42.585056000" lon="-2.608138000">
        <ele>724.10</ele>
        <time>2012-05-05T10:58:17Z</time>
      </trkpt>
      <trkpt lat="42.585148000" lon="-2.608151000">
        <ele>724.80</ele>
        <time>2012-05-05T10:58:22Z</time>
      </trkpt>
      <trkpt lat="42.585165000" lon="-2.608158000">
        <ele>724.90</ele>
        <time>2012-05-05T10:58:24Z</time>
      </trkpt>
      <trkpt lat="42.585198000" lon="-2.608163000">
        <ele>725.20</ele>
        <time>2012-05-05T10:58:25Z</time>
      </trkpt>
      <trkpt lat="42.585215000" lon="-2.608159000">
        <ele>725.30</ele>
        <time>2012-05-05T10:58:27Z</time>
      </trkpt>
      <trkpt lat="42.585231000" lon="-2.608159000">
        <ele>725.50</ele>
        <time>2012-05-05T10:58:27Z</time>
      </trkpt>
      <trkpt lat="42.585301000" lon="-2.608166000">
        <ele>726.00</ele>
        <time>2012-05-05T10:58:31Z</time>
      </trkpt>
      <trkpt lat="42.585336000" lon="-2.608166000">
        <ele>726.30</ele>
        <time>2012-05-05T10:58:34Z</time>
      </trkpt>
      <trkpt lat="42.585391000" lon="-2.608171000">
        <ele>726.70</ele>
        <time>2012-05-05T10:58:36Z</time>
      </trkpt>
      <trkpt lat="42.585428000" lon="-2.608171000">
        <ele>727.00</ele>
        <time>2012-05-05T10:58:38Z</time>
      </trkpt>
      <trkpt lat="42.585463000" lon="-2.608176000">
        <ele>727.30</ele>
        <time>2012-05-05T10:58:41Z</time>
      </trkpt>
      <trkpt lat="42.585481000" lon="-2.608176000">
        <ele>727.40</ele>
        <time>2012-05-05T10:58:41Z</time>
      </trkpt>
      <trkpt lat="42.585500000" lon="-2.608173000">
        <ele>727.60</ele>
        <time>2012-05-05T10:58:43Z</time>
      </trkpt>
      <trkpt lat="42.585518000" lon="-2.608173000">
        <ele>727.70</ele>
        <time>2012-05-05T10:58:43Z</time>
      </trkpt>
      <trkpt lat="42.585588000" lon="-2.608161000">
        <ele>728.40</ele>
        <time>2012-05-05T10:58:48Z</time>
      </trkpt>
      <trkpt lat="42.585621000" lon="-2.608164000">
        <ele>728.60</ele>
        <time>2012-05-05T10:58:50Z</time>
      </trkpt>
      <trkpt lat="42.585778000" lon="-2.608149000">
        <ele>730.00</ele>
        <time>2012-05-05T10:58:59Z</time>
      </trkpt>
      <trkpt lat="42.585796000" lon="-2.608151000">
        <ele>730.10</ele>
        <time>2012-05-05T10:59:00Z</time>
      </trkpt>
      <trkpt lat="42.586136000" lon="-2.608118000">
        <ele>733.10</ele>
        <time>2012-05-05T10:59:18Z</time>
      </trkpt>
      <trkpt lat="42.586258000" lon="-2.608133000">
        <ele>734.00</ele>
        <time>2012-05-05T10:59:25Z</time>
      </trkpt>
      <trkpt lat="42.586276000" lon="-2.608133000">
        <ele>734.10</ele>
        <time>2012-05-05T10:59:26Z</time>
      </trkpt>
      <trkpt lat="42.586310000" lon="-2.608133000">
        <ele>734.40</ele>
        <time>2012-05-05T10:59:28Z</time>
      </trkpt>
      <trkpt lat="42.586326000" lon="-2.608138000">
        <ele>734.50</ele>
        <time>2012-05-05T10:59:30Z</time>
      </trkpt>
      <trkpt lat="42.586363000" lon="-2.608138000">
        <ele>734.80</ele>
        <time>2012-05-05T10:59:32Z</time>
      </trkpt>
      <trkpt lat="42.586471000" lon="-2.608156000">
        <ele>735.50</ele>
        <time>2012-05-05T10:59:37Z</time>
      </trkpt>
      <trkpt lat="42.586490000" lon="-2.608156000">
        <ele>735.60</ele>
        <time>2012-05-05T10:59:39Z</time>
      </trkpt>
      <trkpt lat="42.586703000" lon="-2.608209000">
        <ele>737.00</ele>
        <time>2012-05-05T10:59:51Z</time>
      </trkpt>
      <trkpt lat="42.586950000" lon="-2.608331000">
        <ele>738.60</ele>
        <time>2012-05-05T11:00:05Z</time>
      </trkpt>
      <trkpt lat="42.587313000" lon="-2.608553000">
        <ele>742.70</ele>
        <time>2012-05-05T11:00:26Z</time>
      </trkpt>
      <trkpt lat="42.587650000" lon="-2.608631000">
        <ele>747.70</ele>
        <time>2012-05-05T11:00:45Z</time>
      </trkpt>
      <trkpt lat="42.587668000" lon="-2.608631000">
        <ele>747.90</ele>
        <time>2012-05-05T11:00:45Z</time>
      </trkpt>
      <trkpt lat="42.587926000" lon="-2.608541000">
        <ele>752.20</ele>
        <time>2012-05-05T11:01:00Z</time>
      </trkpt>
      <trkpt lat="42.588175000" lon="-2.608419000">
        <ele>756.00</ele>
        <time>2012-05-05T11:01:16Z</time>
      </trkpt>
      <trkpt lat="42.588458000" lon="-2.608251000">
        <ele>759.80</ele>
        <time>2012-05-05T11:01:34Z</time>
      </trkpt>
      <trkpt lat="42.588505000" lon="-2.608239000">
        <ele>760.40</ele>
        <time>2012-05-05T11:01:37Z</time>
      </trkpt>
      <trkpt lat="42.588520000" lon="-2.608231000">
        <ele>760.60</ele>
        <time>2012-05-05T11:01:37Z</time>
      </trkpt>
      <trkpt lat="42.588535000" lon="-2.608226000">
        <ele>760.70</ele>
        <time>2012-05-05T11:01:39Z</time>
      </trkpt>
      <trkpt lat="42.588550000" lon="-2.608218000">
        <ele>760.90</ele>
        <time>2012-05-05T11:01:39Z</time>
      </trkpt>
      <trkpt lat="42.588611000" lon="-2.608161000">
        <ele>761.60</ele>
        <time>2012-05-05T11:01:44Z</time>
      </trkpt>
      <trkpt lat="42.588798000" lon="-2.608073000">
        <ele>763.80</ele>
        <time>2012-05-05T11:01:56Z</time>
      </trkpt>
      <trkpt lat="42.588811000" lon="-2.608071000">
        <ele>763.90</ele>
        <time>2012-05-05T11:01:58Z</time>
      </trkpt>
      <trkpt lat="42.589186000" lon="-2.608001000">
        <ele>769.30</ele>
        <time>2012-05-05T11:02:22Z</time>
      </trkpt>
      <trkpt lat="42.589575000" lon="-2.607929000">
        <ele>774.70</ele>
        <time>2012-05-05T11:02:48Z</time>
      </trkpt>
      <trkpt lat="42.589588000" lon="-2.607929000">
        <ele>774.80</ele>
        <time>2012-05-05T11:02:50Z</time>
      </trkpt>
      <trkpt lat="42.589731000" lon="-2.607899000">
        <ele>776.70</ele>
        <time>2012-05-05T11:03:01Z</time>
      </trkpt>
      <trkpt lat="42.589743000" lon="-2.607899000">
        <ele>776.80</ele>
        <time>2012-05-05T11:03:01Z</time>
      </trkpt>
      <trkpt lat="42.589861000" lon="-2.607878000">
        <ele>778.50</ele>
        <time>2012-05-05T11:03:11Z</time>
      </trkpt>
      <trkpt lat="42.589933000" lon="-2.607876000">
        <ele>779.40</ele>
        <time>2012-05-05T11:03:16Z</time>
      </trkpt>
      <trkpt lat="42.589960000" lon="-2.607869000">
        <ele>779.80</ele>
        <time>2012-05-05T11:03:18Z</time>
      </trkpt>
      <trkpt lat="42.590088000" lon="-2.607851000">
        <ele>781.50</ele>
        <time>2012-05-05T11:03:27Z</time>
      </trkpt>
      <trkpt lat="42.590138000" lon="-2.607829000">
        <ele>782.10</ele>
        <time>2012-05-05T11:03:32Z</time>
      </trkpt>
      <trkpt lat="42.590165000" lon="-2.607823000">
        <ele>782.40</ele>
        <time>2012-05-05T11:03:34Z</time>
      </trkpt>
      <trkpt lat="42.590268000" lon="-2.607753000">
        <ele>783.80</ele>
        <time>2012-05-05T11:03:42Z</time>
      </trkpt>
      <trkpt lat="42.590278000" lon="-2.607743000">
        <ele>783.90</ele>
        <time>2012-05-05T11:03:44Z</time>
      </trkpt>
      <trkpt lat="42.590323000" lon="-2.607711000">
        <ele>784.40</ele>
        <time>2012-05-05T11:03:48Z</time>
      </trkpt>
      <trkpt lat="42.590348000" lon="-2.607673000">
        <ele>784.70</ele>
        <time>2012-05-05T11:03:51Z</time>
      </trkpt>
      <trkpt lat="42.590390000" lon="-2.607629000">
        <ele>785.20</ele>
        <time>2012-05-05T11:03:55Z</time>
      </trkpt>
      <trkpt lat="42.590401000" lon="-2.607624000">
        <ele>785.30</ele>
        <time>2012-05-05T11:03:55Z</time>
      </trkpt>
      <trkpt lat="42.590413000" lon="-2.607614000">
        <ele>785.40</ele>
        <time>2012-05-05T11:03:56Z</time>
      </trkpt>
      <trkpt lat="42.590501000" lon="-2.607564000">
        <ele>786.60</ele>
        <time>2012-05-05T11:04:05Z</time>
      </trkpt>
      <trkpt lat="42.590513000" lon="-2.607561000">
        <ele>786.70</ele>
        <time>2012-05-05T11:04:05Z</time>
      </trkpt>
      <trkpt lat="42.590571000" lon="-2.607534000">
        <ele>787.50</ele>
        <time>2012-05-05T11:04:10Z</time>
      </trkpt>
      <trkpt lat="42.590581000" lon="-2.607528000">
        <ele>787.70</ele>
        <time>2012-05-05T11:04:12Z</time>
      </trkpt>
      <trkpt lat="42.590631000" lon="-2.607511000">
        <ele>788.40</ele>
        <time>2012-05-05T11:04:16Z</time>
      </trkpt>
      <trkpt lat="42.590655000" lon="-2.607506000">
        <ele>788.70</ele>
        <time>2012-05-05T11:04:17Z</time>
      </trkpt>
      <trkpt lat="42.590691000" lon="-2.607506000">
        <ele>789.20</ele>
        <time>2012-05-05T11:04:21Z</time>
      </trkpt>
      <trkpt lat="42.590715000" lon="-2.607499000">
        <ele>789.50</ele>
        <time>2012-05-05T11:04:23Z</time>
      </trkpt>
      <trkpt lat="42.590725000" lon="-2.607494000">
        <ele>789.70</ele>
        <time>2012-05-05T11:04:24Z</time>
      </trkpt>
      <trkpt lat="42.590805000" lon="-2.607476000">
        <ele>790.80</ele>
        <time>2012-05-05T11:04:31Z</time>
      </trkpt>
      <trkpt lat="42.590883000" lon="-2.607471000">
        <ele>791.90</ele>
        <time>2012-05-05T11:04:38Z</time>
      </trkpt>
      <trkpt lat="42.590893000" lon="-2.607473000">
        <ele>792.00</ele>
        <time>2012-05-05T11:04:38Z</time>
      </trkpt>
      <trkpt lat="42.590916000" lon="-2.607473000">
        <ele>792.30</ele>
        <time>2012-05-05T11:04:40Z</time>
      </trkpt>
      <trkpt lat="42.590940000" lon="-2.607468000">
        <ele>792.60</ele>
        <time>2012-05-05T11:04:42Z</time>
      </trkpt>
      <trkpt lat="42.591086000" lon="-2.607463000">
        <ele>794.70</ele>
        <time>2012-05-05T11:04:56Z</time>
      </trkpt>
      <trkpt lat="42.591096000" lon="-2.607464000">
        <ele>794.90</ele>
        <time>2012-05-05T11:04:57Z</time>
      </trkpt>
      <trkpt lat="42.591186000" lon="-2.607458000">
        <ele>796.10</ele>
        <time>2012-05-05T11:05:04Z</time>
      </trkpt>
      <trkpt lat="42.591198000" lon="-2.607461000">
        <ele>796.30</ele>
        <time>2012-05-05T11:05:06Z</time>
      </trkpt>
      <trkpt lat="42.591208000" lon="-2.607461000">
        <ele>796.40</ele>
        <time>2012-05-05T11:05:06Z</time>
      </trkpt>
      <trkpt lat="42.591261000" lon="-2.607461000">
        <ele>797.20</ele>
        <time>2012-05-05T11:05:11Z</time>
      </trkpt>
      <trkpt lat="42.591313000" lon="-2.607459000">
        <ele>798.00</ele>
        <time>2012-05-05T11:05:17Z</time>
      </trkpt>
      <trkpt lat="42.591346000" lon="-2.607453000">
        <ele>798.50</ele>
        <time>2012-05-05T11:05:20Z</time>
      </trkpt>
      <trkpt lat="42.591358000" lon="-2.607453000">
        <ele>798.70</ele>
        <time>2012-05-05T11:05:20Z</time>
      </trkpt>
      <trkpt lat="42.591380000" lon="-2.607456000">
        <ele>799.00</ele>
        <time>2012-05-05T11:05:22Z</time>
      </trkpt>
      <trkpt lat="42.591486000" lon="-2.607449000">
        <ele>800.70</ele>
        <time>2012-05-05T11:05:32Z</time>
      </trkpt>
      <trkpt lat="42.591573000" lon="-2.607426000">
        <ele>801.90</ele>
        <time>2012-05-05T11:05:39Z</time>
      </trkpt>
      <trkpt lat="42.591593000" lon="-2.607414000">
        <ele>802.20</ele>
        <time>2012-05-05T11:05:41Z</time>
      </trkpt>
      <trkpt lat="42.591603000" lon="-2.607406000">
        <ele>802.30</ele>
        <time>2012-05-05T11:05:43Z</time>
      </trkpt>
      <trkpt lat="42.591656000" lon="-2.607384000">
        <ele>803.10</ele>
        <time>2012-05-05T11:05:48Z</time>
      </trkpt>
      <trkpt lat="42.591666000" lon="-2.607378000">
        <ele>803.20</ele>
        <time>2012-05-05T11:05:48Z</time>
      </trkpt>
      <trkpt lat="42.591708000" lon="-2.607354000">
        <ele>803.70</ele>
        <time>2012-05-05T11:05:53Z</time>
      </trkpt>
      <trkpt lat="42.591850000" lon="-2.607254000">
        <ele>805.60</ele>
        <time>2012-05-05T11:06:07Z</time>
      </trkpt>
      <trkpt lat="42.591928000" lon="-2.607168000">
        <ele>806.60</ele>
        <time>2012-05-05T11:06:16Z</time>
      </trkpt>
      <trkpt lat="42.591948000" lon="-2.607153000">
        <ele>806.80</ele>
        <time>2012-05-05T11:06:17Z</time>
      </trkpt>
      <trkpt lat="42.591961000" lon="-2.607128000">
        <ele>807.00</ele>
        <time>2012-05-05T11:06:19Z</time>
      </trkpt>
      <trkpt lat="42.592048000" lon="-2.607033000">
        <ele>808.20</ele>
        <time>2012-05-05T11:06:30Z</time>
      </trkpt>
      <trkpt lat="42.592056000" lon="-2.607019000">
        <ele>808.40</ele>
        <time>2012-05-05T11:06:30Z</time>
      </trkpt>
      <trkpt lat="42.592103000" lon="-2.606966000">
        <ele>809.20</ele>
        <time>2012-05-05T11:06:35Z</time>
      </trkpt>
      <trkpt lat="42.592113000" lon="-2.606958000">
        <ele>809.40</ele>
        <time>2012-05-05T11:06:37Z</time>
      </trkpt>
      <trkpt lat="42.592121000" lon="-2.606946000">
        <ele>809.50</ele>
        <time>2012-05-05T11:06:37Z</time>
      </trkpt>
      <trkpt lat="42.592131000" lon="-2.606936000">
        <ele>809.70</ele>
        <time>2012-05-05T11:06:38Z</time>
      </trkpt>
      <trkpt lat="42.592138000" lon="-2.606924000">
        <ele>809.80</ele>
        <time>2012-05-05T11:06:40Z</time>
      </trkpt>
      <trkpt lat="42.592168000" lon="-2.606896000">
        <ele>810.30</ele>
        <time>2012-05-05T11:06:42Z</time>
      </trkpt>
      <trkpt lat="42.592276000" lon="-2.606723000">
        <ele>812.10</ele>
        <time>2012-05-05T11:06:56Z</time>
      </trkpt>
      <trkpt lat="42.592316000" lon="-2.606679000">
        <ele>812.70</ele>
        <time>2012-05-05T11:07:01Z</time>
      </trkpt>
      <trkpt lat="42.592340000" lon="-2.606646000">
        <ele>813.10</ele>
        <time>2012-05-05T11:07:03Z</time>
      </trkpt>
      <trkpt lat="42.592350000" lon="-2.606638000">
        <ele>813.30</ele>
        <time>2012-05-05T11:07:05Z</time>
      </trkpt>
      <trkpt lat="42.592356000" lon="-2.606628000">
        <ele>813.40</ele>
        <time>2012-05-05T11:07:06Z</time>
      </trkpt>
      <trkpt lat="42.592375000" lon="-2.606608000">
        <ele>813.70</ele>
        <time>2012-05-05T11:07:08Z</time>
      </trkpt>
      <trkpt lat="42.592383000" lon="-2.606594000">
        <ele>813.80</ele>
        <time>2012-05-05T11:07:08Z</time>
      </trkpt>
      <trkpt lat="42.592426000" lon="-2.606541000">
        <ele>814.50</ele>
        <time>2012-05-05T11:07:13Z</time>
      </trkpt>
      <trkpt lat="42.592436000" lon="-2.606533000">
        <ele>814.70</ele>
        <time>2012-05-05T11:07:15Z</time>
      </trkpt>
      <trkpt lat="42.592463000" lon="-2.606503000">
        <ele>815.10</ele>
        <time>2012-05-05T11:07:17Z</time>
      </trkpt>
      <trkpt lat="42.592568000" lon="-2.606433000">
        <ele>816.60</ele>
        <time>2012-05-05T11:07:27Z</time>
      </trkpt>
      <trkpt lat="42.592590000" lon="-2.606423000">
        <ele>817.00</ele>
        <time>2012-05-05T11:07:29Z</time>
      </trkpt>
      <trkpt lat="42.592601000" lon="-2.606414000">
        <ele>817.10</ele>
        <time>2012-05-05T11:07:31Z</time>
      </trkpt>
      <trkpt lat="42.592651000" lon="-2.606393000">
        <ele>817.90</ele>
        <time>2012-05-05T11:07:34Z</time>
      </trkpt>
      <trkpt lat="42.592671000" lon="-2.606376000">
        <ele>818.20</ele>
        <time>2012-05-05T11:07:36Z</time>
      </trkpt>
      <trkpt lat="42.592683000" lon="-2.606369000">
        <ele>818.30</ele>
        <time>2012-05-05T11:07:38Z</time>
      </trkpt>
      <trkpt lat="42.592723000" lon="-2.606338000">
        <ele>818.90</ele>
        <time>2012-05-05T11:07:41Z</time>
      </trkpt>
      <trkpt lat="42.592746000" lon="-2.606326000">
        <ele>819.30</ele>
        <time>2012-05-05T11:07:43Z</time>
      </trkpt>
      <trkpt lat="42.592776000" lon="-2.606301000">
        <ele>819.70</ele>
        <time>2012-05-05T11:07:46Z</time>
      </trkpt>
      <trkpt lat="42.592820000" lon="-2.606286000">
        <ele>820.40</ele>
        <time>2012-05-05T11:07:50Z</time>
      </trkpt>
      <trkpt lat="42.592843000" lon="-2.606281000">
        <ele>820.70</ele>
        <time>2012-05-05T11:07:53Z</time>
      </trkpt>
      <trkpt lat="42.592855000" lon="-2.606274000">
        <ele>820.80</ele>
        <time>2012-05-05T11:07:53Z</time>
      </trkpt>
      <trkpt lat="42.592866000" lon="-2.606273000">
        <ele>821.00</ele>
        <time>2012-05-05T11:07:55Z</time>
      </trkpt>
      <trkpt lat="42.592920000" lon="-2.606243000">
        <ele>821.80</ele>
        <time>2012-05-05T11:08:00Z</time>
      </trkpt>
      <trkpt lat="42.593000000" lon="-2.606206000">
        <ele>823.80</ele>
        <time>2012-05-05T11:08:07Z</time>
      </trkpt>
      <trkpt lat="42.593010000" lon="-2.606198000">
        <ele>824.00</ele>
        <time>2012-05-05T11:08:07Z</time>
      </trkpt>
      <trkpt lat="42.593031000" lon="-2.606188000">
        <ele>824.60</ele>
        <time>2012-05-05T11:08:09Z</time>
      </trkpt>
      <trkpt lat="42.593043000" lon="-2.606186000">
        <ele>824.80</ele>
        <time>2012-05-05T11:08:11Z</time>
      </trkpt>
      <trkpt lat="42.593105000" lon="-2.606166000">
        <ele>826.40</ele>
        <time>2012-05-05T11:08:16Z</time>
      </trkpt>
      <trkpt lat="42.593126000" lon="-2.606164000">
        <ele>826.90</ele>
        <time>2012-05-05T11:08:18Z</time>
      </trkpt>
      <trkpt lat="42.593180000" lon="-2.606151000">
        <ele>828.10</ele>
        <time>2012-05-05T11:08:23Z</time>
      </trkpt>
      <trkpt lat="42.593181000" lon="-2.606156000">
        <ele>828.20</ele>
        <time>2012-05-05T11:08:25Z</time>
      </trkpt>
      <trkpt lat="42.593181000" lon="-2.606156000">
        <ele>828.20</ele>
        <time>2012-05-05T11:08:25Z</time>
      </trkpt>
      <trkpt lat="42.593185000" lon="-2.606156000">
        <ele>828.40</ele>
        <time>2012-05-05T11:08:28Z</time>
      </trkpt>
      <trkpt lat="42.593183000" lon="-2.606153000">
        <ele>828.40</ele>
        <time>2012-05-05T11:08:28Z</time>
      </trkpt>
      <trkpt lat="42.593185000" lon="-2.606149000">
        <ele>828.40</ele>
        <time>2012-05-05T11:08:30Z</time>
      </trkpt>
      <trkpt lat="42.593185000" lon="-2.606151000">
        <ele>828.40</ele>
        <time>2012-05-05T11:08:30Z</time>
      </trkpt>
      <trkpt lat="42.593186000" lon="-2.606151000">
        <ele>828.50</ele>
        <time>2012-05-05T11:08:32Z</time>
      </trkpt>
      <trkpt lat="42.593188000" lon="-2.606153000">
        <ele>828.50</ele>
        <time>2012-05-05T11:08:33Z</time>
      </trkpt>
      <trkpt lat="42.593190000" lon="-2.606153000">
        <ele>828.50</ele>
        <time>2012-05-05T11:08:37Z</time>
      </trkpt>
      <trkpt lat="42.593190000" lon="-2.606153000">
        <ele>828.50</ele>
        <time>2012-05-05T11:08:40Z</time>
      </trkpt>
      <trkpt lat="42.593193000" lon="-2.606154000">
        <ele>828.60</ele>
        <time>2012-05-05T11:08:59Z</time>
      </trkpt>
      <trkpt lat="42.593193000" lon="-2.606158000">
        <ele>828.60</ele>
        <time>2012-05-05T11:09:13Z</time>
      </trkpt>
      <trkpt lat="42.593195000" lon="-2.606158000">
        <ele>828.60</ele>
        <time>2012-05-05T11:09:15Z</time>
      </trkpt>
      <trkpt lat="42.593195000" lon="-2.606156000">
        <ele>828.60</ele>
        <time>2012-05-05T11:09:15Z</time>
      </trkpt>
      <trkpt lat="42.593191000" lon="-2.606156000">
        <ele>828.60</ele>
        <time>2012-05-05T11:09:29Z</time>
      </trkpt>
      <trkpt lat="42.593191000" lon="-2.606158000">
        <ele>828.60</ele>
        <time>2012-05-05T11:09:36Z</time>
      </trkpt>
      <trkpt lat="42.593191000" lon="-2.606158000">
        <ele>828.60</ele>
        <time>2012-05-05T11:09:43Z</time>
      </trkpt>
      <trkpt lat="42.593191000" lon="-2.606163000">
        <ele>828.50</ele>
        <time>2012-05-05T11:09:52Z</time>
      </trkpt>
      <trkpt lat="42.593190000" lon="-2.606159000">
        <ele>828.50</ele>
        <time>2012-05-05T11:10:04Z</time>
      </trkpt>
      <trkpt lat="42.593188000" lon="-2.606158000">
        <ele>828.50</ele>
        <time>2012-05-05T11:10:09Z</time>
      </trkpt>
      <trkpt lat="42.593183000" lon="-2.606156000">
        <ele>828.40</ele>
        <time>2012-05-05T11:10:09Z</time>
      </trkpt>
      <trkpt lat="42.593128000" lon="-2.606163000">
        <ele>827.40</ele>
        <time>2012-05-05T11:10:16Z</time>
      </trkpt>
      <trkpt lat="42.593118000" lon="-2.606166000">
        <ele>827.30</ele>
        <time>2012-05-05T11:10:16Z</time>
      </trkpt>
      <trkpt lat="42.593110000" lon="-2.606166000">
        <ele>827.00</ele>
        <time>2012-05-05T11:10:18Z</time>
      </trkpt>
      <trkpt lat="42.593101000" lon="-2.606164000">
        <ele>826.90</ele>
        <time>2012-05-05T11:10:18Z</time>
      </trkpt>
      <trkpt lat="42.593095000" lon="-2.606159000">
        <ele>826.70</ele>
        <time>2012-05-05T11:10:20Z</time>
      </trkpt>
      <trkpt lat="42.593086000" lon="-2.606153000">
        <ele>826.60</ele>
        <time>2012-05-05T11:10:21Z</time>
      </trkpt>
      <trkpt lat="42.593080000" lon="-2.606143000">
        <ele>826.50</ele>
        <time>2012-05-05T11:10:21Z</time>
      </trkpt>
      <trkpt lat="42.593075000" lon="-2.606133000">
        <ele>826.40</ele>
        <time>2012-05-05T11:10:23Z</time>
      </trkpt>
      <trkpt lat="42.593068000" lon="-2.606094000">
        <ele>826.50</ele>
        <time>2012-05-05T11:10:25Z</time>
      </trkpt>
      <trkpt lat="42.593065000" lon="-2.606084000">
        <ele>826.50</ele>
        <time>2012-05-05T11:10:28Z</time>
      </trkpt>
      <trkpt lat="42.593058000" lon="-2.606081000">
        <ele>826.50</ele>
        <time>2012-05-05T11:10:30Z</time>
      </trkpt>
      <trkpt lat="42.593056000" lon="-2.606081000">
        <ele>826.40</ele>
        <time>2012-05-05T11:10:30Z</time>
      </trkpt>
      <trkpt lat="42.593055000" lon="-2.606083000">
        <ele>826.40</ele>
        <time>2012-05-05T11:10:32Z</time>
      </trkpt>
      <trkpt lat="42.593053000" lon="-2.606083000">
        <ele>826.30</ele>
        <time>2012-05-05T11:10:34Z</time>
      </trkpt>
      <trkpt lat="42.593051000" lon="-2.606088000">
        <ele>826.30</ele>
        <time>2012-05-05T11:10:37Z</time>
      </trkpt>
      <trkpt lat="42.593050000" lon="-2.606088000">
        <ele>826.20</ele>
        <time>2012-05-05T11:10:39Z</time>
      </trkpt>
      <trkpt lat="42.593048000" lon="-2.606089000">
        <ele>826.20</ele>
        <time>2012-05-05T11:10:39Z</time>
      </trkpt>
      <trkpt lat="42.593048000" lon="-2.606091000">
        <ele>826.20</ele>
        <time>2012-05-05T11:10:41Z</time>
      </trkpt>
      <trkpt lat="42.593048000" lon="-2.606093000">
        <ele>826.10</ele>
        <time>2012-05-05T11:10:42Z</time>
      </trkpt>
      <trkpt lat="42.593048000" lon="-2.606103000">
        <ele>826.10</ele>
        <time>2012-05-05T11:10:48Z</time>
      </trkpt>
      <trkpt lat="42.593053000" lon="-2.606146000">
        <ele>825.90</ele>
        <time>2012-05-05T11:10:49Z</time>
      </trkpt>
      <trkpt lat="42.593060000" lon="-2.606176000">
        <ele>825.80</ele>
        <time>2012-05-05T11:10:51Z</time>
      </trkpt>
      <trkpt lat="42.593070000" lon="-2.606198000">
        <ele>825.70</ele>
        <time>2012-05-05T11:10:51Z</time>
      </trkpt>
      <trkpt lat="42.593081000" lon="-2.606208000">
        <ele>825.80</ele>
        <time>2012-05-05T11:10:53Z</time>
      </trkpt>
      <trkpt lat="42.593095000" lon="-2.606209000">
        <ele>825.90</ele>
        <time>2012-05-05T11:10:53Z</time>
      </trkpt>
      <trkpt lat="42.593183000" lon="-2.606189000">
        <ele>827.70</ele>
        <time>2012-05-05T11:11:00Z</time>
      </trkpt>
      <trkpt lat="42.593255000" lon="-2.606189000">
        <ele>829.30</ele>
        <time>2012-05-05T11:11:05Z</time>
      </trkpt>
      <trkpt lat="42.593298000" lon="-2.606194000">
        <ele>830.20</ele>
        <time>2012-05-05T11:11:07Z</time>
      </trkpt>
      <trkpt lat="42.593313000" lon="-2.606193000">
        <ele>830.50</ele>
        <time>2012-05-05T11:11:08Z</time>
      </trkpt>
      <trkpt lat="42.593431000" lon="-2.606223000">
        <ele>832.90</ele>
        <time>2012-05-05T11:11:17Z</time>
      </trkpt>
      <trkpt lat="42.593445000" lon="-2.606231000">
        <ele>833.00</ele>
        <time>2012-05-05T11:11:19Z</time>
      </trkpt>
      <trkpt lat="42.593466000" lon="-2.606251000">
        <ele>833.60</ele>
        <time>2012-05-05T11:11:21Z</time>
      </trkpt>
      <trkpt lat="42.593478000" lon="-2.606258000">
        <ele>833.80</ele>
        <time>2012-05-05T11:11:22Z</time>
      </trkpt>
      <trkpt lat="42.593511000" lon="-2.606288000">
        <ele>834.50</ele>
        <time>2012-05-05T11:11:24Z</time>
      </trkpt>
      <trkpt lat="42.593573000" lon="-2.606381000">
        <ele>836.00</ele>
        <time>2012-05-05T11:11:31Z</time>
      </trkpt>
      <trkpt lat="42.593620000" lon="-2.606483000">
        <ele>837.20</ele>
        <time>2012-05-05T11:11:38Z</time>
      </trkpt>
      <trkpt lat="42.593631000" lon="-2.606528000">
        <ele>837.50</ele>
        <time>2012-05-05T11:11:42Z</time>
      </trkpt>
      <trkpt lat="42.593648000" lon="-2.606571000">
        <ele>837.90</ele>
        <time>2012-05-05T11:11:45Z</time>
      </trkpt>
      <trkpt lat="42.593651000" lon="-2.606586000">
        <ele>838.00</ele>
        <time>2012-05-05T11:11:45Z</time>
      </trkpt>
      <trkpt lat="42.593658000" lon="-2.606601000">
        <ele>838.20</ele>
        <time>2012-05-05T11:11:47Z</time>
      </trkpt>
      <trkpt lat="42.593683000" lon="-2.606638000">
        <ele>838.70</ele>
        <time>2012-05-05T11:11:50Z</time>
      </trkpt>
      <trkpt lat="42.593690000" lon="-2.606651000">
        <ele>838.90</ele>
        <time>2012-05-05T11:11:50Z</time>
      </trkpt>
      <trkpt lat="42.593715000" lon="-2.606724000">
        <ele>839.60</ele>
        <time>2012-05-05T11:11:55Z</time>
      </trkpt>
      <trkpt lat="42.593718000" lon="-2.606741000">
        <ele>839.70</ele>
        <time>2012-05-05T11:11:57Z</time>
      </trkpt>
      <trkpt lat="42.593796000" lon="-2.606989000">
        <ele>841.70</ele>
        <time>2012-05-05T11:12:13Z</time>
      </trkpt>
      <trkpt lat="42.593801000" lon="-2.607021000">
        <ele>841.90</ele>
        <time>2012-05-05T11:12:16Z</time>
      </trkpt>
      <trkpt lat="42.593821000" lon="-2.607078000">
        <ele>842.30</ele>
        <time>2012-05-05T11:12:20Z</time>
      </trkpt>
      <trkpt lat="42.593850000" lon="-2.607184000">
        <ele>843.10</ele>
        <time>2012-05-05T11:12:27Z</time>
      </trkpt>
      <trkpt lat="42.593855000" lon="-2.607233000">
        <ele>843.40</ele>
        <time>2012-05-05T11:12:30Z</time>
      </trkpt>
      <trkpt lat="42.593900000" lon="-2.607384000">
        <ele>844.60</ele>
        <time>2012-05-05T11:12:39Z</time>
      </trkpt>
      <trkpt lat="42.593946000" lon="-2.607496000">
        <ele>845.80</ele>
        <time>2012-05-05T11:12:48Z</time>
      </trkpt>
      <trkpt lat="42.593955000" lon="-2.607509000">
        <ele>845.90</ele>
        <time>2012-05-05T11:12:48Z</time>
      </trkpt>
      <trkpt lat="42.594006000" lon="-2.607624000">
        <ele>847.20</ele>
        <time>2012-05-05T11:12:56Z</time>
      </trkpt>
      <trkpt lat="42.594015000" lon="-2.607636000">
        <ele>847.40</ele>
        <time>2012-05-05T11:12:58Z</time>
      </trkpt>
      <trkpt lat="42.594021000" lon="-2.607651000">
        <ele>847.50</ele>
        <time>2012-05-05T11:12:58Z</time>
      </trkpt>
      <trkpt lat="42.594030000" lon="-2.607664000">
        <ele>847.70</ele>
        <time>2012-05-05T11:13:00Z</time>
      </trkpt>
      <trkpt lat="42.594400000" lon="-2.608411000">
        <ele>855.60</ele>
        <time>2012-05-05T11:13:40Z</time>
      </trkpt>
      <trkpt lat="42.594406000" lon="-2.608431000">
        <ele>855.70</ele>
        <time>2012-05-05T11:13:40Z</time>
      </trkpt>
      <trkpt lat="42.594466000" lon="-2.608668000">
        <ele>857.00</ele>
        <time>2012-05-05T11:13:52Z</time>
      </trkpt>
      <trkpt lat="42.594473000" lon="-2.608793000">
        <ele>857.10</ele>
        <time>2012-05-05T11:13:57Z</time>
      </trkpt>
      <trkpt lat="42.594466000" lon="-2.608846000">
        <ele>856.80</ele>
        <time>2012-05-05T11:14:01Z</time>
      </trkpt>
      <trkpt lat="42.594456000" lon="-2.608878000">
        <ele>856.50</ele>
        <time>2012-05-05T11:14:03Z</time>
      </trkpt>
      <trkpt lat="42.594450000" lon="-2.608891000">
        <ele>856.30</ele>
        <time>2012-05-05T11:14:04Z</time>
      </trkpt>
      <trkpt lat="42.594446000" lon="-2.608904000">
        <ele>856.20</ele>
        <time>2012-05-05T11:14:04Z</time>
      </trkpt>
      <trkpt lat="42.594415000" lon="-2.608959000">
        <ele>855.40</ele>
        <time>2012-05-05T11:14:08Z</time>
      </trkpt>
      <trkpt lat="42.594406000" lon="-2.608969000">
        <ele>855.20</ele>
        <time>2012-05-05T11:14:10Z</time>
      </trkpt>
      <trkpt lat="42.594401000" lon="-2.608973000">
        <ele>855.10</ele>
        <time>2012-05-05T11:14:11Z</time>
      </trkpt>
      <trkpt lat="42.594400000" lon="-2.608971000">
        <ele>855.00</ele>
        <time>2012-05-05T11:14:11Z</time>
      </trkpt>
      <trkpt lat="42.594398000" lon="-2.608971000">
        <ele>854.90</ele>
        <time>2012-05-05T11:14:13Z</time>
      </trkpt>
      <trkpt lat="42.594396000" lon="-2.608966000">
        <ele>854.90</ele>
        <time>2012-05-05T11:14:15Z</time>
      </trkpt>
      <trkpt lat="42.594396000" lon="-2.608964000">
        <ele>854.80</ele>
        <time>2012-05-05T11:14:15Z</time>
      </trkpt>
      <trkpt lat="42.594395000" lon="-2.608976000">
        <ele>854.80</ele>
        <time>2012-05-05T11:14:55Z</time>
      </trkpt>
      <trkpt lat="42.594395000" lon="-2.608976000">
        <ele>854.80</ele>
        <time>2012-05-05T11:14:55Z</time>
      </trkpt>
      <trkpt lat="42.594395000" lon="-2.608978000">
        <ele>854.70</ele>
        <time>2012-05-05T11:14:57Z</time>
      </trkpt>
      <trkpt lat="42.594390000" lon="-2.608979000">
        <ele>854.70</ele>
        <time>2012-05-05T11:15:04Z</time>
      </trkpt>
      <trkpt lat="42.594390000" lon="-2.608981000">
        <ele>854.60</ele>
        <time>2012-05-05T11:15:05Z</time>
      </trkpt>
      <trkpt lat="42.594386000" lon="-2.608979000">
        <ele>854.60</ele>
        <time>2012-05-05T11:15:07Z</time>
      </trkpt>
      <trkpt lat="42.594386000" lon="-2.608981000">
        <ele>854.60</ele>
        <time>2012-05-05T11:15:07Z</time>
      </trkpt>
      <trkpt lat="42.594385000" lon="-2.608981000">
        <ele>854.60</ele>
        <time>2012-05-05T11:15:09Z</time>
      </trkpt>
      <trkpt lat="42.594383000" lon="-2.608983000">
        <ele>854.50</ele>
        <time>2012-05-05T11:15:12Z</time>
      </trkpt>
      <trkpt lat="42.594381000" lon="-2.608986000">
        <ele>854.50</ele>
        <time>2012-05-05T11:15:18Z</time>
      </trkpt>
      <trkpt lat="42.594381000" lon="-2.608988000">
        <ele>854.50</ele>
        <time>2012-05-05T11:15:23Z</time>
      </trkpt>
      <trkpt lat="42.594381000" lon="-2.608989000">
        <ele>854.40</ele>
        <time>2012-05-05T11:15:24Z</time>
      </trkpt>
      <trkpt lat="42.594383000" lon="-2.608989000">
        <ele>854.50</ele>
        <time>2012-05-05T11:15:28Z</time>
      </trkpt>
      <trkpt lat="42.594381000" lon="-2.608988000">
        <ele>854.50</ele>
        <time>2012-05-05T11:15:30Z</time>
      </trkpt>
      <trkpt lat="42.594380000" lon="-2.608988000">
        <ele>854.40</ele>
        <time>2012-05-05T11:15:31Z</time>
      </trkpt>
      <trkpt lat="42.594381000" lon="-2.608988000">
        <ele>854.40</ele>
        <time>2012-05-05T11:15:37Z</time>
      </trkpt>
      <trkpt lat="42.594381000" lon="-2.608986000">
        <ele>854.50</ele>
        <time>2012-05-05T11:15:40Z</time>
      </trkpt>
      <trkpt lat="42.594381000" lon="-2.608974000">
        <ele>854.50</ele>
        <time>2012-05-05T11:16:01Z</time>
      </trkpt>
      <trkpt lat="42.594383000" lon="-2.608973000">
        <ele>854.50</ele>
        <time>2012-05-05T11:16:01Z</time>
      </trkpt>
      <trkpt lat="42.594383000" lon="-2.608971000">
        <ele>854.50</ele>
        <time>2012-05-05T11:16:03Z</time>
      </trkpt>
      <trkpt lat="42.594383000" lon="-2.608969000">
        <ele>854.60</ele>
        <time>2012-05-05T11:16:03Z</time>
      </trkpt>
      <trkpt lat="42.594385000" lon="-2.608964000">
        <ele>854.60</ele>
        <time>2012-05-05T11:16:10Z</time>
      </trkpt>
      <trkpt lat="42.594386000" lon="-2.608964000">
        <ele>854.60</ele>
        <time>2012-05-05T11:16:12Z</time>
      </trkpt>
      <trkpt lat="42.594386000" lon="-2.608963000">
        <ele>854.70</ele>
        <time>2012-05-05T11:16:13Z</time>
      </trkpt>
      <trkpt lat="42.594388000" lon="-2.608963000">
        <ele>854.70</ele>
        <time>2012-05-05T11:16:22Z</time>
      </trkpt>
      <trkpt lat="42.594386000" lon="-2.608961000">
        <ele>854.70</ele>
        <time>2012-05-05T11:16:24Z</time>
      </trkpt>
      <trkpt lat="42.594391000" lon="-2.608961000">
        <ele>854.70</ele>
        <time>2012-05-05T11:16:31Z</time>
      </trkpt>
      <trkpt lat="42.594393000" lon="-2.608961000">
        <ele>854.80</ele>
        <time>2012-05-05T11:16:32Z</time>
      </trkpt>
      <trkpt lat="42.594393000" lon="-2.608953000">
        <ele>854.80</ele>
        <time>2012-05-05T11:16:48Z</time>
      </trkpt>
      <trkpt lat="42.594391000" lon="-2.608951000">
        <ele>854.80</ele>
        <time>2012-05-05T11:16:52Z</time>
      </trkpt>
      <trkpt lat="42.594393000" lon="-2.608951000">
        <ele>854.80</ele>
        <time>2012-05-05T11:16:55Z</time>
      </trkpt>
      <trkpt lat="42.594391000" lon="-2.608951000">
        <ele>854.80</ele>
        <time>2012-05-05T11:16:57Z</time>
      </trkpt>
      <trkpt lat="42.594390000" lon="-2.608948000">
        <ele>854.80</ele>
        <time>2012-05-05T11:17:02Z</time>
      </trkpt>
      <trkpt lat="42.594393000" lon="-2.608948000">
        <ele>854.80</ele>
        <time>2012-05-05T11:17:14Z</time>
      </trkpt>
      <trkpt lat="42.594393000" lon="-2.608946000">
        <ele>854.90</ele>
        <time>2012-05-05T11:17:14Z</time>
      </trkpt>
      <trkpt lat="42.594396000" lon="-2.608946000">
        <ele>854.90</ele>
        <time>2012-05-05T11:17:18Z</time>
      </trkpt>
      <trkpt lat="42.594395000" lon="-2.608944000">
        <ele>854.90</ele>
        <time>2012-05-05T11:17:19Z</time>
      </trkpt>
      <trkpt lat="42.594393000" lon="-2.608948000">
        <ele>854.90</ele>
        <time>2012-05-05T11:17:23Z</time>
      </trkpt>
      <trkpt lat="42.594391000" lon="-2.608946000">
        <ele>854.90</ele>
        <time>2012-05-05T11:17:25Z</time>
      </trkpt>
      <trkpt lat="42.594390000" lon="-2.608946000">
        <ele>854.80</ele>
        <time>2012-05-05T11:17:26Z</time>
      </trkpt>
      <trkpt lat="42.594385000" lon="-2.608944000">
        <ele>854.80</ele>
        <time>2012-05-05T11:17:33Z</time>
      </trkpt>
      <trkpt lat="42.594385000" lon="-2.608946000">
        <ele>854.80</ele>
        <time>2012-05-05T11:17:35Z</time>
      </trkpt>
      <trkpt lat="42.594385000" lon="-2.608946000">
        <ele>854.80</ele>
        <time>2012-05-05T11:17:37Z</time>
      </trkpt>
      <trkpt lat="42.594385000" lon="-2.608951000">
        <ele>854.70</ele>
        <time>2012-05-05T11:17:51Z</time>
      </trkpt>
      <trkpt lat="42.594390000" lon="-2.608963000">
        <ele>854.70</ele>
        <time>2012-05-05T11:18:38Z</time>
      </trkpt>
      <trkpt lat="42.594388000" lon="-2.608963000">
        <ele>854.70</ele>
        <time>2012-05-05T11:18:40Z</time>
      </trkpt>
      <trkpt lat="42.594388000" lon="-2.608959000">
        <ele>854.70</ele>
        <time>2012-05-05T11:18:57Z</time>
      </trkpt>
      <trkpt lat="42.594385000" lon="-2.608959000">
        <ele>854.70</ele>
        <time>2012-05-05T11:19:06Z</time>
      </trkpt>
      <trkpt lat="42.594383000" lon="-2.608961000">
        <ele>854.70</ele>
        <time>2012-05-05T11:19:18Z</time>
      </trkpt>
      <trkpt lat="42.594383000" lon="-2.608961000">
        <ele>854.70</ele>
        <time>2012-05-05T11:19:18Z</time>
      </trkpt>
      <trkpt lat="42.594385000" lon="-2.608961000">
        <ele>854.60</ele>
        <time>2012-05-05T11:19:23Z</time>
      </trkpt>
      <trkpt lat="42.594385000" lon="-2.608961000">
        <ele>854.60</ele>
        <time>2012-05-05T11:19:25Z</time>
      </trkpt>
      <trkpt lat="42.594385000" lon="-2.608963000">
        <ele>854.70</ele>
        <time>2012-05-05T11:19:37Z</time>
      </trkpt>
      <trkpt lat="42.594388000" lon="-2.608964000">
        <ele>854.70</ele>
        <time>2012-05-05T11:20:00Z</time>
      </trkpt>
      <trkpt lat="42.594388000" lon="-2.608966000">
        <ele>854.70</ele>
        <time>2012-05-05T11:20:05Z</time>
      </trkpt>
      <trkpt lat="42.594386000" lon="-2.608966000">
        <ele>854.70</ele>
        <time>2012-05-05T11:20:14Z</time>
      </trkpt>
      <trkpt lat="42.594388000" lon="-2.608964000">
        <ele>854.70</ele>
        <time>2012-05-05T11:20:15Z</time>
      </trkpt>
      <trkpt lat="42.594386000" lon="-2.608964000">
        <ele>854.70</ele>
        <time>2012-05-05T11:20:24Z</time>
      </trkpt>
      <trkpt lat="42.594385000" lon="-2.608961000">
        <ele>854.70</ele>
        <time>2012-05-05T11:20:50Z</time>
      </trkpt>
      <trkpt lat="42.594385000" lon="-2.608964000">
        <ele>854.70</ele>
        <time>2012-05-05T11:20:54Z</time>
      </trkpt>
      <trkpt lat="42.594385000" lon="-2.608964000">
        <ele>854.70</ele>
        <time>2012-05-05T11:20:54Z</time>
      </trkpt>
      <trkpt lat="42.594383000" lon="-2.608966000">
        <ele>854.60</ele>
        <time>2012-05-05T11:20:57Z</time>
      </trkpt>
      <trkpt lat="42.594383000" lon="-2.608976000">
        <ele>854.60</ele>
        <time>2012-05-05T11:20:59Z</time>
      </trkpt>
      <trkpt lat="42.594381000" lon="-2.608978000">
        <ele>854.50</ele>
        <time>2012-05-05T11:20:59Z</time>
      </trkpt>
      <trkpt lat="42.594381000" lon="-2.608979000">
        <ele>854.50</ele>
        <time>2012-05-05T11:21:04Z</time>
      </trkpt>
      <trkpt lat="42.594381000" lon="-2.608973000">
        <ele>854.50</ele>
        <time>2012-05-05T11:21:16Z</time>
      </trkpt>
      <trkpt lat="42.594378000" lon="-2.608978000">
        <ele>854.50</ele>
        <time>2012-05-05T11:21:25Z</time>
      </trkpt>
      <trkpt lat="42.594361000" lon="-2.608984000">
        <ele>854.30</ele>
        <time>2012-05-05T11:21:27Z</time>
      </trkpt>
      <trkpt lat="42.594211000" lon="-2.609006000">
        <ele>852.20</ele>
        <time>2012-05-05T11:21:34Z</time>
      </trkpt>
      <trkpt lat="42.594173000" lon="-2.609023000">
        <ele>851.60</ele>
        <time>2012-05-05T11:21:34Z</time>
      </trkpt>
      <trkpt lat="42.594111000" lon="-2.609071000">
        <ele>850.30</ele>
        <time>2012-05-05T11:21:37Z</time>
      </trkpt>
      <trkpt lat="42.593988000" lon="-2.609136000">
        <ele>847.40</ele>
        <time>2012-05-05T11:21:41Z</time>
      </trkpt>
      <trkpt lat="42.593891000" lon="-2.609241000">
        <ele>844.80</ele>
        <time>2012-05-05T11:21:48Z</time>
      </trkpt>
      <trkpt lat="42.593880000" lon="-2.609259000">
        <ele>844.60</ele>
        <time>2012-05-05T11:21:49Z</time>
      </trkpt>
      <trkpt lat="42.593843000" lon="-2.609344000">
        <ele>843.00</ele>
        <time>2012-05-05T11:21:53Z</time>
      </trkpt>
      <trkpt lat="42.593830000" lon="-2.609426000">
        <ele>842.10</ele>
        <time>2012-05-05T11:21:56Z</time>
      </trkpt>
      <trkpt lat="42.593823000" lon="-2.609653000">
        <ele>839.70</ele>
        <time>2012-05-05T11:22:02Z</time>
      </trkpt>
      <trkpt lat="42.594040000" lon="-2.611264000">
        <ele>809.30</ele>
        <time>2012-05-05T11:22:40Z</time>
      </trkpt>
      <trkpt lat="42.594118000" lon="-2.611994000">
        <ele>795.80</ele>
        <time>2012-05-05T11:22:54Z</time>
      </trkpt>
      <trkpt lat="42.594128000" lon="-2.612043000">
        <ele>795.20</ele>
        <time>2012-05-05T11:22:56Z</time>
      </trkpt>
      <trkpt lat="42.594448000" lon="-2.613446000">
        <ele>790.70</ele>
        <time>2012-05-05T11:23:44Z</time>
      </trkpt>
      <trkpt lat="42.594476000" lon="-2.613568000">
        <ele>791.30</ele>
        <time>2012-05-05T11:23:51Z</time>
      </trkpt>
      <trkpt lat="42.594478000" lon="-2.613586000">
        <ele>791.40</ele>
        <time>2012-05-05T11:23:53Z</time>
      </trkpt>
      <trkpt lat="42.594488000" lon="-2.613619000">
        <ele>791.50</ele>
        <time>2012-05-05T11:23:55Z</time>
      </trkpt>
      <trkpt lat="42.594495000" lon="-2.613656000">
        <ele>791.70</ele>
        <time>2012-05-05T11:23:57Z</time>
      </trkpt>
      <trkpt lat="42.594500000" lon="-2.613673000">
        <ele>791.70</ele>
        <time>2012-05-05T11:23:58Z</time>
      </trkpt>
      <trkpt lat="42.594576000" lon="-2.613979000">
        <ele>793.10</ele>
        <time>2012-05-05T11:24:14Z</time>
      </trkpt>
      <trkpt lat="42.594836000" lon="-2.615474000">
        <ele>798.40</ele>
        <time>2012-05-05T11:25:15Z</time>
      </trkpt>
      <trkpt lat="42.594838000" lon="-2.615498000">
        <ele>798.40</ele>
        <time>2012-05-05T11:25:15Z</time>
      </trkpt>
      <trkpt lat="42.594865000" lon="-2.615613000">
        <ele>798.10</ele>
        <time>2012-05-05T11:25:20Z</time>
      </trkpt>
      <trkpt lat="42.594868000" lon="-2.615654000">
        <ele>797.90</ele>
        <time>2012-05-05T11:25:22Z</time>
      </trkpt>
      <trkpt lat="42.594890000" lon="-2.615779000">
        <ele>797.40</ele>
        <time>2012-05-05T11:25:29Z</time>
      </trkpt>
      <trkpt lat="42.594893000" lon="-2.615908000">
        <ele>796.50</ele>
        <time>2012-05-05T11:25:36Z</time>
      </trkpt>
      <trkpt lat="42.594883000" lon="-2.615946000">
        <ele>796.20</ele>
        <time>2012-05-05T11:25:38Z</time>
      </trkpt>
      <trkpt lat="42.594873000" lon="-2.615966000">
        <ele>796.00</ele>
        <time>2012-05-05T11:25:39Z</time>
      </trkpt>
      <trkpt lat="42.594848000" lon="-2.615991000">
        <ele>795.50</ele>
        <time>2012-05-05T11:25:41Z</time>
      </trkpt>
      <trkpt lat="42.594505000" lon="-2.616226000">
        <ele>791.00</ele>
        <time>2012-05-05T11:25:53Z</time>
      </trkpt>
      <trkpt lat="42.594465000" lon="-2.616241000">
        <ele>790.10</ele>
        <time>2012-05-05T11:25:55Z</time>
      </trkpt>
      <trkpt lat="42.594380000" lon="-2.616296000">
        <ele>787.80</ele>
        <time>2012-05-05T11:25:57Z</time>
      </trkpt>
      <trkpt lat="42.594065000" lon="-2.616594000">
        <ele>776.80</ele>
        <time>2012-05-05T11:26:06Z</time>
      </trkpt>
      <trkpt lat="42.593813000" lon="-2.616894000">
        <ele>770.50</ele>
        <time>2012-05-05T11:26:12Z</time>
      </trkpt>
      <trkpt lat="42.593791000" lon="-2.616941000">
        <ele>769.80</ele>
        <time>2012-05-05T11:26:14Z</time>
      </trkpt>
      <trkpt lat="42.593773000" lon="-2.617031000">
        <ele>768.90</ele>
        <time>2012-05-05T11:26:16Z</time>
      </trkpt>
      <trkpt lat="42.593771000" lon="-2.617069000">
        <ele>768.70</ele>
        <time>2012-05-05T11:26:16Z</time>
      </trkpt>
      <trkpt lat="42.593733000" lon="-2.617336000">
        <ele>765.30</ele>
        <time>2012-05-05T11:26:23Z</time>
      </trkpt>
      <trkpt lat="42.593701000" lon="-2.617418000">
        <ele>764.00</ele>
        <time>2012-05-05T11:26:25Z</time>
      </trkpt>
      <trkpt lat="42.593678000" lon="-2.617458000">
        <ele>763.30</ele>
        <time>2012-05-05T11:26:26Z</time>
      </trkpt>
      <trkpt lat="42.593461000" lon="-2.617721000">
        <ele>759.40</ele>
        <time>2012-05-05T11:26:35Z</time>
      </trkpt>
      <trkpt lat="42.593435000" lon="-2.617741000">
        <ele>759.20</ele>
        <time>2012-05-05T11:26:35Z</time>
      </trkpt>
      <trkpt lat="42.593375000" lon="-2.617761000">
        <ele>758.80</ele>
        <time>2012-05-05T11:26:37Z</time>
      </trkpt>
      <trkpt lat="42.593205000" lon="-2.617776000">
        <ele>758.50</ele>
        <time>2012-05-05T11:26:42Z</time>
      </trkpt>
      <trkpt lat="42.592930000" lon="-2.617894000">
        <ele>758.70</ele>
        <time>2012-05-05T11:26:49Z</time>
      </trkpt>
      <trkpt lat="42.592680000" lon="-2.617931000">
        <ele>758.60</ele>
        <time>2012-05-05T11:26:54Z</time>
      </trkpt>
      <trkpt lat="42.592493000" lon="-2.617993000">
        <ele>757.70</ele>
        <time>2012-05-05T11:27:00Z</time>
      </trkpt>
      <trkpt lat="42.592423000" lon="-2.618001000">
        <ele>757.50</ele>
        <time>2012-05-05T11:27:03Z</time>
      </trkpt>
      <trkpt lat="42.592401000" lon="-2.617999000">
        <ele>757.40</ele>
        <time>2012-05-05T11:27:03Z</time>
      </trkpt>
      <trkpt lat="42.592278000" lon="-2.618009000">
        <ele>757.20</ele>
        <time>2012-05-05T11:27:10Z</time>
      </trkpt>
      <trkpt lat="42.592258000" lon="-2.618018000">
        <ele>757.10</ele>
        <time>2012-05-05T11:27:10Z</time>
      </trkpt>
      <trkpt lat="42.592218000" lon="-2.618054000">
        <ele>756.80</ele>
        <time>2012-05-05T11:27:13Z</time>
      </trkpt>
      <trkpt lat="42.592191000" lon="-2.618111000">
        <ele>756.10</ele>
        <time>2012-05-05T11:27:17Z</time>
      </trkpt>
      <trkpt lat="42.592188000" lon="-2.618124000">
        <ele>756.10</ele>
        <time>2012-05-05T11:27:19Z</time>
      </trkpt>
      <trkpt lat="42.592183000" lon="-2.618129000">
        <ele>755.90</ele>
        <time>2012-05-05T11:27:19Z</time>
      </trkpt>
      <trkpt lat="42.592176000" lon="-2.618144000">
        <ele>755.70</ele>
        <time>2012-05-05T11:27:22Z</time>
      </trkpt>
      <trkpt lat="42.592173000" lon="-2.618154000">
        <ele>755.50</ele>
        <time>2012-05-05T11:27:26Z</time>
      </trkpt>
      <trkpt lat="42.592173000" lon="-2.618158000">
        <ele>755.50</ele>
        <time>2012-05-05T11:27:26Z</time>
      </trkpt>
      <trkpt lat="42.592171000" lon="-2.618158000">
        <ele>755.40</ele>
        <time>2012-05-05T11:27:27Z</time>
      </trkpt>
      <trkpt lat="42.592170000" lon="-2.618163000">
        <ele>755.40</ele>
        <time>2012-05-05T11:27:31Z</time>
      </trkpt>
      <trkpt lat="42.592170000" lon="-2.618164000">
        <ele>755.40</ele>
        <time>2012-05-05T11:27:33Z</time>
      </trkpt>
      <trkpt lat="42.592168000" lon="-2.618166000">
        <ele>755.30</ele>
        <time>2012-05-05T11:27:34Z</time>
      </trkpt>
      <trkpt lat="42.592168000" lon="-2.618168000">
        <ele>755.30</ele>
        <time>2012-05-05T11:27:36Z</time>
      </trkpt>
      <trkpt lat="42.592170000" lon="-2.618169000">
        <ele>755.30</ele>
        <time>2012-05-05T11:27:38Z</time>
      </trkpt>
      <trkpt lat="42.592168000" lon="-2.618169000">
        <ele>755.30</ele>
        <time>2012-05-05T11:27:38Z</time>
      </trkpt>
      <trkpt lat="42.592168000" lon="-2.618173000">
        <ele>755.30</ele>
        <time>2012-05-05T11:27:45Z</time>
      </trkpt>
      <trkpt lat="42.592166000" lon="-2.618173000">
        <ele>755.20</ele>
        <time>2012-05-05T11:27:47Z</time>
      </trkpt>
      <trkpt lat="42.592168000" lon="-2.618173000">
        <ele>755.20</ele>
        <time>2012-05-05T11:27:48Z</time>
      </trkpt>
      <trkpt lat="42.592168000" lon="-2.618171000">
        <ele>755.30</ele>
        <time>2012-05-05T11:27:50Z</time>
      </trkpt>
      <trkpt lat="42.592170000" lon="-2.618171000">
        <ele>755.30</ele>
        <time>2012-05-05T11:27:52Z</time>
      </trkpt>
      <trkpt lat="42.592171000" lon="-2.618168000">
        <ele>755.30</ele>
        <time>2012-05-05T11:27:57Z</time>
      </trkpt>
      <trkpt lat="42.592173000" lon="-2.618168000">
        <ele>755.30</ele>
        <time>2012-05-05T11:27:59Z</time>
      </trkpt>
      <trkpt lat="42.592173000" lon="-2.618164000">
        <ele>755.30</ele>
        <time>2012-05-05T11:28:04Z</time>
      </trkpt>
      <trkpt lat="42.592175000" lon="-2.618163000">
        <ele>755.40</ele>
        <time>2012-05-05T11:28:07Z</time>
      </trkpt>
      <trkpt lat="42.592176000" lon="-2.618159000">
        <ele>755.40</ele>
        <time>2012-05-05T11:28:21Z</time>
      </trkpt>
      <trkpt lat="42.592175000" lon="-2.618156000">
        <ele>755.40</ele>
        <time>2012-05-05T11:28:35Z</time>
      </trkpt>
      <trkpt lat="42.592178000" lon="-2.618153000">
        <ele>755.50</ele>
        <time>2012-05-05T11:28:37Z</time>
      </trkpt>
      <trkpt lat="42.592178000" lon="-2.618149000">
        <ele>755.50</ele>
        <time>2012-05-05T11:28:44Z</time>
      </trkpt>
      <trkpt lat="42.592178000" lon="-2.618153000">
        <ele>755.50</ele>
        <time>2012-05-05T11:28:46Z</time>
      </trkpt>
      <trkpt lat="42.592176000" lon="-2.618154000">
        <ele>755.50</ele>
        <time>2012-05-05T11:28:47Z</time>
      </trkpt>
      <trkpt lat="42.592176000" lon="-2.618156000">
        <ele>755.50</ele>
        <time>2012-05-05T11:28:49Z</time>
      </trkpt>
      <trkpt lat="42.592176000" lon="-2.618154000">
        <ele>755.50</ele>
        <time>2012-05-05T11:28:49Z</time>
      </trkpt>
      <trkpt lat="42.592175000" lon="-2.618154000">
        <ele>755.40</ele>
        <time>2012-05-05T11:28:51Z</time>
      </trkpt>
      <trkpt lat="42.592175000" lon="-2.618154000">
        <ele>755.40</ele>
        <time>2012-05-05T11:28:53Z</time>
      </trkpt>
      <trkpt lat="42.592175000" lon="-2.618156000">
        <ele>755.40</ele>
        <time>2012-05-05T11:28:53Z</time>
      </trkpt>
      <trkpt lat="42.592175000" lon="-2.618158000">
        <ele>755.40</ele>
        <time>2012-05-05T11:28:56Z</time>
      </trkpt>
      <trkpt lat="42.592173000" lon="-2.618158000">
        <ele>755.40</ele>
        <time>2012-05-05T11:28:56Z</time>
      </trkpt>
      <trkpt lat="42.592175000" lon="-2.618156000">
        <ele>755.40</ele>
        <time>2012-05-05T11:28:58Z</time>
      </trkpt>
      <trkpt lat="42.592170000" lon="-2.618164000">
        <ele>755.40</ele>
        <time>2012-05-05T11:29:15Z</time>
      </trkpt>
      <trkpt lat="42.592168000" lon="-2.618164000">
        <ele>755.30</ele>
        <time>2012-05-05T11:29:17Z</time>
      </trkpt>
      <trkpt lat="42.592163000" lon="-2.618173000">
        <ele>755.30</ele>
        <time>2012-05-05T11:29:26Z</time>
      </trkpt>
      <trkpt lat="42.592161000" lon="-2.618176000">
        <ele>755.20</ele>
        <time>2012-05-05T11:29:29Z</time>
      </trkpt>
      <trkpt lat="42.592155000" lon="-2.618183000">
        <ele>755.20</ele>
        <time>2012-05-05T11:29:31Z</time>
      </trkpt>
      <trkpt lat="42.592151000" lon="-2.618189000">
        <ele>755.10</ele>
        <time>2012-05-05T11:29:33Z</time>
      </trkpt>
      <trkpt lat="42.592138000" lon="-2.618256000">
        <ele>754.60</ele>
        <time>2012-05-05T11:29:36Z</time>
      </trkpt>
      <trkpt lat="42.592025000" lon="-2.618566000">
        <ele>751.40</ele>
        <time>2012-05-05T11:29:45Z</time>
      </trkpt>
      <trkpt lat="42.591771000" lon="-2.618989000">
        <ele>746.40</ele>
        <time>2012-05-05T11:29:52Z</time>
      </trkpt>
      <trkpt lat="42.591533000" lon="-2.619224000">
        <ele>743.80</ele>
        <time>2012-05-05T11:29:59Z</time>
      </trkpt>
      <trkpt lat="42.591471000" lon="-2.619301000">
        <ele>743.40</ele>
        <time>2012-05-05T11:30:01Z</time>
      </trkpt>
      <trkpt lat="42.590451000" lon="-2.620421000">
        <ele>733.60</ele>
        <time>2012-05-05T11:30:25Z</time>
      </trkpt>
      <trkpt lat="42.590400000" lon="-2.620498000">
        <ele>733.20</ele>
        <time>2012-05-05T11:30:27Z</time>
      </trkpt>
      <trkpt lat="42.590113000" lon="-2.620803000">
        <ele>729.80</ele>
        <time>2012-05-05T11:30:32Z</time>
      </trkpt>
      <trkpt lat="42.590058000" lon="-2.620863000">
        <ele>729.40</ele>
        <time>2012-05-05T11:30:32Z</time>
      </trkpt>
      <trkpt lat="42.590020000" lon="-2.620939000">
        <ele>729.10</ele>
        <time>2012-05-05T11:30:34Z</time>
      </trkpt>
      <trkpt lat="42.590006000" lon="-2.621028000">
        <ele>729.00</ele>
        <time>2012-05-05T11:30:34Z</time>
      </trkpt>
      <trkpt lat="42.590013000" lon="-2.621111000">
        <ele>728.80</ele>
        <time>2012-05-05T11:30:35Z</time>
      </trkpt>
      <trkpt lat="42.590043000" lon="-2.621183000">
        <ele>728.60</ele>
        <time>2012-05-05T11:30:37Z</time>
      </trkpt>
      <trkpt lat="42.590091000" lon="-2.621238000">
        <ele>728.30</ele>
        <time>2012-05-05T11:30:37Z</time>
      </trkpt>
      <trkpt lat="42.590146000" lon="-2.621284000">
        <ele>727.70</ele>
        <time>2012-05-05T11:30:39Z</time>
      </trkpt>
      <trkpt lat="42.590281000" lon="-2.621351000">
        <ele>726.00</ele>
        <time>2012-05-05T11:30:41Z</time>
      </trkpt>
      <trkpt lat="42.590701000" lon="-2.621451000">
        <ele>721.50</ele>
        <time>2012-05-05T11:30:46Z</time>
      </trkpt>
      <trkpt lat="42.590781000" lon="-2.621453000">
        <ele>720.80</ele>
        <time>2012-05-05T11:30:46Z</time>
      </trkpt>
      <trkpt lat="42.590856000" lon="-2.621439000">
        <ele>720.40</ele>
        <time>2012-05-05T11:30:48Z</time>
      </trkpt>
      <trkpt lat="42.590923000" lon="-2.621411000">
        <ele>720.10</ele>
        <time>2012-05-05T11:30:48Z</time>
      </trkpt>
      <trkpt lat="42.591008000" lon="-2.621333000">
        <ele>720.10</ele>
        <time>2012-05-05T11:30:51Z</time>
      </trkpt>
      <trkpt lat="42.591030000" lon="-2.621298000">
        <ele>720.20</ele>
        <time>2012-05-05T11:30:51Z</time>
      </trkpt>
      <trkpt lat="42.591068000" lon="-2.621216000">
        <ele>720.80</ele>
        <time>2012-05-05T11:30:55Z</time>
      </trkpt>
      <trkpt lat="42.591075000" lon="-2.621211000">
        <ele>721.00</ele>
        <time>2012-05-05T11:30:58Z</time>
      </trkpt>
      <trkpt lat="42.591088000" lon="-2.621203000">
        <ele>721.10</ele>
        <time>2012-05-05T11:31:05Z</time>
      </trkpt>
      <trkpt lat="42.591093000" lon="-2.621199000">
        <ele>721.10</ele>
        <time>2012-05-05T11:31:07Z</time>
      </trkpt>
      <trkpt lat="42.591103000" lon="-2.621188000">
        <ele>721.20</ele>
        <time>2012-05-05T11:31:09Z</time>
      </trkpt>
      <trkpt lat="42.591105000" lon="-2.621188000">
        <ele>721.20</ele>
        <time>2012-05-05T11:31:10Z</time>
      </trkpt>
      <trkpt lat="42.591116000" lon="-2.621173000">
        <ele>721.40</ele>
        <time>2012-05-05T11:31:12Z</time>
      </trkpt>
      <trkpt lat="42.591121000" lon="-2.621169000">
        <ele>721.40</ele>
        <time>2012-05-05T11:31:14Z</time>
      </trkpt>
      <trkpt lat="42.591138000" lon="-2.621148000">
        <ele>721.60</ele>
        <time>2012-05-05T11:31:16Z</time>
      </trkpt>
      <trkpt lat="42.591168000" lon="-2.621116000">
        <ele>721.90</ele>
        <time>2012-05-05T11:31:19Z</time>
      </trkpt>
      <trkpt lat="42.591190000" lon="-2.621074000">
        <ele>722.30</ele>
        <time>2012-05-05T11:31:21Z</time>
      </trkpt>
      <trkpt lat="42.591203000" lon="-2.621058000">
        <ele>722.60</ele>
        <time>2012-05-05T11:31:21Z</time>
      </trkpt>
      <trkpt lat="42.591516000" lon="-2.620783000">
        <ele>726.20</ele>
        <time>2012-05-05T11:31:35Z</time>
      </trkpt>
      <trkpt lat="42.591570000" lon="-2.620764000">
        <ele>726.30</ele>
        <time>2012-05-05T11:31:35Z</time>
      </trkpt>
      <trkpt lat="42.591621000" lon="-2.620761000">
        <ele>726.30</ele>
        <time>2012-05-05T11:31:36Z</time>
      </trkpt>
      <trkpt lat="42.591673000" lon="-2.620791000">
        <ele>726.00</ele>
        <time>2012-05-05T11:31:38Z</time>
      </trkpt>
      <trkpt lat="42.591711000" lon="-2.620839000">
        <ele>725.50</ele>
        <time>2012-05-05T11:31:38Z</time>
      </trkpt>
      <trkpt lat="42.591741000" lon="-2.620899000">
        <ele>725.00</ele>
        <time>2012-05-05T11:31:40Z</time>
      </trkpt>
      <trkpt lat="42.591758000" lon="-2.620966000">
        <ele>724.30</ele>
        <time>2012-05-05T11:31:40Z</time>
      </trkpt>
      <trkpt lat="42.591763000" lon="-2.621114000">
        <ele>722.70</ele>
        <time>2012-05-05T11:31:43Z</time>
      </trkpt>
      <trkpt lat="42.591775000" lon="-2.621218000">
        <ele>721.60</ele>
        <time>2012-05-05T11:31:47Z</time>
      </trkpt>
      <trkpt lat="42.591766000" lon="-2.621406000">
        <ele>720.90</ele>
        <time>2012-05-05T11:31:52Z</time>
      </trkpt>
      <trkpt lat="42.591753000" lon="-2.621484000">
        <ele>720.90</ele>
        <time>2012-05-05T11:31:54Z</time>
      </trkpt>
      <trkpt lat="42.591748000" lon="-2.621581000">
        <ele>720.90</ele>
        <time>2012-05-05T11:31:59Z</time>
      </trkpt>
      <trkpt lat="42.591720000" lon="-2.621686000">
        <ele>720.80</ele>
        <time>2012-05-05T11:32:01Z</time>
      </trkpt>
      <trkpt lat="42.591426000" lon="-2.622321000">
        <ele>718.50</ele>
        <time>2012-05-05T11:32:13Z</time>
      </trkpt>
      <trkpt lat="42.591413000" lon="-2.622343000">
        <ele>718.50</ele>
        <time>2012-05-05T11:32:13Z</time>
      </trkpt>
      <trkpt lat="42.591398000" lon="-2.622358000">
        <ele>718.50</ele>
        <time>2012-05-05T11:32:15Z</time>
      </trkpt>
      <trkpt lat="42.591373000" lon="-2.622364000">
        <ele>718.30</ele>
        <time>2012-05-05T11:32:15Z</time>
      </trkpt>
      <trkpt lat="42.591141000" lon="-2.622319000">
        <ele>715.70</ele>
        <time>2012-05-05T11:32:20Z</time>
      </trkpt>
      <trkpt lat="42.591081000" lon="-2.622328000">
        <ele>715.10</ele>
        <time>2012-05-05T11:32:22Z</time>
      </trkpt>
      <trkpt lat="42.591016000" lon="-2.622356000">
        <ele>714.60</ele>
        <time>2012-05-05T11:32:22Z</time>
      </trkpt>
      <trkpt lat="42.590340000" lon="-2.623074000">
        <ele>707.00</ele>
        <time>2012-05-05T11:32:32Z</time>
      </trkpt>
      <trkpt lat="42.589530000" lon="-2.623986000">
        <ele>700.80</ele>
        <time>2012-05-05T11:32:48Z</time>
      </trkpt>
      <trkpt lat="42.589480000" lon="-2.624074000">
        <ele>700.80</ele>
        <time>2012-05-05T11:32:48Z</time>
      </trkpt>
      <trkpt lat="42.589383000" lon="-2.624338000">
        <ele>700.10</ele>
        <time>2012-05-05T11:32:53Z</time>
      </trkpt>
      <trkpt lat="42.589381000" lon="-2.624386000">
        <ele>699.90</ele>
        <time>2012-05-05T11:32:53Z</time>
      </trkpt>
      <trkpt lat="42.589386000" lon="-2.624436000">
        <ele>699.80</ele>
        <time>2012-05-05T11:32:55Z</time>
      </trkpt>
      <trkpt lat="42.589420000" lon="-2.624661000">
        <ele>700.30</ele>
        <time>2012-05-05T11:32:58Z</time>
      </trkpt>
      <trkpt lat="42.589418000" lon="-2.624728000">
        <ele>701.00</ele>
        <time>2012-05-05T11:33:00Z</time>
      </trkpt>
      <trkpt lat="42.589388000" lon="-2.624864000">
        <ele>702.30</ele>
        <time>2012-05-05T11:33:02Z</time>
      </trkpt>
      <trkpt lat="42.589316000" lon="-2.625046000">
        <ele>703.60</ele>
        <time>2012-05-05T11:33:05Z</time>
      </trkpt>
      <trkpt lat="42.589095000" lon="-2.625348000">
        <ele>702.30</ele>
        <time>2012-05-05T11:33:12Z</time>
      </trkpt>
      <trkpt lat="42.588805000" lon="-2.625956000">
        <ele>704.00</ele>
        <time>2012-05-05T11:33:23Z</time>
      </trkpt>
      <trkpt lat="42.588650000" lon="-2.626219000">
        <ele>705.60</ele>
        <time>2012-05-05T11:33:31Z</time>
      </trkpt>
      <trkpt lat="42.588630000" lon="-2.626293000">
        <ele>706.30</ele>
        <time>2012-05-05T11:33:33Z</time>
      </trkpt>
      <trkpt lat="42.588533000" lon="-2.626528000">
        <ele>707.90</ele>
        <time>2012-05-05T11:33:40Z</time>
      </trkpt>
      <trkpt lat="42.588483000" lon="-2.626609000">
        <ele>708.30</ele>
        <time>2012-05-05T11:33:42Z</time>
      </trkpt>
      <trkpt lat="42.588220000" lon="-2.626926000">
        <ele>707.80</ele>
        <time>2012-05-05T11:33:51Z</time>
      </trkpt>
      <trkpt lat="42.588195000" lon="-2.626966000">
        <ele>707.80</ele>
        <time>2012-05-05T11:33:52Z</time>
      </trkpt>
      <trkpt lat="42.587965000" lon="-2.627486000">
        <ele>711.60</ele>
        <time>2012-05-05T11:34:01Z</time>
      </trkpt>
      <trkpt lat="42.587801000" lon="-2.627729000">
        <ele>713.80</ele>
        <time>2012-05-05T11:34:06Z</time>
      </trkpt>
      <trkpt lat="42.587753000" lon="-2.627776000">
        <ele>713.90</ele>
        <time>2012-05-05T11:34:08Z</time>
      </trkpt>
      <trkpt lat="42.587730000" lon="-2.627793000">
        <ele>713.90</ele>
        <time>2012-05-05T11:34:10Z</time>
      </trkpt>
      <trkpt lat="42.587706000" lon="-2.627801000">
        <ele>713.70</ele>
        <time>2012-05-05T11:34:10Z</time>
      </trkpt>
      <trkpt lat="42.587683000" lon="-2.627803000">
        <ele>713.40</ele>
        <time>2012-05-05T11:34:12Z</time>
      </trkpt>
      <trkpt lat="42.587216000" lon="-2.627594000">
        <ele>701.60</ele>
        <time>2012-05-05T11:34:24Z</time>
      </trkpt>
      <trkpt lat="42.587191000" lon="-2.627569000">
        <ele>700.80</ele>
        <time>2012-05-05T11:34:25Z</time>
      </trkpt>
      <trkpt lat="42.587053000" lon="-2.627364000">
        <ele>696.10</ele>
        <time>2012-05-05T11:34:31Z</time>
      </trkpt>
      <trkpt lat="42.587041000" lon="-2.627319000">
        <ele>695.20</ele>
        <time>2012-05-05T11:34:31Z</time>
      </trkpt>
      <trkpt lat="42.587036000" lon="-2.627271000">
        <ele>694.50</ele>
        <time>2012-05-05T11:34:32Z</time>
      </trkpt>
      <trkpt lat="42.587010000" lon="-2.627138000">
        <ele>692.40</ele>
        <time>2012-05-05T11:34:36Z</time>
      </trkpt>
      <trkpt lat="42.586993000" lon="-2.627101000">
        <ele>691.70</ele>
        <time>2012-05-05T11:34:36Z</time>
      </trkpt>
      <trkpt lat="42.586918000" lon="-2.627028000">
        <ele>689.50</ele>
        <time>2012-05-05T11:34:41Z</time>
      </trkpt>
      <trkpt lat="42.586918000" lon="-2.627023000">
        <ele>689.10</ele>
        <time>2012-05-05T11:34:43Z</time>
      </trkpt>
      <trkpt lat="42.586915000" lon="-2.627019000">
        <ele>689.00</ele>
        <time>2012-05-05T11:34:43Z</time>
      </trkpt>
      <trkpt lat="42.586913000" lon="-2.627011000">
        <ele>688.80</ele>
        <time>2012-05-05T11:34:46Z</time>
      </trkpt>
      <trkpt lat="42.586913000" lon="-2.627009000">
        <ele>688.80</ele>
        <time>2012-05-05T11:34:50Z</time>
      </trkpt>
      <trkpt lat="42.586913000" lon="-2.627008000">
        <ele>688.70</ele>
        <time>2012-05-05T11:34:50Z</time>
      </trkpt>
      <trkpt lat="42.586913000" lon="-2.627006000">
        <ele>688.70</ele>
        <time>2012-05-05T11:34:52Z</time>
      </trkpt>
      <trkpt lat="42.586915000" lon="-2.627003000">
        <ele>688.70</ele>
        <time>2012-05-05T11:34:53Z</time>
      </trkpt>
      <trkpt lat="42.586913000" lon="-2.627001000">
        <ele>688.70</ele>
        <time>2012-05-05T11:34:55Z</time>
      </trkpt>
      <trkpt lat="42.586913000" lon="-2.626999000">
        <ele>688.70</ele>
        <time>2012-05-05T11:34:57Z</time>
      </trkpt>
      <trkpt lat="42.586913000" lon="-2.626994000">
        <ele>688.60</ele>
        <time>2012-05-05T11:34:59Z</time>
      </trkpt>
      <trkpt lat="42.586913000" lon="-2.626993000">
        <ele>688.60</ele>
        <time>2012-05-05T11:35:00Z</time>
      </trkpt>
      <trkpt lat="42.586911000" lon="-2.626991000">
        <ele>688.60</ele>
        <time>2012-05-05T11:35:00Z</time>
      </trkpt>
      <trkpt lat="42.586911000" lon="-2.626989000">
        <ele>688.60</ele>
        <time>2012-05-05T11:35:02Z</time>
      </trkpt>
      <trkpt lat="42.586910000" lon="-2.626986000">
        <ele>688.50</ele>
        <time>2012-05-05T11:35:04Z</time>
      </trkpt>
      <trkpt lat="42.586910000" lon="-2.626976000">
        <ele>688.50</ele>
        <time>2012-05-05T11:35:07Z</time>
      </trkpt>
      <trkpt lat="42.586911000" lon="-2.626969000">
        <ele>688.40</ele>
        <time>2012-05-05T11:35:07Z</time>
      </trkpt>
      <trkpt lat="42.586915000" lon="-2.626968000">
        <ele>688.40</ele>
        <time>2012-05-05T11:35:09Z</time>
      </trkpt>
      <trkpt lat="42.586916000" lon="-2.626969000">
        <ele>688.50</ele>
        <time>2012-05-05T11:35:09Z</time>
      </trkpt>
      <trkpt lat="42.586916000" lon="-2.626968000">
        <ele>688.50</ele>
        <time>2012-05-05T11:35:11Z</time>
      </trkpt>
      <trkpt lat="42.586915000" lon="-2.626968000">
        <ele>688.40</ele>
        <time>2012-05-05T11:35:12Z</time>
      </trkpt>
      <trkpt lat="42.586913000" lon="-2.626966000">
        <ele>688.40</ele>
        <time>2012-05-05T11:35:14Z</time>
      </trkpt>
      <trkpt lat="42.586913000" lon="-2.626963000">
        <ele>688.40</ele>
        <time>2012-05-05T11:35:16Z</time>
      </trkpt>
      <trkpt lat="42.586911000" lon="-2.626961000">
        <ele>688.40</ele>
        <time>2012-05-05T11:35:18Z</time>
      </trkpt>
      <trkpt lat="42.586911000" lon="-2.626959000">
        <ele>688.30</ele>
        <time>2012-05-05T11:35:19Z</time>
      </trkpt>
      <trkpt lat="42.586911000" lon="-2.626949000">
        <ele>688.30</ele>
        <time>2012-05-05T11:35:40Z</time>
      </trkpt>
      <trkpt lat="42.586911000" lon="-2.626949000">
        <ele>688.30</ele>
        <time>2012-05-05T11:35:40Z</time>
      </trkpt>
      <trkpt lat="42.586910000" lon="-2.626946000">
        <ele>688.20</ele>
        <time>2012-05-05T11:35:44Z</time>
      </trkpt>
      <trkpt lat="42.586908000" lon="-2.626946000">
        <ele>688.20</ele>
        <time>2012-05-05T11:35:46Z</time>
      </trkpt>
      <trkpt lat="42.586911000" lon="-2.626946000">
        <ele>688.20</ele>
        <time>2012-05-05T11:35:51Z</time>
      </trkpt>
      <trkpt lat="42.586911000" lon="-2.626948000">
        <ele>688.20</ele>
        <time>2012-05-05T11:35:51Z</time>
      </trkpt>
      <trkpt lat="42.586913000" lon="-2.626948000">
        <ele>688.20</ele>
        <time>2012-05-05T11:35:53Z</time>
      </trkpt>
      <trkpt lat="42.586915000" lon="-2.626948000">
        <ele>688.30</ele>
        <time>2012-05-05T11:35:54Z</time>
      </trkpt>
      <trkpt lat="42.586918000" lon="-2.626948000">
        <ele>688.30</ele>
        <time>2012-05-05T11:36:01Z</time>
      </trkpt>
      <trkpt lat="42.586918000" lon="-2.626944000">
        <ele>688.30</ele>
        <time>2012-05-05T11:36:05Z</time>
      </trkpt>
      <trkpt lat="42.586920000" lon="-2.626944000">
        <ele>688.30</ele>
        <time>2012-05-05T11:36:05Z</time>
      </trkpt>
      <trkpt lat="42.586921000" lon="-2.626941000">
        <ele>688.30</ele>
        <time>2012-05-05T11:36:10Z</time>
      </trkpt>
      <trkpt lat="42.586923000" lon="-2.626941000">
        <ele>688.40</ele>
        <time>2012-05-05T11:36:10Z</time>
      </trkpt>
      <trkpt lat="42.586925000" lon="-2.626941000">
        <ele>688.40</ele>
        <time>2012-05-05T11:36:12Z</time>
      </trkpt>
      <trkpt lat="42.586925000" lon="-2.626939000">
        <ele>688.40</ele>
        <time>2012-05-05T11:36:12Z</time>
      </trkpt>
      <trkpt lat="42.586930000" lon="-2.626938000">
        <ele>688.40</ele>
        <time>2012-05-05T11:36:17Z</time>
      </trkpt>
      <trkpt lat="42.586931000" lon="-2.626936000">
        <ele>688.40</ele>
        <time>2012-05-05T11:36:17Z</time>
      </trkpt>
      <trkpt lat="42.586933000" lon="-2.626936000">
        <ele>688.50</ele>
        <time>2012-05-05T11:36:19Z</time>
      </trkpt>
      <trkpt lat="42.586940000" lon="-2.626931000">
        <ele>688.50</ele>
        <time>2012-05-05T11:36:26Z</time>
      </trkpt>
      <trkpt lat="42.586940000" lon="-2.626931000">
        <ele>688.50</ele>
        <time>2012-05-05T11:36:26Z</time>
      </trkpt>
      <trkpt lat="42.586941000" lon="-2.626931000">
        <ele>688.60</ele>
        <time>2012-05-05T11:36:27Z</time>
      </trkpt>
      <trkpt lat="42.586941000" lon="-2.626929000">
        <ele>688.60</ele>
        <time>2012-05-05T11:36:29Z</time>
      </trkpt>
      <trkpt lat="42.586943000" lon="-2.626929000">
        <ele>688.60</ele>
        <time>2012-05-05T11:36:31Z</time>
      </trkpt>
      <trkpt lat="42.586943000" lon="-2.626926000">
        <ele>688.60</ele>
        <time>2012-05-05T11:36:34Z</time>
      </trkpt>
      <trkpt lat="42.586945000" lon="-2.626926000">
        <ele>688.60</ele>
        <time>2012-05-05T11:36:36Z</time>
      </trkpt>
      <trkpt lat="42.586945000" lon="-2.626919000">
        <ele>688.60</ele>
        <time>2012-05-05T11:36:43Z</time>
      </trkpt>
      <trkpt lat="42.586945000" lon="-2.626918000">
        <ele>688.50</ele>
        <time>2012-05-05T11:36:45Z</time>
      </trkpt>
      <trkpt lat="42.586946000" lon="-2.626913000">
        <ele>688.50</ele>
        <time>2012-05-05T11:36:50Z</time>
      </trkpt>
      <trkpt lat="42.586945000" lon="-2.626918000">
        <ele>688.50</ele>
        <time>2012-05-05T11:36:57Z</time>
      </trkpt>
      <trkpt lat="42.586943000" lon="-2.626918000">
        <ele>688.50</ele>
        <time>2012-05-05T11:36:59Z</time>
      </trkpt>
      <trkpt lat="42.586941000" lon="-2.626923000">
        <ele>688.50</ele>
        <time>2012-05-05T11:37:04Z</time>
      </trkpt>
      <trkpt lat="42.586938000" lon="-2.626924000">
        <ele>688.50</ele>
        <time>2012-05-05T11:37:06Z</time>
      </trkpt>
      <trkpt lat="42.586938000" lon="-2.626928000">
        <ele>688.50</ele>
        <time>2012-05-05T11:37:11Z</time>
      </trkpt>
      <trkpt lat="42.586933000" lon="-2.626931000">
        <ele>688.50</ele>
        <time>2012-05-05T11:37:18Z</time>
      </trkpt>
      <trkpt lat="42.586931000" lon="-2.626931000">
        <ele>688.40</ele>
        <time>2012-05-05T11:37:21Z</time>
      </trkpt>
      <trkpt lat="42.586931000" lon="-2.626928000">
        <ele>688.40</ele>
        <time>2012-05-05T11:37:39Z</time>
      </trkpt>
      <trkpt lat="42.586935000" lon="-2.626929000">
        <ele>688.40</ele>
        <time>2012-05-05T11:37:42Z</time>
      </trkpt>
      <trkpt lat="42.586941000" lon="-2.626929000">
        <ele>688.50</ele>
        <time>2012-05-05T11:37:42Z</time>
      </trkpt>
      <trkpt lat="42.586948000" lon="-2.626926000">
        <ele>688.60</ele>
        <time>2012-05-05T11:37:44Z</time>
      </trkpt>
      <trkpt lat="42.586955000" lon="-2.626921000">
        <ele>688.60</ele>
        <time>2012-05-05T11:37:44Z</time>
      </trkpt>
      <trkpt lat="42.586958000" lon="-2.626919000">
        <ele>688.70</ele>
        <time>2012-05-05T11:37:46Z</time>
      </trkpt>
      <trkpt lat="42.586958000" lon="-2.626916000">
        <ele>688.70</ele>
        <time>2012-05-05T11:37:48Z</time>
      </trkpt>
      <trkpt lat="42.586958000" lon="-2.626918000">
        <ele>688.70</ele>
        <time>2012-05-05T11:37:49Z</time>
      </trkpt>
      <trkpt lat="42.586965000" lon="-2.626924000">
        <ele>688.80</ele>
        <time>2012-05-05T11:37:51Z</time>
      </trkpt>
      <trkpt lat="42.586970000" lon="-2.626933000">
        <ele>688.90</ele>
        <time>2012-05-05T11:37:51Z</time>
      </trkpt>
      <trkpt lat="42.586975000" lon="-2.626941000">
        <ele>689.10</ele>
        <time>2012-05-05T11:37:53Z</time>
      </trkpt>
      <trkpt lat="42.586976000" lon="-2.626943000">
        <ele>689.20</ele>
        <time>2012-05-05T11:37:54Z</time>
      </trkpt>
      <trkpt lat="42.586978000" lon="-2.626949000">
        <ele>689.20</ele>
        <time>2012-05-05T11:37:56Z</time>
      </trkpt>
      <trkpt lat="42.586980000" lon="-2.626953000">
        <ele>689.30</ele>
        <time>2012-05-05T11:37:56Z</time>
      </trkpt>
      <trkpt lat="42.586983000" lon="-2.626956000">
        <ele>689.40</ele>
        <time>2012-05-05T11:37:58Z</time>
      </trkpt>
      <trkpt lat="42.586990000" lon="-2.626966000">
        <ele>689.50</ele>
        <time>2012-05-05T11:37:58Z</time>
      </trkpt>
      <trkpt lat="42.587036000" lon="-2.627108000">
        <ele>691.30</ele>
        <time>2012-05-05T11:38:10Z</time>
      </trkpt>
      <trkpt lat="42.587038000" lon="-2.627123000">
        <ele>691.50</ele>
        <time>2012-05-05T11:38:10Z</time>
      </trkpt>
      <trkpt lat="42.587035000" lon="-2.627154000">
        <ele>691.80</ele>
        <time>2012-05-05T11:38:12Z</time>
      </trkpt>
      <trkpt lat="42.587031000" lon="-2.627169000">
        <ele>692.00</ele>
        <time>2012-05-05T11:38:14Z</time>
      </trkpt>
      <trkpt lat="42.587030000" lon="-2.627184000">
        <ele>692.10</ele>
        <time>2012-05-05T11:38:14Z</time>
      </trkpt>
      <trkpt lat="42.587030000" lon="-2.627201000">
        <ele>692.30</ele>
        <time>2012-05-05T11:38:15Z</time>
      </trkpt>
      <trkpt lat="42.587041000" lon="-2.627266000">
        <ele>693.20</ele>
        <time>2012-05-05T11:38:19Z</time>
      </trkpt>
      <trkpt lat="42.587063000" lon="-2.627326000">
        <ele>694.20</ele>
        <time>2012-05-05T11:38:24Z</time>
      </trkpt>
      <trkpt lat="42.587070000" lon="-2.627339000">
        <ele>694.50</ele>
        <time>2012-05-05T11:38:24Z</time>
      </trkpt>
      <trkpt lat="42.587075000" lon="-2.627354000">
        <ele>694.70</ele>
        <time>2012-05-05T11:38:26Z</time>
      </trkpt>
      <trkpt lat="42.587088000" lon="-2.627381000">
        <ele>695.30</ele>
        <time>2012-05-05T11:38:28Z</time>
      </trkpt>
      <trkpt lat="42.587168000" lon="-2.627501000">
        <ele>698.20</ele>
        <time>2012-05-05T11:38:38Z</time>
      </trkpt>
      <trkpt lat="42.587173000" lon="-2.627513000">
        <ele>698.40</ele>
        <time>2012-05-05T11:38:40Z</time>
      </trkpt>
      <trkpt lat="42.587220000" lon="-2.627576000">
        <ele>700.10</ele>
        <time>2012-05-05T11:38:47Z</time>
      </trkpt>
      <trkpt lat="42.587225000" lon="-2.627584000">
        <ele>700.30</ele>
        <time>2012-05-05T11:38:47Z</time>
      </trkpt>
      <trkpt lat="42.587226000" lon="-2.627589000">
        <ele>700.50</ele>
        <time>2012-05-05T11:38:48Z</time>
      </trkpt>
      <trkpt lat="42.587226000" lon="-2.627589000">
        <ele>700.50</ele>
        <time>2012-05-05T11:38:50Z</time>
      </trkpt>
      <trkpt lat="42.587228000" lon="-2.627588000">
        <ele>700.70</ele>
        <time>2012-05-05T11:38:50Z</time>
      </trkpt>
      <trkpt lat="42.587233000" lon="-2.627588000">
        <ele>700.70</ele>
        <time>2012-05-05T11:38:52Z</time>
      </trkpt>
      <trkpt lat="42.587240000" lon="-2.627591000">
        <ele>700.80</ele>
        <time>2012-05-05T11:38:52Z</time>
      </trkpt>
      <trkpt lat="42.587251000" lon="-2.627591000">
        <ele>701.00</ele>
        <time>2012-05-05T11:38:54Z</time>
      </trkpt>
      <trkpt lat="42.587261000" lon="-2.627598000">
        <ele>701.20</ele>
        <time>2012-05-05T11:38:54Z</time>
      </trkpt>
      <trkpt lat="42.587328000" lon="-2.627621000">
        <ele>702.50</ele>
        <time>2012-05-05T11:38:59Z</time>
      </trkpt>
      <trkpt lat="42.587350000" lon="-2.627624000">
        <ele>702.80</ele>
        <time>2012-05-05T11:38:59Z</time>
      </trkpt>
      <trkpt lat="42.587555000" lon="-2.627716000">
        <ele>708.40</ele>
        <time>2012-05-05T11:39:13Z</time>
      </trkpt>
      <trkpt lat="42.587626000" lon="-2.627776000">
        <ele>710.80</ele>
        <time>2012-05-05T11:39:18Z</time>
      </trkpt>
      <trkpt lat="42.587645000" lon="-2.627803000">
        <ele>711.70</ele>
        <time>2012-05-05T11:39:20Z</time>
      </trkpt>
      <trkpt lat="42.587648000" lon="-2.627818000">
        <ele>712.00</ele>
        <time>2012-05-05T11:39:22Z</time>
      </trkpt>
      <trkpt lat="42.587646000" lon="-2.627831000">
        <ele>712.30</ele>
        <time>2012-05-05T11:39:23Z</time>
      </trkpt>
      <trkpt lat="42.587640000" lon="-2.627843000">
        <ele>712.50</ele>
        <time>2012-05-05T11:39:23Z</time>
      </trkpt>
      <trkpt lat="42.587633000" lon="-2.627851000">
        <ele>712.60</ele>
        <time>2012-05-05T11:39:25Z</time>
      </trkpt>
      <trkpt lat="42.587625000" lon="-2.627858000">
        <ele>712.60</ele>
        <time>2012-05-05T11:39:25Z</time>
      </trkpt>
      <trkpt lat="42.587618000" lon="-2.627866000">
        <ele>712.70</ele>
        <time>2012-05-05T11:39:27Z</time>
      </trkpt>
      <trkpt lat="42.587608000" lon="-2.627871000">
        <ele>712.60</ele>
        <time>2012-05-05T11:39:27Z</time>
      </trkpt>
      <trkpt lat="42.587603000" lon="-2.627876000">
        <ele>712.60</ele>
        <time>2012-05-05T11:39:29Z</time>
      </trkpt>
      <trkpt lat="42.587601000" lon="-2.627876000">
        <ele>712.50</ele>
        <time>2012-05-05T11:39:30Z</time>
      </trkpt>
      <trkpt lat="42.587600000" lon="-2.627876000">
        <ele>712.50</ele>
        <time>2012-05-05T11:39:32Z</time>
      </trkpt>
      <trkpt lat="42.587600000" lon="-2.627878000">
        <ele>712.50</ele>
        <time>2012-05-05T11:39:32Z</time>
      </trkpt>
      <trkpt lat="42.587600000" lon="-2.627876000">
        <ele>712.50</ele>
        <time>2012-05-05T11:39:34Z</time>
      </trkpt>
      <trkpt lat="42.587598000" lon="-2.627876000">
        <ele>712.40</ele>
        <time>2012-05-05T11:39:35Z</time>
      </trkpt>
      <trkpt lat="42.587596000" lon="-2.627876000">
        <ele>712.40</ele>
        <time>2012-05-05T11:39:41Z</time>
      </trkpt>
      <trkpt lat="42.587596000" lon="-2.627874000">
        <ele>712.40</ele>
        <time>2012-05-05T11:39:41Z</time>
      </trkpt>
      <trkpt lat="42.587595000" lon="-2.627874000">
        <ele>712.30</ele>
        <time>2012-05-05T11:39:44Z</time>
      </trkpt>
      <trkpt lat="42.587593000" lon="-2.627873000">
        <ele>712.30</ele>
        <time>2012-05-05T11:39:48Z</time>
      </trkpt>
      <trkpt lat="42.587593000" lon="-2.627871000">
        <ele>712.30</ele>
        <time>2012-05-05T11:39:49Z</time>
      </trkpt>
      <trkpt lat="42.587593000" lon="-2.627871000">
        <ele>712.30</ele>
        <time>2012-05-05T11:39:51Z</time>
      </trkpt>
      <trkpt lat="42.587591000" lon="-2.627871000">
        <ele>712.20</ele>
        <time>2012-05-05T11:39:51Z</time>
      </trkpt>
      <trkpt lat="42.587590000" lon="-2.627869000">
        <ele>712.20</ele>
        <time>2012-05-05T11:39:55Z</time>
      </trkpt>
      <trkpt lat="42.587590000" lon="-2.627868000">
        <ele>712.10</ele>
        <time>2012-05-05T11:39:55Z</time>
      </trkpt>
      <trkpt lat="42.587586000" lon="-2.627869000">
        <ele>712.10</ele>
        <time>2012-05-05T11:39:58Z</time>
      </trkpt>
      <trkpt lat="42.587580000" lon="-2.627868000">
        <ele>712.00</ele>
        <time>2012-05-05T11:39:58Z</time>
      </trkpt>
      <trkpt lat="42.587578000" lon="-2.627866000">
        <ele>711.90</ele>
        <time>2012-05-05T11:40:00Z</time>
      </trkpt>
      <trkpt lat="42.587576000" lon="-2.627866000">
        <ele>711.80</ele>
        <time>2012-05-05T11:40:03Z</time>
      </trkpt>
      <trkpt lat="42.587538000" lon="-2.627879000">
        <ele>711.40</ele>
        <time>2012-05-05T11:40:07Z</time>
      </trkpt>
      <trkpt lat="42.587525000" lon="-2.627881000">
        <ele>711.20</ele>
        <time>2012-05-05T11:40:09Z</time>
      </trkpt>
      <trkpt lat="42.587475000" lon="-2.627904000">
        <ele>710.50</ele>
        <time>2012-05-05T11:40:12Z</time>
      </trkpt>
      <trkpt lat="42.587300000" lon="-2.627963000">
        <ele>707.40</ele>
        <time>2012-05-05T11:40:19Z</time>
      </trkpt>
      <trkpt lat="42.587250000" lon="-2.627994000">
        <ele>706.60</ele>
        <time>2012-05-05T11:40:21Z</time>
      </trkpt>
      <trkpt lat="42.587200000" lon="-2.628041000">
        <ele>705.70</ele>
        <time>2012-05-05T11:40:24Z</time>
      </trkpt>
      <trkpt lat="42.587131000" lon="-2.628146000">
        <ele>704.70</ele>
        <time>2012-05-05T11:40:26Z</time>
      </trkpt>
      <trkpt lat="42.586768000" lon="-2.628944000">
        <ele>703.70</ele>
        <time>2012-05-05T11:40:40Z</time>
      </trkpt>
      <trkpt lat="42.586720000" lon="-2.629006000">
        <ele>703.60</ele>
        <time>2012-05-05T11:40:40Z</time>
      </trkpt>
      <trkpt lat="42.586666000" lon="-2.629043000">
        <ele>703.30</ele>
        <time>2012-05-05T11:40:42Z</time>
      </trkpt>
      <trkpt lat="42.586611000" lon="-2.629049000">
        <ele>702.80</ele>
        <time>2012-05-05T11:40:42Z</time>
      </trkpt>
      <trkpt lat="42.586558000" lon="-2.629021000">
        <ele>702.00</ele>
        <time>2012-05-05T11:40:43Z</time>
      </trkpt>
      <trkpt lat="42.586186000" lon="-2.628641000">
        <ele>694.40</ele>
        <time>2012-05-05T11:40:49Z</time>
      </trkpt>
      <trkpt lat="42.585693000" lon="-2.628316000">
        <ele>686.60</ele>
        <time>2012-05-05T11:40:54Z</time>
      </trkpt>
      <trkpt lat="42.585598000" lon="-2.628278000">
        <ele>685.10</ele>
        <time>2012-05-05T11:40:56Z</time>
      </trkpt>
      <trkpt lat="42.585516000" lon="-2.628273000">
        <ele>683.70</ele>
        <time>2012-05-05T11:40:57Z</time>
      </trkpt>
      <trkpt lat="42.585446000" lon="-2.628303000">
        <ele>682.60</ele>
        <time>2012-05-05T11:40:57Z</time>
      </trkpt>
      <trkpt lat="42.585385000" lon="-2.628363000">
        <ele>681.80</ele>
        <time>2012-05-05T11:40:59Z</time>
      </trkpt>
      <trkpt lat="42.585163000" lon="-2.628658000">
        <ele>680.60</ele>
        <time>2012-05-05T11:41:03Z</time>
      </trkpt>
      <trkpt lat="42.585100000" lon="-2.628719000">
        <ele>680.50</ele>
        <time>2012-05-05T11:41:04Z</time>
      </trkpt>
      <trkpt lat="42.584766000" lon="-2.628969000">
        <ele>678.90</ele>
        <time>2012-05-05T11:41:08Z</time>
      </trkpt>
      <trkpt lat="42.584693000" lon="-2.628964000">
        <ele>678.40</ele>
        <time>2012-05-05T11:41:10Z</time>
      </trkpt>
      <trkpt lat="42.584621000" lon="-2.628938000">
        <ele>677.80</ele>
        <time>2012-05-05T11:41:11Z</time>
      </trkpt>
      <trkpt lat="42.584491000" lon="-2.628833000">
        <ele>676.30</ele>
        <time>2012-05-05T11:41:13Z</time>
      </trkpt>
      <trkpt lat="42.584431000" lon="-2.628761000">
        <ele>675.50</ele>
        <time>2012-05-05T11:41:13Z</time>
      </trkpt>
      <trkpt lat="42.584211000" lon="-2.628378000">
        <ele>672.00</ele>
        <time>2012-05-05T11:41:18Z</time>
      </trkpt>
      <trkpt lat="42.584128000" lon="-2.628289000">
        <ele>671.00</ele>
        <time>2012-05-05T11:41:18Z</time>
      </trkpt>
      <trkpt lat="42.583933000" lon="-2.628158000">
        <ele>669.00</ele>
        <time>2012-05-05T11:41:20Z</time>
      </trkpt>
      <trkpt lat="42.583711000" lon="-2.628083000">
        <ele>667.20</ele>
        <time>2012-05-05T11:41:22Z</time>
      </trkpt>
      <trkpt lat="42.582566000" lon="-2.627914000">
        <ele>656.70</ele>
        <time>2012-05-05T11:41:32Z</time>
      </trkpt>
      <trkpt lat="42.582331000" lon="-2.627788000">
        <ele>654.50</ele>
        <time>2012-05-05T11:41:34Z</time>
      </trkpt>
      <trkpt lat="42.581851000" lon="-2.627339000">
        <ele>649.80</ele>
        <time>2012-05-05T11:41:39Z</time>
      </trkpt>
      <trkpt lat="42.581351000" lon="-2.627061000">
        <ele>645.60</ele>
        <time>2012-05-05T11:41:43Z</time>
      </trkpt>
      <trkpt lat="42.581028000" lon="-2.626969000">
        <ele>643.60</ele>
        <time>2012-05-05T11:41:46Z</time>
      </trkpt>
      <trkpt lat="42.579678000" lon="-2.626824000">
        <ele>637.60</ele>
        <time>2012-05-05T11:41:58Z</time>
      </trkpt>
      <trkpt lat="42.579130000" lon="-2.626663000">
        <ele>634.00</ele>
        <time>2012-05-05T11:42:04Z</time>
      </trkpt>
      <trkpt lat="42.579025000" lon="-2.626606000">
        <ele>633.50</ele>
        <time>2012-05-05T11:42:05Z</time>
      </trkpt>
      <trkpt lat="42.578738000" lon="-2.626366000">
        <ele>629.90</ele>
        <time>2012-05-05T11:42:07Z</time>
      </trkpt>
      <trkpt lat="42.578466000" lon="-2.625976000">
        <ele>627.40</ele>
        <time>2012-05-05T11:42:12Z</time>
      </trkpt>
      <trkpt lat="42.578061000" lon="-2.625648000">
        <ele>624.70</ele>
        <time>2012-05-05T11:42:16Z</time>
      </trkpt>
      <trkpt lat="42.576243000" lon="-2.625059000">
        <ele>614.60</ele>
        <time>2012-05-05T11:42:33Z</time>
      </trkpt>
      <trkpt lat="42.576040000" lon="-2.625028000">
        <ele>612.50</ele>
        <time>2012-05-05T11:42:35Z</time>
      </trkpt>
      <trkpt lat="42.575868000" lon="-2.624954000">
        <ele>610.30</ele>
        <time>2012-05-05T11:42:37Z</time>
      </trkpt>
      <trkpt lat="42.575786000" lon="-2.624939000">
        <ele>609.30</ele>
        <time>2012-05-05T11:42:38Z</time>
      </trkpt>
      <trkpt lat="42.575701000" lon="-2.624949000">
        <ele>608.50</ele>
        <time>2012-05-05T11:42:40Z</time>
      </trkpt>
      <trkpt lat="42.575613000" lon="-2.624981000">
        <ele>607.70</ele>
        <time>2012-05-05T11:42:40Z</time>
      </trkpt>
      <trkpt lat="42.575530000" lon="-2.625034000">
        <ele>607.10</ele>
        <time>2012-05-05T11:42:42Z</time>
      </trkpt>
      <trkpt lat="42.575231000" lon="-2.625336000">
        <ele>606.70</ele>
        <time>2012-05-05T11:42:45Z</time>
      </trkpt>
      <trkpt lat="42.574426000" lon="-2.625714000">
        <ele>604.00</ele>
        <time>2012-05-05T11:42:59Z</time>
      </trkpt>
      <trkpt lat="42.574340000" lon="-2.625806000">
        <ele>603.30</ele>
        <time>2012-05-05T11:43:01Z</time>
      </trkpt>
      <trkpt lat="42.574043000" lon="-2.626218000">
        <ele>600.90</ele>
        <time>2012-05-05T11:43:10Z</time>
      </trkpt>
      <trkpt lat="42.574026000" lon="-2.626234000">
        <ele>600.90</ele>
        <time>2012-05-05T11:43:10Z</time>
      </trkpt>
      <trkpt lat="42.574015000" lon="-2.626251000">
        <ele>600.70</ele>
        <time>2012-05-05T11:43:12Z</time>
      </trkpt>
      <trkpt lat="42.574006000" lon="-2.626259000">
        <ele>600.60</ele>
        <time>2012-05-05T11:43:13Z</time>
      </trkpt>
      <trkpt lat="42.574003000" lon="-2.626273000">
        <ele>600.60</ele>
        <time>2012-05-05T11:43:13Z</time>
      </trkpt>
      <trkpt lat="42.573996000" lon="-2.626284000">
        <ele>600.50</ele>
        <time>2012-05-05T11:43:15Z</time>
      </trkpt>
      <trkpt lat="42.573990000" lon="-2.626293000">
        <ele>600.50</ele>
        <time>2012-05-05T11:43:15Z</time>
      </trkpt>
      <trkpt lat="42.573980000" lon="-2.626306000">
        <ele>600.40</ele>
        <time>2012-05-05T11:43:22Z</time>
      </trkpt>
      <trkpt lat="42.573978000" lon="-2.626309000">
        <ele>600.40</ele>
        <time>2012-05-05T11:43:24Z</time>
      </trkpt>
      <trkpt lat="42.573975000" lon="-2.626316000">
        <ele>600.40</ele>
        <time>2012-05-05T11:43:27Z</time>
      </trkpt>
      <trkpt lat="42.573965000" lon="-2.626328000">
        <ele>600.40</ele>
        <time>2012-05-05T11:43:29Z</time>
      </trkpt>
      <trkpt lat="42.573946000" lon="-2.626366000">
        <ele>600.40</ele>
        <time>2012-05-05T11:43:31Z</time>
      </trkpt>
      <trkpt lat="42.573938000" lon="-2.626391000">
        <ele>600.40</ele>
        <time>2012-05-05T11:43:31Z</time>
      </trkpt>
      <trkpt lat="42.573928000" lon="-2.626489000">
        <ele>600.50</ele>
        <time>2012-05-05T11:43:34Z</time>
      </trkpt>
      <trkpt lat="42.573928000" lon="-2.626523000">
        <ele>600.60</ele>
        <time>2012-05-05T11:43:36Z</time>
      </trkpt>
      <trkpt lat="42.573931000" lon="-2.626556000">
        <ele>600.60</ele>
        <time>2012-05-05T11:43:36Z</time>
      </trkpt>
      <trkpt lat="42.573930000" lon="-2.626591000">
        <ele>600.70</ele>
        <time>2012-05-05T11:43:38Z</time>
      </trkpt>
      <trkpt lat="42.573920000" lon="-2.626614000">
        <ele>600.80</ele>
        <time>2012-05-05T11:43:38Z</time>
      </trkpt>
      <trkpt lat="42.573906000" lon="-2.626616000">
        <ele>600.80</ele>
        <time>2012-05-05T11:43:39Z</time>
      </trkpt>
      <trkpt lat="42.573895000" lon="-2.626609000">
        <ele>600.80</ele>
        <time>2012-05-05T11:43:41Z</time>
      </trkpt>
      <trkpt lat="42.573843000" lon="-2.626564000">
        <ele>600.50</ele>
        <time>2012-05-05T11:43:43Z</time>
      </trkpt>
      <trkpt lat="42.573831000" lon="-2.626544000">
        <ele>600.40</ele>
        <time>2012-05-05T11:43:46Z</time>
      </trkpt>
      <trkpt lat="42.573830000" lon="-2.626539000">
        <ele>600.30</ele>
        <time>2012-05-05T11:43:48Z</time>
      </trkpt>
      <trkpt lat="42.573830000" lon="-2.626536000">
        <ele>600.30</ele>
        <time>2012-05-05T11:43:52Z</time>
      </trkpt>
      <trkpt lat="42.573825000" lon="-2.626533000">
        <ele>600.30</ele>
        <time>2012-05-05T11:43:53Z</time>
      </trkpt>
      <trkpt lat="42.573825000" lon="-2.626526000">
        <ele>600.30</ele>
        <time>2012-05-05T11:44:02Z</time>
      </trkpt>
      <trkpt lat="42.573825000" lon="-2.626524000">
        <ele>600.20</ele>
        <time>2012-05-05T11:44:02Z</time>
      </trkpt>
      <trkpt lat="42.573826000" lon="-2.626514000">
        <ele>600.20</ele>
        <time>2012-05-05T11:44:12Z</time>
      </trkpt>
      <trkpt lat="42.573823000" lon="-2.626516000">
        <ele>600.20</ele>
        <time>2012-05-05T11:44:14Z</time>
      </trkpt>
      <trkpt lat="42.573810000" lon="-2.626549000">
        <ele>600.20</ele>
        <time>2012-05-05T11:44:21Z</time>
      </trkpt>
      <trkpt lat="42.573731000" lon="-2.626686000">
        <ele>600.40</ele>
        <time>2012-05-05T11:44:28Z</time>
      </trkpt>
      <trkpt lat="42.573720000" lon="-2.626718000">
        <ele>600.40</ele>
        <time>2012-05-05T11:44:28Z</time>
      </trkpt>
      <trkpt lat="42.573705000" lon="-2.626748000">
        <ele>600.40</ele>
        <time>2012-05-05T11:44:30Z</time>
      </trkpt>
      <trkpt lat="42.573686000" lon="-2.626774000">
        <ele>600.40</ele>
        <time>2012-05-05T11:44:30Z</time>
      </trkpt>
      <trkpt lat="42.573621000" lon="-2.626851000">
        <ele>600.30</ele>
        <time>2012-05-05T11:44:33Z</time>
      </trkpt>
      <trkpt lat="42.573086000" lon="-2.627686000">
        <ele>601.00</ele>
        <time>2012-05-05T11:44:54Z</time>
      </trkpt>
      <trkpt lat="42.573050000" lon="-2.627729000">
        <ele>601.10</ele>
        <time>2012-05-05T11:44:56Z</time>
      </trkpt>
      <trkpt lat="42.572958000" lon="-2.627799000">
        <ele>601.30</ele>
        <time>2012-05-05T11:44:58Z</time>
      </trkpt>
      <trkpt lat="42.572721000" lon="-2.627879000">
        <ele>600.80</ele>
        <time>2012-05-05T11:45:01Z</time>
      </trkpt>
      <trkpt lat="42.571906000" lon="-2.627968000">
        <ele>596.40</ele>
        <time>2012-05-05T11:45:13Z</time>
      </trkpt>
      <trkpt lat="42.571836000" lon="-2.627993000">
        <ele>596.20</ele>
        <time>2012-05-05T11:45:15Z</time>
      </trkpt>
      <trkpt lat="42.570013000" lon="-2.629814000">
        <ele>585.50</ele>
        <time>2012-05-05T11:45:43Z</time>
      </trkpt>
      <trkpt lat="42.568013000" lon="-2.631653000">
        <ele>578.10</ele>
        <time>2012-05-05T11:46:13Z</time>
      </trkpt>
      <trkpt lat="42.567033000" lon="-2.632408000">
        <ele>576.60</ele>
        <time>2012-05-05T11:46:28Z</time>
      </trkpt>
      <trkpt lat="42.566966000" lon="-2.632443000">
        <ele>576.40</ele>
        <time>2012-05-05T11:46:28Z</time>
      </trkpt>
      <trkpt lat="42.566328000" lon="-2.632539000">
        <ele>573.70</ele>
        <time>2012-05-05T11:46:42Z</time>
      </trkpt>
      <trkpt lat="42.566261000" lon="-2.632504000">
        <ele>573.60</ele>
        <time>2012-05-05T11:46:44Z</time>
      </trkpt>
      <trkpt lat="42.566223000" lon="-2.632499000">
        <ele>573.50</ele>
        <time>2012-05-05T11:46:44Z</time>
      </trkpt>
      <trkpt lat="42.566108000" lon="-2.632513000">
        <ele>572.90</ele>
        <time>2012-05-05T11:46:48Z</time>
      </trkpt>
      <trkpt lat="42.566045000" lon="-2.632529000">
        <ele>572.50</ele>
        <time>2012-05-05T11:46:49Z</time>
      </trkpt>
      <trkpt lat="42.566008000" lon="-2.632531000">
        <ele>572.20</ele>
        <time>2012-05-05T11:46:51Z</time>
      </trkpt>
      <trkpt lat="42.565875000" lon="-2.632571000">
        <ele>571.40</ele>
        <time>2012-05-05T11:46:54Z</time>
      </trkpt>
      <trkpt lat="42.565750000" lon="-2.632636000">
        <ele>570.70</ele>
        <time>2012-05-05T11:46:58Z</time>
      </trkpt>
      <trkpt lat="42.565571000" lon="-2.632661000">
        <ele>569.80</ele>
        <time>2012-05-05T11:47:03Z</time>
      </trkpt>
      <trkpt lat="42.565473000" lon="-2.632649000">
        <ele>569.10</ele>
        <time>2012-05-05T11:47:07Z</time>
      </trkpt>
      <trkpt lat="42.565441000" lon="-2.632654000">
        <ele>568.90</ele>
        <time>2012-05-05T11:47:08Z</time>
      </trkpt>
      <trkpt lat="42.565426000" lon="-2.632663000">
        <ele>568.80</ele>
        <time>2012-05-05T11:47:10Z</time>
      </trkpt>
      <trkpt lat="42.565413000" lon="-2.632678000">
        <ele>568.70</ele>
        <time>2012-05-05T11:47:10Z</time>
      </trkpt>
      <trkpt lat="42.565390000" lon="-2.632716000">
        <ele>568.60</ele>
        <time>2012-05-05T11:47:12Z</time>
      </trkpt>
      <trkpt lat="42.565330000" lon="-2.632838000">
        <ele>568.20</ele>
        <time>2012-05-05T11:47:17Z</time>
      </trkpt>
      <trkpt lat="42.565291000" lon="-2.632876000">
        <ele>568.00</ele>
        <time>2012-05-05T11:47:19Z</time>
      </trkpt>
      <trkpt lat="42.565150000" lon="-2.632951000">
        <ele>567.00</ele>
        <time>2012-05-05T11:47:24Z</time>
      </trkpt>
      <trkpt lat="42.565121000" lon="-2.632981000">
        <ele>566.80</ele>
        <time>2012-05-05T11:47:26Z</time>
      </trkpt>
      <trkpt lat="42.565053000" lon="-2.633103000">
        <ele>566.20</ele>
        <time>2012-05-05T11:47:29Z</time>
      </trkpt>
      <trkpt lat="42.565023000" lon="-2.633126000">
        <ele>566.10</ele>
        <time>2012-05-05T11:47:29Z</time>
      </trkpt>
      <trkpt lat="42.564956000" lon="-2.633128000">
        <ele>565.50</ele>
        <time>2012-05-05T11:47:31Z</time>
      </trkpt>
      <trkpt lat="42.564575000" lon="-2.633026000">
        <ele>562.40</ele>
        <time>2012-05-05T11:47:43Z</time>
      </trkpt>
      <trkpt lat="42.564556000" lon="-2.633008000">
        <ele>562.20</ele>
        <time>2012-05-05T11:47:45Z</time>
      </trkpt>
      <trkpt lat="42.564546000" lon="-2.632973000">
        <ele>562.00</ele>
        <time>2012-05-05T11:47:45Z</time>
      </trkpt>
      <trkpt lat="42.564551000" lon="-2.632864000">
        <ele>561.80</ele>
        <time>2012-05-05T11:47:47Z</time>
      </trkpt>
      <trkpt lat="42.564600000" lon="-2.632533000">
        <ele>561.00</ele>
        <time>2012-05-05T11:47:52Z</time>
      </trkpt>
      <trkpt lat="42.564595000" lon="-2.632436000">
        <ele>560.70</ele>
        <time>2012-05-05T11:47:52Z</time>
      </trkpt>
      <trkpt lat="42.564551000" lon="-2.632241000">
        <ele>560.00</ele>
        <time>2012-05-05T11:47:54Z</time>
      </trkpt>
      <trkpt lat="42.563976000" lon="-2.631156000">
        <ele>563.90</ele>
        <time>2012-05-05T11:48:11Z</time>
      </trkpt>
      <trkpt lat="42.563801000" lon="-2.630888000">
        <ele>564.80</ele>
        <time>2012-05-05T11:48:20Z</time>
      </trkpt>
      <trkpt lat="42.563770000" lon="-2.630819000">
        <ele>565.00</ele>
        <time>2012-05-05T11:48:22Z</time>
      </trkpt>
      <trkpt lat="42.563748000" lon="-2.630739000">
        <ele>565.10</ele>
        <time>2012-05-05T11:48:23Z</time>
      </trkpt>
      <trkpt lat="42.563638000" lon="-2.629893000">
        <ele>565.60</ele>
        <time>2012-05-05T11:48:46Z</time>
      </trkpt>
      <trkpt lat="42.563628000" lon="-2.629863000">
        <ele>565.60</ele>
        <time>2012-05-05T11:48:48Z</time>
      </trkpt>
      <trkpt lat="42.563101000" lon="-2.628896000">
        <ele>566.40</ele>
        <time>2012-05-05T11:49:17Z</time>
      </trkpt>
      <trkpt lat="42.563011000" lon="-2.628829000">
        <ele>566.30</ele>
        <time>2012-05-05T11:49:19Z</time>
      </trkpt>
      <trkpt lat="42.561573000" lon="-2.627869000">
        <ele>566.30</ele>
        <time>2012-05-05T11:49:59Z</time>
      </trkpt>
      <trkpt lat="42.561535000" lon="-2.627834000">
        <ele>566.30</ele>
        <time>2012-05-05T11:49:59Z</time>
      </trkpt>
      <trkpt lat="42.556675000" lon="-2.623439000">
        <ele>548.70</ele>
        <time>2012-05-05T11:51:21Z</time>
      </trkpt>
      <trkpt lat="42.556616000" lon="-2.623376000">
        <ele>548.60</ele>
        <time>2012-05-05T11:51:21Z</time>
      </trkpt>
      <trkpt lat="42.555878000" lon="-2.622636000">
        <ele>547.50</ele>
        <time>2012-05-05T11:51:35Z</time>
      </trkpt>
      <trkpt lat="42.555861000" lon="-2.622616000">
        <ele>547.40</ele>
        <time>2012-05-05T11:51:37Z</time>
      </trkpt>
      <trkpt lat="42.555853000" lon="-2.622591000">
        <ele>547.40</ele>
        <time>2012-05-05T11:51:37Z</time>
      </trkpt>
      <trkpt lat="42.555856000" lon="-2.622564000">
        <ele>547.40</ele>
        <time>2012-05-05T11:51:38Z</time>
      </trkpt>
      <trkpt lat="42.555875000" lon="-2.622513000">
        <ele>547.50</ele>
        <time>2012-05-05T11:51:42Z</time>
      </trkpt>
      <trkpt lat="42.556120000" lon="-2.622013000">
        <ele>548.60</ele>
        <time>2012-05-05T11:51:56Z</time>
      </trkpt>
      <trkpt lat="42.556141000" lon="-2.621993000">
        <ele>548.60</ele>
        <time>2012-05-05T11:51:58Z</time>
      </trkpt>
      <trkpt lat="42.556165000" lon="-2.621979000">
        <ele>548.70</ele>
        <time>2012-05-05T11:51:59Z</time>
      </trkpt>
      <trkpt lat="42.556191000" lon="-2.621973000">
        <ele>548.70</ele>
        <time>2012-05-05T11:51:59Z</time>
      </trkpt>
      <trkpt lat="42.556216000" lon="-2.621973000">
        <ele>548.80</ele>
        <time>2012-05-05T11:52:01Z</time>
      </trkpt>
      <trkpt lat="42.556361000" lon="-2.621994000">
        <ele>549.10</ele>
        <time>2012-05-05T11:52:06Z</time>
      </trkpt>
      <trkpt lat="42.556488000" lon="-2.621956000">
        <ele>549.30</ele>
        <time>2012-05-05T11:52:13Z</time>
      </trkpt>
      <trkpt lat="42.556728000" lon="-2.621826000">
        <ele>549.80</ele>
        <time>2012-05-05T11:52:22Z</time>
      </trkpt>
      <trkpt lat="42.556756000" lon="-2.621818000">
        <ele>549.80</ele>
        <time>2012-05-05T11:52:22Z</time>
      </trkpt>
      <trkpt lat="42.556940000" lon="-2.621723000">
        <ele>550.40</ele>
        <time>2012-05-05T11:52:31Z</time>
      </trkpt>
      <trkpt lat="42.556951000" lon="-2.621698000">
        <ele>550.50</ele>
        <time>2012-05-05T11:52:32Z</time>
      </trkpt>
      <trkpt lat="42.556960000" lon="-2.621669000">
        <ele>550.60</ele>
        <time>2012-05-05T11:52:34Z</time>
      </trkpt>
      <trkpt lat="42.556963000" lon="-2.621643000">
        <ele>550.60</ele>
        <time>2012-05-05T11:52:34Z</time>
      </trkpt>
      <trkpt lat="42.556958000" lon="-2.621594000">
        <ele>550.70</ele>
        <time>2012-05-05T11:52:36Z</time>
      </trkpt>
      <trkpt lat="42.556951000" lon="-2.621569000">
        <ele>550.80</ele>
        <time>2012-05-05T11:52:38Z</time>
      </trkpt>
      <trkpt lat="42.556943000" lon="-2.621549000">
        <ele>550.80</ele>
        <time>2012-05-05T11:52:38Z</time>
      </trkpt>
      <trkpt lat="42.556893000" lon="-2.621469000">
        <ele>550.90</ele>
        <time>2012-05-05T11:52:43Z</time>
      </trkpt>
      <trkpt lat="42.556883000" lon="-2.621446000">
        <ele>550.90</ele>
        <time>2012-05-05T11:52:43Z</time>
      </trkpt>
      <trkpt lat="42.556828000" lon="-2.621206000">
        <ele>551.10</ele>
        <time>2012-05-05T11:52:52Z</time>
      </trkpt>
      <trkpt lat="42.556805000" lon="-2.620973000">
        <ele>551.30</ele>
        <time>2012-05-05T11:52:59Z</time>
      </trkpt>
      <trkpt lat="42.556843000" lon="-2.620611000">
        <ele>552.00</ele>
        <time>2012-05-05T11:53:07Z</time>
      </trkpt>
      <trkpt lat="42.556828000" lon="-2.620408000">
        <ele>552.30</ele>
        <time>2012-05-05T11:53:12Z</time>
      </trkpt>
      <trkpt lat="42.556801000" lon="-2.620264000">
        <ele>552.00</ele>
        <time>2012-05-05T11:53:18Z</time>
      </trkpt>
      <trkpt lat="42.556796000" lon="-2.620251000">
        <ele>551.90</ele>
        <time>2012-05-05T11:53:19Z</time>
      </trkpt>
      <trkpt lat="42.556793000" lon="-2.620238000">
        <ele>551.90</ele>
        <time>2012-05-05T11:53:21Z</time>
      </trkpt>
      <trkpt lat="42.556791000" lon="-2.620223000">
        <ele>551.80</ele>
        <time>2012-05-05T11:53:21Z</time>
      </trkpt>
      <trkpt lat="42.556790000" lon="-2.620206000">
        <ele>551.80</ele>
        <time>2012-05-05T11:53:28Z</time>
      </trkpt>
      <trkpt lat="42.556788000" lon="-2.620204000">
        <ele>551.80</ele>
        <time>2012-05-05T11:53:30Z</time>
      </trkpt>
      <trkpt lat="42.556771000" lon="-2.620193000">
        <ele>551.70</ele>
        <time>2012-05-05T11:53:33Z</time>
      </trkpt>
      <trkpt lat="42.556756000" lon="-2.620178000">
        <ele>551.70</ele>
        <time>2012-05-05T11:53:35Z</time>
      </trkpt>
      <trkpt lat="42.556741000" lon="-2.620166000">
        <ele>551.60</ele>
        <time>2012-05-05T11:53:37Z</time>
      </trkpt>
      <trkpt lat="42.556671000" lon="-2.620074000">
        <ele>551.40</ele>
        <time>2012-05-05T11:53:40Z</time>
      </trkpt>
      <trkpt lat="42.556345000" lon="-2.619318000">
        <ele>549.70</ele>
        <time>2012-05-05T11:53:56Z</time>
      </trkpt>
      <trkpt lat="42.556318000" lon="-2.619274000">
        <ele>549.60</ele>
        <time>2012-05-05T11:53:58Z</time>
      </trkpt>
      <trkpt lat="42.556300000" lon="-2.619231000">
        <ele>549.50</ele>
        <time>2012-05-05T11:53:59Z</time>
      </trkpt>
      <trkpt lat="42.556293000" lon="-2.619208000">
        <ele>549.40</ele>
        <time>2012-05-05T11:54:01Z</time>
      </trkpt>
      <trkpt lat="42.556281000" lon="-2.619181000">
        <ele>549.40</ele>
        <time>2012-05-05T11:54:01Z</time>
      </trkpt>
      <trkpt lat="42.556248000" lon="-2.619128000">
        <ele>549.30</ele>
        <time>2012-05-05T11:54:03Z</time>
      </trkpt>
      <trkpt lat="42.556106000" lon="-2.618961000">
        <ele>548.60</ele>
        <time>2012-05-05T11:54:10Z</time>
      </trkpt>
      <trkpt lat="42.555898000" lon="-2.618791000">
        <ele>547.70</ele>
        <time>2012-05-05T11:54:19Z</time>
      </trkpt>
      <trkpt lat="42.555843000" lon="-2.618761000">
        <ele>547.60</ele>
        <time>2012-05-05T11:54:22Z</time>
      </trkpt>
      <trkpt lat="42.555526000" lon="-2.618633000">
        <ele>546.30</ele>
        <time>2012-05-05T11:54:34Z</time>
      </trkpt>
      <trkpt lat="42.555495000" lon="-2.618613000">
        <ele>546.20</ele>
        <time>2012-05-05T11:54:34Z</time>
      </trkpt>
      <trkpt lat="42.555226000" lon="-2.618476000">
        <ele>543.90</ele>
        <time>2012-05-05T11:54:45Z</time>
      </trkpt>
      <trkpt lat="42.555183000" lon="-2.618419000">
        <ele>543.30</ele>
        <time>2012-05-05T11:54:47Z</time>
      </trkpt>
      <trkpt lat="42.555085000" lon="-2.618219000">
        <ele>541.60</ele>
        <time>2012-05-05T11:54:52Z</time>
      </trkpt>
      <trkpt lat="42.555065000" lon="-2.618139000">
        <ele>541.10</ele>
        <time>2012-05-05T11:54:54Z</time>
      </trkpt>
      <trkpt lat="42.555058000" lon="-2.618008000">
        <ele>540.40</ele>
        <time>2012-05-05T11:54:57Z</time>
      </trkpt>
      <trkpt lat="42.555050000" lon="-2.617954000">
        <ele>540.10</ele>
        <time>2012-05-05T11:54:57Z</time>
      </trkpt>
      <trkpt lat="42.555028000" lon="-2.617898000">
        <ele>539.80</ele>
        <time>2012-05-05T11:54:59Z</time>
      </trkpt>
      <trkpt lat="42.554886000" lon="-2.617684000">
        <ele>536.70</ele>
        <time>2012-05-05T11:55:06Z</time>
      </trkpt>
      <trkpt lat="42.554883000" lon="-2.617678000">
        <ele>536.40</ele>
        <time>2012-05-05T11:55:09Z</time>
      </trkpt>
      <trkpt lat="42.554881000" lon="-2.617679000">
        <ele>536.40</ele>
        <time>2012-05-05T11:55:16Z</time>
      </trkpt>
      <trkpt lat="42.554880000" lon="-2.617683000">
        <ele>536.40</ele>
        <time>2012-05-05T11:55:27Z</time>
      </trkpt>
      <trkpt lat="42.554873000" lon="-2.617684000">
        <ele>536.40</ele>
        <time>2012-05-05T11:55:30Z</time>
      </trkpt>
      <trkpt lat="42.554861000" lon="-2.617683000">
        <ele>536.40</ele>
        <time>2012-05-05T11:55:32Z</time>
      </trkpt>
      <trkpt lat="42.554781000" lon="-2.617633000">
        <ele>535.80</ele>
        <time>2012-05-05T11:55:37Z</time>
      </trkpt>
      <trkpt lat="42.554755000" lon="-2.617609000">
        <ele>535.60</ele>
        <time>2012-05-05T11:55:37Z</time>
      </trkpt>
      <trkpt lat="42.554681000" lon="-2.617526000">
        <ele>534.30</ele>
        <time>2012-05-05T11:55:42Z</time>
      </trkpt>
      <trkpt lat="42.554630000" lon="-2.617459000">
        <ele>533.40</ele>
        <time>2012-05-05T11:55:48Z</time>
      </trkpt>
      <trkpt lat="42.554625000" lon="-2.617431000">
        <ele>533.10</ele>
        <time>2012-05-05T11:55:49Z</time>
      </trkpt>
      <trkpt lat="42.554625000" lon="-2.617421000">
        <ele>532.90</ele>
        <time>2012-05-05T11:55:51Z</time>
      </trkpt>
      <trkpt lat="42.554550000" lon="-2.617201000">
        <ele>530.80</ele>
        <time>2012-05-05T11:55:56Z</time>
      </trkpt>
      <trkpt lat="42.554473000" lon="-2.617071000">
        <ele>529.40</ele>
        <time>2012-05-05T11:56:00Z</time>
      </trkpt>
      <trkpt lat="42.554286000" lon="-2.616373000">
        <ele>526.50</ele>
        <time>2012-05-05T11:56:14Z</time>
      </trkpt>
      <trkpt lat="42.554233000" lon="-2.616039000">
        <ele>526.30</ele>
        <time>2012-05-05T11:56:21Z</time>
      </trkpt>
      <trkpt lat="42.554183000" lon="-2.615856000">
        <ele>526.60</ele>
        <time>2012-05-05T11:56:24Z</time>
      </trkpt>
      <trkpt lat="42.553883000" lon="-2.614994000">
        <ele>526.80</ele>
        <time>2012-05-05T11:56:43Z</time>
      </trkpt>
      <trkpt lat="42.553871000" lon="-2.614938000">
        <ele>526.80</ele>
        <time>2012-05-05T11:56:45Z</time>
      </trkpt>
      <trkpt lat="42.553636000" lon="-2.612066000">
        <ele>530.30</ele>
        <time>2012-05-05T11:57:32Z</time>
      </trkpt>
      <trkpt lat="42.553918000" lon="-2.609448000">
        <ele>535.10</ele>
        <time>2012-05-05T11:58:17Z</time>
      </trkpt>
      <trkpt lat="42.553918000" lon="-2.609381000">
        <ele>535.10</ele>
        <time>2012-05-05T11:58:17Z</time>
      </trkpt>
      <trkpt lat="42.553653000" lon="-2.608346000">
        <ele>532.80</ele>
        <time>2012-05-05T11:58:33Z</time>
      </trkpt>
      <trkpt lat="42.553508000" lon="-2.608026000">
        <ele>532.40</ele>
        <time>2012-05-05T11:58:40Z</time>
      </trkpt>
      <trkpt lat="42.553465000" lon="-2.607969000">
        <ele>532.30</ele>
        <time>2012-05-05T11:58:42Z</time>
      </trkpt>
      <trkpt lat="42.553440000" lon="-2.607956000">
        <ele>532.30</ele>
        <time>2012-05-05T11:58:43Z</time>
      </trkpt>
      <trkpt lat="42.553413000" lon="-2.607953000">
        <ele>532.20</ele>
        <time>2012-05-05T11:58:45Z</time>
      </trkpt>
      <trkpt lat="42.553383000" lon="-2.607966000">
        <ele>532.20</ele>
        <time>2012-05-05T11:58:45Z</time>
      </trkpt>
      <trkpt lat="42.553263000" lon="-2.608076000">
        <ele>531.90</ele>
        <time>2012-05-05T11:58:49Z</time>
      </trkpt>
      <trkpt lat="42.553228000" lon="-2.608099000">
        <ele>531.80</ele>
        <time>2012-05-05T11:58:50Z</time>
      </trkpt>
      <trkpt lat="42.553138000" lon="-2.608126000">
        <ele>531.60</ele>
        <time>2012-05-05T11:58:52Z</time>
      </trkpt>
      <trkpt lat="42.552190000" lon="-2.608031000">
        <ele>529.20</ele>
        <time>2012-05-05T11:59:11Z</time>
      </trkpt>
      <trkpt lat="42.552093000" lon="-2.607989000">
        <ele>529.00</ele>
        <time>2012-05-05T11:59:15Z</time>
      </trkpt>
      <trkpt lat="42.552063000" lon="-2.607964000">
        <ele>528.90</ele>
        <time>2012-05-05T11:59:18Z</time>
      </trkpt>
      <trkpt lat="42.552058000" lon="-2.607966000">
        <ele>528.90</ele>
        <time>2012-05-05T11:59:20Z</time>
      </trkpt>
      <trkpt lat="42.552051000" lon="-2.607964000">
        <ele>528.90</ele>
        <time>2012-05-05T11:59:22Z</time>
      </trkpt>
      <trkpt lat="42.552050000" lon="-2.607966000">
        <ele>528.90</ele>
        <time>2012-05-05T11:59:22Z</time>
      </trkpt>
      <trkpt lat="42.552046000" lon="-2.607966000">
        <ele>528.90</ele>
        <time>2012-05-05T11:59:25Z</time>
      </trkpt>
      <trkpt lat="42.552031000" lon="-2.607961000">
        <ele>528.90</ele>
        <time>2012-05-05T11:59:27Z</time>
      </trkpt>
      <trkpt lat="42.552028000" lon="-2.607954000">
        <ele>528.90</ele>
        <time>2012-05-05T11:59:27Z</time>
      </trkpt>
      <trkpt lat="42.552021000" lon="-2.607936000">
        <ele>529.00</ele>
        <time>2012-05-05T11:59:29Z</time>
      </trkpt>
      <trkpt lat="42.552018000" lon="-2.607914000">
        <ele>529.00</ele>
        <time>2012-05-05T11:59:29Z</time>
      </trkpt>
      <trkpt lat="42.552025000" lon="-2.607831000">
        <ele>529.10</ele>
        <time>2012-05-05T11:59:32Z</time>
      </trkpt>
      <trkpt lat="42.552021000" lon="-2.607796000">
        <ele>529.20</ele>
        <time>2012-05-05T11:59:34Z</time>
      </trkpt>
      <trkpt lat="42.552006000" lon="-2.607759000">
        <ele>529.30</ele>
        <time>2012-05-05T11:59:34Z</time>
      </trkpt>
      <trkpt lat="42.551986000" lon="-2.607724000">
        <ele>529.40</ele>
        <time>2012-05-05T11:59:36Z</time>
      </trkpt>
      <trkpt lat="42.551926000" lon="-2.607659000">
        <ele>529.50</ele>
        <time>2012-05-05T11:59:37Z</time>
      </trkpt>
      <trkpt lat="42.551856000" lon="-2.607609000">
        <ele>529.70</ele>
        <time>2012-05-05T11:59:39Z</time>
      </trkpt>
      <trkpt lat="42.551360000" lon="-2.607474000">
        <ele>529.90</ele>
        <time>2012-05-05T11:59:50Z</time>
      </trkpt>
      <trkpt lat="42.550980000" lon="-2.607213000">
        <ele>528.50</ele>
        <time>2012-05-05T11:59:58Z</time>
      </trkpt>
      <trkpt lat="42.550600000" lon="-2.607071000">
        <ele>525.80</ele>
        <time>2012-05-05T12:00:05Z</time>
      </trkpt>
      <trkpt lat="42.550233000" lon="-2.607044000">
        <ele>523.90</ele>
        <time>2012-05-05T12:00:11Z</time>
      </trkpt>
      <trkpt lat="42.550175000" lon="-2.607026000">
        <ele>523.80</ele>
        <time>2012-05-05T12:00:12Z</time>
      </trkpt>
      <trkpt lat="42.550066000" lon="-2.606958000">
        <ele>523.70</ele>
        <time>2012-05-05T12:00:14Z</time>
      </trkpt>
      <trkpt lat="42.550018000" lon="-2.606909000">
        <ele>523.70</ele>
        <time>2012-05-05T12:00:14Z</time>
      </trkpt>
      <trkpt lat="42.549943000" lon="-2.606788000">
        <ele>523.70</ele>
        <time>2012-05-05T12:00:16Z</time>
      </trkpt>
      <trkpt lat="42.549860000" lon="-2.606566000">
        <ele>523.80</ele>
        <time>2012-05-05T12:00:19Z</time>
      </trkpt>
      <trkpt lat="42.549823000" lon="-2.606496000">
        <ele>523.90</ele>
        <time>2012-05-05T12:00:21Z</time>
      </trkpt>
      <trkpt lat="42.549380000" lon="-2.606059000">
        <ele>523.70</ele>
        <time>2012-05-05T12:00:30Z</time>
      </trkpt>
      <trkpt lat="42.549198000" lon="-2.605983000">
        <ele>523.30</ele>
        <time>2012-05-05T12:00:33Z</time>
      </trkpt>
      <trkpt lat="42.549061000" lon="-2.605958000">
        <ele>523.10</ele>
        <time>2012-05-05T12:00:35Z</time>
      </trkpt>
      <trkpt lat="42.547868000" lon="-2.606143000">
        <ele>523.90</ele>
        <time>2012-05-05T12:00:52Z</time>
      </trkpt>
      <trkpt lat="42.547671000" lon="-2.606123000">
        <ele>524.50</ele>
        <time>2012-05-05T12:00:54Z</time>
      </trkpt>
      <trkpt lat="42.547608000" lon="-2.606103000">
        <ele>524.80</ele>
        <time>2012-05-05T12:00:56Z</time>
      </trkpt>
      <trkpt lat="42.547548000" lon="-2.606071000">
        <ele>525.00</ele>
        <time>2012-05-05T12:00:56Z</time>
      </trkpt>
      <trkpt lat="42.547446000" lon="-2.605979000">
        <ele>525.20</ele>
        <time>2012-05-05T12:00:59Z</time>
      </trkpt>
      <trkpt lat="42.547285000" lon="-2.605764000">
        <ele>525.10</ele>
        <time>2012-05-05T12:01:03Z</time>
      </trkpt>
      <trkpt lat="42.546741000" lon="-2.605119000">
        <ele>522.10</ele>
        <time>2012-05-05T12:01:15Z</time>
      </trkpt>
      <trkpt lat="42.546620000" lon="-2.604886000">
        <ele>520.90</ele>
        <time>2012-05-05T12:01:18Z</time>
      </trkpt>
      <trkpt lat="42.546596000" lon="-2.604799000">
        <ele>520.50</ele>
        <time>2012-05-05T12:01:20Z</time>
      </trkpt>
      <trkpt lat="42.546586000" lon="-2.604709000">
        <ele>520.10</ele>
        <time>2012-05-05T12:01:20Z</time>
      </trkpt>
      <trkpt lat="42.546588000" lon="-2.604616000">
        <ele>519.90</ele>
        <time>2012-05-05T12:01:22Z</time>
      </trkpt>
      <trkpt lat="42.546573000" lon="-2.604353000">
        <ele>518.90</ele>
        <time>2012-05-05T12:01:24Z</time>
      </trkpt>
      <trkpt lat="42.546538000" lon="-2.604283000">
        <ele>518.70</ele>
        <time>2012-05-05T12:01:25Z</time>
      </trkpt>
      <trkpt lat="42.546491000" lon="-2.604228000">
        <ele>518.50</ele>
        <time>2012-05-05T12:01:27Z</time>
      </trkpt>
      <trkpt lat="42.546076000" lon="-2.603898000">
        <ele>517.40</ele>
        <time>2012-05-05T12:01:34Z</time>
      </trkpt>
      <trkpt lat="42.545875000" lon="-2.603829000">
        <ele>517.40</ele>
        <time>2012-05-05T12:01:36Z</time>
      </trkpt>
      <trkpt lat="42.545741000" lon="-2.603823000">
        <ele>517.60</ele>
        <time>2012-05-05T12:01:38Z</time>
      </trkpt>
      <trkpt lat="42.545621000" lon="-2.603851000">
        <ele>517.70</ele>
        <time>2012-05-05T12:01:41Z</time>
      </trkpt>
      <trkpt lat="42.544933000" lon="-2.604244000">
        <ele>519.30</ele>
        <time>2012-05-05T12:01:57Z</time>
      </trkpt>
      <trkpt lat="42.544871000" lon="-2.604264000">
        <ele>519.60</ele>
        <time>2012-05-05T12:02:00Z</time>
      </trkpt>
      <trkpt lat="42.544831000" lon="-2.604269000">
        <ele>519.70</ele>
        <time>2012-05-05T12:02:02Z</time>
      </trkpt>
      <trkpt lat="42.544816000" lon="-2.604266000">
        <ele>519.80</ele>
        <time>2012-05-05T12:02:04Z</time>
      </trkpt>
      <trkpt lat="42.544800000" lon="-2.604258000">
        <ele>519.80</ele>
        <time>2012-05-05T12:02:04Z</time>
      </trkpt>
      <trkpt lat="42.544793000" lon="-2.604241000">
        <ele>519.70</ele>
        <time>2012-05-05T12:02:05Z</time>
      </trkpt>
      <trkpt lat="42.544790000" lon="-2.604218000">
        <ele>519.70</ele>
        <time>2012-05-05T12:02:07Z</time>
      </trkpt>
      <trkpt lat="42.544800000" lon="-2.604196000">
        <ele>519.50</ele>
        <time>2012-05-05T12:02:07Z</time>
      </trkpt>
      <trkpt lat="42.544853000" lon="-2.604138000">
        <ele>519.20</ele>
        <time>2012-05-05T12:02:09Z</time>
      </trkpt>
      <trkpt lat="42.544891000" lon="-2.604081000">
        <ele>518.90</ele>
        <time>2012-05-05T12:02:11Z</time>
      </trkpt>
      <trkpt lat="42.544925000" lon="-2.604006000">
        <ele>518.60</ele>
        <time>2012-05-05T12:02:11Z</time>
      </trkpt>
      <trkpt lat="42.545101000" lon="-2.603111000">
        <ele>514.00</ele>
        <time>2012-05-05T12:02:19Z</time>
      </trkpt>
      <trkpt lat="42.545106000" lon="-2.602849000">
        <ele>512.60</ele>
        <time>2012-05-05T12:02:21Z</time>
      </trkpt>
      <trkpt lat="42.545083000" lon="-2.602731000">
        <ele>512.20</ele>
        <time>2012-05-05T12:02:23Z</time>
      </trkpt>
      <trkpt lat="42.544938000" lon="-2.602353000">
        <ele>510.40</ele>
        <time>2012-05-05T12:02:26Z</time>
      </trkpt>
      <trkpt lat="42.544915000" lon="-2.602261000">
        <ele>510.10</ele>
        <time>2012-05-05T12:02:28Z</time>
      </trkpt>
      <trkpt lat="42.544903000" lon="-2.602171000">
        <ele>509.80</ele>
        <time>2012-05-05T12:02:28Z</time>
      </trkpt>
      <trkpt lat="42.544903000" lon="-2.602081000">
        <ele>509.60</ele>
        <time>2012-05-05T12:02:30Z</time>
      </trkpt>
      <trkpt lat="42.544953000" lon="-2.601818000">
        <ele>509.60</ele>
        <time>2012-05-05T12:02:33Z</time>
      </trkpt>
      <trkpt lat="42.545468000" lon="-2.600368000">
        <ele>517.90</ele>
        <time>2012-05-05T12:03:06Z</time>
      </trkpt>
      <trkpt lat="42.545473000" lon="-2.600346000">
        <ele>518.10</ele>
        <time>2012-05-05T12:03:08Z</time>
      </trkpt>
      <trkpt lat="42.545491000" lon="-2.600304000">
        <ele>518.30</ele>
        <time>2012-05-05T12:03:10Z</time>
      </trkpt>
      <trkpt lat="42.545566000" lon="-2.600013000">
        <ele>520.10</ele>
        <time>2012-05-05T12:03:20Z</time>
      </trkpt>
      <trkpt lat="42.545571000" lon="-2.599961000">
        <ele>520.40</ele>
        <time>2012-05-05T12:03:22Z</time>
      </trkpt>
      <trkpt lat="42.545578000" lon="-2.599939000">
        <ele>520.50</ele>
        <time>2012-05-05T12:03:24Z</time>
      </trkpt>
      <trkpt lat="42.545596000" lon="-2.599514000">
        <ele>523.30</ele>
        <time>2012-05-05T12:03:41Z</time>
      </trkpt>
      <trkpt lat="42.545600000" lon="-2.599489000">
        <ele>523.50</ele>
        <time>2012-05-05T12:03:41Z</time>
      </trkpt>
      <trkpt lat="42.545600000" lon="-2.599436000">
        <ele>523.70</ele>
        <time>2012-05-05T12:03:43Z</time>
      </trkpt>
      <trkpt lat="42.545655000" lon="-2.599066000">
        <ele>525.60</ele>
        <time>2012-05-05T12:03:57Z</time>
      </trkpt>
      <trkpt lat="42.545676000" lon="-2.599009000">
        <ele>526.10</ele>
        <time>2012-05-05T12:04:00Z</time>
      </trkpt>
      <trkpt lat="42.545680000" lon="-2.598988000">
        <ele>526.20</ele>
        <time>2012-05-05T12:04:02Z</time>
      </trkpt>
      <trkpt lat="42.545681000" lon="-2.598709000">
        <ele>527.50</ele>
        <time>2012-05-05T12:04:13Z</time>
      </trkpt>
      <trkpt lat="42.545678000" lon="-2.598278000">
        <ele>528.80</ele>
        <time>2012-05-05T12:04:25Z</time>
      </trkpt>
      <trkpt lat="42.545683000" lon="-2.598226000">
        <ele>528.90</ele>
        <time>2012-05-05T12:04:25Z</time>
      </trkpt>
      <trkpt lat="42.545753000" lon="-2.595606000">
        <ele>521.20</ele>
        <time>2012-05-05T12:04:53Z</time>
      </trkpt>
      <trkpt lat="42.545763000" lon="-2.595536000">
        <ele>520.80</ele>
        <time>2012-05-05T12:04:53Z</time>
      </trkpt>
      <trkpt lat="42.545783000" lon="-2.595479000">
        <ele>520.50</ele>
        <time>2012-05-05T12:04:54Z</time>
      </trkpt>
      <trkpt lat="42.545806000" lon="-2.595434000">
        <ele>520.30</ele>
        <time>2012-05-05T12:04:56Z</time>
      </trkpt>
      <trkpt lat="42.545835000" lon="-2.595396000">
        <ele>520.10</ele>
        <time>2012-05-05T12:04:56Z</time>
      </trkpt>
      <trkpt lat="42.546311000" lon="-2.594968000">
        <ele>521.00</ele>
        <time>2012-05-05T12:05:07Z</time>
      </trkpt>
      <trkpt lat="42.546493000" lon="-2.594728000">
        <ele>521.40</ele>
        <time>2012-05-05T12:05:14Z</time>
      </trkpt>
      <trkpt lat="42.546836000" lon="-2.593964000">
        <ele>523.40</ele>
        <time>2012-05-05T12:05:31Z</time>
      </trkpt>
      <trkpt lat="42.546860000" lon="-2.593928000">
        <ele>523.50</ele>
        <time>2012-05-05T12:05:33Z</time>
      </trkpt>
      <trkpt lat="42.547150000" lon="-2.593604000">
        <ele>524.50</ele>
        <time>2012-05-05T12:05:43Z</time>
      </trkpt>
      <trkpt lat="42.547176000" lon="-2.593566000">
        <ele>524.80</ele>
        <time>2012-05-05T12:05:43Z</time>
      </trkpt>
      <trkpt lat="42.547236000" lon="-2.593436000">
        <ele>525.50</ele>
        <time>2012-05-05T12:05:47Z</time>
      </trkpt>
      <trkpt lat="42.547270000" lon="-2.593294000">
        <ele>526.10</ele>
        <time>2012-05-05T12:05:50Z</time>
      </trkpt>
      <trkpt lat="42.547275000" lon="-2.593163000">
        <ele>526.50</ele>
        <time>2012-05-05T12:05:52Z</time>
      </trkpt>
      <trkpt lat="42.547228000" lon="-2.592946000">
        <ele>527.10</ele>
        <time>2012-05-05T12:05:59Z</time>
      </trkpt>
      <trkpt lat="42.547201000" lon="-2.592906000">
        <ele>527.20</ele>
        <time>2012-05-05T12:06:01Z</time>
      </trkpt>
      <trkpt lat="42.547113000" lon="-2.592791000">
        <ele>527.50</ele>
        <time>2012-05-05T12:06:08Z</time>
      </trkpt>
      <trkpt lat="42.547095000" lon="-2.592783000">
        <ele>527.60</ele>
        <time>2012-05-05T12:06:09Z</time>
      </trkpt>
      <trkpt lat="42.547061000" lon="-2.592784000">
        <ele>527.60</ele>
        <time>2012-05-05T12:06:09Z</time>
      </trkpt>
      <trkpt lat="42.547021000" lon="-2.592804000">
        <ele>527.60</ele>
        <time>2012-05-05T12:06:11Z</time>
      </trkpt>
      <trkpt lat="42.546926000" lon="-2.592893000">
        <ele>527.60</ele>
        <time>2012-05-05T12:06:13Z</time>
      </trkpt>
      <trkpt lat="42.546901000" lon="-2.592908000">
        <ele>527.60</ele>
        <time>2012-05-05T12:06:15Z</time>
      </trkpt>
      <trkpt lat="42.546860000" lon="-2.592913000">
        <ele>527.70</ele>
        <time>2012-05-05T12:06:16Z</time>
      </trkpt>
      <trkpt lat="42.546838000" lon="-2.592911000">
        <ele>527.80</ele>
        <time>2012-05-05T12:06:18Z</time>
      </trkpt>
      <trkpt lat="42.546828000" lon="-2.592906000">
        <ele>527.80</ele>
        <time>2012-05-05T12:06:18Z</time>
      </trkpt>
      <trkpt lat="42.546826000" lon="-2.592904000">
        <ele>527.90</ele>
        <time>2012-05-05T12:06:20Z</time>
      </trkpt>
      <trkpt lat="42.546816000" lon="-2.592904000">
        <ele>527.90</ele>
        <time>2012-05-05T12:06:25Z</time>
      </trkpt>
      <trkpt lat="42.546815000" lon="-2.592906000">
        <ele>528.00</ele>
        <time>2012-05-05T12:06:27Z</time>
      </trkpt>
      <trkpt lat="42.546805000" lon="-2.592916000">
        <ele>528.00</ele>
        <time>2012-05-05T12:06:29Z</time>
      </trkpt>
      <trkpt lat="42.546801000" lon="-2.592916000">
        <ele>528.00</ele>
        <time>2012-05-05T12:06:30Z</time>
      </trkpt>
      <trkpt lat="42.546800000" lon="-2.592918000">
        <ele>528.00</ele>
        <time>2012-05-05T12:06:30Z</time>
      </trkpt>
      <trkpt lat="42.546796000" lon="-2.592916000">
        <ele>528.00</ele>
        <time>2012-05-05T12:06:32Z</time>
      </trkpt>
      <trkpt lat="42.546796000" lon="-2.592918000">
        <ele>528.00</ele>
        <time>2012-05-05T12:06:34Z</time>
      </trkpt>
      <trkpt lat="42.546793000" lon="-2.592919000">
        <ele>528.00</ele>
        <time>2012-05-05T12:06:36Z</time>
      </trkpt>
      <trkpt lat="42.546786000" lon="-2.592926000">
        <ele>528.00</ele>
        <time>2012-05-05T12:06:51Z</time>
      </trkpt>
      <trkpt lat="42.546785000" lon="-2.592931000">
        <ele>528.00</ele>
        <time>2012-05-05T12:07:00Z</time>
      </trkpt>
      <trkpt lat="42.546785000" lon="-2.592933000">
        <ele>527.90</ele>
        <time>2012-05-05T12:07:02Z</time>
      </trkpt>
      <trkpt lat="42.546783000" lon="-2.592934000">
        <ele>527.90</ele>
        <time>2012-05-05T12:07:07Z</time>
      </trkpt>
      <trkpt lat="42.546783000" lon="-2.592939000">
        <ele>527.90</ele>
        <time>2012-05-05T12:07:17Z</time>
      </trkpt>
      <trkpt lat="42.546781000" lon="-2.592941000">
        <ele>527.90</ele>
        <time>2012-05-05T12:07:21Z</time>
      </trkpt>
      <trkpt lat="42.546783000" lon="-2.592941000">
        <ele>527.90</ele>
        <time>2012-05-05T12:07:24Z</time>
      </trkpt>
      <trkpt lat="42.546783000" lon="-2.592939000">
        <ele>527.90</ele>
        <time>2012-05-05T12:07:26Z</time>
      </trkpt>
      <trkpt lat="42.546786000" lon="-2.592939000">
        <ele>527.90</ele>
        <time>2012-05-05T12:07:30Z</time>
      </trkpt>
      <trkpt lat="42.546786000" lon="-2.592943000">
        <ele>527.90</ele>
        <time>2012-05-05T12:07:35Z</time>
      </trkpt>
      <trkpt lat="42.546788000" lon="-2.592943000">
        <ele>527.90</ele>
        <time>2012-05-05T12:07:38Z</time>
      </trkpt>
      <trkpt lat="42.546788000" lon="-2.592946000">
        <ele>527.90</ele>
        <time>2012-05-05T12:07:49Z</time>
      </trkpt>
      <trkpt lat="42.546790000" lon="-2.592946000">
        <ele>527.90</ele>
        <time>2012-05-05T12:07:54Z</time>
      </trkpt>
      <trkpt lat="42.546790000" lon="-2.592948000">
        <ele>527.90</ele>
        <time>2012-05-05T12:07:57Z</time>
      </trkpt>
      <trkpt lat="42.546795000" lon="-2.592954000">
        <ele>527.80</ele>
        <time>2012-05-05T12:08:03Z</time>
      </trkpt>
      <trkpt lat="42.546796000" lon="-2.592951000">
        <ele>527.80</ele>
        <time>2012-05-05T12:08:11Z</time>
      </trkpt>
      <trkpt lat="42.546795000" lon="-2.592961000">
        <ele>527.80</ele>
        <time>2012-05-05T12:08:32Z</time>
      </trkpt>
      <trkpt lat="42.546793000" lon="-2.592961000">
        <ele>527.80</ele>
        <time>2012-05-05T12:08:32Z</time>
      </trkpt>
      <trkpt lat="42.546793000" lon="-2.592963000">
        <ele>527.80</ele>
        <time>2012-05-05T12:08:41Z</time>
      </trkpt>
      <trkpt lat="42.546795000" lon="-2.592963000">
        <ele>527.80</ele>
        <time>2012-05-05T12:08:48Z</time>
      </trkpt>
      <trkpt lat="42.546795000" lon="-2.592966000">
        <ele>527.80</ele>
        <time>2012-05-05T12:08:55Z</time>
      </trkpt>
      <trkpt lat="42.546795000" lon="-2.592968000">
        <ele>527.70</ele>
        <time>2012-05-05T12:08:55Z</time>
      </trkpt>
      <trkpt lat="42.546796000" lon="-2.592973000">
        <ele>527.70</ele>
        <time>2012-05-05T12:08:58Z</time>
      </trkpt>
      <trkpt lat="42.546798000" lon="-2.592974000">
        <ele>527.70</ele>
        <time>2012-05-05T12:09:00Z</time>
      </trkpt>
      <trkpt lat="42.546798000" lon="-2.592978000">
        <ele>527.70</ele>
        <time>2012-05-05T12:09:04Z</time>
      </trkpt>
      <trkpt lat="42.546800000" lon="-2.592978000">
        <ele>527.70</ele>
        <time>2012-05-05T12:09:05Z</time>
      </trkpt>
      <trkpt lat="42.546801000" lon="-2.592983000">
        <ele>527.70</ele>
        <time>2012-05-05T12:09:09Z</time>
      </trkpt>
      <trkpt lat="42.546801000" lon="-2.592983000">
        <ele>527.70</ele>
        <time>2012-05-05T12:09:09Z</time>
      </trkpt>
      <trkpt lat="42.546801000" lon="-2.592986000">
        <ele>527.60</ele>
        <time>2012-05-05T12:09:16Z</time>
      </trkpt>
      <trkpt lat="42.546803000" lon="-2.592989000">
        <ele>527.60</ele>
        <time>2012-05-05T12:09:28Z</time>
      </trkpt>
      <trkpt lat="42.546803000" lon="-2.592988000">
        <ele>527.60</ele>
        <time>2012-05-05T12:09:30Z</time>
      </trkpt>
      <trkpt lat="42.546800000" lon="-2.592989000">
        <ele>527.60</ele>
        <time>2012-05-05T12:09:44Z</time>
      </trkpt>
      <trkpt lat="42.546800000" lon="-2.592983000">
        <ele>527.60</ele>
        <time>2012-05-05T12:09:47Z</time>
      </trkpt>
      <trkpt lat="42.546795000" lon="-2.592979000">
        <ele>527.70</ele>
        <time>2012-05-05T12:09:49Z</time>
      </trkpt>
      <trkpt lat="42.546665000" lon="-2.592866000">
        <ele>528.50</ele>
        <time>2012-05-05T12:09:56Z</time>
      </trkpt>
      <trkpt lat="42.546621000" lon="-2.592843000">
        <ele>528.70</ele>
        <time>2012-05-05T12:09:59Z</time>
      </trkpt>
      <trkpt lat="42.546543000" lon="-2.592826000">
        <ele>529.00</ele>
        <time>2012-05-05T12:10:01Z</time>
      </trkpt>
      <trkpt lat="42.546486000" lon="-2.592834000">
        <ele>529.20</ele>
        <time>2012-05-05T12:10:03Z</time>
      </trkpt>
      <trkpt lat="42.546236000" lon="-2.592946000">
        <ele>529.70</ele>
        <time>2012-05-05T12:10:13Z</time>
      </trkpt>
      <trkpt lat="42.546210000" lon="-2.592949000">
        <ele>529.70</ele>
        <time>2012-05-05T12:10:15Z</time>
      </trkpt>
      <trkpt lat="42.546183000" lon="-2.592948000">
        <ele>529.70</ele>
        <time>2012-05-05T12:10:15Z</time>
      </trkpt>
      <trkpt lat="42.546158000" lon="-2.592939000">
        <ele>529.70</ele>
        <time>2012-05-05T12:10:17Z</time>
      </trkpt>
      <trkpt lat="42.546135000" lon="-2.592924000">
        <ele>529.70</ele>
        <time>2012-05-05T12:10:17Z</time>
      </trkpt>
      <trkpt lat="42.546116000" lon="-2.592903000">
        <ele>529.80</ele>
        <time>2012-05-05T12:10:18Z</time>
      </trkpt>
      <trkpt lat="42.546105000" lon="-2.592879000">
        <ele>529.80</ele>
        <time>2012-05-05T12:10:20Z</time>
      </trkpt>
      <trkpt lat="42.546001000" lon="-2.592568000">
        <ele>530.30</ele>
        <time>2012-05-05T12:10:31Z</time>
      </trkpt>
      <trkpt lat="42.545851000" lon="-2.592248000">
        <ele>530.70</ele>
        <time>2012-05-05T12:10:41Z</time>
      </trkpt>
      <trkpt lat="42.545841000" lon="-2.592214000">
        <ele>530.70</ele>
        <time>2012-05-05T12:10:43Z</time>
      </trkpt>
      <trkpt lat="42.545601000" lon="-2.591416000">
        <ele>531.20</ele>
        <time>2012-05-05T12:11:02Z</time>
      </trkpt>
      <trkpt lat="42.545578000" lon="-2.591386000">
        <ele>531.20</ele>
        <time>2012-05-05T12:11:04Z</time>
      </trkpt>
      <trkpt lat="42.545551000" lon="-2.591363000">
        <ele>531.20</ele>
        <time>2012-05-05T12:11:04Z</time>
      </trkpt>
      <trkpt lat="42.545523000" lon="-2.591348000">
        <ele>531.10</ele>
        <time>2012-05-05T12:11:06Z</time>
      </trkpt>
      <trkpt lat="42.544015000" lon="-2.591404000">
        <ele>527.70</ele>
        <time>2012-05-05T12:11:39Z</time>
      </trkpt>
      <trkpt lat="42.543733000" lon="-2.591501000">
        <ele>527.30</ele>
        <time>2012-05-05T12:11:44Z</time>
      </trkpt>
      <trkpt lat="42.543691000" lon="-2.591526000">
        <ele>527.40</ele>
        <time>2012-05-05T12:11:46Z</time>
      </trkpt>
      <trkpt lat="42.542828000" lon="-2.591938000">
        <ele>533.50</ele>
        <time>2012-05-05T12:12:05Z</time>
      </trkpt>
      <trkpt lat="42.542748000" lon="-2.592006000">
        <ele>534.10</ele>
        <time>2012-05-05T12:12:06Z</time>
      </trkpt>
      <trkpt lat="42.542683000" lon="-2.592093000">
        <ele>534.60</ele>
        <time>2012-05-05T12:12:08Z</time>
      </trkpt>
      <trkpt lat="42.542543000" lon="-2.592388000">
        <ele>532.80</ele>
        <time>2012-05-05T12:12:15Z</time>
      </trkpt>
      <trkpt lat="42.542485000" lon="-2.592469000">
        <ele>532.30</ele>
        <time>2012-05-05T12:12:17Z</time>
      </trkpt>
      <trkpt lat="42.542211000" lon="-2.592753000">
        <ele>531.90</ele>
        <time>2012-05-05T12:12:24Z</time>
      </trkpt>
      <trkpt lat="42.541755000" lon="-2.593066000">
        <ele>531.20</ele>
        <time>2012-05-05T12:12:38Z</time>
      </trkpt>
      <trkpt lat="42.541693000" lon="-2.593133000">
        <ele>531.00</ele>
        <time>2012-05-05T12:12:40Z</time>
      </trkpt>
      <trkpt lat="42.541640000" lon="-2.593226000">
        <ele>530.60</ele>
        <time>2012-05-05T12:12:41Z</time>
      </trkpt>
      <trkpt lat="42.541435000" lon="-2.593773000">
        <ele>529.40</ele>
        <time>2012-05-05T12:12:48Z</time>
      </trkpt>
      <trkpt lat="42.541398000" lon="-2.593843000">
        <ele>529.30</ele>
        <time>2012-05-05T12:12:50Z</time>
      </trkpt>
      <trkpt lat="42.541353000" lon="-2.593888000">
        <ele>529.30</ele>
        <time>2012-05-05T12:12:50Z</time>
      </trkpt>
      <trkpt lat="42.541303000" lon="-2.593899000">
        <ele>529.50</ele>
        <time>2012-05-05T12:12:52Z</time>
      </trkpt>
      <trkpt lat="42.539840000" lon="-2.593503000">
        <ele>529.60</ele>
        <time>2012-05-05T12:13:18Z</time>
      </trkpt>
      <trkpt lat="42.539658000" lon="-2.593504000">
        <ele>528.40</ele>
        <time>2012-05-05T12:13:21Z</time>
      </trkpt>
      <trkpt lat="42.539536000" lon="-2.593536000">
        <ele>527.50</ele>
        <time>2012-05-05T12:13:23Z</time>
      </trkpt>
      <trkpt lat="42.539478000" lon="-2.593568000">
        <ele>527.00</ele>
        <time>2012-05-05T12:13:25Z</time>
      </trkpt>
      <trkpt lat="42.537325000" lon="-2.595416000">
        <ele>500.30</ele>
        <time>2012-05-05T12:13:51Z</time>
      </trkpt>
      <trkpt lat="42.537240000" lon="-2.595526000">
        <ele>499.90</ele>
        <time>2012-05-05T12:13:51Z</time>
      </trkpt>
      <trkpt lat="42.536568000" lon="-2.596146000">
        <ele>496.60</ele>
        <time>2012-05-05T12:14:00Z</time>
      </trkpt>
      <trkpt lat="42.536221000" lon="-2.596263000">
        <ele>496.10</ele>
        <time>2012-05-05T12:14:03Z</time>
      </trkpt>
      <trkpt lat="42.536136000" lon="-2.596309000">
        <ele>495.90</ele>
        <time>2012-05-05T12:14:05Z</time>
      </trkpt>
      <trkpt lat="42.535378000" lon="-2.596606000">
        <ele>494.10</ele>
        <time>2012-05-05T12:14:14Z</time>
      </trkpt>
      <trkpt lat="42.533911000" lon="-2.597658000">
        <ele>490.60</ele>
        <time>2012-05-05T12:14:36Z</time>
      </trkpt>
      <trkpt lat="42.533255000" lon="-2.597906000">
        <ele>489.80</ele>
        <time>2012-05-05T12:14:52Z</time>
      </trkpt>
      <trkpt lat="42.533246000" lon="-2.597906000">
        <ele>489.80</ele>
        <time>2012-05-05T12:14:52Z</time>
      </trkpt>
      <trkpt lat="42.533245000" lon="-2.597903000">
        <ele>489.80</ele>
        <time>2012-05-05T12:14:55Z</time>
      </trkpt>
      <trkpt lat="42.533245000" lon="-2.597901000">
        <ele>489.70</ele>
        <time>2012-05-05T12:14:57Z</time>
      </trkpt>
      <trkpt lat="42.533245000" lon="-2.597899000">
        <ele>489.70</ele>
        <time>2012-05-05T12:14:57Z</time>
      </trkpt>
      <trkpt lat="42.533235000" lon="-2.597899000">
        <ele>489.70</ele>
        <time>2012-05-05T12:15:02Z</time>
      </trkpt>
      <trkpt lat="42.533236000" lon="-2.597898000">
        <ele>489.70</ele>
        <time>2012-05-05T12:15:06Z</time>
      </trkpt>
      <trkpt lat="42.533235000" lon="-2.597889000">
        <ele>489.70</ele>
        <time>2012-05-05T12:15:11Z</time>
      </trkpt>
      <trkpt lat="42.533238000" lon="-2.597886000">
        <ele>489.70</ele>
        <time>2012-05-05T12:15:11Z</time>
      </trkpt>
      <trkpt lat="42.533246000" lon="-2.597884000">
        <ele>489.70</ele>
        <time>2012-05-05T12:15:13Z</time>
      </trkpt>
      <trkpt lat="42.533258000" lon="-2.597881000">
        <ele>489.80</ele>
        <time>2012-05-05T12:15:15Z</time>
      </trkpt>
      <trkpt lat="42.533275000" lon="-2.597881000">
        <ele>489.80</ele>
        <time>2012-05-05T12:15:16Z</time>
      </trkpt>
      <trkpt lat="42.533310000" lon="-2.597869000">
        <ele>489.90</ele>
        <time>2012-05-05T12:15:18Z</time>
      </trkpt>
      <trkpt lat="42.533330000" lon="-2.597858000">
        <ele>489.90</ele>
        <time>2012-05-05T12:15:18Z</time>
      </trkpt>
      <trkpt lat="42.534150000" lon="-2.597503000">
        <ele>490.50</ele>
        <time>2012-05-05T12:15:46Z</time>
      </trkpt>
      <trkpt lat="42.535008000" lon="-2.596853000">
        <ele>491.80</ele>
        <time>2012-05-05T12:16:16Z</time>
      </trkpt>
      <trkpt lat="42.535031000" lon="-2.596828000">
        <ele>491.90</ele>
        <time>2012-05-05T12:16:17Z</time>
      </trkpt>
      <trkpt lat="42.535098000" lon="-2.596731000">
        <ele>492.30</ele>
        <time>2012-05-05T12:16:19Z</time>
      </trkpt>
      <trkpt lat="42.535120000" lon="-2.596681000">
        <ele>492.40</ele>
        <time>2012-05-05T12:16:21Z</time>
      </trkpt>
      <trkpt lat="42.535126000" lon="-2.596618000">
        <ele>492.50</ele>
        <time>2012-05-05T12:16:21Z</time>
      </trkpt>
      <trkpt lat="42.535115000" lon="-2.596551000">
        <ele>492.50</ele>
        <time>2012-05-05T12:16:23Z</time>
      </trkpt>
      <trkpt lat="42.535023000" lon="-2.596304000">
        <ele>492.20</ele>
        <time>2012-05-05T12:16:26Z</time>
      </trkpt>
      <trkpt lat="42.534980000" lon="-2.596136000">
        <ele>492.10</ele>
        <time>2012-05-05T12:16:29Z</time>
      </trkpt>
      <trkpt lat="42.534878000" lon="-2.595921000">
        <ele>492.00</ele>
        <time>2012-05-05T12:16:35Z</time>
      </trkpt>
      <trkpt lat="42.534531000" lon="-2.594783000">
        <ele>495.60</ele>
        <time>2012-05-05T12:17:04Z</time>
      </trkpt>
      <trkpt lat="42.534516000" lon="-2.594718000">
        <ele>496.10</ele>
        <time>2012-05-05T12:17:06Z</time>
      </trkpt>
      <trkpt lat="42.534496000" lon="-2.594661000">
        <ele>496.50</ele>
        <time>2012-05-05T12:17:08Z</time>
      </trkpt>
      <trkpt lat="42.534456000" lon="-2.594588000">
        <ele>497.10</ele>
        <time>2012-05-05T12:17:11Z</time>
      </trkpt>
      <trkpt lat="42.534438000" lon="-2.594569000">
        <ele>497.30</ele>
        <time>2012-05-05T12:17:11Z</time>
      </trkpt>
      <trkpt lat="42.534420000" lon="-2.594556000">
        <ele>497.50</ele>
        <time>2012-05-05T12:17:13Z</time>
      </trkpt>
      <trkpt lat="42.534363000" lon="-2.594539000">
        <ele>497.90</ele>
        <time>2012-05-05T12:17:15Z</time>
      </trkpt>
      <trkpt lat="42.534241000" lon="-2.594513000">
        <ele>498.50</ele>
        <time>2012-05-05T12:17:22Z</time>
      </trkpt>
      <trkpt lat="42.534223000" lon="-2.594504000">
        <ele>498.60</ele>
        <time>2012-05-05T12:17:22Z</time>
      </trkpt>
      <trkpt lat="42.534145000" lon="-2.594438000">
        <ele>499.30</ele>
        <time>2012-05-05T12:17:27Z</time>
      </trkpt>
      <trkpt lat="42.534106000" lon="-2.594389000">
        <ele>499.70</ele>
        <time>2012-05-05T12:17:30Z</time>
      </trkpt>
      <trkpt lat="42.534088000" lon="-2.594354000">
        <ele>500.00</ele>
        <time>2012-05-05T12:17:32Z</time>
      </trkpt>
      <trkpt lat="42.534083000" lon="-2.594336000">
        <ele>500.10</ele>
        <time>2012-05-05T12:17:34Z</time>
      </trkpt>
      <trkpt lat="42.534085000" lon="-2.594318000">
        <ele>500.20</ele>
        <time>2012-05-05T12:17:34Z</time>
      </trkpt>
      <trkpt lat="42.534090000" lon="-2.594303000">
        <ele>500.30</ele>
        <time>2012-05-05T12:17:36Z</time>
      </trkpt>
      <trkpt lat="42.534126000" lon="-2.594223000">
        <ele>500.80</ele>
        <time>2012-05-05T12:17:41Z</time>
      </trkpt>
      <trkpt lat="42.534198000" lon="-2.594078000">
        <ele>501.60</ele>
        <time>2012-05-05T12:17:48Z</time>
      </trkpt>
      <trkpt lat="42.534231000" lon="-2.594031000">
        <ele>501.90</ele>
        <time>2012-05-05T12:17:51Z</time>
      </trkpt>
      <trkpt lat="42.534241000" lon="-2.594011000">
        <ele>502.00</ele>
        <time>2012-05-05T12:17:53Z</time>
      </trkpt>
      <trkpt lat="42.534253000" lon="-2.593964000">
        <ele>502.30</ele>
        <time>2012-05-05T12:17:55Z</time>
      </trkpt>
      <trkpt lat="42.534256000" lon="-2.593939000">
        <ele>502.40</ele>
        <time>2012-05-05T12:17:55Z</time>
      </trkpt>
      <trkpt lat="42.534310000" lon="-2.593799000">
        <ele>503.40</ele>
        <time>2012-05-05T12:18:02Z</time>
      </trkpt>
      <trkpt lat="42.534316000" lon="-2.593753000">
        <ele>503.70</ele>
        <time>2012-05-05T12:18:04Z</time>
      </trkpt>
      <trkpt lat="42.534318000" lon="-2.593711000">
        <ele>503.90</ele>
        <time>2012-05-05T12:18:05Z</time>
      </trkpt>
      <trkpt lat="42.534316000" lon="-2.593691000">
        <ele>504.00</ele>
        <time>2012-05-05T12:18:07Z</time>
      </trkpt>
      <trkpt lat="42.534313000" lon="-2.593674000">
        <ele>504.10</ele>
        <time>2012-05-05T12:18:07Z</time>
      </trkpt>
      <trkpt lat="42.534305000" lon="-2.593663000">
        <ele>504.20</ele>
        <time>2012-05-05T12:18:09Z</time>
      </trkpt>
      <trkpt lat="42.534295000" lon="-2.593656000">
        <ele>504.20</ele>
        <time>2012-05-05T12:18:09Z</time>
      </trkpt>
      <trkpt lat="42.534283000" lon="-2.593653000">
        <ele>504.20</ele>
        <time>2012-05-05T12:18:11Z</time>
      </trkpt>
      <trkpt lat="42.534273000" lon="-2.593646000">
        <ele>504.20</ele>
        <time>2012-05-05T12:18:12Z</time>
      </trkpt>
      <trkpt lat="42.534271000" lon="-2.593638000">
        <ele>504.30</ele>
        <time>2012-05-05T12:18:12Z</time>
      </trkpt>
      <trkpt lat="42.534270000" lon="-2.593634000">
        <ele>504.30</ele>
        <time>2012-05-05T12:18:19Z</time>
      </trkpt>
      <trkpt lat="42.534270000" lon="-2.593636000">
        <ele>504.30</ele>
        <time>2012-05-05T12:18:19Z</time>
      </trkpt>
      <trkpt lat="42.534270000" lon="-2.593634000">
        <ele>504.30</ele>
        <time>2012-05-05T12:18:21Z</time>
      </trkpt>
      <trkpt lat="42.534266000" lon="-2.593634000">
        <ele>504.30</ele>
        <time>2012-05-05T12:18:35Z</time>
      </trkpt>
      <trkpt lat="42.534265000" lon="-2.593636000">
        <ele>504.30</ele>
        <time>2012-05-05T12:18:37Z</time>
      </trkpt>
      <trkpt lat="42.534265000" lon="-2.593633000">
        <ele>504.30</ele>
        <time>2012-05-05T12:18:42Z</time>
      </trkpt>
      <trkpt lat="42.534260000" lon="-2.593634000">
        <ele>504.30</ele>
        <time>2012-05-05T12:18:54Z</time>
      </trkpt>
      <trkpt lat="42.534256000" lon="-2.593641000">
        <ele>504.30</ele>
        <time>2012-05-05T12:19:10Z</time>
      </trkpt>
      <trkpt lat="42.534258000" lon="-2.593641000">
        <ele>504.30</ele>
        <time>2012-05-05T12:19:12Z</time>
      </trkpt>
      <trkpt lat="42.534258000" lon="-2.593644000">
        <ele>504.30</ele>
        <time>2012-05-05T12:19:20Z</time>
      </trkpt>
      <trkpt lat="42.534260000" lon="-2.593644000">
        <ele>504.30</ele>
        <time>2012-05-05T12:19:22Z</time>
      </trkpt>
      <trkpt lat="42.534261000" lon="-2.593648000">
        <ele>504.30</ele>
        <time>2012-05-05T12:19:32Z</time>
      </trkpt>
      <trkpt lat="42.534255000" lon="-2.593654000">
        <ele>504.30</ele>
        <time>2012-05-05T12:19:34Z</time>
      </trkpt>
      <trkpt lat="42.534240000" lon="-2.593663000">
        <ele>504.20</ele>
        <time>2012-05-05T12:19:34Z</time>
      </trkpt>
      <trkpt lat="42.534221000" lon="-2.593679000">
        <ele>504.20</ele>
        <time>2012-05-05T12:19:36Z</time>
      </trkpt>
      <trkpt lat="42.534061000" lon="-2.593903000">
        <ele>503.30</ele>
        <time>2012-05-05T12:19:41Z</time>
      </trkpt>
      <trkpt lat="42.533863000" lon="-2.594021000">
        <ele>502.60</ele>
        <time>2012-05-05T12:19:46Z</time>
      </trkpt>
      <trkpt lat="42.533633000" lon="-2.594084000">
        <ele>502.50</ele>
        <time>2012-05-05T12:19:52Z</time>
      </trkpt>
      <trkpt lat="42.533390000" lon="-2.594078000">
        <ele>502.70</ele>
        <time>2012-05-05T12:19:57Z</time>
      </trkpt>
      <trkpt lat="42.533108000" lon="-2.594148000">
        <ele>502.50</ele>
        <time>2012-05-05T12:20:04Z</time>
      </trkpt>
      <trkpt lat="42.533078000" lon="-2.594144000">
        <ele>502.50</ele>
        <time>2012-05-05T12:20:06Z</time>
      </trkpt>
      <trkpt lat="42.533005000" lon="-2.594129000">
        <ele>502.60</ele>
        <time>2012-05-05T12:20:07Z</time>
      </trkpt>
      <trkpt lat="42.532668000" lon="-2.594231000">
        <ele>503.10</ele>
        <time>2012-05-05T12:20:16Z</time>
      </trkpt>
      <trkpt lat="42.532630000" lon="-2.594251000">
        <ele>503.20</ele>
        <time>2012-05-05T12:20:16Z</time>
      </trkpt>
      <trkpt lat="42.532156000" lon="-2.594663000">
        <ele>503.90</ele>
        <time>2012-05-05T12:20:32Z</time>
      </trkpt>
      <trkpt lat="42.532140000" lon="-2.594684000">
        <ele>504.00</ele>
        <time>2012-05-05T12:20:33Z</time>
      </trkpt>
      <trkpt lat="42.531896000" lon="-2.594859000">
        <ele>504.00</ele>
        <time>2012-05-05T12:20:40Z</time>
      </trkpt>
      <trkpt lat="42.531865000" lon="-2.594889000">
        <ele>503.90</ele>
        <time>2012-05-05T12:20:42Z</time>
      </trkpt>
      <trkpt lat="42.531673000" lon="-2.595179000">
        <ele>503.50</ele>
        <time>2012-05-05T12:20:51Z</time>
      </trkpt>
      <trkpt lat="42.531580000" lon="-2.595438000">
        <ele>503.30</ele>
        <time>2012-05-05T12:20:58Z</time>
      </trkpt>
      <trkpt lat="42.531561000" lon="-2.595518000">
        <ele>503.20</ele>
        <time>2012-05-05T12:21:00Z</time>
      </trkpt>
      <trkpt lat="42.531501000" lon="-2.595701000">
        <ele>502.90</ele>
        <time>2012-05-05T12:21:05Z</time>
      </trkpt>
      <trkpt lat="42.531488000" lon="-2.595724000">
        <ele>502.90</ele>
        <time>2012-05-05T12:21:06Z</time>
      </trkpt>
      <trkpt lat="42.531431000" lon="-2.595784000">
        <ele>503.10</ele>
        <time>2012-05-05T12:21:10Z</time>
      </trkpt>
      <trkpt lat="42.531415000" lon="-2.595796000">
        <ele>503.20</ele>
        <time>2012-05-05T12:21:12Z</time>
      </trkpt>
      <trkpt lat="42.531395000" lon="-2.595804000">
        <ele>503.30</ele>
        <time>2012-05-05T12:21:12Z</time>
      </trkpt>
      <trkpt lat="42.531373000" lon="-2.595808000">
        <ele>503.40</ele>
        <time>2012-05-05T12:21:13Z</time>
      </trkpt>
      <trkpt lat="42.531351000" lon="-2.595816000">
        <ele>503.50</ele>
        <time>2012-05-05T12:21:15Z</time>
      </trkpt>
      <trkpt lat="42.531301000" lon="-2.595843000">
        <ele>503.80</ele>
        <time>2012-05-05T12:21:17Z</time>
      </trkpt>
      <trkpt lat="42.531161000" lon="-2.595864000">
        <ele>504.40</ele>
        <time>2012-05-05T12:21:22Z</time>
      </trkpt>
      <trkpt lat="42.531126000" lon="-2.595876000">
        <ele>504.40</ele>
        <time>2012-05-05T12:21:24Z</time>
      </trkpt>
      <trkpt lat="42.530800000" lon="-2.595879000">
        <ele>504.40</ele>
        <time>2012-05-05T12:21:41Z</time>
      </trkpt>
      <trkpt lat="42.530706000" lon="-2.595861000">
        <ele>504.40</ele>
        <time>2012-05-05T12:21:48Z</time>
      </trkpt>
      <trkpt lat="42.530686000" lon="-2.595864000">
        <ele>504.40</ele>
        <time>2012-05-05T12:21:50Z</time>
      </trkpt>
      <trkpt lat="42.530626000" lon="-2.595896000">
        <ele>504.40</ele>
        <time>2012-05-05T12:21:52Z</time>
      </trkpt>
      <trkpt lat="42.530411000" lon="-2.595914000">
        <ele>504.40</ele>
        <time>2012-05-05T12:22:00Z</time>
      </trkpt>
      <trkpt lat="42.530188000" lon="-2.595913000">
        <ele>504.60</ele>
        <time>2012-05-05T12:22:09Z</time>
      </trkpt>
      <trkpt lat="42.530135000" lon="-2.595924000">
        <ele>504.60</ele>
        <time>2012-05-05T12:22:11Z</time>
      </trkpt>
      <trkpt lat="42.530053000" lon="-2.595966000">
        <ele>504.70</ele>
        <time>2012-05-05T12:22:13Z</time>
      </trkpt>
      <trkpt lat="42.529820000" lon="-2.596178000">
        <ele>504.80</ele>
        <time>2012-05-05T12:22:23Z</time>
      </trkpt>
      <trkpt lat="42.529790000" lon="-2.596193000">
        <ele>504.80</ele>
        <time>2012-05-05T12:22:23Z</time>
      </trkpt>
      <trkpt lat="42.529756000" lon="-2.596196000">
        <ele>504.80</ele>
        <time>2012-05-05T12:22:25Z</time>
      </trkpt>
      <trkpt lat="42.529488000" lon="-2.596013000">
        <ele>505.30</ele>
        <time>2012-05-05T12:22:32Z</time>
      </trkpt>
      <trkpt lat="42.529406000" lon="-2.595936000">
        <ele>505.60</ele>
        <time>2012-05-05T12:22:35Z</time>
      </trkpt>
      <trkpt lat="42.529345000" lon="-2.595901000">
        <ele>505.70</ele>
        <time>2012-05-05T12:22:37Z</time>
      </trkpt>
      <trkpt lat="42.529273000" lon="-2.595884000">
        <ele>505.90</ele>
        <time>2012-05-05T12:22:39Z</time>
      </trkpt>
      <trkpt lat="42.529131000" lon="-2.595919000">
        <ele>506.10</ele>
        <time>2012-05-05T12:22:44Z</time>
      </trkpt>
      <trkpt lat="42.529096000" lon="-2.595936000">
        <ele>506.20</ele>
        <time>2012-05-05T12:22:44Z</time>
      </trkpt>
      <trkpt lat="42.528881000" lon="-2.595981000">
        <ele>506.60</ele>
        <time>2012-05-05T12:22:51Z</time>
      </trkpt>
      <trkpt lat="42.528456000" lon="-2.595826000">
        <ele>506.50</ele>
        <time>2012-05-05T12:23:03Z</time>
      </trkpt>
      <trkpt lat="42.527566000" lon="-2.595233000">
        <ele>506.60</ele>
        <time>2012-05-05T12:23:26Z</time>
      </trkpt>
      <trkpt lat="42.527370000" lon="-2.595133000">
        <ele>506.80</ele>
        <time>2012-05-05T12:23:31Z</time>
      </trkpt>
      <trkpt lat="42.527345000" lon="-2.595113000">
        <ele>506.80</ele>
        <time>2012-05-05T12:23:33Z</time>
      </trkpt>
      <trkpt lat="42.527276000" lon="-2.595039000">
        <ele>506.90</ele>
        <time>2012-05-05T12:23:36Z</time>
      </trkpt>
      <trkpt lat="42.527196000" lon="-2.594908000">
        <ele>507.00</ele>
        <time>2012-05-05T12:23:38Z</time>
      </trkpt>
      <trkpt lat="42.526675000" lon="-2.593808000">
        <ele>505.60</ele>
        <time>2012-05-05T12:23:54Z</time>
      </trkpt>
      <trkpt lat="42.526643000" lon="-2.593759000">
        <ele>505.50</ele>
        <time>2012-05-05T12:23:55Z</time>
      </trkpt>
      <trkpt lat="42.525851000" lon="-2.592723000">
        <ele>505.80</ele>
        <time>2012-05-05T12:24:20Z</time>
      </trkpt>
      <trkpt lat="42.524986000" lon="-2.591354000">
        <ele>505.80</ele>
        <time>2012-05-05T12:24:51Z</time>
      </trkpt>
      <trkpt lat="42.524958000" lon="-2.591281000">
        <ele>505.50</ele>
        <time>2012-05-05T12:24:53Z</time>
      </trkpt>
      <trkpt lat="42.524951000" lon="-2.591246000">
        <ele>505.40</ele>
        <time>2012-05-05T12:24:55Z</time>
      </trkpt>
      <trkpt lat="42.524950000" lon="-2.591214000">
        <ele>505.30</ele>
        <time>2012-05-05T12:24:55Z</time>
      </trkpt>
      <trkpt lat="42.524953000" lon="-2.591179000">
        <ele>505.30</ele>
        <time>2012-05-05T12:24:56Z</time>
      </trkpt>
      <trkpt lat="42.524973000" lon="-2.591103000">
        <ele>505.10</ele>
        <time>2012-05-05T12:24:58Z</time>
      </trkpt>
      <trkpt lat="42.525058000" lon="-2.590861000">
        <ele>504.80</ele>
        <time>2012-05-05T12:25:05Z</time>
      </trkpt>
      <trkpt lat="42.525120000" lon="-2.590566000">
        <ele>504.60</ele>
        <time>2012-05-05T12:25:10Z</time>
      </trkpt>
      <trkpt lat="42.525118000" lon="-2.590386000">
        <ele>504.30</ele>
        <time>2012-05-05T12:25:12Z</time>
      </trkpt>
      <trkpt lat="42.525093000" lon="-2.590214000">
        <ele>504.10</ele>
        <time>2012-05-05T12:25:14Z</time>
      </trkpt>
      <trkpt lat="42.525071000" lon="-2.590136000">
        <ele>504.00</ele>
        <time>2012-05-05T12:25:14Z</time>
      </trkpt>
      <trkpt lat="42.525038000" lon="-2.590068000">
        <ele>503.90</ele>
        <time>2012-05-05T12:25:16Z</time>
      </trkpt>
      <trkpt lat="42.524996000" lon="-2.590006000">
        <ele>503.70</ele>
        <time>2012-05-05T12:25:17Z</time>
      </trkpt>
      <trkpt lat="42.524695000" lon="-2.589649000">
        <ele>502.00</ele>
        <time>2012-05-05T12:25:23Z</time>
      </trkpt>
      <trkpt lat="42.524385000" lon="-2.589111000">
        <ele>502.00</ele>
        <time>2012-05-05T12:25:31Z</time>
      </trkpt>
      <trkpt lat="42.524255000" lon="-2.588971000">
        <ele>502.40</ele>
        <time>2012-05-05T12:25:33Z</time>
      </trkpt>
      <trkpt lat="42.523868000" lon="-2.588724000">
        <ele>503.00</ele>
        <time>2012-05-05T12:25:42Z</time>
      </trkpt>
      <trkpt lat="42.523295000" lon="-2.588559000">
        <ele>503.70</ele>
        <time>2012-05-05T12:25:54Z</time>
      </trkpt>
      <trkpt lat="42.523216000" lon="-2.588511000">
        <ele>503.80</ele>
        <time>2012-05-05T12:25:56Z</time>
      </trkpt>
      <trkpt lat="42.522531000" lon="-2.587674000">
        <ele>502.80</ele>
        <time>2012-05-05T12:26:15Z</time>
      </trkpt>
      <trkpt lat="42.522498000" lon="-2.587613000">
        <ele>502.70</ele>
        <time>2012-05-05T12:26:17Z</time>
      </trkpt>
      <trkpt lat="42.522351000" lon="-2.587113000">
        <ele>501.10</ele>
        <time>2012-05-05T12:26:22Z</time>
      </trkpt>
      <trkpt lat="42.522356000" lon="-2.586043000">
        <ele>499.80</ele>
        <time>2012-05-05T12:26:34Z</time>
      </trkpt>
      <trkpt lat="42.522370000" lon="-2.585953000">
        <ele>499.70</ele>
        <time>2012-05-05T12:26:34Z</time>
      </trkpt>
      <trkpt lat="42.522430000" lon="-2.585699000">
        <ele>499.70</ele>
        <time>2012-05-05T12:26:37Z</time>
      </trkpt>
      <trkpt lat="42.522435000" lon="-2.585614000">
        <ele>499.60</ele>
        <time>2012-05-05T12:26:39Z</time>
      </trkpt>
      <trkpt lat="42.522426000" lon="-2.585533000">
        <ele>499.50</ele>
        <time>2012-05-05T12:26:39Z</time>
      </trkpt>
      <trkpt lat="42.522346000" lon="-2.585263000">
        <ele>499.10</ele>
        <time>2012-05-05T12:26:43Z</time>
      </trkpt>
      <trkpt lat="42.522321000" lon="-2.585203000">
        <ele>499.10</ele>
        <time>2012-05-05T12:26:44Z</time>
      </trkpt>
      <trkpt lat="42.522290000" lon="-2.585149000">
        <ele>499.10</ele>
        <time>2012-05-05T12:26:46Z</time>
      </trkpt>
      <trkpt lat="42.522251000" lon="-2.585108000">
        <ele>499.00</ele>
        <time>2012-05-05T12:26:46Z</time>
      </trkpt>
      <trkpt lat="42.522205000" lon="-2.585081000">
        <ele>498.90</ele>
        <time>2012-05-05T12:26:48Z</time>
      </trkpt>
      <trkpt lat="42.521868000" lon="-2.585043000">
        <ele>498.20</ele>
        <time>2012-05-05T12:26:55Z</time>
      </trkpt>
      <trkpt lat="42.521731000" lon="-2.584983000">
        <ele>498.10</ele>
        <time>2012-05-05T12:26:58Z</time>
      </trkpt>
      <trkpt lat="42.521065000" lon="-2.584444000">
        <ele>500.20</ele>
        <time>2012-05-05T12:27:14Z</time>
      </trkpt>
      <trkpt lat="42.520856000" lon="-2.584126000">
        <ele>501.20</ele>
        <time>2012-05-05T12:27:21Z</time>
      </trkpt>
      <trkpt lat="42.520833000" lon="-2.584079000">
        <ele>501.20</ele>
        <time>2012-05-05T12:27:21Z</time>
      </trkpt>
      <trkpt lat="42.520241000" lon="-2.583014000">
        <ele>500.90</ele>
        <time>2012-05-05T12:27:47Z</time>
      </trkpt>
      <trkpt lat="42.520176000" lon="-2.582873000">
        <ele>500.10</ele>
        <time>2012-05-05T12:27:52Z</time>
      </trkpt>
      <trkpt lat="42.520150000" lon="-2.582758000">
        <ele>500.00</ele>
        <time>2012-05-05T12:27:54Z</time>
      </trkpt>
      <trkpt lat="42.519980000" lon="-2.581961000">
        <ele>500.20</ele>
        <time>2012-05-05T12:28:05Z</time>
      </trkpt>
      <trkpt lat="42.519955000" lon="-2.581596000">
        <ele>502.30</ele>
        <time>2012-05-05T12:28:12Z</time>
      </trkpt>
      <trkpt lat="42.519938000" lon="-2.581516000">
        <ele>502.70</ele>
        <time>2012-05-05T12:28:13Z</time>
      </trkpt>
      <trkpt lat="42.519910000" lon="-2.581439000">
        <ele>503.00</ele>
        <time>2012-05-05T12:28:15Z</time>
      </trkpt>
      <trkpt lat="42.519891000" lon="-2.581404000">
        <ele>503.10</ele>
        <time>2012-05-05T12:28:17Z</time>
      </trkpt>
      <trkpt lat="42.519840000" lon="-2.581343000">
        <ele>503.10</ele>
        <time>2012-05-05T12:28:18Z</time>
      </trkpt>
      <trkpt lat="42.519776000" lon="-2.581294000">
        <ele>502.90</ele>
        <time>2012-05-05T12:28:20Z</time>
      </trkpt>
      <trkpt lat="42.519260000" lon="-2.581103000">
        <ele>501.90</ele>
        <time>2012-05-05T12:28:31Z</time>
      </trkpt>
      <trkpt lat="42.519215000" lon="-2.581096000">
        <ele>502.00</ele>
        <time>2012-05-05T12:28:32Z</time>
      </trkpt>
      <trkpt lat="42.518373000" lon="-2.581011000">
        <ele>502.20</ele>
        <time>2012-05-05T12:28:55Z</time>
      </trkpt>
      <trkpt lat="42.518211000" lon="-2.581058000">
        <ele>501.50</ele>
        <time>2012-05-05T12:28:59Z</time>
      </trkpt>
      <trkpt lat="42.518170000" lon="-2.581058000">
        <ele>501.40</ele>
        <time>2012-05-05T12:29:00Z</time>
      </trkpt>
      <trkpt lat="42.518103000" lon="-2.581034000">
        <ele>501.40</ele>
        <time>2012-05-05T12:29:02Z</time>
      </trkpt>
      <trkpt lat="42.517233000" lon="-2.580653000">
        <ele>511.60</ele>
        <time>2012-05-05T12:29:28Z</time>
      </trkpt>
      <trkpt lat="42.516855000" lon="-2.580584000">
        <ele>514.70</ele>
        <time>2012-05-05T12:29:40Z</time>
      </trkpt>
      <trkpt lat="42.516821000" lon="-2.580586000">
        <ele>514.70</ele>
        <time>2012-05-05T12:29:40Z</time>
      </trkpt>
      <trkpt lat="42.516111000" lon="-2.580543000">
        <ele>516.80</ele>
        <time>2012-05-05T12:30:05Z</time>
      </trkpt>
      <trkpt lat="42.515585000" lon="-2.580436000">
        <ele>517.60</ele>
        <time>2012-05-05T12:30:20Z</time>
      </trkpt>
      <trkpt lat="42.515421000" lon="-2.580351000">
        <ele>517.90</ele>
        <time>2012-05-05T12:30:26Z</time>
      </trkpt>
      <trkpt lat="42.515360000" lon="-2.580296000">
        <ele>518.00</ele>
        <time>2012-05-05T12:30:27Z</time>
      </trkpt>
      <trkpt lat="42.515213000" lon="-2.580151000">
        <ele>518.20</ele>
        <time>2012-05-05T12:30:33Z</time>
      </trkpt>
      <trkpt lat="42.514976000" lon="-2.580021000">
        <ele>518.40</ele>
        <time>2012-05-05T12:30:40Z</time>
      </trkpt>
      <trkpt lat="42.514565000" lon="-2.579888000">
        <ele>518.50</ele>
        <time>2012-05-05T12:30:52Z</time>
      </trkpt>
      <trkpt lat="42.514530000" lon="-2.579884000">
        <ele>518.50</ele>
        <time>2012-05-05T12:30:52Z</time>
      </trkpt>
      <trkpt lat="42.512261000" lon="-2.579583000">
        <ele>514.70</ele>
        <time>2012-05-05T12:31:37Z</time>
      </trkpt>
      <trkpt lat="42.512003000" lon="-2.579594000">
        <ele>514.70</ele>
        <time>2012-05-05T12:31:44Z</time>
      </trkpt>
      <trkpt lat="42.511783000" lon="-2.579683000">
        <ele>513.50</ele>
        <time>2012-05-05T12:31:49Z</time>
      </trkpt>
      <trkpt lat="42.511576000" lon="-2.579824000">
        <ele>512.30</ele>
        <time>2012-05-05T12:31:53Z</time>
      </trkpt>
      <trkpt lat="42.511511000" lon="-2.579853000">
        <ele>512.10</ele>
        <time>2012-05-05T12:31:53Z</time>
      </trkpt>
      <trkpt lat="42.510190000" lon="-2.579874000">
        <ele>503.80</ele>
        <time>2012-05-05T12:32:10Z</time>
      </trkpt>
      <trkpt lat="42.509950000" lon="-2.579941000">
        <ele>502.30</ele>
        <time>2012-05-05T12:32:14Z</time>
      </trkpt>
      <trkpt lat="42.509813000" lon="-2.580038000">
        <ele>501.50</ele>
        <time>2012-05-05T12:32:15Z</time>
      </trkpt>
      <trkpt lat="42.509556000" lon="-2.580363000">
        <ele>500.90</ele>
        <time>2012-05-05T12:32:21Z</time>
      </trkpt>
      <trkpt lat="42.509495000" lon="-2.580408000">
        <ele>501.10</ele>
        <time>2012-05-05T12:32:22Z</time>
      </trkpt>
      <trkpt lat="42.509426000" lon="-2.580433000">
        <ele>501.40</ele>
        <time>2012-05-05T12:32:22Z</time>
      </trkpt>
      <trkpt lat="42.509358000" lon="-2.580439000">
        <ele>501.70</ele>
        <time>2012-05-05T12:32:24Z</time>
      </trkpt>
      <trkpt lat="42.508985000" lon="-2.580339000">
        <ele>503.30</ele>
        <time>2012-05-05T12:32:29Z</time>
      </trkpt>
      <trkpt lat="42.508941000" lon="-2.580338000">
        <ele>503.50</ele>
        <time>2012-05-05T12:32:31Z</time>
      </trkpt>
      <trkpt lat="42.508906000" lon="-2.580346000">
        <ele>503.70</ele>
        <time>2012-05-05T12:32:31Z</time>
      </trkpt>
      <trkpt lat="42.508853000" lon="-2.580373000">
        <ele>504.10</ele>
        <time>2012-05-05T12:32:33Z</time>
      </trkpt>
      <trkpt lat="42.508761000" lon="-2.580406000">
        <ele>504.70</ele>
        <time>2012-05-05T12:32:38Z</time>
      </trkpt>
      <trkpt lat="42.508141000" lon="-2.580763000">
        <ele>511.40</ele>
        <time>2012-05-05T12:33:01Z</time>
      </trkpt>
      <trkpt lat="42.508113000" lon="-2.580773000">
        <ele>511.50</ele>
        <time>2012-05-05T12:33:01Z</time>
      </trkpt>
      <trkpt lat="42.507950000" lon="-2.580794000">
        <ele>513.20</ele>
        <time>2012-05-05T12:33:08Z</time>
      </trkpt>
      <trkpt lat="42.507851000" lon="-2.580744000">
        <ele>513.90</ele>
        <time>2012-05-05T12:33:11Z</time>
      </trkpt>
      <trkpt lat="42.507828000" lon="-2.580726000">
        <ele>514.00</ele>
        <time>2012-05-05T12:33:13Z</time>
      </trkpt>
      <trkpt lat="42.507691000" lon="-2.580551000">
        <ele>514.30</ele>
        <time>2012-05-05T12:33:20Z</time>
      </trkpt>
      <trkpt lat="42.507291000" lon="-2.579838000">
        <ele>512.30</ele>
        <time>2012-05-05T12:33:44Z</time>
      </trkpt>
      <trkpt lat="42.507221000" lon="-2.579754000">
        <ele>511.90</ele>
        <time>2012-05-05T12:33:48Z</time>
      </trkpt>
      <trkpt lat="42.507120000" lon="-2.579698000">
        <ele>511.70</ele>
        <time>2012-05-05T12:33:55Z</time>
      </trkpt>
      <trkpt lat="42.507058000" lon="-2.579683000">
        <ele>511.60</ele>
        <time>2012-05-05T12:33:58Z</time>
      </trkpt>
      <trkpt lat="42.506996000" lon="-2.579678000">
        <ele>511.00</ele>
        <time>2012-05-05T12:34:02Z</time>
      </trkpt>
      <trkpt lat="42.506983000" lon="-2.579679000">
        <ele>511.00</ele>
        <time>2012-05-05T12:34:03Z</time>
      </trkpt>
      <trkpt lat="42.506841000" lon="-2.579724000">
        <ele>509.90</ele>
        <time>2012-05-05T12:34:14Z</time>
      </trkpt>
      <trkpt lat="42.506016000" lon="-2.580441000">
        <ele>511.20</ele>
        <time>2012-05-05T12:34:57Z</time>
      </trkpt>
      <trkpt lat="42.505651000" lon="-2.580649000">
        <ele>511.90</ele>
        <time>2012-05-05T12:35:11Z</time>
      </trkpt>
      <trkpt lat="42.505625000" lon="-2.580674000">
        <ele>512.00</ele>
        <time>2012-05-05T12:35:13Z</time>
      </trkpt>
      <trkpt lat="42.505393000" lon="-2.581011000">
        <ele>513.60</ele>
        <time>2012-05-05T12:35:24Z</time>
      </trkpt>
      <trkpt lat="42.505258000" lon="-2.581228000">
        <ele>514.90</ele>
        <time>2012-05-05T12:35:30Z</time>
      </trkpt>
      <trkpt lat="42.505205000" lon="-2.581276000">
        <ele>515.00</ele>
        <time>2012-05-05T12:35:32Z</time>
      </trkpt>
      <trkpt lat="42.505116000" lon="-2.581323000">
        <ele>515.00</ele>
        <time>2012-05-05T12:35:36Z</time>
      </trkpt>
      <trkpt lat="42.504931000" lon="-2.581376000">
        <ele>514.60</ele>
        <time>2012-05-05T12:35:41Z</time>
      </trkpt>
      <trkpt lat="42.504606000" lon="-2.581636000">
        <ele>514.80</ele>
        <time>2012-05-05T12:35:51Z</time>
      </trkpt>
      <trkpt lat="42.504558000" lon="-2.581656000">
        <ele>515.00</ele>
        <time>2012-05-05T12:35:53Z</time>
      </trkpt>
      <trkpt lat="42.504501000" lon="-2.581663000">
        <ele>515.40</ele>
        <time>2012-05-05T12:35:53Z</time>
      </trkpt>
      <trkpt lat="42.504441000" lon="-2.581651000">
        <ele>515.90</ele>
        <time>2012-05-05T12:35:55Z</time>
      </trkpt>
      <trkpt lat="42.504386000" lon="-2.581623000">
        <ele>516.40</ele>
        <time>2012-05-05T12:35:55Z</time>
      </trkpt>
      <trkpt lat="42.504345000" lon="-2.581583000">
        <ele>516.80</ele>
        <time>2012-05-05T12:35:57Z</time>
      </trkpt>
      <trkpt lat="42.504281000" lon="-2.581478000">
        <ele>517.30</ele>
        <time>2012-05-05T12:36:00Z</time>
      </trkpt>
      <trkpt lat="42.504251000" lon="-2.581413000">
        <ele>517.30</ele>
        <time>2012-05-05T12:36:02Z</time>
      </trkpt>
      <trkpt lat="42.504230000" lon="-2.581378000">
        <ele>517.40</ele>
        <time>2012-05-05T12:36:02Z</time>
      </trkpt>
      <trkpt lat="42.503933000" lon="-2.580963000">
        <ele>519.20</ele>
        <time>2012-05-05T12:36:14Z</time>
      </trkpt>
      <trkpt lat="42.503916000" lon="-2.580924000">
        <ele>519.30</ele>
        <time>2012-05-05T12:36:14Z</time>
      </trkpt>
      <trkpt lat="42.503741000" lon="-2.580453000">
        <ele>519.20</ele>
        <time>2012-05-05T12:36:26Z</time>
      </trkpt>
      <trkpt lat="42.503408000" lon="-2.579908000">
        <ele>517.40</ele>
        <time>2012-05-05T12:36:40Z</time>
      </trkpt>
      <trkpt lat="42.503323000" lon="-2.579816000">
        <ele>516.20</ele>
        <time>2012-05-05T12:36:44Z</time>
      </trkpt>
      <trkpt lat="42.503218000" lon="-2.579748000">
        <ele>514.80</ele>
        <time>2012-05-05T12:36:47Z</time>
      </trkpt>
      <trkpt lat="42.503085000" lon="-2.579706000">
        <ele>513.40</ele>
        <time>2012-05-05T12:36:49Z</time>
      </trkpt>
      <trkpt lat="42.502973000" lon="-2.579701000">
        <ele>512.70</ele>
        <time>2012-05-05T12:36:52Z</time>
      </trkpt>
      <trkpt lat="42.502910000" lon="-2.579716000">
        <ele>512.60</ele>
        <time>2012-05-05T12:36:52Z</time>
      </trkpt>
      <trkpt lat="42.502528000" lon="-2.579911000">
        <ele>517.50</ele>
        <time>2012-05-05T12:36:58Z</time>
      </trkpt>
      <trkpt lat="42.502250000" lon="-2.579963000">
        <ele>520.40</ele>
        <time>2012-05-05T12:37:01Z</time>
      </trkpt>
      <trkpt lat="42.502083000" lon="-2.579939000">
        <ele>521.20</ele>
        <time>2012-05-05T12:37:03Z</time>
      </trkpt>
      <trkpt lat="42.502000000" lon="-2.579904000">
        <ele>521.60</ele>
        <time>2012-05-05T12:37:03Z</time>
      </trkpt>
      <trkpt lat="42.501921000" lon="-2.579851000">
        <ele>522.00</ele>
        <time>2012-05-05T12:37:05Z</time>
      </trkpt>
      <trkpt lat="42.501853000" lon="-2.579778000">
        <ele>522.10</ele>
        <time>2012-05-05T12:37:06Z</time>
      </trkpt>
      <trkpt lat="42.501801000" lon="-2.579684000">
        <ele>521.90</ele>
        <time>2012-05-05T12:37:06Z</time>
      </trkpt>
      <trkpt lat="42.501765000" lon="-2.579578000">
        <ele>521.30</ele>
        <time>2012-05-05T12:37:08Z</time>
      </trkpt>
      <trkpt lat="42.501748000" lon="-2.579463000">
        <ele>521.00</ele>
        <time>2012-05-05T12:37:08Z</time>
      </trkpt>
      <trkpt lat="42.501761000" lon="-2.578791000">
        <ele>517.80</ele>
        <time>2012-05-05T12:37:15Z</time>
      </trkpt>
      <trkpt lat="42.501751000" lon="-2.578679000">
        <ele>517.50</ele>
        <time>2012-05-05T12:37:15Z</time>
      </trkpt>
      <trkpt lat="42.501611000" lon="-2.578111000">
        <ele>516.00</ele>
        <time>2012-05-05T12:37:22Z</time>
      </trkpt>
      <trkpt lat="42.501543000" lon="-2.577976000">
        <ele>516.80</ele>
        <time>2012-05-05T12:37:24Z</time>
      </trkpt>
      <trkpt lat="42.501338000" lon="-2.577793000">
        <ele>521.50</ele>
        <time>2012-05-05T12:37:27Z</time>
      </trkpt>
      <trkpt lat="42.501176000" lon="-2.577568000">
        <ele>524.40</ele>
        <time>2012-05-05T12:37:31Z</time>
      </trkpt>
      <trkpt lat="42.500986000" lon="-2.577134000">
        <ele>525.00</ele>
        <time>2012-05-05T12:37:38Z</time>
      </trkpt>
      <trkpt lat="42.500951000" lon="-2.577019000">
        <ele>524.70</ele>
        <time>2012-05-05T12:37:41Z</time>
      </trkpt>
      <trkpt lat="42.500836000" lon="-2.576681000">
        <ele>524.70</ele>
        <time>2012-05-05T12:37:46Z</time>
      </trkpt>
      <trkpt lat="42.500783000" lon="-2.576346000">
        <ele>522.60</ele>
        <time>2012-05-05T12:37:52Z</time>
      </trkpt>
      <trkpt lat="42.500736000" lon="-2.575776000">
        <ele>514.00</ele>
        <time>2012-05-05T12:38:00Z</time>
      </trkpt>
      <trkpt lat="42.500720000" lon="-2.575701000">
        <ele>512.80</ele>
        <time>2012-05-05T12:38:00Z</time>
      </trkpt>
      <trkpt lat="42.500695000" lon="-2.575629000">
        <ele>511.80</ele>
        <time>2012-05-05T12:38:02Z</time>
      </trkpt>
      <trkpt lat="42.500573000" lon="-2.575439000">
        <ele>510.10</ele>
        <time>2012-05-05T12:38:04Z</time>
      </trkpt>
      <trkpt lat="42.500416000" lon="-2.575289000">
        <ele>508.90</ele>
        <time>2012-05-05T12:38:07Z</time>
      </trkpt>
      <trkpt lat="42.500231000" lon="-2.575188000">
        <ele>506.30</ele>
        <time>2012-05-05T12:38:11Z</time>
      </trkpt>
      <trkpt lat="42.499965000" lon="-2.575126000">
        <ele>504.20</ele>
        <time>2012-05-05T12:38:14Z</time>
      </trkpt>
      <trkpt lat="42.499378000" lon="-2.575101000">
        <ele>502.80</ele>
        <time>2012-05-05T12:38:23Z</time>
      </trkpt>
      <trkpt lat="42.499321000" lon="-2.575111000">
        <ele>502.70</ele>
        <time>2012-05-05T12:38:25Z</time>
      </trkpt>
      <trkpt lat="42.498838000" lon="-2.575211000">
        <ele>500.70</ele>
        <time>2012-05-05T12:38:33Z</time>
      </trkpt>
      <trkpt lat="42.498500000" lon="-2.575151000">
        <ele>495.80</ele>
        <time>2012-05-05T12:38:37Z</time>
      </trkpt>
      <trkpt lat="42.498235000" lon="-2.575063000">
        <ele>490.10</ele>
        <time>2012-05-05T12:38:42Z</time>
      </trkpt>
      <trkpt lat="42.497950000" lon="-2.575018000">
        <ele>485.10</ele>
        <time>2012-05-05T12:38:46Z</time>
      </trkpt>
      <trkpt lat="42.497868000" lon="-2.575019000">
        <ele>483.90</ele>
        <time>2012-05-05T12:38:47Z</time>
      </trkpt>
      <trkpt lat="42.497790000" lon="-2.575048000">
        <ele>482.80</ele>
        <time>2012-05-05T12:38:47Z</time>
      </trkpt>
      <trkpt lat="42.497730000" lon="-2.575098000">
        <ele>481.90</ele>
        <time>2012-05-05T12:38:49Z</time>
      </trkpt>
      <trkpt lat="42.497696000" lon="-2.575171000">
        <ele>481.40</ele>
        <time>2012-05-05T12:38:49Z</time>
      </trkpt>
      <trkpt lat="42.497660000" lon="-2.575358000">
        <ele>481.40</ele>
        <time>2012-05-05T12:38:51Z</time>
      </trkpt>
      <trkpt lat="42.497625000" lon="-2.575434000">
        <ele>481.50</ele>
        <time>2012-05-05T12:38:53Z</time>
      </trkpt>
      <trkpt lat="42.497570000" lon="-2.575479000">
        <ele>481.40</ele>
        <time>2012-05-05T12:38:54Z</time>
      </trkpt>
      <trkpt lat="42.497501000" lon="-2.575481000">
        <ele>480.90</ele>
        <time>2012-05-05T12:38:54Z</time>
      </trkpt>
      <trkpt lat="42.497430000" lon="-2.575449000">
        <ele>480.00</ele>
        <time>2012-05-05T12:38:56Z</time>
      </trkpt>
      <trkpt lat="42.497100000" lon="-2.575254000">
        <ele>474.20</ele>
        <time>2012-05-05T12:38:59Z</time>
      </trkpt>
      <trkpt lat="42.496118000" lon="-2.575058000">
        <ele>459.00</ele>
        <time>2012-05-05T12:39:08Z</time>
      </trkpt>
      <trkpt lat="42.495688000" lon="-2.575064000">
        <ele>451.90</ele>
        <time>2012-05-05T12:39:13Z</time>
      </trkpt>
      <trkpt lat="42.495586000" lon="-2.575044000">
        <ele>449.90</ele>
        <time>2012-05-05T12:39:15Z</time>
      </trkpt>
      <trkpt lat="42.495365000" lon="-2.574918000">
        <ele>446.30</ele>
        <time>2012-05-05T12:39:20Z</time>
      </trkpt>
      <trkpt lat="42.495330000" lon="-2.574881000">
        <ele>446.00</ele>
        <time>2012-05-05T12:39:22Z</time>
      </trkpt>
      <trkpt lat="42.495298000" lon="-2.574836000">
        <ele>445.80</ele>
        <time>2012-05-05T12:39:22Z</time>
      </trkpt>
      <trkpt lat="42.494976000" lon="-2.574143000">
        <ele>443.40</ele>
        <time>2012-05-05T12:39:33Z</time>
      </trkpt>
      <trkpt lat="42.494950000" lon="-2.574061000">
        <ele>443.30</ele>
        <time>2012-05-05T12:39:34Z</time>
      </trkpt>
      <trkpt lat="42.494700000" lon="-2.573223000">
        <ele>437.20</ele>
        <time>2012-05-05T12:39:48Z</time>
      </trkpt>
      <trkpt lat="42.494683000" lon="-2.573194000">
        <ele>436.90</ele>
        <time>2012-05-05T12:39:48Z</time>
      </trkpt>
      <trkpt lat="42.494665000" lon="-2.573179000">
        <ele>436.60</ele>
        <time>2012-05-05T12:39:50Z</time>
      </trkpt>
      <trkpt lat="42.494660000" lon="-2.573171000">
        <ele>436.40</ele>
        <time>2012-05-05T12:39:50Z</time>
      </trkpt>
      <trkpt lat="42.494660000" lon="-2.573168000">
        <ele>436.30</ele>
        <time>2012-05-05T12:39:52Z</time>
      </trkpt>
      <trkpt lat="42.494660000" lon="-2.573168000">
        <ele>436.30</ele>
        <time>2012-05-05T12:39:52Z</time>
      </trkpt>
      <trkpt lat="42.494660000" lon="-2.573166000">
        <ele>436.20</ele>
        <time>2012-05-05T12:39:55Z</time>
      </trkpt>
      <trkpt lat="42.494660000" lon="-2.573166000">
        <ele>436.20</ele>
        <time>2012-05-05T12:39:55Z</time>
      </trkpt>
      <trkpt lat="42.494661000" lon="-2.573169000">
        <ele>436.10</ele>
        <time>2012-05-05T12:40:06Z</time>
      </trkpt>
      <trkpt lat="42.494663000" lon="-2.573171000">
        <ele>436.20</ele>
        <time>2012-05-05T12:40:07Z</time>
      </trkpt>
      <trkpt lat="42.494665000" lon="-2.573171000">
        <ele>436.20</ele>
        <time>2012-05-05T12:40:09Z</time>
      </trkpt>
      <trkpt lat="42.494666000" lon="-2.573178000">
        <ele>436.20</ele>
        <time>2012-05-05T12:40:16Z</time>
      </trkpt>
      <trkpt lat="42.494668000" lon="-2.573179000">
        <ele>436.20</ele>
        <time>2012-05-05T12:40:16Z</time>
      </trkpt>
      <trkpt lat="42.494668000" lon="-2.573179000">
        <ele>436.20</ele>
        <time>2012-05-05T12:40:18Z</time>
      </trkpt>
      <trkpt lat="42.494668000" lon="-2.573183000">
        <ele>436.30</ele>
        <time>2012-05-05T12:40:25Z</time>
      </trkpt>
      <trkpt lat="42.494670000" lon="-2.573184000">
        <ele>436.30</ele>
        <time>2012-05-05T12:40:28Z</time>
      </trkpt>
      <trkpt lat="42.494671000" lon="-2.573176000">
        <ele>436.30</ele>
        <time>2012-05-05T12:41:00Z</time>
      </trkpt>
      <trkpt lat="42.494671000" lon="-2.573174000">
        <ele>436.20</ele>
        <time>2012-05-05T12:41:01Z</time>
      </trkpt>
      <trkpt lat="42.494670000" lon="-2.573163000">
        <ele>436.20</ele>
        <time>2012-05-05T12:41:28Z</time>
      </trkpt>
      <trkpt lat="42.494670000" lon="-2.573163000">
        <ele>436.20</ele>
        <time>2012-05-05T12:41:29Z</time>
      </trkpt>
      <trkpt lat="42.494670000" lon="-2.573161000">
        <ele>436.10</ele>
        <time>2012-05-05T12:41:29Z</time>
      </trkpt>
      <trkpt lat="42.494663000" lon="-2.573158000">
        <ele>436.10</ele>
        <time>2012-05-05T12:41:36Z</time>
      </trkpt>
      <trkpt lat="42.494661000" lon="-2.573154000">
        <ele>436.10</ele>
        <time>2012-05-05T12:41:43Z</time>
      </trkpt>
      <trkpt lat="42.494661000" lon="-2.573154000">
        <ele>436.10</ele>
        <time>2012-05-05T12:41:45Z</time>
      </trkpt>
      <trkpt lat="42.494658000" lon="-2.573154000">
        <ele>436.00</ele>
        <time>2012-05-05T12:42:06Z</time>
      </trkpt>
      <trkpt lat="42.494658000" lon="-2.573158000">
        <ele>436.00</ele>
        <time>2012-05-05T12:42:18Z</time>
      </trkpt>
      <trkpt lat="42.494656000" lon="-2.573158000">
        <ele>436.00</ele>
        <time>2012-05-05T12:42:23Z</time>
      </trkpt>
      <trkpt lat="42.494656000" lon="-2.573159000">
        <ele>436.00</ele>
        <time>2012-05-05T12:42:23Z</time>
      </trkpt>
      <trkpt lat="42.494656000" lon="-2.573159000">
        <ele>436.00</ele>
        <time>2012-05-05T12:42:25Z</time>
      </trkpt>
      <trkpt lat="42.494656000" lon="-2.573173000">
        <ele>436.10</ele>
        <time>2012-05-05T12:42:27Z</time>
      </trkpt>
      <trkpt lat="42.494658000" lon="-2.573173000">
        <ele>436.20</ele>
        <time>2012-05-05T12:42:37Z</time>
      </trkpt>
      <trkpt lat="42.494658000" lon="-2.573176000">
        <ele>436.20</ele>
        <time>2012-05-05T12:42:48Z</time>
      </trkpt>
      <trkpt lat="42.494656000" lon="-2.573176000">
        <ele>436.20</ele>
        <time>2012-05-05T12:42:49Z</time>
      </trkpt>
      <trkpt lat="42.494656000" lon="-2.573178000">
        <ele>436.20</ele>
        <time>2012-05-05T12:42:51Z</time>
      </trkpt>
      <trkpt lat="42.494660000" lon="-2.573179000">
        <ele>436.20</ele>
        <time>2012-05-05T12:43:07Z</time>
      </trkpt>
      <trkpt lat="42.494660000" lon="-2.573183000">
        <ele>436.20</ele>
        <time>2012-05-05T12:43:12Z</time>
      </trkpt>
      <trkpt lat="42.494658000" lon="-2.573184000">
        <ele>436.20</ele>
        <time>2012-05-05T12:43:17Z</time>
      </trkpt>
      <trkpt lat="42.494660000" lon="-2.573184000">
        <ele>436.20</ele>
        <time>2012-05-05T12:43:17Z</time>
      </trkpt>
      <trkpt lat="42.494661000" lon="-2.573184000">
        <ele>436.30</ele>
        <time>2012-05-05T12:43:19Z</time>
      </trkpt>
      <trkpt lat="42.494661000" lon="-2.573188000">
        <ele>436.30</ele>
        <time>2012-05-05T12:43:33Z</time>
      </trkpt>
      <trkpt lat="42.494665000" lon="-2.573189000">
        <ele>436.30</ele>
        <time>2012-05-05T12:43:40Z</time>
      </trkpt>
      <trkpt lat="42.494666000" lon="-2.573193000">
        <ele>436.30</ele>
        <time>2012-05-05T12:43:45Z</time>
      </trkpt>
      <trkpt lat="42.494666000" lon="-2.573194000">
        <ele>436.40</ele>
        <time>2012-05-05T12:43:50Z</time>
      </trkpt>
      <trkpt lat="42.494666000" lon="-2.573196000">
        <ele>436.40</ele>
        <time>2012-05-05T12:43:52Z</time>
      </trkpt>
      <trkpt lat="42.494665000" lon="-2.573194000">
        <ele>436.40</ele>
        <time>2012-05-05T12:43:59Z</time>
      </trkpt>
      <trkpt lat="42.494665000" lon="-2.573193000">
        <ele>436.30</ele>
        <time>2012-05-05T12:43:59Z</time>
      </trkpt>
      <trkpt lat="42.494660000" lon="-2.573183000">
        <ele>436.30</ele>
        <time>2012-05-05T12:44:06Z</time>
      </trkpt>
      <trkpt lat="42.494656000" lon="-2.573178000">
        <ele>436.20</ele>
        <time>2012-05-05T12:44:06Z</time>
      </trkpt>
      <trkpt lat="42.494655000" lon="-2.573174000">
        <ele>436.20</ele>
        <time>2012-05-05T12:44:08Z</time>
      </trkpt>
      <trkpt lat="42.494653000" lon="-2.573171000">
        <ele>436.20</ele>
        <time>2012-05-05T12:44:08Z</time>
      </trkpt>
      <trkpt lat="42.494651000" lon="-2.573168000">
        <ele>436.10</ele>
        <time>2012-05-05T12:44:10Z</time>
      </trkpt>
      <trkpt lat="42.494646000" lon="-2.573164000">
        <ele>436.10</ele>
        <time>2012-05-05T12:44:11Z</time>
      </trkpt>
      <trkpt lat="42.494645000" lon="-2.573161000">
        <ele>436.00</ele>
        <time>2012-05-05T12:44:13Z</time>
      </trkpt>
      <trkpt lat="42.494641000" lon="-2.573156000">
        <ele>436.00</ele>
        <time>2012-05-05T12:44:15Z</time>
      </trkpt>
      <trkpt lat="42.494640000" lon="-2.573153000">
        <ele>436.00</ele>
        <time>2012-05-05T12:44:15Z</time>
      </trkpt>
      <trkpt lat="42.494640000" lon="-2.573151000">
        <ele>435.90</ele>
        <time>2012-05-05T12:44:17Z</time>
      </trkpt>
      <trkpt lat="42.494635000" lon="-2.573139000">
        <ele>435.90</ele>
        <time>2012-05-05T12:44:20Z</time>
      </trkpt>
      <trkpt lat="42.494635000" lon="-2.573139000">
        <ele>435.90</ele>
        <time>2012-05-05T12:44:22Z</time>
      </trkpt>
      <trkpt lat="42.494631000" lon="-2.573133000">
        <ele>435.80</ele>
        <time>2012-05-05T12:44:25Z</time>
      </trkpt>
      <trkpt lat="42.494630000" lon="-2.573129000">
        <ele>435.70</ele>
        <time>2012-05-05T12:44:27Z</time>
      </trkpt>
      <trkpt lat="42.494625000" lon="-2.573123000">
        <ele>435.70</ele>
        <time>2012-05-05T12:44:29Z</time>
      </trkpt>
      <trkpt lat="42.494625000" lon="-2.573121000">
        <ele>435.60</ele>
        <time>2012-05-05T12:44:30Z</time>
      </trkpt>
      <trkpt lat="42.494621000" lon="-2.573118000">
        <ele>435.60</ele>
        <time>2012-05-05T12:44:34Z</time>
      </trkpt>
      <trkpt lat="42.494621000" lon="-2.573123000">
        <ele>435.60</ele>
        <time>2012-05-05T12:44:46Z</time>
      </trkpt>
      <trkpt lat="42.494625000" lon="-2.573124000">
        <ele>435.60</ele>
        <time>2012-05-05T12:44:50Z</time>
      </trkpt>
      <trkpt lat="42.494625000" lon="-2.573126000">
        <ele>435.60</ele>
        <time>2012-05-05T12:44:50Z</time>
      </trkpt>
      <trkpt lat="42.494625000" lon="-2.573128000">
        <ele>435.70</ele>
        <time>2012-05-05T12:44:51Z</time>
      </trkpt>
      <trkpt lat="42.494626000" lon="-2.573129000">
        <ele>435.70</ele>
        <time>2012-05-05T12:44:53Z</time>
      </trkpt>
      <trkpt lat="42.494626000" lon="-2.573133000">
        <ele>435.70</ele>
        <time>2012-05-05T12:44:55Z</time>
      </trkpt>
      <trkpt lat="42.494620000" lon="-2.573136000">
        <ele>435.70</ele>
        <time>2012-05-05T12:44:58Z</time>
      </trkpt>
      <trkpt lat="42.494620000" lon="-2.573138000">
        <ele>435.70</ele>
        <time>2012-05-05T12:45:00Z</time>
      </trkpt>
      <trkpt lat="42.494623000" lon="-2.573139000">
        <ele>435.70</ele>
        <time>2012-05-05T12:45:07Z</time>
      </trkpt>
      <trkpt lat="42.494621000" lon="-2.573141000">
        <ele>435.70</ele>
        <time>2012-05-05T12:45:09Z</time>
      </trkpt>
      <trkpt lat="42.494623000" lon="-2.573141000">
        <ele>435.80</ele>
        <time>2012-05-05T12:45:09Z</time>
      </trkpt>
      <trkpt lat="42.494623000" lon="-2.573144000">
        <ele>435.80</ele>
        <time>2012-05-05T12:45:12Z</time>
      </trkpt>
      <trkpt lat="42.494621000" lon="-2.573146000">
        <ele>435.80</ele>
        <time>2012-05-05T12:45:14Z</time>
      </trkpt>
      <trkpt lat="42.494621000" lon="-2.573154000">
        <ele>435.80</ele>
        <time>2012-05-05T12:45:23Z</time>
      </trkpt>
      <trkpt lat="42.494623000" lon="-2.573154000">
        <ele>435.80</ele>
        <time>2012-05-05T12:45:24Z</time>
      </trkpt>
      <trkpt lat="42.494621000" lon="-2.573156000">
        <ele>435.90</ele>
        <time>2012-05-05T12:45:26Z</time>
      </trkpt>
      <trkpt lat="42.494620000" lon="-2.573159000">
        <ele>435.90</ele>
        <time>2012-05-05T12:45:35Z</time>
      </trkpt>
      <trkpt lat="42.494621000" lon="-2.573163000">
        <ele>435.90</ele>
        <time>2012-05-05T12:45:40Z</time>
      </trkpt>
      <trkpt lat="42.494620000" lon="-2.573168000">
        <ele>435.90</ele>
        <time>2012-05-05T12:45:51Z</time>
      </trkpt>
      <trkpt lat="42.494621000" lon="-2.573169000">
        <ele>435.90</ele>
        <time>2012-05-05T12:45:54Z</time>
      </trkpt>
      <trkpt lat="42.494621000" lon="-2.573169000">
        <ele>435.90</ele>
        <time>2012-05-05T12:45:56Z</time>
      </trkpt>
      <trkpt lat="42.494621000" lon="-2.573171000">
        <ele>436.00</ele>
        <time>2012-05-05T12:45:59Z</time>
      </trkpt>
      <trkpt lat="42.494623000" lon="-2.573171000">
        <ele>436.00</ele>
        <time>2012-05-05T12:46:01Z</time>
      </trkpt>
      <trkpt lat="42.494626000" lon="-2.573174000">
        <ele>436.00</ele>
        <time>2012-05-05T12:46:06Z</time>
      </trkpt>
      <trkpt lat="42.494625000" lon="-2.573181000">
        <ele>436.00</ele>
        <time>2012-05-05T12:46:12Z</time>
      </trkpt>
      <trkpt lat="42.494623000" lon="-2.573183000">
        <ele>436.10</ele>
        <time>2012-05-05T12:46:13Z</time>
      </trkpt>
      <trkpt lat="42.494620000" lon="-2.573181000">
        <ele>436.00</ele>
        <time>2012-05-05T12:46:15Z</time>
      </trkpt>
      <trkpt lat="42.494611000" lon="-2.573176000">
        <ele>436.00</ele>
        <time>2012-05-05T12:46:15Z</time>
      </trkpt>
      <trkpt lat="42.494601000" lon="-2.573174000">
        <ele>436.00</ele>
        <time>2012-05-05T12:46:17Z</time>
      </trkpt>
      <trkpt lat="42.494578000" lon="-2.573189000">
        <ele>435.90</ele>
        <time>2012-05-05T12:46:18Z</time>
      </trkpt>
      <trkpt lat="42.494561000" lon="-2.573204000">
        <ele>435.80</ele>
        <time>2012-05-05T12:46:20Z</time>
      </trkpt>
      <trkpt lat="42.494553000" lon="-2.573208000">
        <ele>435.70</ele>
        <time>2012-05-05T12:46:22Z</time>
      </trkpt>
      <trkpt lat="42.494548000" lon="-2.573209000">
        <ele>435.70</ele>
        <time>2012-05-05T12:46:24Z</time>
      </trkpt>
      <trkpt lat="42.494546000" lon="-2.573211000">
        <ele>435.60</ele>
        <time>2012-05-05T12:46:25Z</time>
      </trkpt>
      <trkpt lat="42.494543000" lon="-2.573209000">
        <ele>435.60</ele>
        <time>2012-05-05T12:46:27Z</time>
      </trkpt>
      <trkpt lat="42.494543000" lon="-2.573208000">
        <ele>435.60</ele>
        <time>2012-05-05T12:46:29Z</time>
      </trkpt>
      <trkpt lat="42.494543000" lon="-2.573206000">
        <ele>435.50</ele>
        <time>2012-05-05T12:46:29Z</time>
      </trkpt>
      <trkpt lat="42.494543000" lon="-2.573204000">
        <ele>435.50</ele>
        <time>2012-05-05T12:46:31Z</time>
      </trkpt>
      <trkpt lat="42.494541000" lon="-2.573204000">
        <ele>435.50</ele>
        <time>2012-05-05T12:46:34Z</time>
      </trkpt>
      <trkpt lat="42.494543000" lon="-2.573204000">
        <ele>435.50</ele>
        <time>2012-05-05T12:46:36Z</time>
      </trkpt>
      <trkpt lat="42.494540000" lon="-2.573208000">
        <ele>435.50</ele>
        <time>2012-05-05T12:46:41Z</time>
      </trkpt>
      <trkpt lat="42.494541000" lon="-2.573209000">
        <ele>435.50</ele>
        <time>2012-05-05T12:46:43Z</time>
      </trkpt>
      <trkpt lat="42.494541000" lon="-2.573206000">
        <ele>435.50</ele>
        <time>2012-05-05T12:46:45Z</time>
      </trkpt>
      <trkpt lat="42.494543000" lon="-2.573204000">
        <ele>435.50</ele>
        <time>2012-05-05T12:46:46Z</time>
      </trkpt>
      <trkpt lat="42.494543000" lon="-2.573206000">
        <ele>435.50</ele>
        <time>2012-05-05T12:46:46Z</time>
      </trkpt>
      <trkpt lat="42.494546000" lon="-2.573206000">
        <ele>435.50</ele>
        <time>2012-05-05T12:46:48Z</time>
      </trkpt>
      <trkpt lat="42.494548000" lon="-2.573204000">
        <ele>435.60</ele>
        <time>2012-05-05T12:46:50Z</time>
      </trkpt>
      <trkpt lat="42.494550000" lon="-2.573204000">
        <ele>435.60</ele>
        <time>2012-05-05T12:46:53Z</time>
      </trkpt>
      <trkpt lat="42.494550000" lon="-2.573206000">
        <ele>435.60</ele>
        <time>2012-05-05T12:46:55Z</time>
      </trkpt>
      <trkpt lat="42.494551000" lon="-2.573203000">
        <ele>435.60</ele>
        <time>2012-05-05T12:46:57Z</time>
      </trkpt>
      <trkpt lat="42.494553000" lon="-2.573204000">
        <ele>435.60</ele>
        <time>2012-05-05T12:47:00Z</time>
      </trkpt>
      <trkpt lat="42.494555000" lon="-2.573204000">
        <ele>435.60</ele>
        <time>2012-05-05T12:47:00Z</time>
      </trkpt>
      <trkpt lat="42.494556000" lon="-2.573204000">
        <ele>435.70</ele>
        <time>2012-05-05T12:47:04Z</time>
      </trkpt>
      <trkpt lat="42.494561000" lon="-2.573203000">
        <ele>435.70</ele>
        <time>2012-05-05T12:47:14Z</time>
      </trkpt>
      <trkpt lat="42.494563000" lon="-2.573206000">
        <ele>435.70</ele>
        <time>2012-05-05T12:47:18Z</time>
      </trkpt>
      <trkpt lat="42.494563000" lon="-2.573206000">
        <ele>435.70</ele>
        <time>2012-05-05T12:47:18Z</time>
      </trkpt>
      <trkpt lat="42.494563000" lon="-2.573208000">
        <ele>435.80</ele>
        <time>2012-05-05T12:47:19Z</time>
      </trkpt>
      <trkpt lat="42.494566000" lon="-2.573209000">
        <ele>435.80</ele>
        <time>2012-05-05T12:47:23Z</time>
      </trkpt>
      <trkpt lat="42.494568000" lon="-2.573209000">
        <ele>435.90</ele>
        <time>2012-05-05T12:47:28Z</time>
      </trkpt>
      <trkpt lat="42.494568000" lon="-2.573208000">
        <ele>435.90</ele>
        <time>2012-05-05T12:47:30Z</time>
      </trkpt>
      <trkpt lat="42.494568000" lon="-2.573206000">
        <ele>435.80</ele>
        <time>2012-05-05T12:47:33Z</time>
      </trkpt>
      <trkpt lat="42.494568000" lon="-2.573204000">
        <ele>435.80</ele>
        <time>2012-05-05T12:47:35Z</time>
      </trkpt>
      <trkpt lat="42.494570000" lon="-2.573204000">
        <ele>435.80</ele>
        <time>2012-05-05T12:47:35Z</time>
      </trkpt>
      <trkpt lat="42.494571000" lon="-2.573201000">
        <ele>435.80</ele>
        <time>2012-05-05T12:47:40Z</time>
      </trkpt>
      <trkpt lat="42.494573000" lon="-2.573201000">
        <ele>435.90</ele>
        <time>2012-05-05T12:47:46Z</time>
      </trkpt>
      <trkpt lat="42.494573000" lon="-2.573199000">
        <ele>435.90</ele>
        <time>2012-05-05T12:47:47Z</time>
      </trkpt>
      <trkpt lat="42.494575000" lon="-2.573194000">
        <ele>435.80</ele>
        <time>2012-05-05T12:47:53Z</time>
      </trkpt>
      <trkpt lat="42.494573000" lon="-2.573191000">
        <ele>435.80</ele>
        <time>2012-05-05T12:47:54Z</time>
      </trkpt>
      <trkpt lat="42.494575000" lon="-2.573191000">
        <ele>435.80</ele>
        <time>2012-05-05T12:47:56Z</time>
      </trkpt>
      <trkpt lat="42.494576000" lon="-2.573189000">
        <ele>435.80</ele>
        <time>2012-05-05T12:48:01Z</time>
      </trkpt>
      <trkpt lat="42.494576000" lon="-2.573181000">
        <ele>435.80</ele>
        <time>2012-05-05T12:48:08Z</time>
      </trkpt>
      <trkpt lat="42.494576000" lon="-2.573193000">
        <ele>435.80</ele>
        <time>2012-05-05T12:48:17Z</time>
      </trkpt>
      <trkpt lat="42.494578000" lon="-2.573194000">
        <ele>435.90</ele>
        <time>2012-05-05T12:48:17Z</time>
      </trkpt>
      <trkpt lat="42.494578000" lon="-2.573201000">
        <ele>435.90</ele>
        <time>2012-05-05T12:48:24Z</time>
      </trkpt>
      <trkpt lat="42.494580000" lon="-2.573203000">
        <ele>435.90</ele>
        <time>2012-05-05T12:48:27Z</time>
      </trkpt>
      <trkpt lat="42.494580000" lon="-2.573203000">
        <ele>435.90</ele>
        <time>2012-05-05T12:48:29Z</time>
      </trkpt>
      <trkpt lat="42.494581000" lon="-2.573208000">
        <ele>436.00</ele>
        <time>2012-05-05T12:48:34Z</time>
      </trkpt>
      <trkpt lat="42.494583000" lon="-2.573209000">
        <ele>436.00</ele>
        <time>2012-05-05T12:48:36Z</time>
      </trkpt>
      <trkpt lat="42.494583000" lon="-2.573211000">
        <ele>436.10</ele>
        <time>2012-05-05T12:48:36Z</time>
      </trkpt>
      <trkpt lat="42.494583000" lon="-2.573213000">
        <ele>436.10</ele>
        <time>2012-05-05T12:48:38Z</time>
      </trkpt>
      <trkpt lat="42.494585000" lon="-2.573213000">
        <ele>436.10</ele>
        <time>2012-05-05T12:48:40Z</time>
      </trkpt>
      <trkpt lat="42.494585000" lon="-2.573209000">
        <ele>436.10</ele>
        <time>2012-05-05T12:48:47Z</time>
      </trkpt>
      <trkpt lat="42.494583000" lon="-2.573208000">
        <ele>436.10</ele>
        <time>2012-05-05T12:48:50Z</time>
      </trkpt>
      <trkpt lat="42.494583000" lon="-2.573206000">
        <ele>436.00</ele>
        <time>2012-05-05T12:48:55Z</time>
      </trkpt>
      <trkpt lat="42.494576000" lon="-2.573209000">
        <ele>436.00</ele>
        <time>2012-05-05T12:49:06Z</time>
      </trkpt>
      <trkpt lat="42.494576000" lon="-2.573211000">
        <ele>436.00</ele>
        <time>2012-05-05T12:49:07Z</time>
      </trkpt>
      <trkpt lat="42.494573000" lon="-2.573211000">
        <ele>436.00</ele>
        <time>2012-05-05T12:49:13Z</time>
      </trkpt>
      <trkpt lat="42.494573000" lon="-2.573213000">
        <ele>436.00</ele>
        <time>2012-05-05T12:49:16Z</time>
      </trkpt>
      <trkpt lat="42.494571000" lon="-2.573213000">
        <ele>435.90</ele>
        <time>2012-05-05T12:49:16Z</time>
      </trkpt>
      <trkpt lat="42.494571000" lon="-2.573209000">
        <ele>435.90</ele>
        <time>2012-05-05T12:49:18Z</time>
      </trkpt>
      <trkpt lat="42.494568000" lon="-2.573206000">
        <ele>435.90</ele>
        <time>2012-05-05T12:49:25Z</time>
      </trkpt>
      <trkpt lat="42.494568000" lon="-2.573206000">
        <ele>435.90</ele>
        <time>2012-05-05T12:49:27Z</time>
      </trkpt>
      <trkpt lat="42.494568000" lon="-2.573203000">
        <ele>435.80</ele>
        <time>2012-05-05T12:49:32Z</time>
      </trkpt>
      <trkpt lat="42.494570000" lon="-2.573203000">
        <ele>435.80</ele>
        <time>2012-05-05T12:49:35Z</time>
      </trkpt>
      <trkpt lat="42.494571000" lon="-2.573198000">
        <ele>435.80</ele>
        <time>2012-05-05T12:49:46Z</time>
      </trkpt>
      <trkpt lat="42.494573000" lon="-2.573198000">
        <ele>435.80</ele>
        <time>2012-05-05T12:49:49Z</time>
      </trkpt>
      <trkpt lat="42.494573000" lon="-2.573193000">
        <ele>435.80</ele>
        <time>2012-05-05T12:49:53Z</time>
      </trkpt>
      <trkpt lat="42.494575000" lon="-2.573191000">
        <ele>435.80</ele>
        <time>2012-05-05T12:49:56Z</time>
      </trkpt>
      <trkpt lat="42.494576000" lon="-2.573186000">
        <ele>435.80</ele>
        <time>2012-05-05T12:50:00Z</time>
      </trkpt>
      <trkpt lat="42.494575000" lon="-2.573183000">
        <ele>435.80</ele>
        <time>2012-05-05T12:50:00Z</time>
      </trkpt>
      <trkpt lat="42.494576000" lon="-2.573179000">
        <ele>435.80</ele>
        <time>2012-05-05T12:50:03Z</time>
      </trkpt>
      <trkpt lat="42.494578000" lon="-2.573178000">
        <ele>435.80</ele>
        <time>2012-05-05T12:50:05Z</time>
      </trkpt>
      <trkpt lat="42.494576000" lon="-2.573176000">
        <ele>435.80</ele>
        <time>2012-05-05T12:50:07Z</time>
      </trkpt>
      <trkpt lat="42.494576000" lon="-2.573176000">
        <ele>435.80</ele>
        <time>2012-05-05T12:50:07Z</time>
      </trkpt>
      <trkpt lat="42.494578000" lon="-2.573176000">
        <ele>435.70</ele>
        <time>2012-05-05T12:50:10Z</time>
      </trkpt>
      <trkpt lat="42.494578000" lon="-2.573171000">
        <ele>435.70</ele>
        <time>2012-05-05T12:50:14Z</time>
      </trkpt>
      <trkpt lat="42.494580000" lon="-2.573169000">
        <ele>435.70</ele>
        <time>2012-05-05T12:50:14Z</time>
      </trkpt>
      <trkpt lat="42.494576000" lon="-2.573164000">
        <ele>435.70</ele>
        <time>2012-05-05T12:50:17Z</time>
      </trkpt>
      <trkpt lat="42.494578000" lon="-2.573164000">
        <ele>435.70</ele>
        <time>2012-05-05T12:50:19Z</time>
      </trkpt>
      <trkpt lat="42.494576000" lon="-2.573164000">
        <ele>435.70</ele>
        <time>2012-05-05T12:50:22Z</time>
      </trkpt>
      <trkpt lat="42.494546000" lon="-2.573179000">
        <ele>435.50</ele>
        <time>2012-05-05T12:50:24Z</time>
      </trkpt>
      <trkpt lat="42.494451000" lon="-2.573196000">
        <ele>434.60</ele>
        <time>2012-05-05T12:50:29Z</time>
      </trkpt>
      <trkpt lat="42.494310000" lon="-2.573206000">
        <ele>433.00</ele>
        <time>2012-05-05T12:50:33Z</time>
      </trkpt>
      <trkpt lat="42.493980000" lon="-2.573291000">
        <ele>429.60</ele>
        <time>2012-05-05T12:50:40Z</time>
      </trkpt>
      <trkpt lat="42.493843000" lon="-2.573348000">
        <ele>428.30</ele>
        <time>2012-05-05T12:50:43Z</time>
      </trkpt>
      <trkpt lat="42.493793000" lon="-2.573386000">
        <ele>428.00</ele>
        <time>2012-05-05T12:50:43Z</time>
      </trkpt>
      <trkpt lat="42.493750000" lon="-2.573433000">
        <ele>427.80</ele>
        <time>2012-05-05T12:50:45Z</time>
      </trkpt>
      <trkpt lat="42.493615000" lon="-2.573716000">
        <ele>427.20</ele>
        <time>2012-05-05T12:50:50Z</time>
      </trkpt>
      <trkpt lat="42.493596000" lon="-2.573773000">
        <ele>427.30</ele>
        <time>2012-05-05T12:50:50Z</time>
      </trkpt>
      <trkpt lat="42.493430000" lon="-2.574259000">
        <ele>427.80</ele>
        <time>2012-05-05T12:50:59Z</time>
      </trkpt>
      <trkpt lat="42.492986000" lon="-2.574851000">
        <ele>424.60</ele>
        <time>2012-05-05T12:51:11Z</time>
      </trkpt>
      <trkpt lat="42.492606000" lon="-2.575268000">
        <ele>421.50</ele>
        <time>2012-05-05T12:51:20Z</time>
      </trkpt>
      <trkpt lat="42.492558000" lon="-2.575296000">
        <ele>421.40</ele>
        <time>2012-05-05T12:51:20Z</time>
      </trkpt>
      <trkpt lat="42.492506000" lon="-2.575309000">
        <ele>421.10</ele>
        <time>2012-05-05T12:51:22Z</time>
      </trkpt>
      <trkpt lat="42.492333000" lon="-2.575299000">
        <ele>420.10</ele>
        <time>2012-05-05T12:51:25Z</time>
      </trkpt>
      <trkpt lat="42.491755000" lon="-2.575438000">
        <ele>418.10</ele>
        <time>2012-05-05T12:51:32Z</time>
      </trkpt>
      <trkpt lat="42.491676000" lon="-2.575428000">
        <ele>417.80</ele>
        <time>2012-05-05T12:51:34Z</time>
      </trkpt>
      <trkpt lat="42.491606000" lon="-2.575389000">
        <ele>417.40</ele>
        <time>2012-05-05T12:51:34Z</time>
      </trkpt>
      <trkpt lat="42.491546000" lon="-2.575328000">
        <ele>416.70</ele>
        <time>2012-05-05T12:51:36Z</time>
      </trkpt>
      <trkpt lat="42.491500000" lon="-2.575249000">
        <ele>415.80</ele>
        <time>2012-05-05T12:51:37Z</time>
      </trkpt>
      <trkpt lat="42.491470000" lon="-2.575156000">
        <ele>414.60</ele>
        <time>2012-05-05T12:51:37Z</time>
      </trkpt>
      <trkpt lat="42.491460000" lon="-2.575053000">
        <ele>413.30</ele>
        <time>2012-05-05T12:51:39Z</time>
      </trkpt>
      <trkpt lat="42.491473000" lon="-2.574951000">
        <ele>412.00</ele>
        <time>2012-05-05T12:51:39Z</time>
      </trkpt>
      <trkpt lat="42.491508000" lon="-2.574854000">
        <ele>410.70</ele>
        <time>2012-05-05T12:51:41Z</time>
      </trkpt>
      <trkpt lat="42.491565000" lon="-2.574774000">
        <ele>409.80</ele>
        <time>2012-05-05T12:51:41Z</time>
      </trkpt>
      <trkpt lat="42.492370000" lon="-2.574048000">
        <ele>406.60</ele>
        <time>2012-05-05T12:51:51Z</time>
      </trkpt>
      <trkpt lat="42.492433000" lon="-2.573969000">
        <ele>406.50</ele>
        <time>2012-05-05T12:51:53Z</time>
      </trkpt>
      <trkpt lat="42.492623000" lon="-2.573683000">
        <ele>405.40</ele>
        <time>2012-05-05T12:51:56Z</time>
      </trkpt>
      <trkpt lat="42.492638000" lon="-2.573608000">
        <ele>404.70</ele>
        <time>2012-05-05T12:51:58Z</time>
      </trkpt>
      <trkpt lat="42.492633000" lon="-2.573526000">
        <ele>403.70</ele>
        <time>2012-05-05T12:51:58Z</time>
      </trkpt>
      <trkpt lat="42.492611000" lon="-2.573443000">
        <ele>402.50</ele>
        <time>2012-05-05T12:52:00Z</time>
      </trkpt>
      <trkpt lat="42.491621000" lon="-2.571719000">
        <ele>391.40</ele>
        <time>2012-05-05T12:52:23Z</time>
      </trkpt>
      <trkpt lat="42.491358000" lon="-2.571416000">
        <ele>391.70</ele>
        <time>2012-05-05T12:52:28Z</time>
      </trkpt>
      <trkpt lat="42.491141000" lon="-2.571258000">
        <ele>392.00</ele>
        <time>2012-05-05T12:52:31Z</time>
      </trkpt>
      <trkpt lat="42.490863000" lon="-2.571143000">
        <ele>392.30</ele>
        <time>2012-05-05T12:52:36Z</time>
      </trkpt>
      <trkpt lat="42.489570000" lon="-2.571026000">
        <ele>393.20</ele>
        <time>2012-05-05T12:52:59Z</time>
      </trkpt>
      <trkpt lat="42.489523000" lon="-2.571009000">
        <ele>393.40</ele>
        <time>2012-05-05T12:53:01Z</time>
      </trkpt>
      <trkpt lat="42.489126000" lon="-2.570714000">
        <ele>397.70</ele>
        <time>2012-05-05T12:53:11Z</time>
      </trkpt>
      <trkpt lat="42.488771000" lon="-2.570293000">
        <ele>403.50</ele>
        <time>2012-05-05T12:53:22Z</time>
      </trkpt>
      <trkpt lat="42.488563000" lon="-2.570153000">
        <ele>406.30</ele>
        <time>2012-05-05T12:53:27Z</time>
      </trkpt>
      <trkpt lat="42.488156000" lon="-2.570049000">
        <ele>410.00</ele>
        <time>2012-05-05T12:53:41Z</time>
      </trkpt>
      <trkpt lat="42.488143000" lon="-2.570043000">
        <ele>410.40</ele>
        <time>2012-05-05T12:53:43Z</time>
      </trkpt>
      <trkpt lat="42.487773000" lon="-2.569956000">
        <ele>412.80</ele>
        <time>2012-05-05T12:53:55Z</time>
      </trkpt>
      <trkpt lat="42.485685000" lon="-2.569086000">
        <ele>415.80</ele>
        <time>2012-05-05T12:54:52Z</time>
      </trkpt>
      <trkpt lat="42.485641000" lon="-2.569076000">
        <ele>415.70</ele>
        <time>2012-05-05T12:54:52Z</time>
      </trkpt>
      <trkpt lat="42.482755000" lon="-2.568586000">
        <ele>417.20</ele>
        <time>2012-05-05T12:56:00Z</time>
      </trkpt>
      <trkpt lat="42.482298000" lon="-2.568433000">
        <ele>418.10</ele>
        <time>2012-05-05T12:56:16Z</time>
      </trkpt>
      <trkpt lat="42.482248000" lon="-2.568403000">
        <ele>418.20</ele>
        <time>2012-05-05T12:56:18Z</time>
      </trkpt>
      <trkpt lat="42.480241000" lon="-2.567403000">
        <ele>417.70</ele>
        <time>2012-05-05T12:57:19Z</time>
      </trkpt>
      <trkpt lat="42.480206000" lon="-2.567378000">
        <ele>417.80</ele>
        <time>2012-05-05T12:57:20Z</time>
      </trkpt>
      <trkpt lat="42.478021000" lon="-2.565736000">
        <ele>422.40</ele>
        <time>2012-05-05T12:58:28Z</time>
      </trkpt>
      <trkpt lat="42.477861000" lon="-2.565614000">
        <ele>423.00</ele>
        <time>2012-05-05T12:58:37Z</time>
      </trkpt>
      <trkpt lat="42.477840000" lon="-2.565608000">
        <ele>423.00</ele>
        <time>2012-05-05T12:58:42Z</time>
      </trkpt>
      <trkpt lat="42.477840000" lon="-2.565604000">
        <ele>423.00</ele>
        <time>2012-05-05T12:58:46Z</time>
      </trkpt>
      <trkpt lat="42.477831000" lon="-2.565611000">
        <ele>423.00</ele>
        <time>2012-05-05T12:58:51Z</time>
      </trkpt>
      <trkpt lat="42.477830000" lon="-2.565611000">
        <ele>423.10</ele>
        <time>2012-05-05T12:58:51Z</time>
      </trkpt>
      <trkpt lat="42.477826000" lon="-2.565611000">
        <ele>423.10</ele>
        <time>2012-05-05T12:58:53Z</time>
      </trkpt>
      <trkpt lat="42.477828000" lon="-2.565611000">
        <ele>423.10</ele>
        <time>2012-05-05T12:58:56Z</time>
      </trkpt>
      <trkpt lat="42.477826000" lon="-2.565611000">
        <ele>423.10</ele>
        <time>2012-05-05T12:58:56Z</time>
      </trkpt>
      <trkpt lat="42.477825000" lon="-2.565609000">
        <ele>423.10</ele>
        <time>2012-05-05T12:59:07Z</time>
      </trkpt>
      <trkpt lat="42.477823000" lon="-2.565609000">
        <ele>423.10</ele>
        <time>2012-05-05T12:59:08Z</time>
      </trkpt>
      <trkpt lat="42.477823000" lon="-2.565611000">
        <ele>423.10</ele>
        <time>2012-05-05T12:59:10Z</time>
      </trkpt>
      <trkpt lat="42.477818000" lon="-2.565611000">
        <ele>423.10</ele>
        <time>2012-05-05T12:59:24Z</time>
      </trkpt>
      <trkpt lat="42.477818000" lon="-2.565613000">
        <ele>423.10</ele>
        <time>2012-05-05T12:59:26Z</time>
      </trkpt>
      <trkpt lat="42.477818000" lon="-2.565611000">
        <ele>423.10</ele>
        <time>2012-05-05T12:59:26Z</time>
      </trkpt>
      <trkpt lat="42.477818000" lon="-2.565613000">
        <ele>423.10</ele>
        <time>2012-05-05T12:59:31Z</time>
      </trkpt>
      <trkpt lat="42.477818000" lon="-2.565611000">
        <ele>423.10</ele>
        <time>2012-05-05T12:59:36Z</time>
      </trkpt>
      <trkpt lat="42.477818000" lon="-2.565613000">
        <ele>423.10</ele>
        <time>2012-05-05T12:59:40Z</time>
      </trkpt>
      <trkpt lat="42.477818000" lon="-2.565611000">
        <ele>423.10</ele>
        <time>2012-05-05T12:59:41Z</time>
      </trkpt>
      <trkpt lat="42.477818000" lon="-2.565613000">
        <ele>423.10</ele>
        <time>2012-05-05T12:59:43Z</time>
      </trkpt>
      <trkpt lat="42.477821000" lon="-2.565614000">
        <ele>423.10</ele>
        <time>2012-05-05T12:59:57Z</time>
      </trkpt>
      <trkpt lat="42.477820000" lon="-2.565613000">
        <ele>423.10</ele>
        <time>2012-05-05T13:00:01Z</time>
      </trkpt>
      <trkpt lat="42.477808000" lon="-2.565616000">
        <ele>423.10</ele>
        <time>2012-05-05T13:00:06Z</time>
      </trkpt>
      <trkpt lat="42.477801000" lon="-2.565611000">
        <ele>423.10</ele>
        <time>2012-05-05T13:00:08Z</time>
      </trkpt>
      <trkpt lat="42.477800000" lon="-2.565606000">
        <ele>423.10</ele>
        <time>2012-05-05T13:00:11Z</time>
      </trkpt>
      <trkpt lat="42.477803000" lon="-2.565608000">
        <ele>423.10</ele>
        <time>2012-05-05T13:00:13Z</time>
      </trkpt>
      <trkpt lat="42.477808000" lon="-2.565594000">
        <ele>423.10</ele>
        <time>2012-05-05T13:00:15Z</time>
      </trkpt>
      <trkpt lat="42.477816000" lon="-2.565584000">
        <ele>423.10</ele>
        <time>2012-05-05T13:00:16Z</time>
      </trkpt>
      <trkpt lat="42.477855000" lon="-2.565561000">
        <ele>423.00</ele>
        <time>2012-05-05T13:00:18Z</time>
      </trkpt>
      <trkpt lat="42.477870000" lon="-2.565556000">
        <ele>423.00</ele>
        <time>2012-05-05T13:00:20Z</time>
      </trkpt>
      <trkpt lat="42.477888000" lon="-2.565556000">
        <ele>423.00</ele>
        <time>2012-05-05T13:00:23Z</time>
      </trkpt>
      <trkpt lat="42.477888000" lon="-2.565554000">
        <ele>423.00</ele>
        <time>2012-05-05T13:00:23Z</time>
      </trkpt>
      <trkpt lat="42.477893000" lon="-2.565549000">
        <ele>423.00</ele>
        <time>2012-05-05T13:00:34Z</time>
      </trkpt>
      <trkpt lat="42.477896000" lon="-2.565549000">
        <ele>423.00</ele>
        <time>2012-05-05T13:00:41Z</time>
      </trkpt>
      <trkpt lat="42.477895000" lon="-2.565546000">
        <ele>423.00</ele>
        <time>2012-05-05T13:01:05Z</time>
      </trkpt>
      <trkpt lat="42.477898000" lon="-2.565549000">
        <ele>423.00</ele>
        <time>2012-05-05T13:01:23Z</time>
      </trkpt>
      <trkpt lat="42.477900000" lon="-2.565558000">
        <ele>423.00</ele>
        <time>2012-05-05T13:01:28Z</time>
      </trkpt>
      <trkpt lat="42.477898000" lon="-2.565568000">
        <ele>423.00</ele>
        <time>2012-05-05T13:01:28Z</time>
      </trkpt>
      <trkpt lat="42.477890000" lon="-2.565579000">
        <ele>423.00</ele>
        <time>2012-05-05T13:01:29Z</time>
      </trkpt>
      <trkpt lat="42.477876000" lon="-2.565584000">
        <ele>423.00</ele>
        <time>2012-05-05T13:01:31Z</time>
      </trkpt>
      <trkpt lat="42.477858000" lon="-2.565584000">
        <ele>423.00</ele>
        <time>2012-05-05T13:01:31Z</time>
      </trkpt>
      <trkpt lat="42.477835000" lon="-2.565578000">
        <ele>423.00</ele>
        <time>2012-05-05T13:01:33Z</time>
      </trkpt>
      <trkpt lat="42.477756000" lon="-2.565534000">
        <ele>423.10</ele>
        <time>2012-05-05T13:01:35Z</time>
      </trkpt>
      <trkpt lat="42.476013000" lon="-2.564191000">
        <ele>422.70</ele>
        <time>2012-05-05T13:02:25Z</time>
      </trkpt>
      <trkpt lat="42.470531000" lon="-2.561973000">
        <ele>428.50</ele>
        <time>2012-05-05T13:04:27Z</time>
      </trkpt>
      <trkpt lat="42.470491000" lon="-2.561948000">
        <ele>428.60</ele>
        <time>2012-05-05T13:04:29Z</time>
      </trkpt>
      <trkpt lat="42.468571000" lon="-2.560849000">
        <ele>433.20</ele>
        <time>2012-05-05T13:05:12Z</time>
      </trkpt>
      <trkpt lat="42.468525000" lon="-2.560854000">
        <ele>433.30</ele>
        <time>2012-05-05T13:05:14Z</time>
      </trkpt>
      <trkpt lat="42.468476000" lon="-2.560873000">
        <ele>433.30</ele>
        <time>2012-05-05T13:05:14Z</time>
      </trkpt>
      <trkpt lat="42.468431000" lon="-2.560901000">
        <ele>433.40</ele>
        <time>2012-05-05T13:05:16Z</time>
      </trkpt>
      <trkpt lat="42.468158000" lon="-2.561166000">
        <ele>434.20</ele>
        <time>2012-05-05T13:05:23Z</time>
      </trkpt>
      <trkpt lat="42.467888000" lon="-2.561271000">
        <ele>434.90</ele>
        <time>2012-05-05T13:05:28Z</time>
      </trkpt>
      <trkpt lat="42.467841000" lon="-2.561279000">
        <ele>434.90</ele>
        <time>2012-05-05T13:05:30Z</time>
      </trkpt>
      <trkpt lat="42.467110000" lon="-2.561333000">
        <ele>435.90</ele>
        <time>2012-05-05T13:05:44Z</time>
      </trkpt>
      <trkpt lat="42.467073000" lon="-2.561354000">
        <ele>436.00</ele>
        <time>2012-05-05T13:05:44Z</time>
      </trkpt>
      <trkpt lat="42.467040000" lon="-2.561384000">
        <ele>436.00</ele>
        <time>2012-05-05T13:05:46Z</time>
      </trkpt>
      <trkpt lat="42.467010000" lon="-2.561423000">
        <ele>436.10</ele>
        <time>2012-05-05T13:05:47Z</time>
      </trkpt>
      <trkpt lat="42.466928000" lon="-2.561644000">
        <ele>436.40</ele>
        <time>2012-05-05T13:05:51Z</time>
      </trkpt>
      <trkpt lat="42.466375000" lon="-2.563369000">
        <ele>439.70</ele>
        <time>2012-05-05T13:06:29Z</time>
      </trkpt>
      <trkpt lat="42.466360000" lon="-2.563388000">
        <ele>439.80</ele>
        <time>2012-05-05T13:06:29Z</time>
      </trkpt>
      <trkpt lat="42.466340000" lon="-2.563398000">
        <ele>439.90</ele>
        <time>2012-05-05T13:06:31Z</time>
      </trkpt>
      <trkpt lat="42.466316000" lon="-2.563403000">
        <ele>440.00</ele>
        <time>2012-05-05T13:06:31Z</time>
      </trkpt>
      <trkpt lat="42.466293000" lon="-2.563401000">
        <ele>440.10</ele>
        <time>2012-05-05T13:06:33Z</time>
      </trkpt>
      <trkpt lat="42.466165000" lon="-2.563356000">
        <ele>440.00</ele>
        <time>2012-05-05T13:06:38Z</time>
      </trkpt>
      <trkpt lat="42.464191000" lon="-2.563486000">
        <ele>438.10</ele>
        <time>2012-05-05T13:07:30Z</time>
      </trkpt>
      <trkpt lat="42.464100000" lon="-2.563513000">
        <ele>438.20</ele>
        <time>2012-05-05T13:07:35Z</time>
      </trkpt>
      <trkpt lat="42.464083000" lon="-2.563513000">
        <ele>438.20</ele>
        <time>2012-05-05T13:07:37Z</time>
      </trkpt>
      <trkpt lat="42.464076000" lon="-2.563516000">
        <ele>438.20</ele>
        <time>2012-05-05T13:07:39Z</time>
      </trkpt>
      <trkpt lat="42.464033000" lon="-2.563508000">
        <ele>438.20</ele>
        <time>2012-05-05T13:07:42Z</time>
      </trkpt>
      <trkpt lat="42.463991000" lon="-2.563509000">
        <ele>438.20</ele>
        <time>2012-05-05T13:07:44Z</time>
      </trkpt>
      <trkpt lat="42.463908000" lon="-2.563538000">
        <ele>438.30</ele>
        <time>2012-05-05T13:07:48Z</time>
      </trkpt>
      <trkpt lat="42.450253000" lon="-2.564804000">
        <ele>456.90</ele>
        <time>2012-05-05T13:12:45Z</time>
      </trkpt>
      <trkpt lat="42.450211000" lon="-2.564818000">
        <ele>456.90</ele>
        <time>2012-05-05T13:12:45Z</time>
      </trkpt>
      <trkpt lat="42.447800000" lon="-2.566058000">
        <ele>460.70</ele>
        <time>2012-05-05T13:13:45Z</time>
      </trkpt>
      <trkpt lat="42.447648000" lon="-2.566219000">
        <ele>460.40</ele>
        <time>2012-05-05T13:13:50Z</time>
      </trkpt>
      <trkpt lat="42.447608000" lon="-2.566249000">
        <ele>460.30</ele>
        <time>2012-05-05T13:13:50Z</time>
      </trkpt>
      <trkpt lat="42.447085000" lon="-2.566754000">
        <ele>460.20</ele>
        <time>2012-05-05T13:14:06Z</time>
      </trkpt>
      <trkpt lat="42.446678000" lon="-2.567281000">
        <ele>461.70</ele>
        <time>2012-05-05T13:14:18Z</time>
      </trkpt>
      <trkpt lat="42.446583000" lon="-2.567446000">
        <ele>462.30</ele>
        <time>2012-05-05T13:14:23Z</time>
      </trkpt>
      <trkpt lat="42.446553000" lon="-2.567483000">
        <ele>462.40</ele>
        <time>2012-05-05T13:14:23Z</time>
      </trkpt>
      <trkpt lat="42.446380000" lon="-2.567854000">
        <ele>463.50</ele>
        <time>2012-05-05T13:14:33Z</time>
      </trkpt>
      <trkpt lat="42.446356000" lon="-2.567888000">
        <ele>463.60</ele>
        <time>2012-05-05T13:14:33Z</time>
      </trkpt>
      <trkpt lat="42.446328000" lon="-2.567908000">
        <ele>463.70</ele>
        <time>2012-05-05T13:14:35Z</time>
      </trkpt>
      <trkpt lat="42.446300000" lon="-2.567909000">
        <ele>463.80</ele>
        <time>2012-05-05T13:14:35Z</time>
      </trkpt>
      <trkpt lat="42.446278000" lon="-2.567896000">
        <ele>463.80</ele>
        <time>2012-05-05T13:14:37Z</time>
      </trkpt>
      <trkpt lat="42.446258000" lon="-2.567868000">
        <ele>463.80</ele>
        <time>2012-05-05T13:14:37Z</time>
      </trkpt>
      <trkpt lat="42.446245000" lon="-2.567828000">
        <ele>463.80</ele>
        <time>2012-05-05T13:14:39Z</time>
      </trkpt>
      <trkpt lat="42.446245000" lon="-2.567783000">
        <ele>463.70</ele>
        <time>2012-05-05T13:14:40Z</time>
      </trkpt>
      <trkpt lat="42.446318000" lon="-2.567498000">
        <ele>463.00</ele>
        <time>2012-05-05T13:14:46Z</time>
      </trkpt>
      <trkpt lat="42.446325000" lon="-2.567391000">
        <ele>462.80</ele>
        <time>2012-05-05T13:14:47Z</time>
      </trkpt>
      <trkpt lat="42.446315000" lon="-2.567279000">
        <ele>462.50</ele>
        <time>2012-05-05T13:14:49Z</time>
      </trkpt>
      <trkpt lat="42.446301000" lon="-2.567226000">
        <ele>462.40</ele>
        <time>2012-05-05T13:14:51Z</time>
      </trkpt>
      <trkpt lat="42.446283000" lon="-2.567178000">
        <ele>462.30</ele>
        <time>2012-05-05T13:14:51Z</time>
      </trkpt>
      <trkpt lat="42.445960000" lon="-2.566689000">
        <ele>462.50</ele>
        <time>2012-05-05T13:15:05Z</time>
      </trkpt>
      <trkpt lat="42.445950000" lon="-2.566671000">
        <ele>462.50</ele>
        <time>2012-05-05T13:15:08Z</time>
      </trkpt>
      <trkpt lat="42.445946000" lon="-2.566668000">
        <ele>462.50</ele>
        <time>2012-05-05T13:15:10Z</time>
      </trkpt>
      <trkpt lat="42.445945000" lon="-2.566664000">
        <ele>462.50</ele>
        <time>2012-05-05T13:15:12Z</time>
      </trkpt>
      <trkpt lat="42.445943000" lon="-2.566663000">
        <ele>462.50</ele>
        <time>2012-05-05T13:15:12Z</time>
      </trkpt>
      <trkpt lat="42.445941000" lon="-2.566663000">
        <ele>462.60</ele>
        <time>2012-05-05T13:15:13Z</time>
      </trkpt>
      <trkpt lat="42.445936000" lon="-2.566658000">
        <ele>462.60</ele>
        <time>2012-05-05T13:15:17Z</time>
      </trkpt>
      <trkpt lat="42.445935000" lon="-2.566651000">
        <ele>462.60</ele>
        <time>2012-05-05T13:15:19Z</time>
      </trkpt>
      <trkpt lat="42.445933000" lon="-2.566651000">
        <ele>462.60</ele>
        <time>2012-05-05T13:15:20Z</time>
      </trkpt>
      <trkpt lat="42.445933000" lon="-2.566643000">
        <ele>462.60</ele>
        <time>2012-05-05T13:15:31Z</time>
      </trkpt>
      <trkpt lat="42.445931000" lon="-2.566643000">
        <ele>462.60</ele>
        <time>2012-05-05T13:15:34Z</time>
      </trkpt>
      <trkpt lat="42.445933000" lon="-2.566641000">
        <ele>462.60</ele>
        <time>2012-05-05T13:15:34Z</time>
      </trkpt>
      <trkpt lat="42.445933000" lon="-2.566636000">
        <ele>462.60</ele>
        <time>2012-05-05T13:15:48Z</time>
      </trkpt>
      <trkpt lat="42.445935000" lon="-2.566636000">
        <ele>462.60</ele>
        <time>2012-05-05T13:15:50Z</time>
      </trkpt>
      <trkpt lat="42.445935000" lon="-2.566634000">
        <ele>462.50</ele>
        <time>2012-05-05T13:15:52Z</time>
      </trkpt>
      <trkpt lat="42.445938000" lon="-2.566634000">
        <ele>462.50</ele>
        <time>2012-05-05T13:16:09Z</time>
      </trkpt>
      <trkpt lat="42.445933000" lon="-2.566633000">
        <ele>462.50</ele>
        <time>2012-05-05T13:16:11Z</time>
      </trkpt>
      <trkpt lat="42.445928000" lon="-2.566626000">
        <ele>462.60</ele>
        <time>2012-05-05T13:16:13Z</time>
      </trkpt>
      <trkpt lat="42.445756000" lon="-2.566381000">
        <ele>462.80</ele>
        <time>2012-05-05T13:16:23Z</time>
      </trkpt>
      <trkpt lat="42.445690000" lon="-2.566301000">
        <ele>463.00</ele>
        <time>2012-05-05T13:16:27Z</time>
      </trkpt>
      <trkpt lat="42.445576000" lon="-2.566206000">
        <ele>463.20</ele>
        <time>2012-05-05T13:16:30Z</time>
      </trkpt>
      <trkpt lat="42.445503000" lon="-2.566113000">
        <ele>463.20</ele>
        <time>2012-05-05T13:16:34Z</time>
      </trkpt>
      <trkpt lat="42.445451000" lon="-2.566061000">
        <ele>463.20</ele>
        <time>2012-05-05T13:16:35Z</time>
      </trkpt>
      <trkpt lat="42.445116000" lon="-2.565388000">
        <ele>461.40</ele>
        <time>2012-05-05T13:16:51Z</time>
      </trkpt>
      <trkpt lat="42.445076000" lon="-2.565284000">
        <ele>461.30</ele>
        <time>2012-05-05T13:16:53Z</time>
      </trkpt>
      <trkpt lat="42.445051000" lon="-2.565238000">
        <ele>461.30</ele>
        <time>2012-05-05T13:16:54Z</time>
      </trkpt>
      <trkpt lat="42.444820000" lon="-2.564544000">
        <ele>461.40</ele>
        <time>2012-05-05T13:17:07Z</time>
      </trkpt>
      <trkpt lat="42.444741000" lon="-2.563871000">
        <ele>461.60</ele>
        <time>2012-05-05T13:17:19Z</time>
      </trkpt>
      <trkpt lat="42.444793000" lon="-2.563066000">
        <ele>461.60</ele>
        <time>2012-05-05T13:17:33Z</time>
      </trkpt>
      <trkpt lat="42.445071000" lon="-2.561828000">
        <ele>461.90</ele>
        <time>2012-05-05T13:17:52Z</time>
      </trkpt>
      <trkpt lat="42.445101000" lon="-2.561609000">
        <ele>461.90</ele>
        <time>2012-05-05T13:17:54Z</time>
      </trkpt>
      <trkpt lat="42.445101000" lon="-2.561544000">
        <ele>461.90</ele>
        <time>2012-05-05T13:17:55Z</time>
      </trkpt>
      <trkpt lat="42.445053000" lon="-2.561041000">
        <ele>462.00</ele>
        <time>2012-05-05T13:18:02Z</time>
      </trkpt>
      <trkpt lat="42.445003000" lon="-2.560914000">
        <ele>462.10</ele>
        <time>2012-05-05T13:18:04Z</time>
      </trkpt>
      <trkpt lat="42.444245000" lon="-2.559634000">
        <ele>463.40</ele>
        <time>2012-05-05T13:18:30Z</time>
      </trkpt>
      <trkpt lat="42.443708000" lon="-2.558988000">
        <ele>463.30</ele>
        <time>2012-05-05T13:18:44Z</time>
      </trkpt>
      <trkpt lat="42.443485000" lon="-2.558736000">
        <ele>463.50</ele>
        <time>2012-05-05T13:18:51Z</time>
      </trkpt>
      <trkpt lat="42.443263000" lon="-2.558373000">
        <ele>463.20</ele>
        <time>2012-05-05T13:18:58Z</time>
      </trkpt>
      <trkpt lat="42.443225000" lon="-2.558328000">
        <ele>463.10</ele>
        <time>2012-05-05T13:18:58Z</time>
      </trkpt>
      <trkpt lat="42.442743000" lon="-2.557766000">
        <ele>461.30</ele>
        <time>2012-05-05T13:19:12Z</time>
      </trkpt>
      <trkpt lat="42.441500000" lon="-2.556486000">
        <ele>463.60</ele>
        <time>2012-05-05T13:19:45Z</time>
      </trkpt>
      <trkpt lat="42.441416000" lon="-2.556429000">
        <ele>463.70</ele>
        <time>2012-05-05T13:19:47Z</time>
      </trkpt>
      <trkpt lat="42.441233000" lon="-2.556233000">
        <ele>463.90</ele>
        <time>2012-05-05T13:19:52Z</time>
      </trkpt>
      <trkpt lat="42.440896000" lon="-2.555919000">
        <ele>463.70</ele>
        <time>2012-05-05T13:20:01Z</time>
      </trkpt>
      <trkpt lat="42.440871000" lon="-2.555883000">
        <ele>463.70</ele>
        <time>2012-05-05T13:20:03Z</time>
      </trkpt>
      <trkpt lat="42.440796000" lon="-2.555821000">
        <ele>463.70</ele>
        <time>2012-05-05T13:20:04Z</time>
      </trkpt>
      <trkpt lat="42.440753000" lon="-2.555798000">
        <ele>463.70</ele>
        <time>2012-05-05T13:20:06Z</time>
      </trkpt>
      <trkpt lat="42.440441000" lon="-2.555758000">
        <ele>463.90</ele>
        <time>2012-05-05T13:20:13Z</time>
      </trkpt>
      <trkpt lat="42.440131000" lon="-2.555831000">
        <ele>464.10</ele>
        <time>2012-05-05T13:20:20Z</time>
      </trkpt>
      <trkpt lat="42.440008000" lon="-2.555876000">
        <ele>464.20</ele>
        <time>2012-05-05T13:20:22Z</time>
      </trkpt>
      <trkpt lat="42.439928000" lon="-2.555876000">
        <ele>464.20</ele>
        <time>2012-05-05T13:20:25Z</time>
      </trkpt>
      <trkpt lat="42.439891000" lon="-2.555863000">
        <ele>464.30</ele>
        <time>2012-05-05T13:20:25Z</time>
      </trkpt>
      <trkpt lat="42.439861000" lon="-2.555834000">
        <ele>464.30</ele>
        <time>2012-05-05T13:20:27Z</time>
      </trkpt>
      <trkpt lat="42.439845000" lon="-2.555794000">
        <ele>464.30</ele>
        <time>2012-05-05T13:20:27Z</time>
      </trkpt>
      <trkpt lat="42.439840000" lon="-2.555751000">
        <ele>464.20</ele>
        <time>2012-05-05T13:20:29Z</time>
      </trkpt>
      <trkpt lat="42.439843000" lon="-2.555713000">
        <ele>464.20</ele>
        <time>2012-05-05T13:20:29Z</time>
      </trkpt>
      <trkpt lat="42.439855000" lon="-2.555684000">
        <ele>464.20</ele>
        <time>2012-05-05T13:20:30Z</time>
      </trkpt>
      <trkpt lat="42.439940000" lon="-2.555509000">
        <ele>464.10</ele>
        <time>2012-05-05T13:20:36Z</time>
      </trkpt>
      <trkpt lat="42.440043000" lon="-2.555223000">
        <ele>463.90</ele>
        <time>2012-05-05T13:20:43Z</time>
      </trkpt>
      <trkpt lat="42.440538000" lon="-2.554121000">
        <ele>463.40</ele>
        <time>2012-05-05T13:21:11Z</time>
      </trkpt>
      <trkpt lat="42.440546000" lon="-2.554074000">
        <ele>463.30</ele>
        <time>2012-05-05T13:21:12Z</time>
      </trkpt>
      <trkpt lat="42.440545000" lon="-2.554008000">
        <ele>463.20</ele>
        <time>2012-05-05T13:21:14Z</time>
      </trkpt>
      <trkpt lat="42.440533000" lon="-2.553986000">
        <ele>463.10</ele>
        <time>2012-05-05T13:21:14Z</time>
      </trkpt>
      <trkpt lat="42.440513000" lon="-2.553971000">
        <ele>463.10</ele>
        <time>2012-05-05T13:21:16Z</time>
      </trkpt>
      <trkpt lat="42.440485000" lon="-2.553963000">
        <ele>463.10</ele>
        <time>2012-05-05T13:21:16Z</time>
      </trkpt>
      <trkpt lat="42.440448000" lon="-2.553969000">
        <ele>463.10</ele>
        <time>2012-05-05T13:21:17Z</time>
      </trkpt>
      <trkpt lat="42.440141000" lon="-2.554158000">
        <ele>463.10</ele>
        <time>2012-05-05T13:21:23Z</time>
      </trkpt>
      <trkpt lat="42.440088000" lon="-2.554173000">
        <ele>463.10</ele>
        <time>2012-05-05T13:21:24Z</time>
      </trkpt>
      <trkpt lat="42.440040000" lon="-2.554169000">
        <ele>463.10</ele>
        <time>2012-05-05T13:21:26Z</time>
      </trkpt>
      <trkpt lat="42.439771000" lon="-2.554041000">
        <ele>462.60</ele>
        <time>2012-05-05T13:21:31Z</time>
      </trkpt>
      <trkpt lat="42.438553000" lon="-2.552993000">
        <ele>463.20</ele>
        <time>2012-05-05T13:22:05Z</time>
      </trkpt>
      <trkpt lat="42.436068000" lon="-2.550264000">
        <ele>465.20</ele>
        <time>2012-05-05T13:23:25Z</time>
      </trkpt>
      <trkpt lat="42.436041000" lon="-2.550224000">
        <ele>465.30</ele>
        <time>2012-05-05T13:23:25Z</time>
      </trkpt>
      <trkpt lat="42.435996000" lon="-2.550141000">
        <ele>465.40</ele>
        <time>2012-05-05T13:23:28Z</time>
      </trkpt>
      <trkpt lat="42.435986000" lon="-2.550091000">
        <ele>465.50</ele>
        <time>2012-05-05T13:23:28Z</time>
      </trkpt>
      <trkpt lat="42.435985000" lon="-2.550039000">
        <ele>465.50</ele>
        <time>2012-05-05T13:23:30Z</time>
      </trkpt>
      <trkpt lat="42.436026000" lon="-2.549809000">
        <ele>465.70</ele>
        <time>2012-05-05T13:23:33Z</time>
      </trkpt>
      <trkpt lat="42.436061000" lon="-2.549698000">
        <ele>465.80</ele>
        <time>2012-05-05T13:23:35Z</time>
      </trkpt>
      <trkpt lat="42.436083000" lon="-2.549584000">
        <ele>465.90</ele>
        <time>2012-05-05T13:23:37Z</time>
      </trkpt>
      <trkpt lat="42.436086000" lon="-2.549526000">
        <ele>465.90</ele>
        <time>2012-05-05T13:23:39Z</time>
      </trkpt>
      <trkpt lat="42.436068000" lon="-2.549411000">
        <ele>465.90</ele>
        <time>2012-05-05T13:23:40Z</time>
      </trkpt>
      <trkpt lat="42.436031000" lon="-2.549308000">
        <ele>465.90</ele>
        <time>2012-05-05T13:23:42Z</time>
      </trkpt>
      <trkpt lat="42.435631000" lon="-2.548603000">
        <ele>465.90</ele>
        <time>2012-05-05T13:23:58Z</time>
      </trkpt>
      <trkpt lat="42.435581000" lon="-2.548464000">
        <ele>465.90</ele>
        <time>2012-05-05T13:24:01Z</time>
      </trkpt>
      <trkpt lat="42.435560000" lon="-2.548366000">
        <ele>465.90</ele>
        <time>2012-05-05T13:24:03Z</time>
      </trkpt>
      <trkpt lat="42.435550000" lon="-2.548031000">
        <ele>465.90</ele>
        <time>2012-05-05T13:24:10Z</time>
      </trkpt>
      <trkpt lat="42.435558000" lon="-2.547988000">
        <ele>465.90</ele>
        <time>2012-05-05T13:24:12Z</time>
      </trkpt>
      <trkpt lat="42.435655000" lon="-2.547663000">
        <ele>466.40</ele>
        <time>2012-05-05T13:24:19Z</time>
      </trkpt>
      <trkpt lat="42.435765000" lon="-2.546913000">
        <ele>467.60</ele>
        <time>2012-05-05T13:24:33Z</time>
      </trkpt>
      <trkpt lat="42.435765000" lon="-2.546859000">
        <ele>467.70</ele>
        <time>2012-05-05T13:24:34Z</time>
      </trkpt>
      <trkpt lat="42.436333000" lon="-2.542826000">
        <ele>473.90</ele>
        <time>2012-05-05T13:25:51Z</time>
      </trkpt>
      <trkpt lat="42.436345000" lon="-2.542786000">
        <ele>474.00</ele>
        <time>2012-05-05T13:25:53Z</time>
      </trkpt>
      <trkpt lat="42.436450000" lon="-2.542494000">
        <ele>475.10</ele>
        <time>2012-05-05T13:26:03Z</time>
      </trkpt>
      <trkpt lat="42.436461000" lon="-2.542449000">
        <ele>475.30</ele>
        <time>2012-05-05T13:26:05Z</time>
      </trkpt>
      <trkpt lat="42.436476000" lon="-2.542316000">
        <ele>475.80</ele>
        <time>2012-05-05T13:26:10Z</time>
      </trkpt>
      <trkpt lat="42.436563000" lon="-2.542036000">
        <ele>477.10</ele>
        <time>2012-05-05T13:26:19Z</time>
      </trkpt>
      <trkpt lat="42.436573000" lon="-2.542013000">
        <ele>477.20</ele>
        <time>2012-05-05T13:26:21Z</time>
      </trkpt>
      <trkpt lat="42.436585000" lon="-2.541961000">
        <ele>477.60</ele>
        <time>2012-05-05T13:26:22Z</time>
      </trkpt>
      <trkpt lat="42.436806000" lon="-2.541186000">
        <ele>483.00</ele>
        <time>2012-05-05T13:26:45Z</time>
      </trkpt>
      <trkpt lat="42.436881000" lon="-2.540723000">
        <ele>485.50</ele>
        <time>2012-05-05T13:26:55Z</time>
      </trkpt>
      <trkpt lat="42.436895000" lon="-2.540686000">
        <ele>485.60</ele>
        <time>2012-05-05T13:26:57Z</time>
      </trkpt>
      <trkpt lat="42.437055000" lon="-2.540149000">
        <ele>489.00</ele>
        <time>2012-05-05T13:27:13Z</time>
      </trkpt>
      <trkpt lat="42.437080000" lon="-2.540111000">
        <ele>489.20</ele>
        <time>2012-05-05T13:27:15Z</time>
      </trkpt>
      <trkpt lat="42.437116000" lon="-2.540016000">
        <ele>489.80</ele>
        <time>2012-05-05T13:27:20Z</time>
      </trkpt>
      <trkpt lat="42.437121000" lon="-2.539988000">
        <ele>489.90</ele>
        <time>2012-05-05T13:27:20Z</time>
      </trkpt>
      <trkpt lat="42.437128000" lon="-2.539914000">
        <ele>490.20</ele>
        <time>2012-05-05T13:27:23Z</time>
      </trkpt>
      <trkpt lat="42.437136000" lon="-2.539879000">
        <ele>490.40</ele>
        <time>2012-05-05T13:27:23Z</time>
      </trkpt>
      <trkpt lat="42.437380000" lon="-2.539401000">
        <ele>493.10</ele>
        <time>2012-05-05T13:27:37Z</time>
      </trkpt>
      <trkpt lat="42.437545000" lon="-2.538748000">
        <ele>496.50</ele>
        <time>2012-05-05T13:27:51Z</time>
      </trkpt>
      <trkpt lat="42.437941000" lon="-2.537309000">
        <ele>498.00</ele>
        <time>2012-05-05T13:28:16Z</time>
      </trkpt>
      <trkpt lat="42.437951000" lon="-2.537239000">
        <ele>498.00</ele>
        <time>2012-05-05T13:28:17Z</time>
      </trkpt>
      <trkpt lat="42.437948000" lon="-2.537103000">
        <ele>498.30</ele>
        <time>2012-05-05T13:28:19Z</time>
      </trkpt>
      <trkpt lat="42.437973000" lon="-2.536969000">
        <ele>498.40</ele>
        <time>2012-05-05T13:28:21Z</time>
      </trkpt>
      <trkpt lat="42.438045000" lon="-2.536761000">
        <ele>498.10</ele>
        <time>2012-05-05T13:28:24Z</time>
      </trkpt>
      <trkpt lat="42.438475000" lon="-2.535499000">
        <ele>499.80</ele>
        <time>2012-05-05T13:28:47Z</time>
      </trkpt>
      <trkpt lat="42.438628000" lon="-2.534391000">
        <ele>507.30</ele>
        <time>2012-05-05T13:29:10Z</time>
      </trkpt>
      <trkpt lat="42.438818000" lon="-2.533068000">
        <ele>503.60</ele>
        <time>2012-05-05T13:29:32Z</time>
      </trkpt>
      <trkpt lat="42.438820000" lon="-2.533014000">
        <ele>503.50</ele>
        <time>2012-05-05T13:29:34Z</time>
      </trkpt>
      <trkpt lat="42.439150000" lon="-2.531136000">
        <ele>506.10</ele>
        <time>2012-05-05T13:30:09Z</time>
      </trkpt>
      <trkpt lat="42.439555000" lon="-2.529014000">
        <ele>511.80</ele>
        <time>2012-05-05T13:30:49Z</time>
      </trkpt>
      <trkpt lat="42.439558000" lon="-2.528968000">
        <ele>511.90</ele>
        <time>2012-05-05T13:30:51Z</time>
      </trkpt>
      <trkpt lat="42.439798000" lon="-2.526384000">
        <ele>520.40</ele>
        <time>2012-05-05T13:31:50Z</time>
      </trkpt>
      <trkpt lat="42.439910000" lon="-2.524943000">
        <ele>524.20</ele>
        <time>2012-05-05T13:32:25Z</time>
      </trkpt>
      <trkpt lat="42.439913000" lon="-2.524931000">
        <ele>524.10</ele>
        <time>2012-05-05T13:32:25Z</time>
      </trkpt>
      <trkpt lat="42.439911000" lon="-2.524919000">
        <ele>524.10</ele>
        <time>2012-05-05T13:32:30Z</time>
      </trkpt>
      <trkpt lat="42.439911000" lon="-2.524921000">
        <ele>524.10</ele>
        <time>2012-05-05T13:32:32Z</time>
      </trkpt>
      <trkpt lat="42.439908000" lon="-2.524921000">
        <ele>524.10</ele>
        <time>2012-05-05T13:32:37Z</time>
      </trkpt>
      <trkpt lat="42.439908000" lon="-2.524918000">
        <ele>524.10</ele>
        <time>2012-05-05T13:32:49Z</time>
      </trkpt>
      <trkpt lat="42.439906000" lon="-2.524918000">
        <ele>524.10</ele>
        <time>2012-05-05T13:32:51Z</time>
      </trkpt>
      <trkpt lat="42.439906000" lon="-2.524918000">
        <ele>524.10</ele>
        <time>2012-05-05T13:32:53Z</time>
      </trkpt>
      <trkpt lat="42.439906000" lon="-2.524914000">
        <ele>524.20</ele>
        <time>2012-05-05T13:33:03Z</time>
      </trkpt>
      <trkpt lat="42.439908000" lon="-2.524914000">
        <ele>524.20</ele>
        <time>2012-05-05T13:33:08Z</time>
      </trkpt>
      <trkpt lat="42.439906000" lon="-2.524913000">
        <ele>524.20</ele>
        <time>2012-05-05T13:33:10Z</time>
      </trkpt>
      <trkpt lat="42.439908000" lon="-2.524913000">
        <ele>524.10</ele>
        <time>2012-05-05T13:33:10Z</time>
      </trkpt>
      <trkpt lat="42.439906000" lon="-2.524913000">
        <ele>524.10</ele>
        <time>2012-05-05T13:33:17Z</time>
      </trkpt>
      <trkpt lat="42.439906000" lon="-2.524913000">
        <ele>524.10</ele>
        <time>2012-05-05T13:33:19Z</time>
      </trkpt>
      <trkpt lat="42.439905000" lon="-2.524913000">
        <ele>524.20</ele>
        <time>2012-05-05T13:33:26Z</time>
      </trkpt>
      <trkpt lat="42.439898000" lon="-2.524881000">
        <ele>524.20</ele>
        <time>2012-05-05T13:33:29Z</time>
      </trkpt>
      <trkpt lat="42.439898000" lon="-2.524868000">
        <ele>524.20</ele>
        <time>2012-05-05T13:33:31Z</time>
      </trkpt>
      <trkpt lat="42.439898000" lon="-2.524866000">
        <ele>524.30</ele>
        <time>2012-05-05T13:33:33Z</time>
      </trkpt>
      <trkpt lat="42.439890000" lon="-2.524866000">
        <ele>524.30</ele>
        <time>2012-05-05T13:33:52Z</time>
      </trkpt>
      <trkpt lat="42.439890000" lon="-2.524866000">
        <ele>524.30</ele>
        <time>2012-05-05T13:33:52Z</time>
      </trkpt>
      <trkpt lat="42.439883000" lon="-2.524866000">
        <ele>524.40</ele>
        <time>2012-05-05T13:34:09Z</time>
      </trkpt>
      <trkpt lat="42.439883000" lon="-2.524868000">
        <ele>524.40</ele>
        <time>2012-05-05T13:34:16Z</time>
      </trkpt>
      <trkpt lat="42.439881000" lon="-2.524868000">
        <ele>524.50</ele>
        <time>2012-05-05T13:34:23Z</time>
      </trkpt>
      <trkpt lat="42.439880000" lon="-2.524868000">
        <ele>524.50</ele>
        <time>2012-05-05T13:34:35Z</time>
      </trkpt>
      <trkpt lat="42.439881000" lon="-2.524873000">
        <ele>524.50</ele>
        <time>2012-05-05T13:34:49Z</time>
      </trkpt>
      <trkpt lat="42.439881000" lon="-2.524871000">
        <ele>524.50</ele>
        <time>2012-05-05T13:34:51Z</time>
      </trkpt>
      <trkpt lat="42.439881000" lon="-2.524873000">
        <ele>524.50</ele>
        <time>2012-05-05T13:34:58Z</time>
      </trkpt>
      <trkpt lat="42.439883000" lon="-2.524873000">
        <ele>524.50</ele>
        <time>2012-05-05T13:35:00Z</time>
      </trkpt>
      <trkpt lat="42.439885000" lon="-2.524874000">
        <ele>524.40</ele>
        <time>2012-05-05T13:35:01Z</time>
      </trkpt>
      <trkpt lat="42.439886000" lon="-2.524878000">
        <ele>524.40</ele>
        <time>2012-05-05T13:35:05Z</time>
      </trkpt>
      <trkpt lat="42.439891000" lon="-2.524883000">
        <ele>524.40</ele>
        <time>2012-05-05T13:35:15Z</time>
      </trkpt>
      <trkpt lat="42.439891000" lon="-2.524883000">
        <ele>524.40</ele>
        <time>2012-05-05T13:35:17Z</time>
      </trkpt>
      <trkpt lat="42.439890000" lon="-2.524883000">
        <ele>524.40</ele>
        <time>2012-05-05T13:35:21Z</time>
      </trkpt>
      <trkpt lat="42.439890000" lon="-2.524881000">
        <ele>524.40</ele>
        <time>2012-05-05T13:35:22Z</time>
      </trkpt>
      <trkpt lat="42.439888000" lon="-2.524886000">
        <ele>524.00</ele>
        <time>2012-05-05T13:35:28Z</time>
      </trkpt>
      <trkpt lat="42.439890000" lon="-2.524886000">
        <ele>524.40</ele>
        <time>2012-05-05T13:35:29Z</time>
      </trkpt>
      <trkpt lat="42.439891000" lon="-2.524886000">
        <ele>524.40</ele>
        <time>2012-05-05T13:35:31Z</time>
      </trkpt>
      <trkpt lat="42.439893000" lon="-2.524888000">
        <ele>524.30</ele>
        <time>2012-05-05T13:35:31Z</time>
      </trkpt>
      <trkpt lat="42.439898000" lon="-2.524838000">
        <ele>524.30</ele>
        <time>2012-05-05T13:35:40Z</time>
      </trkpt>
      <trkpt lat="42.440068000" lon="-2.523904000">
        <ele>520.40</ele>
        <time>2012-05-05T13:35:52Z</time>
      </trkpt>
      <trkpt lat="42.440071000" lon="-2.523801000">
        <ele>519.90</ele>
        <time>2012-05-05T13:35:54Z</time>
      </trkpt>
      <trkpt lat="42.439921000" lon="-2.523259000">
        <ele>517.90</ele>
        <time>2012-05-05T13:35:59Z</time>
      </trkpt>
      <trkpt lat="42.439433000" lon="-2.522289000">
        <ele>512.80</ele>
        <time>2012-05-05T13:36:11Z</time>
      </trkpt>
      <trkpt lat="42.439175000" lon="-2.521364000">
        <ele>508.10</ele>
        <time>2012-05-05T13:36:18Z</time>
      </trkpt>
      <trkpt lat="42.439076000" lon="-2.521143000">
        <ele>507.20</ele>
        <time>2012-05-05T13:36:20Z</time>
      </trkpt>
      <trkpt lat="42.438835000" lon="-2.520709000">
        <ele>504.50</ele>
        <time>2012-05-05T13:36:25Z</time>
      </trkpt>
      <trkpt lat="42.438541000" lon="-2.519984000">
        <ele>499.80</ele>
        <time>2012-05-05T13:36:30Z</time>
      </trkpt>
      <trkpt lat="42.438483000" lon="-2.519886000">
        <ele>499.50</ele>
        <time>2012-05-05T13:36:32Z</time>
      </trkpt>
      <trkpt lat="42.437618000" lon="-2.517889000">
        <ele>490.00</ele>
        <time>2012-05-05T13:36:48Z</time>
      </trkpt>
      <trkpt lat="42.436600000" lon="-2.516411000">
        <ele>486.60</ele>
        <time>2012-05-05T13:37:03Z</time>
      </trkpt>
      <trkpt lat="42.436560000" lon="-2.516334000">
        <ele>486.60</ele>
        <time>2012-05-05T13:37:05Z</time>
      </trkpt>
      <trkpt lat="42.436550000" lon="-2.516248000">
        <ele>486.40</ele>
        <time>2012-05-05T13:37:05Z</time>
      </trkpt>
      <trkpt lat="42.436570000" lon="-2.516159000">
        <ele>485.80</ele>
        <time>2012-05-05T13:37:07Z</time>
      </trkpt>
      <trkpt lat="42.436711000" lon="-2.515894000">
        <ele>482.80</ele>
        <time>2012-05-05T13:37:10Z</time>
      </trkpt>
      <trkpt lat="42.436775000" lon="-2.515804000">
        <ele>481.50</ele>
        <time>2012-05-05T13:37:10Z</time>
      </trkpt>
      <trkpt lat="42.437116000" lon="-2.515494000">
        <ele>475.60</ele>
        <time>2012-05-05T13:37:14Z</time>
      </trkpt>
      <trkpt lat="42.437283000" lon="-2.515274000">
        <ele>471.70</ele>
        <time>2012-05-05T13:37:17Z</time>
      </trkpt>
      <trkpt lat="42.437666000" lon="-2.514468000">
        <ele>461.50</ele>
        <time>2012-05-05T13:37:24Z</time>
      </trkpt>
      <trkpt lat="42.437671000" lon="-2.514429000">
        <ele>460.90</ele>
        <time>2012-05-05T13:37:26Z</time>
      </trkpt>
      <trkpt lat="42.437663000" lon="-2.514406000">
        <ele>460.60</ele>
        <time>2012-05-05T13:37:26Z</time>
      </trkpt>
      <trkpt lat="42.437645000" lon="-2.514394000">
        <ele>460.30</ele>
        <time>2012-05-05T13:37:28Z</time>
      </trkpt>
      <trkpt lat="42.437623000" lon="-2.514401000">
        <ele>460.20</ele>
        <time>2012-05-05T13:37:28Z</time>
      </trkpt>
      <trkpt lat="42.437590000" lon="-2.514449000">
        <ele>460.40</ele>
        <time>2012-05-05T13:37:31Z</time>
      </trkpt>
      <trkpt lat="42.437408000" lon="-2.514626000">
        <ele>462.20</ele>
        <time>2012-05-05T13:37:38Z</time>
      </trkpt>
      <trkpt lat="42.437376000" lon="-2.514646000">
        <ele>462.30</ele>
        <time>2012-05-05T13:37:38Z</time>
      </trkpt>
      <trkpt lat="42.437303000" lon="-2.514681000">
        <ele>463.00</ele>
        <time>2012-05-05T13:37:40Z</time>
      </trkpt>
      <trkpt lat="42.437208000" lon="-2.514688000">
        <ele>463.50</ele>
        <time>2012-05-05T13:37:42Z</time>
      </trkpt>
      <trkpt lat="42.437155000" lon="-2.514673000">
        <ele>463.60</ele>
        <time>2012-05-05T13:37:43Z</time>
      </trkpt>
      <trkpt lat="42.437106000" lon="-2.514628000">
        <ele>463.50</ele>
        <time>2012-05-05T13:37:45Z</time>
      </trkpt>
      <trkpt lat="42.436488000" lon="-2.513186000">
        <ele>458.50</ele>
        <time>2012-05-05T13:38:01Z</time>
      </trkpt>
      <trkpt lat="42.435986000" lon="-2.511058000">
        <ele>455.70</ele>
        <time>2012-05-05T13:38:29Z</time>
      </trkpt>
      <trkpt lat="42.435981000" lon="-2.511001000">
        <ele>455.60</ele>
        <time>2012-05-05T13:38:30Z</time>
      </trkpt>
      <trkpt lat="42.435995000" lon="-2.510958000">
        <ele>455.40</ele>
        <time>2012-05-05T13:38:32Z</time>
      </trkpt>
      <trkpt lat="42.436023000" lon="-2.510929000">
        <ele>455.10</ele>
        <time>2012-05-05T13:38:32Z</time>
      </trkpt>
      <trkpt lat="42.436061000" lon="-2.510909000">
        <ele>454.80</ele>
        <time>2012-05-05T13:38:34Z</time>
      </trkpt>
      <trkpt lat="42.437881000" lon="-2.510239000">
        <ele>447.80</ele>
        <time>2012-05-05T13:39:02Z</time>
      </trkpt>
      <trkpt lat="42.437921000" lon="-2.510211000">
        <ele>447.70</ele>
        <time>2012-05-05T13:39:04Z</time>
      </trkpt>
      <trkpt lat="42.437945000" lon="-2.510168000">
        <ele>447.60</ele>
        <time>2012-05-05T13:39:05Z</time>
      </trkpt>
      <trkpt lat="42.437951000" lon="-2.510111000">
        <ele>447.50</ele>
        <time>2012-05-05T13:39:05Z</time>
      </trkpt>
      <trkpt lat="42.437956000" lon="-2.509869000">
        <ele>447.90</ele>
        <time>2012-05-05T13:39:09Z</time>
      </trkpt>
      <trkpt lat="42.438418000" lon="-2.507384000">
        <ele>453.00</ele>
        <time>2012-05-05T13:39:51Z</time>
      </trkpt>
      <trkpt lat="42.438506000" lon="-2.507113000">
        <ele>453.30</ele>
        <time>2012-05-05T13:39:56Z</time>
      </trkpt>
      <trkpt lat="42.439288000" lon="-2.505541000">
        <ele>447.30</ele>
        <time>2012-05-05T13:40:17Z</time>
      </trkpt>
      <trkpt lat="42.439341000" lon="-2.505463000">
        <ele>446.90</ele>
        <time>2012-05-05T13:40:18Z</time>
      </trkpt>
      <trkpt lat="42.439718000" lon="-2.504834000">
        <ele>446.50</ele>
        <time>2012-05-05T13:40:27Z</time>
      </trkpt>
      <trkpt lat="42.440420000" lon="-2.501524000">
        <ele>448.00</ele>
        <time>2012-05-05T13:41:11Z</time>
      </trkpt>
      <trkpt lat="42.440446000" lon="-2.501459000">
        <ele>448.30</ele>
        <time>2012-05-05T13:41:12Z</time>
      </trkpt>
      <trkpt lat="42.440480000" lon="-2.501401000">
        <ele>448.60</ele>
        <time>2012-05-05T13:41:14Z</time>
      </trkpt>
      <trkpt lat="42.440995000" lon="-2.500644000">
        <ele>448.80</ele>
        <time>2012-05-05T13:41:26Z</time>
      </trkpt>
      <trkpt lat="42.441026000" lon="-2.500583000">
        <ele>448.80</ele>
        <time>2012-05-05T13:41:28Z</time>
      </trkpt>
      <trkpt lat="42.441421000" lon="-2.499883000">
        <ele>448.70</ele>
        <time>2012-05-05T13:41:39Z</time>
      </trkpt>
      <trkpt lat="42.441740000" lon="-2.499613000">
        <ele>446.60</ele>
        <time>2012-05-05T13:41:46Z</time>
      </trkpt>
      <trkpt lat="42.441773000" lon="-2.499573000">
        <ele>446.30</ele>
        <time>2012-05-05T13:41:47Z</time>
      </trkpt>
      <trkpt lat="42.441798000" lon="-2.499521000">
        <ele>446.20</ele>
        <time>2012-05-05T13:41:47Z</time>
      </trkpt>
      <trkpt lat="42.441815000" lon="-2.499464000">
        <ele>446.10</ele>
        <time>2012-05-05T13:41:49Z</time>
      </trkpt>
      <trkpt lat="42.441830000" lon="-2.499286000">
        <ele>446.40</ele>
        <time>2012-05-05T13:41:51Z</time>
      </trkpt>
      <trkpt lat="42.441828000" lon="-2.499174000">
        <ele>446.90</ele>
        <time>2012-05-05T13:41:54Z</time>
      </trkpt>
      <trkpt lat="42.441838000" lon="-2.499129000">
        <ele>447.00</ele>
        <time>2012-05-05T13:41:54Z</time>
      </trkpt>
      <trkpt lat="42.441861000" lon="-2.499089000">
        <ele>447.10</ele>
        <time>2012-05-05T13:41:56Z</time>
      </trkpt>
      <trkpt lat="42.442065000" lon="-2.498953000">
        <ele>446.00</ele>
        <time>2012-05-05T13:42:00Z</time>
      </trkpt>
      <trkpt lat="42.442306000" lon="-2.498918000">
        <ele>445.20</ele>
        <time>2012-05-05T13:42:03Z</time>
      </trkpt>
      <trkpt lat="42.442541000" lon="-2.498944000">
        <ele>444.70</ele>
        <time>2012-05-05T13:42:08Z</time>
      </trkpt>
      <trkpt lat="42.442943000" lon="-2.498923000">
        <ele>444.10</ele>
        <time>2012-05-05T13:42:17Z</time>
      </trkpt>
      <trkpt lat="42.442981000" lon="-2.498941000">
        <ele>444.00</ele>
        <time>2012-05-05T13:42:17Z</time>
      </trkpt>
      <trkpt lat="42.443015000" lon="-2.498976000">
        <ele>443.80</ele>
        <time>2012-05-05T13:42:19Z</time>
      </trkpt>
      <trkpt lat="42.443068000" lon="-2.499051000">
        <ele>443.30</ele>
        <time>2012-05-05T13:42:20Z</time>
      </trkpt>
      <trkpt lat="42.443103000" lon="-2.499073000">
        <ele>443.10</ele>
        <time>2012-05-05T13:42:22Z</time>
      </trkpt>
      <trkpt lat="42.443146000" lon="-2.499066000">
        <ele>442.90</ele>
        <time>2012-05-05T13:42:22Z</time>
      </trkpt>
      <trkpt lat="42.443245000" lon="-2.499026000">
        <ele>442.60</ele>
        <time>2012-05-05T13:42:24Z</time>
      </trkpt>
      <trkpt lat="42.443345000" lon="-2.498939000">
        <ele>442.40</ele>
        <time>2012-05-05T13:42:26Z</time>
      </trkpt>
      <trkpt lat="42.443475000" lon="-2.498768000">
        <ele>442.30</ele>
        <time>2012-05-05T13:42:29Z</time>
      </trkpt>
      <trkpt lat="42.443525000" lon="-2.498723000">
        <ele>442.20</ele>
        <time>2012-05-05T13:42:31Z</time>
      </trkpt>
      <trkpt lat="42.443583000" lon="-2.498698000">
        <ele>442.10</ele>
        <time>2012-05-05T13:42:31Z</time>
      </trkpt>
      <trkpt lat="42.443646000" lon="-2.498688000">
        <ele>441.90</ele>
        <time>2012-05-05T13:42:33Z</time>
      </trkpt>
      <trkpt lat="42.443710000" lon="-2.498696000">
        <ele>441.70</ele>
        <time>2012-05-05T13:42:34Z</time>
      </trkpt>
      <trkpt lat="42.443965000" lon="-2.498816000">
        <ele>440.50</ele>
        <time>2012-05-05T13:42:38Z</time>
      </trkpt>
      <trkpt lat="42.444076000" lon="-2.498918000">
        <ele>439.90</ele>
        <time>2012-05-05T13:42:40Z</time>
      </trkpt>
      <trkpt lat="42.444416000" lon="-2.499403000">
        <ele>438.10</ele>
        <time>2012-05-05T13:42:47Z</time>
      </trkpt>
      <trkpt lat="42.444531000" lon="-2.499499000">
        <ele>437.60</ele>
        <time>2012-05-05T13:42:48Z</time>
      </trkpt>
      <trkpt lat="42.444591000" lon="-2.499536000">
        <ele>437.30</ele>
        <time>2012-05-05T13:42:50Z</time>
      </trkpt>
      <trkpt lat="42.444648000" lon="-2.499551000">
        <ele>437.10</ele>
        <time>2012-05-05T13:42:50Z</time>
      </trkpt>
      <trkpt lat="42.444698000" lon="-2.499541000">
        <ele>436.90</ele>
        <time>2012-05-05T13:42:52Z</time>
      </trkpt>
      <trkpt lat="42.444828000" lon="-2.499463000">
        <ele>436.70</ele>
        <time>2012-05-05T13:42:55Z</time>
      </trkpt>
      <trkpt lat="42.444910000" lon="-2.499398000">
        <ele>436.70</ele>
        <time>2012-05-05T13:42:57Z</time>
      </trkpt>
      <trkpt lat="42.445596000" lon="-2.499116000">
        <ele>436.40</ele>
        <time>2012-05-05T13:43:11Z</time>
      </trkpt>
      <trkpt lat="42.445758000" lon="-2.499071000">
        <ele>435.60</ele>
        <time>2012-05-05T13:43:13Z</time>
      </trkpt>
      <trkpt lat="42.446016000" lon="-2.499046000">
        <ele>434.10</ele>
        <time>2012-05-05T13:43:18Z</time>
      </trkpt>
      <trkpt lat="42.446066000" lon="-2.499049000">
        <ele>433.80</ele>
        <time>2012-05-05T13:43:20Z</time>
      </trkpt>
      <trkpt lat="42.446116000" lon="-2.499063000">
        <ele>433.50</ele>
        <time>2012-05-05T13:43:21Z</time>
      </trkpt>
      <trkpt lat="42.446163000" lon="-2.499084000">
        <ele>433.10</ele>
        <time>2012-05-05T13:43:21Z</time>
      </trkpt>
      <trkpt lat="42.446246000" lon="-2.499151000">
        <ele>432.40</ele>
        <time>2012-05-05T13:43:23Z</time>
      </trkpt>
      <trkpt lat="42.446280000" lon="-2.499194000">
        <ele>432.30</ele>
        <time>2012-05-05T13:43:25Z</time>
      </trkpt>
      <trkpt lat="42.446395000" lon="-2.499393000">
        <ele>432.40</ele>
        <time>2012-05-05T13:43:28Z</time>
      </trkpt>
      <trkpt lat="42.446765000" lon="-2.499778000">
        <ele>433.40</ele>
        <time>2012-05-05T13:43:37Z</time>
      </trkpt>
      <trkpt lat="42.446801000" lon="-2.499831000">
        <ele>433.50</ele>
        <time>2012-05-05T13:43:39Z</time>
      </trkpt>
      <trkpt lat="42.447100000" lon="-2.500244000">
        <ele>434.20</ele>
        <time>2012-05-05T13:43:46Z</time>
      </trkpt>
      <trkpt lat="42.447158000" lon="-2.500283000">
        <ele>434.20</ele>
        <time>2012-05-05T13:43:47Z</time>
      </trkpt>
      <trkpt lat="42.447225000" lon="-2.500298000">
        <ele>434.00</ele>
        <time>2012-05-05T13:43:49Z</time>
      </trkpt>
      <trkpt lat="42.447288000" lon="-2.500284000">
        <ele>433.90</ele>
        <time>2012-05-05T13:43:49Z</time>
      </trkpt>
      <trkpt lat="42.447346000" lon="-2.500244000">
        <ele>433.80</ele>
        <time>2012-05-05T13:43:51Z</time>
      </trkpt>
      <trkpt lat="42.447400000" lon="-2.500189000">
        <ele>433.70</ele>
        <time>2012-05-05T13:43:51Z</time>
      </trkpt>
      <trkpt lat="42.447595000" lon="-2.499881000">
        <ele>433.60</ele>
        <time>2012-05-05T13:43:56Z</time>
      </trkpt>
      <trkpt lat="42.447656000" lon="-2.499838000">
        <ele>433.60</ele>
        <time>2012-05-05T13:43:56Z</time>
      </trkpt>
      <trkpt lat="42.447721000" lon="-2.499831000">
        <ele>433.40</ele>
        <time>2012-05-05T13:43:58Z</time>
      </trkpt>
      <trkpt lat="42.447845000" lon="-2.499871000">
        <ele>433.10</ele>
        <time>2012-05-05T13:44:00Z</time>
      </trkpt>
      <trkpt lat="42.447900000" lon="-2.499863000">
        <ele>432.90</ele>
        <time>2012-05-05T13:44:00Z</time>
      </trkpt>
      <trkpt lat="42.447956000" lon="-2.499843000">
        <ele>432.70</ele>
        <time>2012-05-05T13:44:01Z</time>
      </trkpt>
      <trkpt lat="42.448013000" lon="-2.499806000">
        <ele>432.40</ele>
        <time>2012-05-05T13:44:03Z</time>
      </trkpt>
      <trkpt lat="42.448065000" lon="-2.499753000">
        <ele>432.20</ele>
        <time>2012-05-05T13:44:03Z</time>
      </trkpt>
      <trkpt lat="42.448106000" lon="-2.499688000">
        <ele>432.00</ele>
        <time>2012-05-05T13:44:05Z</time>
      </trkpt>
      <trkpt lat="42.448293000" lon="-2.499183000">
        <ele>431.80</ele>
        <time>2012-05-05T13:44:14Z</time>
      </trkpt>
      <trkpt lat="42.448323000" lon="-2.499133000">
        <ele>431.70</ele>
        <time>2012-05-05T13:44:14Z</time>
      </trkpt>
      <trkpt lat="42.448356000" lon="-2.499091000">
        <ele>431.60</ele>
        <time>2012-05-05T13:44:15Z</time>
      </trkpt>
      <trkpt lat="42.448518000" lon="-2.498969000">
        <ele>430.60</ele>
        <time>2012-05-05T13:44:19Z</time>
      </trkpt>
      <trkpt lat="42.448555000" lon="-2.498933000">
        <ele>430.20</ele>
        <time>2012-05-05T13:44:21Z</time>
      </trkpt>
      <trkpt lat="42.448695000" lon="-2.498686000">
        <ele>428.90</ele>
        <time>2012-05-05T13:44:26Z</time>
      </trkpt>
      <trkpt lat="42.448748000" lon="-2.498529000">
        <ele>428.20</ele>
        <time>2012-05-05T13:44:29Z</time>
      </trkpt>
      <trkpt lat="42.448756000" lon="-2.498481000">
        <ele>428.10</ele>
        <time>2012-05-05T13:44:29Z</time>
      </trkpt>
      <trkpt lat="42.448753000" lon="-2.498371000">
        <ele>428.00</ele>
        <time>2012-05-05T13:44:31Z</time>
      </trkpt>
      <trkpt lat="42.448758000" lon="-2.498309000">
        <ele>428.00</ele>
        <time>2012-05-05T13:44:33Z</time>
      </trkpt>
      <trkpt lat="42.448781000" lon="-2.498253000">
        <ele>428.00</ele>
        <time>2012-05-05T13:44:33Z</time>
      </trkpt>
      <trkpt lat="42.448821000" lon="-2.498216000">
        <ele>428.00</ele>
        <time>2012-05-05T13:44:35Z</time>
      </trkpt>
      <trkpt lat="42.448870000" lon="-2.498196000">
        <ele>428.00</ele>
        <time>2012-05-05T13:44:36Z</time>
      </trkpt>
      <trkpt lat="42.448970000" lon="-2.498188000">
        <ele>428.10</ele>
        <time>2012-05-05T13:44:38Z</time>
      </trkpt>
      <trkpt lat="42.449136000" lon="-2.498201000">
        <ele>428.20</ele>
        <time>2012-05-05T13:44:41Z</time>
      </trkpt>
      <trkpt lat="42.449171000" lon="-2.498198000">
        <ele>428.20</ele>
        <time>2012-05-05T13:44:43Z</time>
      </trkpt>
      <trkpt lat="42.449246000" lon="-2.498168000">
        <ele>428.30</ele>
        <time>2012-05-05T13:44:45Z</time>
      </trkpt>
      <trkpt lat="42.449741000" lon="-2.497763000">
        <ele>428.60</ele>
        <time>2012-05-05T13:44:57Z</time>
      </trkpt>
      <trkpt lat="42.449785000" lon="-2.497711000">
        <ele>428.20</ele>
        <time>2012-05-05T13:44:57Z</time>
      </trkpt>
      <trkpt lat="42.449821000" lon="-2.497644000">
        <ele>427.80</ele>
        <time>2012-05-05T13:44:59Z</time>
      </trkpt>
      <trkpt lat="42.449898000" lon="-2.497301000">
        <ele>426.40</ele>
        <time>2012-05-05T13:45:02Z</time>
      </trkpt>
      <trkpt lat="42.449955000" lon="-2.496061000">
        <ele>422.10</ele>
        <time>2012-05-05T13:45:15Z</time>
      </trkpt>
      <trkpt lat="42.449926000" lon="-2.495329000">
        <ele>421.60</ele>
        <time>2012-05-05T13:45:22Z</time>
      </trkpt>
      <trkpt lat="42.449946000" lon="-2.495124000">
        <ele>421.50</ele>
        <time>2012-05-05T13:45:23Z</time>
      </trkpt>
      <trkpt lat="42.449973000" lon="-2.495031000">
        <ele>421.50</ele>
        <time>2012-05-05T13:45:25Z</time>
      </trkpt>
      <trkpt lat="42.450013000" lon="-2.494956000">
        <ele>421.50</ele>
        <time>2012-05-05T13:45:25Z</time>
      </trkpt>
      <trkpt lat="42.450065000" lon="-2.494911000">
        <ele>421.40</ele>
        <time>2012-05-05T13:45:27Z</time>
      </trkpt>
      <trkpt lat="42.450120000" lon="-2.494906000">
        <ele>421.40</ele>
        <time>2012-05-05T13:45:27Z</time>
      </trkpt>
      <trkpt lat="42.450170000" lon="-2.494931000">
        <ele>421.30</ele>
        <time>2012-05-05T13:45:29Z</time>
      </trkpt>
      <trkpt lat="42.450213000" lon="-2.494974000">
        <ele>421.30</ele>
        <time>2012-05-05T13:45:30Z</time>
      </trkpt>
      <trkpt lat="42.450263000" lon="-2.495004000">
        <ele>421.20</ele>
        <time>2012-05-05T13:45:30Z</time>
      </trkpt>
      <trkpt lat="42.450316000" lon="-2.495003000">
        <ele>421.10</ele>
        <time>2012-05-05T13:45:32Z</time>
      </trkpt>
      <trkpt lat="42.450363000" lon="-2.494968000">
        <ele>421.10</ele>
        <time>2012-05-05T13:45:32Z</time>
      </trkpt>
      <trkpt lat="42.450395000" lon="-2.494903000">
        <ele>421.00</ele>
        <time>2012-05-05T13:45:34Z</time>
      </trkpt>
      <trkpt lat="42.450891000" lon="-2.493294000">
        <ele>417.80</ele>
        <time>2012-05-05T13:45:53Z</time>
      </trkpt>
      <trkpt lat="42.450906000" lon="-2.493216000">
        <ele>417.80</ele>
        <time>2012-05-05T13:45:55Z</time>
      </trkpt>
      <trkpt lat="42.453006000" lon="-2.486759000">
        <ele>411.70</ele>
        <time>2012-05-05T13:47:17Z</time>
      </trkpt>
      <trkpt lat="42.453021000" lon="-2.486678000">
        <ele>411.60</ele>
        <time>2012-05-05T13:47:18Z</time>
      </trkpt>
      <trkpt lat="42.454178000" lon="-2.481176000">
        <ele>408.50</ele>
        <time>2012-05-05T13:48:31Z</time>
      </trkpt>
      <trkpt lat="42.454203000" lon="-2.481124000">
        <ele>408.50</ele>
        <time>2012-05-05T13:48:33Z</time>
      </trkpt>
      <trkpt lat="42.455000000" lon="-2.479199000">
        <ele>407.60</ele>
        <time>2012-05-05T13:49:06Z</time>
      </trkpt>
      <trkpt lat="42.455245000" lon="-2.477709000">
        <ele>406.40</ele>
        <time>2012-05-05T13:49:27Z</time>
      </trkpt>
      <trkpt lat="42.455256000" lon="-2.477554000">
        <ele>405.90</ele>
        <time>2012-05-05T13:49:29Z</time>
      </trkpt>
      <trkpt lat="42.455270000" lon="-2.477483000">
        <ele>405.70</ele>
        <time>2012-05-05T13:49:29Z</time>
      </trkpt>
      <trkpt lat="42.455296000" lon="-2.477423000">
        <ele>405.50</ele>
        <time>2012-05-05T13:49:31Z</time>
      </trkpt>
      <trkpt lat="42.455331000" lon="-2.477386000">
        <ele>405.30</ele>
        <time>2012-05-05T13:49:31Z</time>
      </trkpt>
      <trkpt lat="42.455608000" lon="-2.477173000">
        <ele>405.00</ele>
        <time>2012-05-05T13:49:38Z</time>
      </trkpt>
      <trkpt lat="42.455688000" lon="-2.477156000">
        <ele>406.30</ele>
        <time>2012-05-05T13:49:41Z</time>
      </trkpt>
      <trkpt lat="42.455905000" lon="-2.476519000">
        <ele>408.10</ele>
        <time>2012-05-05T13:49:57Z</time>
      </trkpt>
      <trkpt lat="42.456033000" lon="-2.475924000">
        <ele>408.80</ele>
        <time>2012-05-05T13:50:11Z</time>
      </trkpt>
      <trkpt lat="42.456141000" lon="-2.475551000">
        <ele>409.20</ele>
        <time>2012-05-05T13:50:19Z</time>
      </trkpt>
      <trkpt lat="42.456228000" lon="-2.475404000">
        <ele>409.70</ele>
        <time>2012-05-05T13:50:25Z</time>
      </trkpt>
      <trkpt lat="42.456246000" lon="-2.475381000">
        <ele>409.70</ele>
        <time>2012-05-05T13:50:25Z</time>
      </trkpt>
      <trkpt lat="42.456283000" lon="-2.475346000">
        <ele>409.90</ele>
        <time>2012-05-05T13:50:28Z</time>
      </trkpt>
      <trkpt lat="42.456318000" lon="-2.475293000">
        <ele>409.90</ele>
        <time>2012-05-05T13:50:30Z</time>
      </trkpt>
      <trkpt lat="42.456346000" lon="-2.475279000">
        <ele>410.00</ele>
        <time>2012-05-05T13:50:33Z</time>
      </trkpt>
      <trkpt lat="42.456361000" lon="-2.475278000">
        <ele>410.10</ele>
        <time>2012-05-05T13:50:33Z</time>
      </trkpt>
      <trkpt lat="42.456398000" lon="-2.475263000">
        <ele>410.20</ele>
        <time>2012-05-05T13:50:37Z</time>
      </trkpt>
      <trkpt lat="42.456411000" lon="-2.475261000">
        <ele>410.30</ele>
        <time>2012-05-05T13:50:37Z</time>
      </trkpt>
      <trkpt lat="42.456425000" lon="-2.475253000">
        <ele>410.30</ele>
        <time>2012-05-05T13:50:39Z</time>
      </trkpt>
      <trkpt lat="42.456440000" lon="-2.475236000">
        <ele>410.30</ele>
        <time>2012-05-05T13:50:40Z</time>
      </trkpt>
      <trkpt lat="42.456451000" lon="-2.475214000">
        <ele>410.40</ele>
        <time>2012-05-05T13:50:40Z</time>
      </trkpt>
      <trkpt lat="42.456461000" lon="-2.475188000">
        <ele>410.40</ele>
        <time>2012-05-05T13:50:42Z</time>
      </trkpt>
      <trkpt lat="42.456466000" lon="-2.475126000">
        <ele>410.30</ele>
        <time>2012-05-05T13:50:44Z</time>
      </trkpt>
      <trkpt lat="42.456475000" lon="-2.475094000">
        <ele>410.20</ele>
        <time>2012-05-05T13:50:44Z</time>
      </trkpt>
      <trkpt lat="42.456525000" lon="-2.475008000">
        <ele>410.10</ele>
        <time>2012-05-05T13:50:47Z</time>
      </trkpt>
      <trkpt lat="42.456541000" lon="-2.474988000">
        <ele>410.10</ele>
        <time>2012-05-05T13:50:49Z</time>
      </trkpt>
      <trkpt lat="42.456563000" lon="-2.474973000">
        <ele>410.20</ele>
        <time>2012-05-05T13:50:49Z</time>
      </trkpt>
      <trkpt lat="42.456616000" lon="-2.474959000">
        <ele>410.30</ele>
        <time>2012-05-05T13:50:51Z</time>
      </trkpt>
      <trkpt lat="42.456643000" lon="-2.474961000">
        <ele>410.40</ele>
        <time>2012-05-05T13:50:53Z</time>
      </trkpt>
      <trkpt lat="42.456725000" lon="-2.474988000">
        <ele>410.70</ele>
        <time>2012-05-05T13:50:56Z</time>
      </trkpt>
      <trkpt lat="42.456753000" lon="-2.474988000">
        <ele>410.90</ele>
        <time>2012-05-05T13:50:56Z</time>
      </trkpt>
      <trkpt lat="42.456810000" lon="-2.474966000">
        <ele>411.10</ele>
        <time>2012-05-05T13:50:58Z</time>
      </trkpt>
      <trkpt lat="42.457196000" lon="-2.474676000">
        <ele>411.30</ele>
        <time>2012-05-05T13:51:10Z</time>
      </trkpt>
      <trkpt lat="42.458285000" lon="-2.473619000">
        <ele>409.20</ele>
        <time>2012-05-05T13:51:29Z</time>
      </trkpt>
      <trkpt lat="42.458378000" lon="-2.473499000">
        <ele>408.90</ele>
        <time>2012-05-05T13:51:33Z</time>
      </trkpt>
      <trkpt lat="42.458458000" lon="-2.473448000">
        <ele>408.70</ele>
        <time>2012-05-05T13:51:36Z</time>
      </trkpt>
      <trkpt lat="42.458563000" lon="-2.473423000">
        <ele>408.50</ele>
        <time>2012-05-05T13:51:38Z</time>
      </trkpt>
      <trkpt lat="42.458603000" lon="-2.473421000">
        <ele>408.40</ele>
        <time>2012-05-05T13:51:40Z</time>
      </trkpt>
      <trkpt lat="42.460345000" lon="-2.474143000">
        <ele>404.50</ele>
        <time>2012-05-05T13:52:13Z</time>
      </trkpt>
      <trkpt lat="42.460378000" lon="-2.474148000">
        <ele>404.30</ele>
        <time>2012-05-05T13:52:13Z</time>
      </trkpt>
      <trkpt lat="42.460431000" lon="-2.474144000">
        <ele>403.70</ele>
        <time>2012-05-05T13:52:16Z</time>
      </trkpt>
      <trkpt lat="42.460463000" lon="-2.474123000">
        <ele>403.50</ele>
        <time>2012-05-05T13:52:18Z</time>
      </trkpt>
      <trkpt lat="42.460480000" lon="-2.474121000">
        <ele>403.30</ele>
        <time>2012-05-05T13:52:21Z</time>
      </trkpt>
      <trkpt lat="42.460485000" lon="-2.474124000">
        <ele>403.30</ele>
        <time>2012-05-05T13:52:23Z</time>
      </trkpt>
      <trkpt lat="42.460490000" lon="-2.474124000">
        <ele>403.30</ele>
        <time>2012-05-05T13:52:23Z</time>
      </trkpt>
      <trkpt lat="42.460546000" lon="-2.474099000">
        <ele>403.30</ele>
        <time>2012-05-05T13:52:27Z</time>
      </trkpt>
      <trkpt lat="42.460580000" lon="-2.474078000">
        <ele>403.20</ele>
        <time>2012-05-05T13:52:28Z</time>
      </trkpt>
      <trkpt lat="42.460615000" lon="-2.474043000">
        <ele>403.10</ele>
        <time>2012-05-05T13:52:28Z</time>
      </trkpt>
      <trkpt lat="42.460641000" lon="-2.473999000">
        <ele>403.10</ele>
        <time>2012-05-05T13:52:30Z</time>
      </trkpt>
      <trkpt lat="42.460728000" lon="-2.473783000">
        <ele>402.70</ele>
        <time>2012-05-05T13:52:35Z</time>
      </trkpt>
      <trkpt lat="42.460768000" lon="-2.473606000">
        <ele>402.50</ele>
        <time>2012-05-05T13:52:39Z</time>
      </trkpt>
      <trkpt lat="42.460808000" lon="-2.473304000">
        <ele>402.20</ele>
        <time>2012-05-05T13:52:46Z</time>
      </trkpt>
      <trkpt lat="42.460851000" lon="-2.473138000">
        <ele>402.10</ele>
        <time>2012-05-05T13:52:49Z</time>
      </trkpt>
      <trkpt lat="42.460888000" lon="-2.473068000">
        <ele>402.10</ele>
        <time>2012-05-05T13:52:51Z</time>
      </trkpt>
      <trkpt lat="42.460911000" lon="-2.473036000">
        <ele>402.00</ele>
        <time>2012-05-05T13:52:53Z</time>
      </trkpt>
      <trkpt lat="42.460938000" lon="-2.473014000">
        <ele>402.00</ele>
        <time>2012-05-05T13:52:53Z</time>
      </trkpt>
      <trkpt lat="42.460970000" lon="-2.473006000">
        <ele>402.00</ele>
        <time>2012-05-05T13:52:54Z</time>
      </trkpt>
      <trkpt lat="42.461103000" lon="-2.473036000">
        <ele>402.00</ele>
        <time>2012-05-05T13:52:58Z</time>
      </trkpt>
      <trkpt lat="42.461758000" lon="-2.473303000">
        <ele>402.80</ele>
        <time>2012-05-05T13:53:21Z</time>
      </trkpt>
      <trkpt lat="42.461770000" lon="-2.473301000">
        <ele>402.80</ele>
        <time>2012-05-05T13:53:22Z</time>
      </trkpt>
      <trkpt lat="42.461785000" lon="-2.473304000">
        <ele>402.90</ele>
        <time>2012-05-05T13:53:24Z</time>
      </trkpt>
      <trkpt lat="42.461791000" lon="-2.473303000">
        <ele>402.90</ele>
        <time>2012-05-05T13:53:24Z</time>
      </trkpt>
      <trkpt lat="42.461798000" lon="-2.473298000">
        <ele>402.90</ele>
        <time>2012-05-05T13:53:26Z</time>
      </trkpt>
      <trkpt lat="42.461805000" lon="-2.473288000">
        <ele>402.90</ele>
        <time>2012-05-05T13:53:26Z</time>
      </trkpt>
      <trkpt lat="42.461810000" lon="-2.473276000">
        <ele>402.90</ele>
        <time>2012-05-05T13:53:28Z</time>
      </trkpt>
      <trkpt lat="42.461808000" lon="-2.473266000">
        <ele>402.90</ele>
        <time>2012-05-05T13:53:29Z</time>
      </trkpt>
      <trkpt lat="42.461776000" lon="-2.473226000">
        <ele>402.90</ele>
        <time>2012-05-05T13:53:31Z</time>
      </trkpt>
      <trkpt lat="42.461723000" lon="-2.473176000">
        <ele>402.80</ele>
        <time>2012-05-05T13:53:33Z</time>
      </trkpt>
      <trkpt lat="42.461706000" lon="-2.473138000">
        <ele>402.70</ele>
        <time>2012-05-05T13:53:35Z</time>
      </trkpt>
      <trkpt lat="42.461705000" lon="-2.473091000">
        <ele>402.70</ele>
        <time>2012-05-05T13:53:36Z</time>
      </trkpt>
      <trkpt lat="42.461713000" lon="-2.473053000">
        <ele>402.60</ele>
        <time>2012-05-05T13:53:36Z</time>
      </trkpt>
      <trkpt lat="42.461726000" lon="-2.473031000">
        <ele>402.60</ele>
        <time>2012-05-05T13:53:38Z</time>
      </trkpt>
      <trkpt lat="42.461733000" lon="-2.473029000">
        <ele>402.60</ele>
        <time>2012-05-05T13:53:38Z</time>
      </trkpt>
      <trkpt lat="42.461736000" lon="-2.473033000">
        <ele>402.60</ele>
        <time>2012-05-05T13:53:40Z</time>
      </trkpt>
      <trkpt lat="42.461738000" lon="-2.473033000">
        <ele>402.60</ele>
        <time>2012-05-05T13:53:40Z</time>
      </trkpt>
      <trkpt lat="42.461741000" lon="-2.473039000">
        <ele>402.60</ele>
        <time>2012-05-05T13:53:43Z</time>
      </trkpt>
      <trkpt lat="42.461751000" lon="-2.473043000">
        <ele>402.60</ele>
        <time>2012-05-05T13:53:45Z</time>
      </trkpt>
      <trkpt lat="42.461756000" lon="-2.473043000">
        <ele>402.60</ele>
        <time>2012-05-05T13:53:50Z</time>
      </trkpt>
      <trkpt lat="42.461756000" lon="-2.473041000">
        <ele>402.60</ele>
        <time>2012-05-05T13:53:52Z</time>
      </trkpt>
      <trkpt lat="42.461758000" lon="-2.473041000">
        <ele>402.70</ele>
        <time>2012-05-05T13:53:54Z</time>
      </trkpt>
      <trkpt lat="42.461758000" lon="-2.473039000">
        <ele>402.70</ele>
        <time>2012-05-05T13:53:54Z</time>
      </trkpt>
      <trkpt lat="42.461760000" lon="-2.473039000">
        <ele>402.70</ele>
        <time>2012-05-05T13:53:55Z</time>
      </trkpt>
      <trkpt lat="42.461761000" lon="-2.473036000">
        <ele>402.70</ele>
        <time>2012-05-05T13:54:01Z</time>
      </trkpt>
      <trkpt lat="42.461763000" lon="-2.473036000">
        <ele>402.70</ele>
        <time>2012-05-05T13:54:01Z</time>
      </trkpt>
      <trkpt lat="42.461766000" lon="-2.473026000">
        <ele>402.70</ele>
        <time>2012-05-05T13:54:16Z</time>
      </trkpt>
      <trkpt lat="42.461766000" lon="-2.473023000">
        <ele>402.70</ele>
        <time>2012-05-05T13:54:18Z</time>
      </trkpt>
      <trkpt lat="42.461766000" lon="-2.473023000">
        <ele>402.70</ele>
        <time>2012-05-05T13:54:20Z</time>
      </trkpt>
      <trkpt lat="42.461766000" lon="-2.473013000">
        <ele>402.60</ele>
        <time>2012-05-05T13:54:34Z</time>
      </trkpt>
      <trkpt lat="42.461768000" lon="-2.473013000">
        <ele>402.60</ele>
        <time>2012-05-05T13:54:35Z</time>
      </trkpt>
      <trkpt lat="42.461768000" lon="-2.473008000">
        <ele>402.60</ele>
        <time>2012-05-05T13:54:41Z</time>
      </trkpt>
      <trkpt lat="42.461770000" lon="-2.473008000">
        <ele>402.60</ele>
        <time>2012-05-05T13:54:44Z</time>
      </trkpt>
      <trkpt lat="42.461771000" lon="-2.473001000">
        <ele>402.60</ele>
        <time>2012-05-05T13:54:51Z</time>
      </trkpt>
      <trkpt lat="42.461776000" lon="-2.472996000">
        <ele>402.60</ele>
        <time>2012-05-05T13:54:55Z</time>
      </trkpt>
      <trkpt lat="42.461785000" lon="-2.472994000">
        <ele>402.60</ele>
        <time>2012-05-05T13:54:58Z</time>
      </trkpt>
      <trkpt lat="42.461788000" lon="-2.472994000">
        <ele>402.70</ele>
        <time>2012-05-05T13:54:58Z</time>
      </trkpt>
      <trkpt lat="42.461790000" lon="-2.472993000">
        <ele>402.70</ele>
        <time>2012-05-05T13:55:00Z</time>
      </trkpt>
      <trkpt lat="42.461791000" lon="-2.472989000">
        <ele>402.70</ele>
        <time>2012-05-05T13:55:05Z</time>
      </trkpt>
      <trkpt lat="42.461795000" lon="-2.472991000">
        <ele>402.70</ele>
        <time>2012-05-05T13:55:10Z</time>
      </trkpt>
      <trkpt lat="42.461798000" lon="-2.472991000">
        <ele>402.70</ele>
        <time>2012-05-05T13:55:19Z</time>
      </trkpt>
      <trkpt lat="42.461798000" lon="-2.472989000">
        <ele>402.70</ele>
        <time>2012-05-05T13:55:19Z</time>
      </trkpt>
      <trkpt lat="42.461801000" lon="-2.472991000">
        <ele>402.70</ele>
        <time>2012-05-05T13:55:21Z</time>
      </trkpt>
      <trkpt lat="42.461801000" lon="-2.472989000">
        <ele>402.70</ele>
        <time>2012-05-05T13:55:23Z</time>
      </trkpt>
      <trkpt lat="42.461803000" lon="-2.472991000">
        <ele>402.70</ele>
        <time>2012-05-05T13:55:26Z</time>
      </trkpt>
      <trkpt lat="42.461801000" lon="-2.473001000">
        <ele>402.70</ele>
        <time>2012-05-05T13:55:50Z</time>
      </trkpt>
      <trkpt lat="42.461803000" lon="-2.473004000">
        <ele>402.70</ele>
        <time>2012-05-05T13:55:56Z</time>
      </trkpt>
      <trkpt lat="42.461811000" lon="-2.473011000">
        <ele>402.00</ele>
        <time>2012-05-05T13:56:01Z</time>
      </trkpt>
      <trkpt lat="42.461813000" lon="-2.473013000">
        <ele>402.70</ele>
        <time>2012-05-05T13:56:04Z</time>
      </trkpt>
      <trkpt lat="42.461813000" lon="-2.473014000">
        <ele>402.70</ele>
        <time>2012-05-05T13:56:04Z</time>
      </trkpt>
      <trkpt lat="42.461815000" lon="-2.473014000">
        <ele>402.70</ele>
        <time>2012-05-05T13:56:08Z</time>
      </trkpt>
      <trkpt lat="42.461813000" lon="-2.473016000">
        <ele>402.70</ele>
        <time>2012-05-05T13:56:10Z</time>
      </trkpt>
      <trkpt lat="42.461813000" lon="-2.473014000">
        <ele>402.70</ele>
        <time>2012-05-05T13:56:11Z</time>
      </trkpt>
      <trkpt lat="42.461806000" lon="-2.473028000">
        <ele>402.70</ele>
        <time>2012-05-05T13:56:18Z</time>
      </trkpt>
      <trkpt lat="42.461810000" lon="-2.473026000">
        <ele>402.70</ele>
        <time>2012-05-05T13:56:22Z</time>
      </trkpt>
      <trkpt lat="42.461810000" lon="-2.473024000">
        <ele>402.70</ele>
        <time>2012-05-05T13:56:23Z</time>
      </trkpt>
      <trkpt lat="42.461808000" lon="-2.473028000">
        <ele>402.70</ele>
        <time>2012-05-05T13:56:29Z</time>
      </trkpt>
      <trkpt lat="42.461805000" lon="-2.473029000">
        <ele>402.70</ele>
        <time>2012-05-05T13:56:34Z</time>
      </trkpt>
      <trkpt lat="42.461803000" lon="-2.473019000">
        <ele>402.70</ele>
        <time>2012-05-05T13:56:39Z</time>
      </trkpt>
      <trkpt lat="42.461801000" lon="-2.473018000">
        <ele>402.70</ele>
        <time>2012-05-05T13:56:39Z</time>
      </trkpt>
      <trkpt lat="42.461800000" lon="-2.473011000">
        <ele>402.70</ele>
        <time>2012-05-05T13:56:44Z</time>
      </trkpt>
      <trkpt lat="42.461796000" lon="-2.473004000">
        <ele>402.70</ele>
        <time>2012-05-05T13:56:48Z</time>
      </trkpt>
      <trkpt lat="42.461793000" lon="-2.472989000">
        <ele>402.70</ele>
        <time>2012-05-05T13:56:53Z</time>
      </trkpt>
      <trkpt lat="42.461791000" lon="-2.472988000">
        <ele>402.70</ele>
        <time>2012-05-05T13:56:55Z</time>
      </trkpt>
      <trkpt lat="42.461790000" lon="-2.472981000">
        <ele>402.70</ele>
        <time>2012-05-05T13:56:58Z</time>
      </trkpt>
      <trkpt lat="42.461788000" lon="-2.472981000">
        <ele>402.60</ele>
        <time>2012-05-05T13:56:58Z</time>
      </trkpt>
      <trkpt lat="42.461783000" lon="-2.472979000">
        <ele>402.60</ele>
        <time>2012-05-05T13:57:05Z</time>
      </trkpt>
      <trkpt lat="42.461780000" lon="-2.472991000">
        <ele>402.60</ele>
        <time>2012-05-05T13:57:14Z</time>
      </trkpt>
      <trkpt lat="42.461781000" lon="-2.472998000">
        <ele>402.60</ele>
        <time>2012-05-05T13:57:21Z</time>
      </trkpt>
      <trkpt lat="42.461781000" lon="-2.472999000">
        <ele>402.70</ele>
        <time>2012-05-05T13:57:24Z</time>
      </trkpt>
      <trkpt lat="42.461783000" lon="-2.473006000">
        <ele>402.70</ele>
        <time>2012-05-05T13:57:35Z</time>
      </trkpt>
      <trkpt lat="42.461781000" lon="-2.473008000">
        <ele>402.70</ele>
        <time>2012-05-05T13:57:37Z</time>
      </trkpt>
      <trkpt lat="42.461780000" lon="-2.473016000">
        <ele>402.70</ele>
        <time>2012-05-05T13:57:47Z</time>
      </trkpt>
      <trkpt lat="42.461773000" lon="-2.473026000">
        <ele>402.70</ele>
        <time>2012-05-05T13:57:59Z</time>
      </trkpt>
      <trkpt lat="42.461773000" lon="-2.473028000">
        <ele>402.70</ele>
        <time>2012-05-05T13:58:03Z</time>
      </trkpt>
      <trkpt lat="42.461771000" lon="-2.473028000">
        <ele>402.70</ele>
        <time>2012-05-05T13:58:03Z</time>
      </trkpt>
      <trkpt lat="42.461770000" lon="-2.473033000">
        <ele>402.70</ele>
        <time>2012-05-05T13:58:15Z</time>
      </trkpt>
      <trkpt lat="42.461768000" lon="-2.473033000">
        <ele>402.70</ele>
        <time>2012-05-05T13:58:18Z</time>
      </trkpt>
      <trkpt lat="42.461768000" lon="-2.473036000">
        <ele>402.70</ele>
        <time>2012-05-05T13:58:27Z</time>
      </trkpt>
      <trkpt lat="42.461766000" lon="-2.473036000">
        <ele>402.70</ele>
        <time>2012-05-05T13:58:31Z</time>
      </trkpt>
      <trkpt lat="42.461765000" lon="-2.473044000">
        <ele>402.70</ele>
        <time>2012-05-05T13:58:46Z</time>
      </trkpt>
      <trkpt lat="42.461763000" lon="-2.473044000">
        <ele>402.70</ele>
        <time>2012-05-05T13:58:50Z</time>
      </trkpt>
      <trkpt lat="42.461766000" lon="-2.473044000">
        <ele>402.70</ele>
        <time>2012-05-05T13:58:53Z</time>
      </trkpt>
      <trkpt lat="42.461761000" lon="-2.473029000">
        <ele>402.70</ele>
        <time>2012-05-05T13:58:55Z</time>
      </trkpt>
      <trkpt lat="42.461760000" lon="-2.473026000">
        <ele>402.60</ele>
        <time>2012-05-05T13:58:57Z</time>
      </trkpt>
      <trkpt lat="42.461760000" lon="-2.473019000">
        <ele>402.60</ele>
        <time>2012-05-05T13:59:00Z</time>
      </trkpt>
      <trkpt lat="42.461760000" lon="-2.473021000">
        <ele>402.60</ele>
        <time>2012-05-05T13:59:00Z</time>
      </trkpt>
      <trkpt lat="42.461763000" lon="-2.473023000">
        <ele>402.60</ele>
        <time>2012-05-05T13:59:04Z</time>
      </trkpt>
      <trkpt lat="42.461763000" lon="-2.473024000">
        <ele>402.60</ele>
        <time>2012-05-05T13:59:04Z</time>
      </trkpt>
      <trkpt lat="42.461769000" lon="-2.473024000">
        <ele>402.00</ele>
        <time>2012-05-05T13:59:07Z</time>
      </trkpt>
      <trkpt lat="42.461771000" lon="-2.473024000">
        <ele>402.70</ele>
        <time>2012-05-05T13:59:09Z</time>
      </trkpt>
      <trkpt lat="42.461773000" lon="-2.473023000">
        <ele>402.70</ele>
        <time>2012-05-05T13:59:12Z</time>
      </trkpt>
      <trkpt lat="42.461773000" lon="-2.473028000">
        <ele>402.70</ele>
        <time>2012-05-05T13:59:14Z</time>
      </trkpt>
      <trkpt lat="42.461770000" lon="-2.473031000">
        <ele>402.70</ele>
        <time>2012-05-05T13:59:16Z</time>
      </trkpt>
      <trkpt lat="42.461765000" lon="-2.473026000">
        <ele>402.70</ele>
        <time>2012-05-05T13:59:25Z</time>
      </trkpt>
      <trkpt lat="42.461760000" lon="-2.473024000">
        <ele>402.60</ele>
        <time>2012-05-05T13:59:26Z</time>
      </trkpt>
      <trkpt lat="42.461755000" lon="-2.473023000">
        <ele>402.60</ele>
        <time>2012-05-05T13:59:28Z</time>
      </trkpt>
      <trkpt lat="42.461748000" lon="-2.473019000">
        <ele>402.60</ele>
        <time>2012-05-05T13:59:30Z</time>
      </trkpt>
      <trkpt lat="42.461746000" lon="-2.473019000">
        <ele>402.60</ele>
        <time>2012-05-05T13:59:30Z</time>
      </trkpt>
      <trkpt lat="42.461745000" lon="-2.473021000">
        <ele>402.60</ele>
        <time>2012-05-05T13:59:32Z</time>
      </trkpt>
      <trkpt lat="42.461746000" lon="-2.473016000">
        <ele>402.60</ele>
        <time>2012-05-05T13:59:37Z</time>
      </trkpt>
      <trkpt lat="42.461745000" lon="-2.473024000">
        <ele>402.60</ele>
        <time>2012-05-05T13:59:49Z</time>
      </trkpt>
      <trkpt lat="42.461733000" lon="-2.473051000">
        <ele>402.60</ele>
        <time>2012-05-05T13:59:53Z</time>
      </trkpt>
      <trkpt lat="42.461730000" lon="-2.473081000">
        <ele>402.60</ele>
        <time>2012-05-05T13:59:56Z</time>
      </trkpt>
      <trkpt lat="42.461731000" lon="-2.473091000">
        <ele>402.60</ele>
        <time>2012-05-05T13:59:56Z</time>
      </trkpt>
      <trkpt lat="42.461735000" lon="-2.473098000">
        <ele>402.60</ele>
        <time>2012-05-05T13:59:58Z</time>
      </trkpt>
      <trkpt lat="42.461740000" lon="-2.473106000">
        <ele>402.70</ele>
        <time>2012-05-05T13:59:58Z</time>
      </trkpt>
      <trkpt lat="42.461766000" lon="-2.473143000">
        <ele>402.70</ele>
        <time>2012-05-05T14:00:01Z</time>
      </trkpt>
      <trkpt lat="42.461798000" lon="-2.473198000">
        <ele>402.80</ele>
        <time>2012-05-05T14:00:05Z</time>
      </trkpt>
      <trkpt lat="42.461810000" lon="-2.473211000">
        <ele>402.80</ele>
        <time>2012-05-05T14:00:05Z</time>
      </trkpt>
      <trkpt lat="42.461845000" lon="-2.473239000">
        <ele>402.90</ele>
        <time>2012-05-05T14:00:08Z</time>
      </trkpt>
      <trkpt lat="42.461868000" lon="-2.473251000">
        <ele>403.00</ele>
        <time>2012-05-05T14:00:10Z</time>
      </trkpt>
      <trkpt lat="42.461883000" lon="-2.473254000">
        <ele>403.00</ele>
        <time>2012-05-05T14:00:12Z</time>
      </trkpt>
      <trkpt lat="42.461898000" lon="-2.473253000">
        <ele>403.00</ele>
        <time>2012-05-05T14:00:12Z</time>
      </trkpt>
      <trkpt lat="42.461913000" lon="-2.473244000">
        <ele>403.00</ele>
        <time>2012-05-05T14:00:13Z</time>
      </trkpt>
      <trkpt lat="42.461925000" lon="-2.473233000">
        <ele>403.00</ele>
        <time>2012-05-05T14:00:15Z</time>
      </trkpt>
      <trkpt lat="42.461933000" lon="-2.473216000">
        <ele>403.10</ele>
        <time>2012-05-05T14:00:15Z</time>
      </trkpt>
      <trkpt lat="42.461955000" lon="-2.473186000">
        <ele>403.10</ele>
        <time>2012-05-05T14:00:17Z</time>
      </trkpt>
      <trkpt lat="42.461963000" lon="-2.473168000">
        <ele>403.10</ele>
        <time>2012-05-05T14:00:19Z</time>
      </trkpt>
      <trkpt lat="42.462033000" lon="-2.472831000">
        <ele>402.80</ele>
        <time>2012-05-05T14:00:31Z</time>
      </trkpt>
      <trkpt lat="42.462071000" lon="-2.472713000">
        <ele>402.70</ele>
        <time>2012-05-05T14:00:36Z</time>
      </trkpt>
      <trkpt lat="42.462076000" lon="-2.472683000">
        <ele>402.70</ele>
        <time>2012-05-05T14:00:36Z</time>
      </trkpt>
      <trkpt lat="42.462086000" lon="-2.472656000">
        <ele>402.70</ele>
        <time>2012-05-05T14:00:38Z</time>
      </trkpt>
      <trkpt lat="42.462108000" lon="-2.472526000">
        <ele>402.50</ele>
        <time>2012-05-05T14:00:41Z</time>
      </trkpt>
      <trkpt lat="42.462883000" lon="-2.469236000">
        <ele>400.20</ele>
        <time>2012-05-05T14:02:00Z</time>
      </trkpt>
      <trkpt lat="42.462888000" lon="-2.469178000">
        <ele>400.10</ele>
        <time>2012-05-05T14:02:01Z</time>
      </trkpt>
      <trkpt lat="42.463208000" lon="-2.467728000">
        <ele>399.60</ele>
        <time>2012-05-05T14:02:28Z</time>
      </trkpt>
      <trkpt lat="42.463213000" lon="-2.467683000">
        <ele>399.60</ele>
        <time>2012-05-05T14:02:29Z</time>
      </trkpt>
      <trkpt lat="42.463206000" lon="-2.467611000">
        <ele>399.60</ele>
        <time>2012-05-05T14:02:31Z</time>
      </trkpt>
      <trkpt lat="42.463181000" lon="-2.467533000">
        <ele>399.60</ele>
        <time>2012-05-05T14:02:33Z</time>
      </trkpt>
      <trkpt lat="42.463158000" lon="-2.467496000">
        <ele>399.60</ele>
        <time>2012-05-05T14:02:33Z</time>
      </trkpt>
      <trkpt lat="42.463128000" lon="-2.467464000">
        <ele>399.50</ele>
        <time>2012-05-05T14:02:35Z</time>
      </trkpt>
      <trkpt lat="42.463050000" lon="-2.467424000">
        <ele>399.40</ele>
        <time>2012-05-05T14:02:36Z</time>
      </trkpt>
      <trkpt lat="42.462463000" lon="-2.467196000">
        <ele>399.00</ele>
        <time>2012-05-05T14:02:50Z</time>
      </trkpt>
      <trkpt lat="42.462428000" lon="-2.467176000">
        <ele>399.00</ele>
        <time>2012-05-05T14:02:52Z</time>
      </trkpt>
      <trkpt lat="42.462400000" lon="-2.467173000">
        <ele>399.00</ele>
        <time>2012-05-05T14:02:52Z</time>
      </trkpt>
      <trkpt lat="42.462368000" lon="-2.467179000">
        <ele>399.00</ele>
        <time>2012-05-05T14:02:54Z</time>
      </trkpt>
      <trkpt lat="42.462331000" lon="-2.467196000">
        <ele>399.00</ele>
        <time>2012-05-05T14:02:54Z</time>
      </trkpt>
      <trkpt lat="42.462283000" lon="-2.467203000">
        <ele>399.00</ele>
        <time>2012-05-05T14:02:55Z</time>
      </trkpt>
      <trkpt lat="42.462230000" lon="-2.467184000">
        <ele>399.00</ele>
        <time>2012-05-05T14:02:57Z</time>
      </trkpt>
      <trkpt lat="42.462180000" lon="-2.467133000">
        <ele>399.00</ele>
        <time>2012-05-05T14:02:57Z</time>
      </trkpt>
      <trkpt lat="42.462146000" lon="-2.467054000">
        <ele>398.90</ele>
        <time>2012-05-05T14:02:59Z</time>
      </trkpt>
      <trkpt lat="42.462141000" lon="-2.466966000">
        <ele>398.90</ele>
        <time>2012-05-05T14:02:59Z</time>
      </trkpt>
      <trkpt lat="42.462163000" lon="-2.466889000">
        <ele>398.80</ele>
        <time>2012-05-05T14:03:01Z</time>
      </trkpt>
      <trkpt lat="42.462265000" lon="-2.466696000">
        <ele>398.70</ele>
        <time>2012-05-05T14:03:04Z</time>
      </trkpt>
      <trkpt lat="42.462283000" lon="-2.466623000">
        <ele>398.60</ele>
        <time>2012-05-05T14:03:04Z</time>
      </trkpt>
      <trkpt lat="42.462781000" lon="-2.464603000">
        <ele>397.10</ele>
        <time>2012-05-05T14:03:36Z</time>
      </trkpt>
      <trkpt lat="42.462773000" lon="-2.464548000">
        <ele>397.00</ele>
        <time>2012-05-05T14:03:37Z</time>
      </trkpt>
      <trkpt lat="42.462750000" lon="-2.464503000">
        <ele>396.90</ele>
        <time>2012-05-05T14:03:37Z</time>
      </trkpt>
      <trkpt lat="42.462718000" lon="-2.464474000">
        <ele>396.90</ele>
        <time>2012-05-05T14:03:39Z</time>
      </trkpt>
      <trkpt lat="42.461270000" lon="-2.463816000">
        <ele>400.50</ele>
        <time>2012-05-05T14:04:12Z</time>
      </trkpt>
      <trkpt lat="42.461231000" lon="-2.463806000">
        <ele>400.60</ele>
        <time>2012-05-05T14:04:14Z</time>
      </trkpt>
      <trkpt lat="42.461091000" lon="-2.463819000">
        <ele>400.90</ele>
        <time>2012-05-05T14:04:17Z</time>
      </trkpt>
      <trkpt lat="42.461060000" lon="-2.463831000">
        <ele>401.00</ele>
        <time>2012-05-05T14:04:19Z</time>
      </trkpt>
      <trkpt lat="42.461038000" lon="-2.463851000">
        <ele>401.00</ele>
        <time>2012-05-05T14:04:19Z</time>
      </trkpt>
      <trkpt lat="42.461020000" lon="-2.463893000">
        <ele>401.00</ele>
        <time>2012-05-05T14:04:21Z</time>
      </trkpt>
      <trkpt lat="42.461013000" lon="-2.463923000">
        <ele>401.00</ele>
        <time>2012-05-05T14:04:24Z</time>
      </trkpt>
      <trkpt lat="42.461015000" lon="-2.463921000">
        <ele>401.00</ele>
        <time>2012-05-05T14:04:24Z</time>
      </trkpt>
      <trkpt lat="42.461026000" lon="-2.463924000">
        <ele>401.00</ele>
        <time>2012-05-05T14:04:26Z</time>
      </trkpt>
      <trkpt lat="42.461028000" lon="-2.463926000">
        <ele>401.00</ele>
        <time>2012-05-05T14:04:28Z</time>
      </trkpt>
      <trkpt lat="42.461035000" lon="-2.463926000">
        <ele>401.00</ele>
        <time>2012-05-05T14:04:31Z</time>
      </trkpt>
    </trkseg>
  </trk>
</gpx>
